<?xml version='1.0' encoding='UTF-8'?><gpx version="1.1" creator="JPX - https://github.com/jenetics/jpx" xmlns="http://www.topografix.com/GPX/1/1"><trk><trkseg><trkpt lat="43.4219755" lon="11.1812419"><ele>174.0</ele><time>2026-05-01T06:57:38.7Z</time></trkpt><trkpt lat="43.4220385" lon="11.1812412"><ele>174.0</ele><time>2026-05-01T06:58:19.686Z</time></trkpt><trkpt lat="43.4220869" lon="11.1811772"><ele>174.0</ele><time>2026-05-01T06:58:23.688Z</time></trkpt><trkpt lat="43.4221562" lon="11.1811638"><ele>174.0</ele><time>2026-05-01T06:58:30.611Z</time></trkpt><trkpt lat="43.4222165" lon="11.1811325"><ele>174.0</ele><time>2026-05-01T06:58:35.612Z</time></trkpt><trkpt lat="43.4222643" lon="11.1812081"><ele>174.0</ele><time>2026-05-01T06:58:40.595Z</time></trkpt><trkpt lat="43.422281" lon="11.1813224"><ele>174.0</ele><time>2026-05-01T06:58:44.679Z</time></trkpt><trkpt lat="43.4222962" lon="11.1814634"><ele>174.14285714285714</ele><time>2026-05-01T06:58:47.591Z</time></trkpt><trkpt lat="43.4223211" lon="11.1815629"><ele>174.28571428571428</ele><time>2026-05-01T06:58:49.693Z</time></trkpt><trkpt lat="43.4223372" lon="11.1816582"><ele>174.42857142857144</ele><time>2026-05-01T06:58:51.621Z</time></trkpt><trkpt lat="43.4222852" lon="11.1817351"><ele>174.57142857142856</ele><time>2026-05-01T06:58:55.624Z</time></trkpt><trkpt lat="43.422227" lon="11.1817987"><ele>174.71428571428572</ele><time>2026-05-01T06:58:58.606Z</time></trkpt><trkpt lat="43.4221736" lon="11.1818518"><ele>174.85714285714286</ele><time>2026-05-01T06:59:01.589Z</time></trkpt><trkpt lat="43.422125" lon="11.1819373"><ele>175.0</ele><time>2026-05-01T06:59:04.624Z</time></trkpt><trkpt lat="43.4220713" lon="11.1819974"><ele>175.0</ele><time>2026-05-01T06:59:07.618Z</time></trkpt><trkpt lat="43.4220498" lon="11.1820887"><ele>175.0</ele><time>2026-05-01T06:59:11.625Z</time></trkpt><trkpt lat="43.4220661" lon="11.1821939"><ele>175.0</ele><time>2026-05-01T06:59:14.624Z</time></trkpt><trkpt lat="43.422029" lon="11.1821196"><ele>175.0</ele><time>2026-05-01T06:59:22.617Z</time></trkpt><trkpt lat="43.4219406" lon="11.1821354"><ele>175.0</ele><time>2026-05-01T06:59:25.622Z</time></trkpt><trkpt lat="43.4218574" lon="11.1821597"><ele>175.0</ele><time>2026-05-01T06:59:28.608Z</time></trkpt><trkpt lat="43.4217935" lon="11.1822357"><ele>175.0</ele><time>2026-05-01T06:59:31.614Z</time></trkpt><trkpt lat="43.4217267" lon="11.1823171"><ele>175.0</ele><time>2026-05-01T06:59:34.609Z</time></trkpt><trkpt lat="43.4216609" lon="11.1823925"><ele>175.0</ele><time>2026-05-01T06:59:37.599Z</time></trkpt><trkpt lat="43.4215829" lon="11.1824591"><ele>175.0</ele><time>2026-05-01T06:59:40.616Z</time></trkpt><trkpt lat="43.4215121" lon="11.1824913"><ele>175.0</ele><time>2026-05-01T06:59:43.595Z</time></trkpt><trkpt lat="43.4214434" lon="11.1824515"><ele>175.0</ele><time>2026-05-01T06:59:46.619Z</time></trkpt><trkpt lat="43.4213894" lon="11.1823789"><ele>175.0</ele><time>2026-05-01T06:59:49.617Z</time></trkpt><trkpt lat="43.4213417" lon="11.1822923"><ele>175.0</ele><time>2026-05-01T06:59:52.607Z</time></trkpt><trkpt lat="43.4212923" lon="11.1821836"><ele>175.0</ele><time>2026-05-01T06:59:55.616Z</time></trkpt><trkpt lat="43.4212459" lon="11.182089"><ele>175.0</ele><time>2026-05-01T06:59:58.612Z</time></trkpt><trkpt lat="43.4212003" lon="11.1819817"><ele>175.0</ele><time>2026-05-01T07:00:01.627Z</time></trkpt><trkpt lat="43.4211562" lon="11.1818673"><ele>175.0</ele><time>2026-05-01T07:00:04.611Z</time></trkpt><trkpt lat="43.4210958" lon="11.1817734"><ele>175.66666666666669</ele><time>2026-05-01T07:00:07.599Z</time></trkpt><trkpt lat="43.4210454" lon="11.1816689"><ele>176.33333333333334</ele><time>2026-05-01T07:00:10.619Z</time></trkpt><trkpt lat="43.4209925" lon="11.1815822"><ele>177.0</ele><time>2026-05-01T07:00:13.611Z</time></trkpt><trkpt lat="43.4209569" lon="11.1815025"><ele>177.66666666666666</ele><time>2026-05-01T07:00:16.607Z</time></trkpt><trkpt lat="43.4209274" lon="11.1814205"><ele>178.33333333333331</ele><time>2026-05-01T07:00:19.611Z</time></trkpt><trkpt lat="43.4208829" lon="11.1813392"><ele>179.0</ele><time>2026-05-01T07:00:22.615Z</time></trkpt><trkpt lat="43.4208051" lon="11.1813316"><ele>179.00000000000003</ele><time>2026-05-01T07:00:25.611Z</time></trkpt><trkpt lat="43.4207239" lon="11.1813571"><ele>179.0</ele><time>2026-05-01T07:00:28.622Z</time></trkpt><trkpt lat="43.4206573" lon="11.1813778"><ele>179.0</ele><time>2026-05-01T07:00:30.595Z</time></trkpt><trkpt lat="43.4205932" lon="11.1814029"><ele>179.0</ele><time>2026-05-01T07:00:32.647Z</time></trkpt><trkpt lat="43.4205274" lon="11.181428"><ele>179.0</ele><time>2026-05-01T07:00:35.594Z</time></trkpt><trkpt lat="43.4204504" lon="11.1814775"><ele>179.00000000000003</ele><time>2026-05-01T07:00:38.678Z</time></trkpt><trkpt lat="43.4203889" lon="11.1815277"><ele>179.0</ele><time>2026-05-01T07:00:41.616Z</time></trkpt><trkpt lat="43.4203164" lon="11.1815978"><ele>179.5</ele><time>2026-05-01T07:00:44.689Z</time></trkpt><trkpt lat="43.4202426" lon="11.1816626"><ele>180.0</ele><time>2026-05-01T07:00:46.606Z</time></trkpt><trkpt lat="43.4202101" lon="11.1817736"><ele>180.5</ele><time>2026-05-01T07:00:49.689Z</time></trkpt><trkpt lat="43.4201854" lon="11.1819009"><ele>181.0</ele><time>2026-05-01T07:00:52.591Z</time></trkpt><trkpt lat="43.4201572" lon="11.1819825"><ele>181.5</ele><time>2026-05-01T07:00:54.614Z</time></trkpt><trkpt lat="43.4200869" lon="11.1820604"><ele>182.0</ele><time>2026-05-01T07:00:57.586Z</time></trkpt><trkpt lat="43.4199947" lon="11.1820695"><ele>182.0</ele><time>2026-05-01T07:01:00.618Z</time></trkpt><trkpt lat="43.4199291" lon="11.1820798"><ele>182.0</ele><time>2026-05-01T07:01:03.609Z</time></trkpt><trkpt lat="43.4199051" lon="11.1821648"><ele>182.0</ele><time>2026-05-01T07:01:06.609Z</time></trkpt><trkpt lat="43.4199041" lon="11.1822837"><ele>182.0</ele><time>2026-05-01T07:01:09.684Z</time></trkpt><trkpt lat="43.4198705" lon="11.1823584"><ele>182.0</ele><time>2026-05-01T07:01:11.596Z</time></trkpt><trkpt lat="43.4198863" lon="11.1824646"><ele>182.0</ele><time>2026-05-01T07:01:13.683Z</time></trkpt><trkpt lat="43.4199027" lon="11.1825886"><ele>181.5</ele><time>2026-05-01T07:01:16.622Z</time></trkpt><trkpt lat="43.4199301" lon="11.1827299"><ele>181.0</ele><time>2026-05-01T07:01:18.677Z</time></trkpt><trkpt lat="43.4199328" lon="11.182861"><ele>180.5</ele><time>2026-05-01T07:01:20.628Z</time></trkpt><trkpt lat="43.419943" lon="11.182976"><ele>180.0</ele><time>2026-05-01T07:01:22.671Z</time></trkpt><trkpt lat="43.4199486" lon="11.1830808"><ele>179.5</ele><time>2026-05-01T07:01:24.681Z</time></trkpt><trkpt lat="43.419935" lon="11.1831688"><ele>179.0</ele><time>2026-05-01T07:01:26.611Z</time></trkpt><trkpt lat="43.4198922" lon="11.183244"><ele>179.0</ele><time>2026-05-01T07:01:29.615Z</time></trkpt><trkpt lat="43.4198034" lon="11.183211"><ele>179.0</ele><time>2026-05-01T07:01:32.628Z</time></trkpt><trkpt lat="43.4197397" lon="11.1831959"><ele>179.0</ele><time>2026-05-01T07:01:34.628Z</time></trkpt><trkpt lat="43.4196742" lon="11.1831749"><ele>179.0</ele><time>2026-05-01T07:01:36.619Z</time></trkpt><trkpt lat="43.4195858" lon="11.1831522"><ele>179.0</ele><time>2026-05-01T07:01:39.682Z</time></trkpt><trkpt lat="43.4195117" lon="11.1831589"><ele>179.0</ele><time>2026-05-01T07:01:41.618Z</time></trkpt><trkpt lat="43.4194467" lon="11.1831521"><ele>179.0</ele><time>2026-05-01T07:01:43.686Z</time></trkpt><trkpt lat="43.4193576" lon="11.1831471"><ele>179.0</ele><time>2026-05-01T07:01:46.617Z</time></trkpt><trkpt lat="43.4192931" lon="11.1831366"><ele>179.0</ele><time>2026-05-01T07:01:48.685Z</time></trkpt><trkpt lat="43.4192045" lon="11.1831304"><ele>179.0</ele><time>2026-05-01T07:01:51.609Z</time></trkpt><trkpt lat="43.4191379" lon="11.1831782"><ele>179.0</ele><time>2026-05-01T07:01:54.681Z</time></trkpt><trkpt lat="43.4191105" lon="11.1832772"><ele>179.0</ele><time>2026-05-01T07:01:57.667Z</time></trkpt><trkpt lat="43.4191258" lon="11.1833936"><ele>179.0</ele><time>2026-05-01T07:01:59.687Z</time></trkpt><trkpt lat="43.4191421" lon="11.1835028"><ele>179.0</ele><time>2026-05-01T07:02:01.608Z</time></trkpt><trkpt lat="43.4191574" lon="11.1836087"><ele>179.0</ele><time>2026-05-01T07:02:03.595Z</time></trkpt><trkpt lat="43.4191468" lon="11.183712"><ele>179.0</ele><time>2026-05-01T07:02:05.609Z</time></trkpt><trkpt lat="43.4191436" lon="11.1838132"><ele>179.0</ele><time>2026-05-01T07:02:07.597Z</time></trkpt><trkpt lat="43.4191211" lon="11.1839187"><ele>179.0</ele><time>2026-05-01T07:02:09.61Z</time></trkpt><trkpt lat="43.4190829" lon="11.1840138"><ele>178.33333333333331</ele><time>2026-05-01T07:02:11.62Z</time></trkpt><trkpt lat="43.4190411" lon="11.1841063"><ele>177.66666666666666</ele><time>2026-05-01T07:02:13.607Z</time></trkpt><trkpt lat="43.4190384" lon="11.1842241"><ele>177.0</ele><time>2026-05-01T07:02:15.594Z</time></trkpt><trkpt lat="43.4191018" lon="11.1843114"><ele>176.33333333333334</ele><time>2026-05-01T07:02:17.679Z</time></trkpt><trkpt lat="43.4190758" lon="11.1843975"><ele>175.66666666666669</ele><time>2026-05-01T07:02:20.598Z</time></trkpt><trkpt lat="43.419142" lon="11.1844769"><ele>175.0</ele><time>2026-05-01T07:02:22.656Z</time></trkpt><trkpt lat="43.4192478" lon="11.1845055"><ele>175.0</ele><time>2026-05-01T07:02:23.682Z</time></trkpt><trkpt lat="43.4193349" lon="11.1845709"><ele>175.0</ele><time>2026-05-01T07:02:25.638Z</time></trkpt><trkpt lat="43.419413" lon="11.1846383"><ele>175.0</ele><time>2026-05-01T07:02:27.666Z</time></trkpt><trkpt lat="43.4194868" lon="11.1846961"><ele>175.0</ele><time>2026-05-01T07:02:29.676Z</time></trkpt><trkpt lat="43.4195645" lon="11.1847745"><ele>175.0</ele><time>2026-05-01T07:02:31.627Z</time></trkpt><trkpt lat="43.4196423" lon="11.1848414"><ele>175.16666666666669</ele><time>2026-05-01T07:02:33.675Z</time></trkpt><trkpt lat="43.4196975" lon="11.184918"><ele>175.33333333333334</ele><time>2026-05-01T07:02:35.589Z</time></trkpt><trkpt lat="43.4197679" lon="11.1849864"><ele>175.5</ele><time>2026-05-01T07:02:37.656Z</time></trkpt><trkpt lat="43.4198396" lon="11.1850558"><ele>175.66666666666666</ele><time>2026-05-01T07:02:39.61Z</time></trkpt><trkpt lat="43.4199076" lon="11.1851194"><ele>175.83333333333331</ele><time>2026-05-01T07:02:41.617Z</time></trkpt><trkpt lat="43.4199762" lon="11.1851729"><ele>176.0</ele><time>2026-05-01T07:02:43.588Z</time></trkpt><trkpt lat="43.4200372" lon="11.1852336"><ele>176.0</ele><time>2026-05-01T07:02:45.61Z</time></trkpt><trkpt lat="43.4200917" lon="11.1853013"><ele>176.0</ele><time>2026-05-01T07:02:47.607Z</time></trkpt><trkpt lat="43.4201408" lon="11.1853749"><ele>176.0</ele><time>2026-05-01T07:02:49.602Z</time></trkpt><trkpt lat="43.4201573" lon="11.1854594"><ele>176.0</ele><time>2026-05-01T07:02:51.595Z</time></trkpt><trkpt lat="43.420145" lon="11.1855445"><ele>176.0</ele><time>2026-05-01T07:02:53.68Z</time></trkpt><trkpt lat="43.420093" lon="11.1856411"><ele>176.0</ele><time>2026-05-01T07:02:56.62Z</time></trkpt><trkpt lat="43.4200369" lon="11.1857388"><ele>176.0</ele><time>2026-05-01T07:02:59.696Z</time></trkpt><trkpt lat="43.4199879" lon="11.1858125"><ele>176.0</ele><time>2026-05-01T07:03:01.613Z</time></trkpt><trkpt lat="43.4199421" lon="11.1858902"><ele>176.0</ele><time>2026-05-01T07:03:03.688Z</time></trkpt><trkpt lat="43.4198968" lon="11.1859716"><ele>176.0</ele><time>2026-05-01T07:03:05.605Z</time></trkpt><trkpt lat="43.4198422" lon="11.1860442"><ele>176.0</ele><time>2026-05-01T07:03:07.651Z</time></trkpt><trkpt lat="43.419781" lon="11.1861423"><ele>176.0</ele><time>2026-05-01T07:03:09.683Z</time></trkpt><trkpt lat="43.4197288" lon="11.1862373"><ele>176.0</ele><time>2026-05-01T07:03:11.607Z</time></trkpt><trkpt lat="43.4196773" lon="11.1863358"><ele>176.0</ele><time>2026-05-01T07:03:13.629Z</time></trkpt><trkpt lat="43.4196204" lon="11.1864312"><ele>176.0</ele><time>2026-05-01T07:03:15.614Z</time></trkpt><trkpt lat="43.4195641" lon="11.1865425"><ele>176.0</ele><time>2026-05-01T07:03:17.616Z</time></trkpt><trkpt lat="43.4194912" lon="11.1866777"><ele>176.0</ele><time>2026-05-01T07:03:19.613Z</time></trkpt><trkpt lat="43.4194213" lon="11.1868164"><ele>175.5</ele><time>2026-05-01T07:03:21.621Z</time></trkpt><trkpt lat="43.4193529" lon="11.1869432"><ele>175.0</ele><time>2026-05-01T07:03:23.622Z</time></trkpt><trkpt lat="43.4192856" lon="11.187076"><ele>174.5</ele><time>2026-05-01T07:03:25.605Z</time></trkpt><trkpt lat="43.4192122" lon="11.1872002"><ele>174.0</ele><time>2026-05-01T07:03:27.647Z</time></trkpt><trkpt lat="43.4191355" lon="11.187327"><ele>173.5</ele><time>2026-05-01T07:03:29.685Z</time></trkpt><trkpt lat="43.4190596" lon="11.1874526"><ele>173.0</ele><time>2026-05-01T07:03:31.612Z</time></trkpt><trkpt lat="43.4189869" lon="11.1875771"><ele>172.5</ele><time>2026-05-01T07:03:33.676Z</time></trkpt><trkpt lat="43.4189199" lon="11.1877091"><ele>172.0</ele><time>2026-05-01T07:03:35.62Z</time></trkpt><trkpt lat="43.4188496" lon="11.1878347"><ele>172.0</ele><time>2026-05-01T07:03:37.668Z</time></trkpt><trkpt lat="43.4187946" lon="11.1879548"><ele>172.0</ele><time>2026-05-01T07:03:39.69Z</time></trkpt><trkpt lat="43.4187188" lon="11.1880566"><ele>172.0</ele><time>2026-05-01T07:03:41.604Z</time></trkpt><trkpt lat="43.4186519" lon="11.1881586"><ele>172.0</ele><time>2026-05-01T07:03:43.672Z</time></trkpt><trkpt lat="43.4185906" lon="11.1882472"><ele>172.0</ele><time>2026-05-01T07:03:45.607Z</time></trkpt><trkpt lat="43.4185275" lon="11.1883538"><ele>171.39999999999998</ele><time>2026-05-01T07:03:47.659Z</time></trkpt><trkpt lat="43.4184551" lon="11.1884828"><ele>170.79999999999998</ele><time>2026-05-01T07:03:49.617Z</time></trkpt><trkpt lat="43.4183854" lon="11.188571"><ele>170.2</ele><time>2026-05-01T07:03:51.624Z</time></trkpt><trkpt lat="43.4183026" lon="11.1886201"><ele>169.6</ele><time>2026-05-01T07:03:53.623Z</time></trkpt><trkpt lat="43.418217" lon="11.1886522"><ele>169.0</ele><time>2026-05-01T07:03:55.613Z</time></trkpt><trkpt lat="43.4181363" lon="11.1886981"><ele>169.0</ele><time>2026-05-01T07:03:57.611Z</time></trkpt><trkpt lat="43.4180768" lon="11.1887792"><ele>169.0</ele><time>2026-05-01T07:03:59.674Z</time></trkpt><trkpt lat="43.4180083" lon="11.1888639"><ele>169.0</ele><time>2026-05-01T07:04:01.603Z</time></trkpt><trkpt lat="43.4180049" lon="11.1889999"><ele>169.0</ele><time>2026-05-01T07:04:03.609Z</time></trkpt><trkpt lat="43.4180348" lon="11.1891204"><ele>169.0</ele><time>2026-05-01T07:04:05.597Z</time></trkpt><trkpt lat="43.4180484" lon="11.1892326"><ele>169.2</ele><time>2026-05-01T07:04:07.608Z</time></trkpt><trkpt lat="43.4180701" lon="11.1893702"><ele>169.39999999999998</ele><time>2026-05-01T07:04:09.681Z</time></trkpt><trkpt lat="43.4180641" lon="11.1895143"><ele>169.6</ele><time>2026-05-01T07:04:11.615Z</time></trkpt><trkpt lat="43.4180603" lon="11.1896551"><ele>169.8</ele><time>2026-05-01T07:04:13.678Z</time></trkpt><trkpt lat="43.4180386" lon="11.1897699"><ele>170.0</ele><time>2026-05-01T07:04:15.591Z</time></trkpt><trkpt lat="43.4180056" lon="11.1898847"><ele>170.66666666666666</ele><time>2026-05-01T07:04:17.668Z</time></trkpt><trkpt lat="43.417969" lon="11.1899832"><ele>171.33333333333331</ele><time>2026-05-01T07:04:19.682Z</time></trkpt><trkpt lat="43.4179344" lon="11.1900781"><ele>172.0</ele><time>2026-05-01T07:04:21.616Z</time></trkpt><trkpt lat="43.4179052" lon="11.1901785"><ele>172.66666666666666</ele><time>2026-05-01T07:04:23.606Z</time></trkpt><trkpt lat="43.41787" lon="11.1902743"><ele>173.33333333333334</ele><time>2026-05-01T07:04:25.614Z</time></trkpt><trkpt lat="43.4178331" lon="11.1903674"><ele>174.0</ele><time>2026-05-01T07:04:27.625Z</time></trkpt><trkpt lat="43.4178005" lon="11.1904505"><ele>174.0</ele><time>2026-05-01T07:04:29.618Z</time></trkpt><trkpt lat="43.4177696" lon="11.1905367"><ele>174.0</ele><time>2026-05-01T07:04:31.61Z</time></trkpt><trkpt lat="43.4177401" lon="11.1906235"><ele>174.0</ele><time>2026-05-01T07:04:33.609Z</time></trkpt><trkpt lat="43.4177036" lon="11.1907169"><ele>174.0</ele><time>2026-05-01T07:04:35.622Z</time></trkpt><trkpt lat="43.4176731" lon="11.1908114"><ele>174.0</ele><time>2026-05-01T07:04:37.687Z</time></trkpt><trkpt lat="43.4176397" lon="11.1909037"><ele>174.0</ele><time>2026-05-01T07:04:39.671Z</time></trkpt><trkpt lat="43.4176103" lon="11.1909917"><ele>174.0</ele><time>2026-05-01T07:04:41.624Z</time></trkpt><trkpt lat="43.4175729" lon="11.1910695"><ele>174.0</ele><time>2026-05-01T07:04:43.679Z</time></trkpt><trkpt lat="43.4175021" lon="11.1911544"><ele>174.0</ele><time>2026-05-01T07:04:45.617Z</time></trkpt><trkpt lat="43.4174811" lon="11.1912564"><ele>174.0</ele><time>2026-05-01T07:04:47.662Z</time></trkpt><trkpt lat="43.4174406" lon="11.191361"><ele>174.0</ele><time>2026-05-01T07:04:49.685Z</time></trkpt><trkpt lat="43.417394" lon="11.1914845"><ele>174.0</ele><time>2026-05-01T07:04:51.605Z</time></trkpt><trkpt lat="43.4173387" lon="11.1916324"><ele>174.0</ele><time>2026-05-01T07:04:53.609Z</time></trkpt><trkpt lat="43.4172746" lon="11.1917821"><ele>174.0</ele><time>2026-05-01T07:04:55.595Z</time></trkpt><trkpt lat="43.4172264" lon="11.1918581"><ele>174.0</ele><time>2026-05-01T07:04:56.606Z</time></trkpt><trkpt lat="43.4171945" lon="11.1919495"><ele>174.0</ele><time>2026-05-01T07:04:57.664Z</time></trkpt><trkpt lat="43.4171711" lon="11.1920526"><ele>174.0</ele><time>2026-05-01T07:04:58.615Z</time></trkpt><trkpt lat="43.4171437" lon="11.1921545"><ele>174.0</ele><time>2026-05-01T07:04:59.613Z</time></trkpt><trkpt lat="43.4171106" lon="11.1922554"><ele>173.5</ele><time>2026-05-01T07:05:00.626Z</time></trkpt><trkpt lat="43.4170837" lon="11.1923571"><ele>173.0</ele><time>2026-05-01T07:05:01.613Z</time></trkpt><trkpt lat="43.4170575" lon="11.1924656"><ele>172.5</ele><time>2026-05-01T07:05:02.613Z</time></trkpt><trkpt lat="43.4170331" lon="11.1925799"><ele>172.0</ele><time>2026-05-01T07:05:03.597Z</time></trkpt><trkpt lat="43.4170165" lon="11.192699"><ele>171.5</ele><time>2026-05-01T07:05:04.621Z</time></trkpt><trkpt lat="43.4170056" lon="11.1928161"><ele>171.0</ele><time>2026-05-01T07:05:05.617Z</time></trkpt><trkpt lat="43.4170014" lon="11.192933"><ele>171.0</ele><time>2026-05-01T07:05:06.613Z</time></trkpt><trkpt lat="43.4169932" lon="11.1930465"><ele>171.0</ele><time>2026-05-01T07:05:07.616Z</time></trkpt><trkpt lat="43.4169856" lon="11.1931568"><ele>171.0</ele><time>2026-05-01T07:05:08.695Z</time></trkpt><trkpt lat="43.4169723" lon="11.1932496"><ele>171.0</ele><time>2026-05-01T07:05:09.685Z</time></trkpt><trkpt lat="43.4169454" lon="11.1933446"><ele>171.0</ele><time>2026-05-01T07:05:10.629Z</time></trkpt><trkpt lat="43.4169059" lon="11.1934416"><ele>171.0</ele><time>2026-05-01T07:05:11.625Z</time></trkpt><trkpt lat="43.416862" lon="11.193516"><ele>170.5</ele><time>2026-05-01T07:05:12.672Z</time></trkpt><trkpt lat="43.4168135" lon="11.1935732"><ele>170.0</ele><time>2026-05-01T07:05:13.682Z</time></trkpt><trkpt lat="43.4167595" lon="11.1936289"><ele>169.5</ele><time>2026-05-01T07:05:14.68Z</time></trkpt><trkpt lat="43.4167074" lon="11.1936841"><ele>169.0</ele><time>2026-05-01T07:05:15.629Z</time></trkpt><trkpt lat="43.4166284" lon="11.1938032"><ele>168.5</ele><time>2026-05-01T07:05:17.674Z</time></trkpt><trkpt lat="43.4165758" lon="11.1939536"><ele>168.0</ele><time>2026-05-01T07:05:19.685Z</time></trkpt><trkpt lat="43.4165333" lon="11.1941168"><ele>167.75</ele><time>2026-05-01T07:05:21.622Z</time></trkpt><trkpt lat="43.4165007" lon="11.1942797"><ele>167.5</ele><time>2026-05-01T07:05:23.681Z</time></trkpt><trkpt lat="43.4165035" lon="11.1944373"><ele>167.25</ele><time>2026-05-01T07:05:25.632Z</time></trkpt><trkpt lat="43.4165138" lon="11.1945883"><ele>167.0</ele><time>2026-05-01T07:05:27.592Z</time></trkpt><trkpt lat="43.4165231" lon="11.1947423"><ele>167.8</ele><time>2026-05-01T07:05:29.703Z</time></trkpt><trkpt lat="43.4165592" lon="11.1948829"><ele>168.6</ele><time>2026-05-01T07:05:31.594Z</time></trkpt><trkpt lat="43.4166192" lon="11.1950143"><ele>169.4</ele><time>2026-05-01T07:05:33.62Z</time></trkpt><trkpt lat="43.4166843" lon="11.1951383"><ele>170.20000000000002</ele><time>2026-05-01T07:05:35.606Z</time></trkpt><trkpt lat="43.4167283" lon="11.1952731"><ele>171.0</ele><time>2026-05-01T07:05:37.615Z</time></trkpt><trkpt lat="43.4167458" lon="11.1954061"><ele>170.99999999999997</ele><time>2026-05-01T07:05:39.604Z</time></trkpt><trkpt lat="43.416743" lon="11.1955318"><ele>171.0</ele><time>2026-05-01T07:05:41.607Z</time></trkpt><trkpt lat="43.4167334" lon="11.19563"><ele>171.0</ele><time>2026-05-01T07:05:43.691Z</time></trkpt><trkpt lat="43.4167239" lon="11.1957196"><ele>171.0</ele><time>2026-05-01T07:05:45.622Z</time></trkpt><trkpt lat="43.4167096" lon="11.1958147"><ele>171.0</ele><time>2026-05-01T07:05:47.663Z</time></trkpt><trkpt lat="43.416693" lon="11.1959034"><ele>170.99999999999997</ele><time>2026-05-01T07:05:49.686Z</time></trkpt><trkpt lat="43.4166529" lon="11.1959763"><ele>171.0</ele><time>2026-05-01T07:05:51.616Z</time></trkpt><trkpt lat="43.4166072" lon="11.1960575"><ele>171.5</ele><time>2026-05-01T07:05:53.683Z</time></trkpt><trkpt lat="43.4165781" lon="11.1961699"><ele>172.0</ele><time>2026-05-01T07:05:55.605Z</time></trkpt><trkpt lat="43.4165389" lon="11.19627"><ele>172.5</ele><time>2026-05-01T07:05:57.61Z</time></trkpt><trkpt lat="43.4165236" lon="11.1963851"><ele>173.0</ele><time>2026-05-01T07:05:59.681Z</time></trkpt><trkpt lat="43.4164786" lon="11.1964825"><ele>173.5</ele><time>2026-05-01T07:06:01.612Z</time></trkpt><trkpt lat="43.4164508" lon="11.1965924"><ele>174.0</ele><time>2026-05-01T07:06:03.684Z</time></trkpt><trkpt lat="43.4164171" lon="11.1966789"><ele>174.33333333333334</ele><time>2026-05-01T07:06:05.627Z</time></trkpt><trkpt lat="43.4163836" lon="11.1967734"><ele>174.66666666666666</ele><time>2026-05-01T07:06:07.674Z</time></trkpt><trkpt lat="43.4163493" lon="11.1968734"><ele>175.0</ele><time>2026-05-01T07:06:09.602Z</time></trkpt><trkpt lat="43.4163062" lon="11.1969597"><ele>175.33333333333331</ele><time>2026-05-01T07:06:11.624Z</time></trkpt><trkpt lat="43.4162606" lon="11.197042"><ele>175.66666666666666</ele><time>2026-05-01T07:06:13.615Z</time></trkpt><trkpt lat="43.4162104" lon="11.1971204"><ele>176.0</ele><time>2026-05-01T07:06:15.614Z</time></trkpt><trkpt lat="43.4161592" lon="11.197196"><ele>176.0</ele><time>2026-05-01T07:06:17.609Z</time></trkpt><trkpt lat="43.4161059" lon="11.1972717"><ele>176.0</ele><time>2026-05-01T07:06:19.688Z</time></trkpt><trkpt lat="43.4160349" lon="11.1973694"><ele>176.0</ele><time>2026-05-01T07:06:21.619Z</time></trkpt><trkpt lat="43.4159855" lon="11.1974483"><ele>176.0</ele><time>2026-05-01T07:06:23.599Z</time></trkpt><trkpt lat="43.4159138" lon="11.1975424"><ele>176.0</ele><time>2026-05-01T07:06:26.618Z</time></trkpt><trkpt lat="43.4158842" lon="11.1976429"><ele>176.0</ele><time>2026-05-01T07:06:28.682Z</time></trkpt><trkpt lat="43.4158389" lon="11.1977203"><ele>176.33333333333331</ele><time>2026-05-01T07:06:30.626Z</time></trkpt><trkpt lat="43.4158088" lon="11.1978163"><ele>176.66666666666666</ele><time>2026-05-01T07:06:32.61Z</time></trkpt><trkpt lat="43.4157746" lon="11.1979012"><ele>177.0</ele><time>2026-05-01T07:06:34.682Z</time></trkpt><trkpt lat="43.4157372" lon="11.1979781"><ele>177.33333333333334</ele><time>2026-05-01T07:06:36.611Z</time></trkpt><trkpt lat="43.4156891" lon="11.1980949"><ele>177.66666666666669</ele><time>2026-05-01T07:06:38.609Z</time></trkpt><trkpt lat="43.4156389" lon="11.1982125"><ele>178.0</ele><time>2026-05-01T07:06:40.623Z</time></trkpt><trkpt lat="43.4155948" lon="11.1983158"><ele>178.0</ele><time>2026-05-01T07:06:42.678Z</time></trkpt><trkpt lat="43.4155261" lon="11.19839"><ele>178.0</ele><time>2026-05-01T07:06:44.61Z</time></trkpt><trkpt lat="43.4155017" lon="11.1984954"><ele>178.0</ele><time>2026-05-01T07:06:46.606Z</time></trkpt><trkpt lat="43.4154674" lon="11.1985997"><ele>178.0</ele><time>2026-05-01T07:06:48.591Z</time></trkpt><trkpt lat="43.415431" lon="11.198693"><ele>178.0</ele><time>2026-05-01T07:06:50.591Z</time></trkpt><trkpt lat="43.4153925" lon="11.1987843"><ele>178.0</ele><time>2026-05-01T07:06:52.614Z</time></trkpt><trkpt lat="43.4153578" lon="11.1988751"><ele>178.83333333333334</ele><time>2026-05-01T07:06:54.623Z</time></trkpt><trkpt lat="43.4153321" lon="11.1989672"><ele>179.66666666666669</ele><time>2026-05-01T07:06:56.588Z</time></trkpt><trkpt lat="43.4153071" lon="11.199059"><ele>180.5</ele><time>2026-05-01T07:06:58.69Z</time></trkpt><trkpt lat="43.4152094" lon="11.1991635"><ele>181.33333333333334</ele><time>2026-05-01T07:07:00.609Z</time></trkpt><trkpt lat="43.4152247" lon="11.1992622"><ele>182.16666666666666</ele><time>2026-05-01T07:07:02.622Z</time></trkpt><trkpt lat="43.4152352" lon="11.1993686"><ele>183.0</ele><time>2026-05-01T07:07:04.633Z</time></trkpt><trkpt lat="43.4152294" lon="11.1994682"><ele>183.0</ele><time>2026-05-01T07:07:06.601Z</time></trkpt><trkpt lat="43.4152192" lon="11.1995796"><ele>183.0</ele><time>2026-05-01T07:07:08.613Z</time></trkpt><trkpt lat="43.4152057" lon="11.1996898"><ele>183.0</ele><time>2026-05-01T07:07:10.597Z</time></trkpt><trkpt lat="43.4151862" lon="11.1998015"><ele>183.0</ele><time>2026-05-01T07:07:12.66Z</time></trkpt><trkpt lat="43.4151647" lon="11.1999129"><ele>183.0</ele><time>2026-05-01T07:07:14.615Z</time></trkpt><trkpt lat="43.4151396" lon="11.2000206"><ele>183.0</ele><time>2026-05-01T07:07:16.612Z</time></trkpt><trkpt lat="43.4151166" lon="11.2001309"><ele>182.83333333333334</ele><time>2026-05-01T07:07:18.687Z</time></trkpt><trkpt lat="43.4150879" lon="11.2002336"><ele>182.66666666666666</ele><time>2026-05-01T07:07:20.621Z</time></trkpt><trkpt lat="43.4150449" lon="11.2003388"><ele>182.5</ele><time>2026-05-01T07:07:22.631Z</time></trkpt><trkpt lat="43.4150088" lon="11.2004485"><ele>182.33333333333331</ele><time>2026-05-01T07:07:24.621Z</time></trkpt><trkpt lat="43.4149761" lon="11.2005537"><ele>182.16666666666666</ele><time>2026-05-01T07:07:26.61Z</time></trkpt><trkpt lat="43.4149402" lon="11.2006534"><ele>182.0</ele><time>2026-05-01T07:07:28.613Z</time></trkpt><trkpt lat="43.4149006" lon="11.2007532"><ele>182.0</ele><time>2026-05-01T07:07:30.627Z</time></trkpt><trkpt lat="43.414858" lon="11.2008537"><ele>182.0</ele><time>2026-05-01T07:07:32.616Z</time></trkpt><trkpt lat="43.4148153" lon="11.200952"><ele>182.0</ele><time>2026-05-01T07:07:34.683Z</time></trkpt><trkpt lat="43.4147587" lon="11.2010335"><ele>182.0</ele><time>2026-05-01T07:07:36.617Z</time></trkpt><trkpt lat="43.4147085" lon="11.2011287"><ele>182.0</ele><time>2026-05-01T07:07:38.621Z</time></trkpt><trkpt lat="43.4146606" lon="11.2012208"><ele>182.0</ele><time>2026-05-01T07:07:40.613Z</time></trkpt><trkpt lat="43.4146105" lon="11.2013154"><ele>182.33333333333331</ele><time>2026-05-01T07:07:42.612Z</time></trkpt><trkpt lat="43.4145507" lon="11.2014044"><ele>182.66666666666666</ele><time>2026-05-01T07:07:44.617Z</time></trkpt><trkpt lat="43.4144976" lon="11.2014929"><ele>183.0</ele><time>2026-05-01T07:07:46.624Z</time></trkpt><trkpt lat="43.4144528" lon="11.2015845"><ele>183.33333333333334</ele><time>2026-05-01T07:07:48.621Z</time></trkpt><trkpt lat="43.4144011" lon="11.2016784"><ele>183.66666666666669</ele><time>2026-05-01T07:07:50.621Z</time></trkpt><trkpt lat="43.4143476" lon="11.2017667"><ele>184.0</ele><time>2026-05-01T07:07:52.619Z</time></trkpt><trkpt lat="43.4142965" lon="11.2018543"><ele>184.0</ele><time>2026-05-01T07:07:54.706Z</time></trkpt><trkpt lat="43.4142429" lon="11.2019507"><ele>184.0</ele><time>2026-05-01T07:07:56.629Z</time></trkpt><trkpt lat="43.4141858" lon="11.2020389"><ele>184.0</ele><time>2026-05-01T07:07:58.606Z</time></trkpt><trkpt lat="43.4141275" lon="11.2021238"><ele>184.0</ele><time>2026-05-01T07:08:00.618Z</time></trkpt><trkpt lat="43.4140659" lon="11.2022012"><ele>184.0</ele><time>2026-05-01T07:08:02.616Z</time></trkpt><trkpt lat="43.414006" lon="11.2022803"><ele>184.0</ele><time>2026-05-01T07:08:04.614Z</time></trkpt><trkpt lat="43.4139491" lon="11.2023527"><ele>184.0</ele><time>2026-05-01T07:08:06.623Z</time></trkpt><trkpt lat="43.4138921" lon="11.2024238"><ele>184.0</ele><time>2026-05-01T07:08:08.614Z</time></trkpt><trkpt lat="43.413828" lon="11.2024758"><ele>184.0</ele><time>2026-05-01T07:08:10.633Z</time></trkpt><trkpt lat="43.4137585" lon="11.202567"><ele>184.0</ele><time>2026-05-01T07:08:12.695Z</time></trkpt><trkpt lat="43.4137053" lon="11.2026411"><ele>184.0</ele><time>2026-05-01T07:08:14.602Z</time></trkpt><trkpt lat="43.4136493" lon="11.2027184"><ele>184.0</ele><time>2026-05-01T07:08:16.621Z</time></trkpt><trkpt lat="43.4135911" lon="11.2027805"><ele>184.79999999999998</ele><time>2026-05-01T07:08:18.693Z</time></trkpt><trkpt lat="43.4134692" lon="11.202938"><ele>185.6</ele><time>2026-05-01T07:08:22.603Z</time></trkpt><trkpt lat="43.4134007" lon="11.2030118"><ele>186.4</ele><time>2026-05-01T07:08:25.617Z</time></trkpt><trkpt lat="43.4133496" lon="11.2030858"><ele>187.2</ele><time>2026-05-01T07:08:27.711Z</time></trkpt><trkpt lat="43.4132967" lon="11.2031608"><ele>188.0</ele><time>2026-05-01T07:08:29.622Z</time></trkpt><trkpt lat="43.4132478" lon="11.2032337"><ele>188.0</ele><time>2026-05-01T07:08:31.62Z</time></trkpt><trkpt lat="43.4131984" lon="11.2033082"><ele>188.0</ele><time>2026-05-01T07:08:33.613Z</time></trkpt><trkpt lat="43.4131401" lon="11.2033826"><ele>188.0</ele><time>2026-05-01T07:08:35.607Z</time></trkpt><trkpt lat="43.4130852" lon="11.2034552"><ele>188.0</ele><time>2026-05-01T07:08:37.617Z</time></trkpt><trkpt lat="43.4130504" lon="11.2035565"><ele>188.0</ele><time>2026-05-01T07:08:39.615Z</time></trkpt><trkpt lat="43.4130218" lon="11.2036654"><ele>188.0</ele><time>2026-05-01T07:08:41.619Z</time></trkpt><trkpt lat="43.4129875" lon="11.2037683"><ele>188.0</ele><time>2026-05-01T07:08:43.612Z</time></trkpt><trkpt lat="43.4129953" lon="11.2038905"><ele>188.0</ele><time>2026-05-01T07:08:45.618Z</time></trkpt><trkpt lat="43.4130478" lon="11.2040005"><ele>188.0</ele><time>2026-05-01T07:08:47.605Z</time></trkpt><trkpt lat="43.4131072" lon="11.2041169"><ele>188.0</ele><time>2026-05-01T07:08:49.701Z</time></trkpt><trkpt lat="43.4131678" lon="11.2042316"><ele>188.0</ele><time>2026-05-01T07:08:51.613Z</time></trkpt><trkpt lat="43.4132274" lon="11.2043511"><ele>187.8</ele><time>2026-05-01T07:08:53.702Z</time></trkpt><trkpt lat="43.4132811" lon="11.2044902"><ele>187.60000000000002</ele><time>2026-05-01T07:08:55.595Z</time></trkpt><trkpt lat="43.4133371" lon="11.2046286"><ele>187.39999999999998</ele><time>2026-05-01T07:08:57.661Z</time></trkpt><trkpt lat="43.4133933" lon="11.204756"><ele>187.2</ele><time>2026-05-01T07:08:59.622Z</time></trkpt><trkpt lat="43.4134605" lon="11.2048474"><ele>187.0</ele><time>2026-05-01T07:09:01.6Z</time></trkpt><trkpt lat="43.4134959" lon="11.2049924"><ele>187.0</ele><time>2026-05-01T07:09:03.702Z</time></trkpt><trkpt lat="43.413547" lon="11.2051417"><ele>187.0</ele><time>2026-05-01T07:09:05.608Z</time></trkpt><trkpt lat="43.4135975" lon="11.205283"><ele>187.0</ele><time>2026-05-01T07:09:07.598Z</time></trkpt><trkpt lat="43.413648" lon="11.2054182"><ele>187.0</ele><time>2026-05-01T07:09:09.609Z</time></trkpt><trkpt lat="43.4136973" lon="11.2055503"><ele>186.8</ele><time>2026-05-01T07:09:11.614Z</time></trkpt><trkpt lat="43.4137473" lon="11.2056748"><ele>186.6</ele><time>2026-05-01T07:09:13.62Z</time></trkpt><trkpt lat="43.4137986" lon="11.2058028"><ele>186.4</ele><time>2026-05-01T07:09:15.621Z</time></trkpt><trkpt lat="43.4138468" lon="11.2059304"><ele>186.20000000000002</ele><time>2026-05-01T07:09:17.618Z</time></trkpt><trkpt lat="43.4138933" lon="11.2060568"><ele>186.0</ele><time>2026-05-01T07:09:19.608Z</time></trkpt><trkpt lat="43.4139411" lon="11.2061807"><ele>186.0</ele><time>2026-05-01T07:09:21.614Z</time></trkpt><trkpt lat="43.4139873" lon="11.2063027"><ele>186.0</ele><time>2026-05-01T07:09:23.614Z</time></trkpt><trkpt lat="43.4140081" lon="11.2064069"><ele>186.0</ele><time>2026-05-01T07:09:25.6Z</time></trkpt><trkpt lat="43.4140608" lon="11.2065246"><ele>186.0</ele><time>2026-05-01T07:09:27.674Z</time></trkpt><trkpt lat="43.4141155" lon="11.2066507"><ele>186.0</ele><time>2026-05-01T07:09:29.6Z</time></trkpt><trkpt lat="43.4141587" lon="11.2067782"><ele>186.0</ele><time>2026-05-01T07:09:31.609Z</time></trkpt><trkpt lat="43.4142199" lon="11.2069063"><ele>186.0</ele><time>2026-05-01T07:09:33.686Z</time></trkpt><trkpt lat="43.4142541" lon="11.2070099"><ele>186.0</ele><time>2026-05-01T07:09:35.626Z</time></trkpt><trkpt lat="43.4143213" lon="11.2071361"><ele>186.0</ele><time>2026-05-01T07:09:37.613Z</time></trkpt><trkpt lat="43.4143688" lon="11.207234"><ele>186.0</ele><time>2026-05-01T07:09:39.702Z</time></trkpt><trkpt lat="43.4144155" lon="11.2073583"><ele>186.0</ele><time>2026-05-01T07:09:41.612Z</time></trkpt><trkpt lat="43.4144573" lon="11.2074895"><ele>186.0</ele><time>2026-05-01T07:09:43.611Z</time></trkpt><trkpt lat="43.4145008" lon="11.2076054"><ele>186.0</ele><time>2026-05-01T07:09:45.605Z</time></trkpt><trkpt lat="43.414546" lon="11.2077115"><ele>186.0</ele><time>2026-05-01T07:09:47.625Z</time></trkpt><trkpt lat="43.4145894" lon="11.2078238"><ele>186.0</ele><time>2026-05-01T07:09:49.624Z</time></trkpt><trkpt lat="43.4146327" lon="11.2079307"><ele>185.83333333333334</ele><time>2026-05-01T07:09:51.623Z</time></trkpt><trkpt lat="43.4146698" lon="11.2080309"><ele>185.66666666666666</ele><time>2026-05-01T07:09:53.586Z</time></trkpt><trkpt lat="43.4147171" lon="11.2081275"><ele>185.5</ele><time>2026-05-01T07:09:55.614Z</time></trkpt><trkpt lat="43.4147456" lon="11.2082264"><ele>185.33333333333331</ele><time>2026-05-01T07:09:57.611Z</time></trkpt><trkpt lat="43.4147716" lon="11.208311"><ele>185.16666666666666</ele><time>2026-05-01T07:09:59.698Z</time></trkpt><trkpt lat="43.4148058" lon="11.2083954"><ele>185.0</ele><time>2026-05-01T07:10:01.631Z</time></trkpt><trkpt lat="43.4148446" lon="11.208485"><ele>184.99999999999997</ele><time>2026-05-01T07:10:03.619Z</time></trkpt><trkpt lat="43.4148833" lon="11.208577"><ele>185.0</ele><time>2026-05-01T07:10:05.613Z</time></trkpt><trkpt lat="43.4149199" lon="11.2086688"><ele>185.0</ele><time>2026-05-01T07:10:07.613Z</time></trkpt><trkpt lat="43.4149513" lon="11.2087586"><ele>185.0</ele><time>2026-05-01T07:10:09.616Z</time></trkpt><trkpt lat="43.4149833" lon="11.2088434"><ele>185.0</ele><time>2026-05-01T07:10:11.629Z</time></trkpt><trkpt lat="43.4150187" lon="11.2089275"><ele>184.99999999999997</ele><time>2026-05-01T07:10:13.62Z</time></trkpt><trkpt lat="43.4150549" lon="11.2090152"><ele>185.0</ele><time>2026-05-01T07:10:15.609Z</time></trkpt><trkpt lat="43.4150949" lon="11.2091092"><ele>184.8</ele><time>2026-05-01T07:10:17.619Z</time></trkpt><trkpt lat="43.4151318" lon="11.2092044"><ele>184.6</ele><time>2026-05-01T07:10:19.613Z</time></trkpt><trkpt lat="43.4151698" lon="11.209307"><ele>184.39999999999998</ele><time>2026-05-01T07:10:21.593Z</time></trkpt><trkpt lat="43.4152198" lon="11.2094198"><ele>184.2</ele><time>2026-05-01T07:10:23.625Z</time></trkpt><trkpt lat="43.4152753" lon="11.2095561"><ele>184.0</ele><time>2026-05-01T07:10:25.614Z</time></trkpt><trkpt lat="43.4153408" lon="11.209702"><ele>184.0</ele><time>2026-05-01T07:10:27.616Z</time></trkpt><trkpt lat="43.4154055" lon="11.2098559"><ele>184.0</ele><time>2026-05-01T07:10:29.701Z</time></trkpt><trkpt lat="43.4154359" lon="11.2099344"><ele>184.0</ele><time>2026-05-01T07:10:30.617Z</time></trkpt><trkpt lat="43.4154699" lon="11.2100168"><ele>184.0</ele><time>2026-05-01T07:10:31.624Z</time></trkpt><trkpt lat="43.4155022" lon="11.2101001"><ele>184.0</ele><time>2026-05-01T07:10:32.612Z</time></trkpt><trkpt lat="43.4155292" lon="11.2101861"><ele>184.0</ele><time>2026-05-01T07:10:33.624Z</time></trkpt><trkpt lat="43.4155535" lon="11.2102757"><ele>184.0</ele><time>2026-05-01T07:10:34.611Z</time></trkpt><trkpt lat="43.4155791" lon="11.2103638"><ele>184.0</ele><time>2026-05-01T07:10:35.613Z</time></trkpt><trkpt lat="43.4156131" lon="11.210447"><ele>184.0</ele><time>2026-05-01T07:10:36.618Z</time></trkpt><trkpt lat="43.4156533" lon="11.210533"><ele>184.0</ele><time>2026-05-01T07:10:37.616Z</time></trkpt><trkpt lat="43.4156977" lon="11.2106275"><ele>184.0</ele><time>2026-05-01T07:10:38.595Z</time></trkpt><trkpt lat="43.4157347" lon="11.2107237"><ele>184.0</ele><time>2026-05-01T07:10:39.606Z</time></trkpt><trkpt lat="43.4157738" lon="11.2108249"><ele>184.16666666666669</ele><time>2026-05-01T07:10:40.632Z</time></trkpt><trkpt lat="43.4158163" lon="11.2109288"><ele>184.33333333333334</ele><time>2026-05-01T07:10:41.618Z</time></trkpt><trkpt lat="43.4158569" lon="11.2110335"><ele>184.5</ele><time>2026-05-01T07:10:42.615Z</time></trkpt><trkpt lat="43.4159017" lon="11.2111376"><ele>184.66666666666666</ele><time>2026-05-01T07:10:43.69Z</time></trkpt><trkpt lat="43.4159424" lon="11.2112332"><ele>184.83333333333331</ele><time>2026-05-01T07:10:44.615Z</time></trkpt><trkpt lat="43.4159843" lon="11.2113337"><ele>185.0</ele><time>2026-05-01T07:10:45.621Z</time></trkpt><trkpt lat="43.416023" lon="11.211436"><ele>185.0</ele><time>2026-05-01T07:10:46.626Z</time></trkpt><trkpt lat="43.4160583" lon="11.2115368"><ele>185.0</ele><time>2026-05-01T07:10:47.631Z</time></trkpt><trkpt lat="43.4160992" lon="11.2116261"><ele>185.0</ele><time>2026-05-01T07:10:48.622Z</time></trkpt><trkpt lat="43.4161594" lon="11.211704"><ele>185.0</ele><time>2026-05-01T07:10:49.694Z</time></trkpt><trkpt lat="43.4162091" lon="11.2117991"><ele>185.0</ele><time>2026-05-01T07:10:50.617Z</time></trkpt><trkpt lat="43.4162456" lon="11.2119136"><ele>185.0</ele><time>2026-05-01T07:10:51.629Z</time></trkpt><trkpt lat="43.4162851" lon="11.212039"><ele>184.0</ele><time>2026-05-01T07:10:52.611Z</time></trkpt><trkpt lat="43.4163334" lon="11.2121623"><ele>183.0</ele><time>2026-05-01T07:10:53.618Z</time></trkpt><trkpt lat="43.4163806" lon="11.2122789"><ele>182.0</ele><time>2026-05-01T07:10:54.615Z</time></trkpt><trkpt lat="43.4164241" lon="11.2123948"><ele>181.0</ele><time>2026-05-01T07:10:55.607Z</time></trkpt><trkpt lat="43.4164654" lon="11.2125077"><ele>180.0</ele><time>2026-05-01T07:10:56.611Z</time></trkpt><trkpt lat="43.4165078" lon="11.2126116"><ele>180.0</ele><time>2026-05-01T07:10:57.614Z</time></trkpt><trkpt lat="43.4165498" lon="11.2127109"><ele>180.0</ele><time>2026-05-01T07:10:58.616Z</time></trkpt><trkpt lat="43.4165887" lon="11.2128111"><ele>180.0</ele><time>2026-05-01T07:10:59.607Z</time></trkpt><trkpt lat="43.4166275" lon="11.2129081"><ele>180.0</ele><time>2026-05-01T07:11:00.62Z</time></trkpt><trkpt lat="43.4166641" lon="11.2129964"><ele>180.0</ele><time>2026-05-01T07:11:01.617Z</time></trkpt><trkpt lat="43.4167023" lon="11.2130818"><ele>180.0</ele><time>2026-05-01T07:11:02.619Z</time></trkpt><trkpt lat="43.4167382" lon="11.2131643"><ele>179.83333333333334</ele><time>2026-05-01T07:11:03.611Z</time></trkpt><trkpt lat="43.4167734" lon="11.2132513"><ele>179.66666666666666</ele><time>2026-05-01T07:11:04.604Z</time></trkpt><trkpt lat="43.4168069" lon="11.2133328"><ele>179.5</ele><time>2026-05-01T07:11:05.606Z</time></trkpt><trkpt lat="43.4168407" lon="11.2134095"><ele>179.33333333333331</ele><time>2026-05-01T07:11:06.624Z</time></trkpt><trkpt lat="43.4168706" lon="11.2134874"><ele>179.16666666666666</ele><time>2026-05-01T07:11:07.616Z</time></trkpt><trkpt lat="43.4169279" lon="11.2136309"><ele>179.0</ele><time>2026-05-01T07:11:09.701Z</time></trkpt><trkpt lat="43.4169871" lon="11.2137794"><ele>179.0</ele><time>2026-05-01T07:11:11.619Z</time></trkpt><trkpt lat="43.4170366" lon="11.2139019"><ele>179.0</ele><time>2026-05-01T07:11:13.596Z</time></trkpt><trkpt lat="43.4170955" lon="11.2140377"><ele>179.0</ele><time>2026-05-01T07:11:15.626Z</time></trkpt><trkpt lat="43.4171575" lon="11.2141654"><ele>179.0</ele><time>2026-05-01T07:11:17.622Z</time></trkpt><trkpt lat="43.417209" lon="11.2142881"><ele>179.0</ele><time>2026-05-01T07:11:19.621Z</time></trkpt><trkpt lat="43.4172521" lon="11.2144224"><ele>178.5</ele><time>2026-05-01T07:11:21.61Z</time></trkpt><trkpt lat="43.4173034" lon="11.2145549"><ele>178.0</ele><time>2026-05-01T07:11:23.61Z</time></trkpt><trkpt lat="43.4173613" lon="11.2146895"><ele>177.5</ele><time>2026-05-01T07:11:25.604Z</time></trkpt><trkpt lat="43.4174178" lon="11.2148287"><ele>177.0</ele><time>2026-05-01T07:11:27.615Z</time></trkpt><trkpt lat="43.4174781" lon="11.2149739"><ele>177.0</ele><time>2026-05-01T07:11:29.705Z</time></trkpt><trkpt lat="43.4175412" lon="11.2151197"><ele>177.0</ele><time>2026-05-01T07:11:31.619Z</time></trkpt><trkpt lat="43.4176037" lon="11.2152643"><ele>177.0</ele><time>2026-05-01T07:11:33.691Z</time></trkpt><trkpt lat="43.417668" lon="11.2154075"><ele>177.0</ele><time>2026-05-01T07:11:35.606Z</time></trkpt><trkpt lat="43.4177262" lon="11.2155578"><ele>177.39999999999998</ele><time>2026-05-01T07:11:37.611Z</time></trkpt><trkpt lat="43.4177862" lon="11.2157032"><ele>177.79999999999998</ele><time>2026-05-01T07:11:39.687Z</time></trkpt><trkpt lat="43.4178364" lon="11.2158266"><ele>178.2</ele><time>2026-05-01T07:11:41.62Z</time></trkpt><trkpt lat="43.4178764" lon="11.2159722"><ele>178.6</ele><time>2026-05-01T07:11:43.672Z</time></trkpt><trkpt lat="43.4179213" lon="11.2160932"><ele>179.0</ele><time>2026-05-01T07:11:45.611Z</time></trkpt><trkpt lat="43.4179632" lon="11.2162144"><ele>179.33333333333331</ele><time>2026-05-01T07:11:47.613Z</time></trkpt><trkpt lat="43.4179996" lon="11.2163245"><ele>179.66666666666666</ele><time>2026-05-01T07:11:49.599Z</time></trkpt><trkpt lat="43.4180234" lon="11.2164281"><ele>180.0</ele><time>2026-05-01T07:11:51.627Z</time></trkpt><trkpt lat="43.4180661" lon="11.2165219"><ele>180.33333333333334</ele><time>2026-05-01T07:11:53.616Z</time></trkpt><trkpt lat="43.4181104" lon="11.216619"><ele>180.66666666666669</ele><time>2026-05-01T07:11:55.612Z</time></trkpt><trkpt lat="43.418152" lon="11.2167107"><ele>181.0</ele><time>2026-05-01T07:11:57.621Z</time></trkpt><trkpt lat="43.4181894" lon="11.2168011"><ele>181.66666666666669</ele><time>2026-05-01T07:11:59.607Z</time></trkpt><trkpt lat="43.4182251" lon="11.2168896"><ele>182.33333333333334</ele><time>2026-05-01T07:12:01.623Z</time></trkpt><trkpt lat="43.4182612" lon="11.2169789"><ele>183.0</ele><time>2026-05-01T07:12:03.698Z</time></trkpt><trkpt lat="43.4182963" lon="11.2170719"><ele>183.66666666666666</ele><time>2026-05-01T07:12:05.617Z</time></trkpt><trkpt lat="43.4183284" lon="11.2171675"><ele>184.33333333333331</ele><time>2026-05-01T07:12:07.658Z</time></trkpt><trkpt lat="43.4183555" lon="11.2172545"><ele>185.0</ele><time>2026-05-01T07:12:09.615Z</time></trkpt><trkpt lat="43.418386" lon="11.2173824"><ele>185.5</ele><time>2026-05-01T07:12:12.625Z</time></trkpt><trkpt lat="43.4184297" lon="11.2174704"><ele>186.0</ele><time>2026-05-01T07:12:14.689Z</time></trkpt><trkpt lat="43.418468" lon="11.2175577"><ele>186.5</ele><time>2026-05-01T07:12:16.618Z</time></trkpt><trkpt lat="43.418509" lon="11.217647"><ele>187.0</ele><time>2026-05-01T07:12:18.61Z</time></trkpt><trkpt lat="43.4185483" lon="11.217734"><ele>187.5</ele><time>2026-05-01T07:12:20.627Z</time></trkpt><trkpt lat="43.4185854" lon="11.2178378"><ele>188.0</ele><time>2026-05-01T07:12:22.614Z</time></trkpt><trkpt lat="43.4186101" lon="11.2179211"><ele>188.0</ele><time>2026-05-01T07:12:24.596Z</time></trkpt><trkpt lat="43.4186547" lon="11.218028"><ele>188.0</ele><time>2026-05-01T07:12:27.618Z</time></trkpt><trkpt lat="43.4186947" lon="11.2181384"><ele>188.0</ele><time>2026-05-01T07:12:30.623Z</time></trkpt><trkpt lat="43.4187356" lon="11.218249"><ele>188.0</ele><time>2026-05-01T07:12:33.604Z</time></trkpt><trkpt lat="43.4187835" lon="11.2183398"><ele>188.0</ele><time>2026-05-01T07:12:36.615Z</time></trkpt><trkpt lat="43.418828" lon="11.2184266"><ele>188.0</ele><time>2026-05-01T07:12:39.616Z</time></trkpt><trkpt lat="43.4188754" lon="11.2185223"><ele>188.5</ele><time>2026-05-01T07:12:42.625Z</time></trkpt><trkpt lat="43.4189288" lon="11.2186154"><ele>189.0</ele><time>2026-05-01T07:12:45.613Z</time></trkpt><trkpt lat="43.4189864" lon="11.2187076"><ele>189.5</ele><time>2026-05-01T07:12:48.675Z</time></trkpt><trkpt lat="43.4190504" lon="11.2187738"><ele>190.0</ele><time>2026-05-01T07:12:51.613Z</time></trkpt><trkpt lat="43.4191012" lon="11.2188306"><ele>190.5</ele><time>2026-05-01T07:12:53.695Z</time></trkpt><trkpt lat="43.4191546" lon="11.218934"><ele>191.0</ele><time>2026-05-01T07:12:56.605Z</time></trkpt><trkpt lat="43.4191892" lon="11.2190116"><ele>191.33333333333331</ele><time>2026-05-01T07:12:58.602Z</time></trkpt><trkpt lat="43.4192303" lon="11.2190782"><ele>191.66666666666666</ele><time>2026-05-01T07:13:00.605Z</time></trkpt><trkpt lat="43.4192696" lon="11.2191469"><ele>192.0</ele><time>2026-05-01T07:13:02.634Z</time></trkpt><trkpt lat="43.4193207" lon="11.2192503"><ele>192.33333333333331</ele><time>2026-05-01T07:13:05.609Z</time></trkpt><trkpt lat="43.4193664" lon="11.2193519"><ele>192.66666666666666</ele><time>2026-05-01T07:13:08.623Z</time></trkpt><trkpt lat="43.419413" lon="11.2194496"><ele>193.0</ele><time>2026-05-01T07:13:11.6Z</time></trkpt><trkpt lat="43.4194579" lon="11.2195571"><ele>193.00000000000003</ele><time>2026-05-01T07:13:14.594Z</time></trkpt><trkpt lat="43.4194905" lon="11.219633"><ele>193.0</ele><time>2026-05-01T07:13:16.623Z</time></trkpt><trkpt lat="43.419512" lon="11.2197195"><ele>193.0</ele><time>2026-05-01T07:13:18.614Z</time></trkpt><trkpt lat="43.4195384" lon="11.2198315"><ele>193.0</ele><time>2026-05-01T07:13:21.612Z</time></trkpt><trkpt lat="43.4195617" lon="11.2199176"><ele>193.0</ele><time>2026-05-01T07:13:23.617Z</time></trkpt><trkpt lat="43.419581" lon="11.2200039"><ele>193.00000000000003</ele><time>2026-05-01T07:13:25.607Z</time></trkpt><trkpt lat="43.4196055" lon="11.2201271"><ele>193.0</ele><time>2026-05-01T07:13:28.687Z</time></trkpt><trkpt lat="43.4196137" lon="11.2202393"><ele>193.2</ele><time>2026-05-01T07:13:31.618Z</time></trkpt><trkpt lat="43.419629" lon="11.2203581"><ele>193.4</ele><time>2026-05-01T07:13:34.612Z</time></trkpt><trkpt lat="43.4196446" lon="11.220476"><ele>193.6</ele><time>2026-05-01T07:13:37.607Z</time></trkpt><trkpt lat="43.4196626" lon="11.2206017"><ele>193.79999999999998</ele><time>2026-05-01T07:13:40.64Z</time></trkpt><trkpt lat="43.4196832" lon="11.2207265"><ele>194.0</ele><time>2026-05-01T07:13:43.614Z</time></trkpt><trkpt lat="43.4196999" lon="11.2208508"><ele>194.57142857142856</ele><time>2026-05-01T07:13:46.623Z</time></trkpt><trkpt lat="43.4197103" lon="11.220938"><ele>195.14285714285717</ele><time>2026-05-01T07:13:48.609Z</time></trkpt><trkpt lat="43.4197202" lon="11.2210246"><ele>195.71428571428572</ele><time>2026-05-01T07:13:50.618Z</time></trkpt><trkpt lat="43.4197337" lon="11.2211095"><ele>196.28571428571428</ele><time>2026-05-01T07:13:52.668Z</time></trkpt><trkpt lat="43.419751" lon="11.221225"><ele>196.85714285714283</ele><time>2026-05-01T07:13:55.617Z</time></trkpt><trkpt lat="43.4197765" lon="11.221329"><ele>197.42857142857144</ele><time>2026-05-01T07:13:58.672Z</time></trkpt><trkpt lat="43.4198265" lon="11.2214321"><ele>198.0</ele><time>2026-05-01T07:14:01.608Z</time></trkpt><trkpt lat="43.4198503" lon="11.2215545"><ele>198.33333333333334</ele><time>2026-05-01T07:14:04.682Z</time></trkpt><trkpt lat="43.4198815" lon="11.2216711"><ele>198.66666666666669</ele><time>2026-05-01T07:14:07.6Z</time></trkpt><trkpt lat="43.4199043" lon="11.2217546"><ele>199.0</ele><time>2026-05-01T07:14:09.676Z</time></trkpt><trkpt lat="43.4199288" lon="11.2218641"><ele>199.33333333333334</ele><time>2026-05-01T07:14:12.62Z</time></trkpt><trkpt lat="43.4199676" lon="11.2219343"><ele>199.66666666666669</ele><time>2026-05-01T07:14:14.604Z</time></trkpt><trkpt lat="43.4200255" lon="11.2220337"><ele>200.0</ele><time>2026-05-01T07:14:17.605Z</time></trkpt><trkpt lat="43.4200695" lon="11.2221009"><ele>200.00000000000003</ele><time>2026-05-01T07:14:19.622Z</time></trkpt><trkpt lat="43.4201148" lon="11.2221627"><ele>200.0</ele><time>2026-05-01T07:14:21.607Z</time></trkpt><trkpt lat="43.4201559" lon="11.2222304"><ele>200.0</ele><time>2026-05-01T07:14:23.699Z</time></trkpt><trkpt lat="43.4201979" lon="11.2223013"><ele>200.0</ele><time>2026-05-01T07:14:25.602Z</time></trkpt><trkpt lat="43.4202435" lon="11.2223761"><ele>200.0</ele><time>2026-05-01T07:14:27.619Z</time></trkpt><trkpt lat="43.4202963" lon="11.2224445"><ele>200.00000000000003</ele><time>2026-05-01T07:14:29.611Z</time></trkpt><trkpt lat="43.4203524" lon="11.2225143"><ele>200.0</ele><time>2026-05-01T07:14:31.616Z</time></trkpt><trkpt lat="43.4204073" lon="11.2225902"><ele>200.00000000000003</ele><time>2026-05-01T07:14:33.599Z</time></trkpt><trkpt lat="43.4204837" lon="11.2226663"><ele>200.0</ele><time>2026-05-01T07:14:35.608Z</time></trkpt><trkpt lat="43.420532" lon="11.2227676"><ele>200.0</ele><time>2026-05-01T07:14:37.602Z</time></trkpt><trkpt lat="43.4205839" lon="11.2228457"><ele>200.0</ele><time>2026-05-01T07:14:39.694Z</time></trkpt><trkpt lat="43.4206418" lon="11.2229164"><ele>200.00000000000003</ele><time>2026-05-01T07:14:41.619Z</time></trkpt><trkpt lat="43.420707" lon="11.2229972"><ele>200.0</ele><time>2026-05-01T07:14:43.612Z</time></trkpt><trkpt lat="43.4207703" lon="11.223085"><ele>200.4</ele><time>2026-05-01T07:14:45.613Z</time></trkpt><trkpt lat="43.4208364" lon="11.2231792"><ele>200.8</ele><time>2026-05-01T07:14:47.61Z</time></trkpt><trkpt lat="43.4209079" lon="11.2232722"><ele>201.2</ele><time>2026-05-01T07:14:49.607Z</time></trkpt><trkpt lat="43.420978" lon="11.223374"><ele>201.6</ele><time>2026-05-01T07:14:51.617Z</time></trkpt><trkpt lat="43.4210419" lon="11.223473"><ele>202.0</ele><time>2026-05-01T07:14:53.625Z</time></trkpt><trkpt lat="43.4211039" lon="11.2235863"><ele>202.0</ele><time>2026-05-01T07:14:55.599Z</time></trkpt><trkpt lat="43.4211611" lon="11.223714"><ele>202.0</ele><time>2026-05-01T07:14:57.616Z</time></trkpt><trkpt lat="43.4212135" lon="11.2238433"><ele>202.0</ele><time>2026-05-01T07:14:59.61Z</time></trkpt><trkpt lat="43.4212621" lon="11.2239808"><ele>202.0</ele><time>2026-05-01T07:15:01.619Z</time></trkpt><trkpt lat="43.4213087" lon="11.2241199"><ele>202.0</ele><time>2026-05-01T07:15:03.612Z</time></trkpt><trkpt lat="43.4213502" lon="11.2242614"><ele>201.5</ele><time>2026-05-01T07:15:05.612Z</time></trkpt><trkpt lat="43.4213853" lon="11.2244057"><ele>201.0</ele><time>2026-05-01T07:15:07.628Z</time></trkpt><trkpt lat="43.4214213" lon="11.2245559"><ele>200.5</ele><time>2026-05-01T07:15:09.62Z</time></trkpt><trkpt lat="43.421459" lon="11.2247066"><ele>200.0</ele><time>2026-05-01T07:15:11.619Z</time></trkpt><trkpt lat="43.421497" lon="11.2248586"><ele>199.75</ele><time>2026-05-01T07:15:13.608Z</time></trkpt><trkpt lat="43.4215309" lon="11.2250107"><ele>199.5</ele><time>2026-05-01T07:15:15.618Z</time></trkpt><trkpt lat="43.4215652" lon="11.2251621"><ele>199.25</ele><time>2026-05-01T07:15:17.61Z</time></trkpt><trkpt lat="43.4216065" lon="11.2253164"><ele>199.0</ele><time>2026-05-01T07:15:19.622Z</time></trkpt><trkpt lat="43.4216494" lon="11.2254688"><ele>199.0</ele><time>2026-05-01T07:15:21.613Z</time></trkpt><trkpt lat="43.4216884" lon="11.2256229"><ele>199.0</ele><time>2026-05-01T07:15:23.62Z</time></trkpt><trkpt lat="43.4217241" lon="11.2257803"><ele>199.0</ele><time>2026-05-01T07:15:25.623Z</time></trkpt><trkpt lat="43.4217624" lon="11.2259353"><ele>199.0</ele><time>2026-05-01T07:15:27.62Z</time></trkpt><trkpt lat="43.4217984" lon="11.226096"><ele>198.75</ele><time>2026-05-01T07:15:29.619Z</time></trkpt><trkpt lat="43.4218365" lon="11.2262472"><ele>198.5</ele><time>2026-05-01T07:15:31.595Z</time></trkpt><trkpt lat="43.4218768" lon="11.2264029"><ele>198.25</ele><time>2026-05-01T07:15:33.609Z</time></trkpt><trkpt lat="43.4219112" lon="11.2265536"><ele>198.0</ele><time>2026-05-01T07:15:35.613Z</time></trkpt><trkpt lat="43.4219444" lon="11.2267057"><ele>197.66666666666666</ele><time>2026-05-01T07:15:37.615Z</time></trkpt><trkpt lat="43.4219765" lon="11.2268485"><ele>197.33333333333331</ele><time>2026-05-01T07:15:39.6Z</time></trkpt><trkpt lat="43.4220121" lon="11.2269998"><ele>197.0</ele><time>2026-05-01T07:15:41.609Z</time></trkpt><trkpt lat="43.4220312" lon="11.2270896"><ele>196.66666666666666</ele><time>2026-05-01T07:15:42.609Z</time></trkpt><trkpt lat="43.4220525" lon="11.2271765"><ele>196.33333333333331</ele><time>2026-05-01T07:15:43.585Z</time></trkpt><trkpt lat="43.4220758" lon="11.2272584"><ele>196.0</ele><time>2026-05-01T07:15:44.605Z</time></trkpt><trkpt lat="43.4221137" lon="11.2274057"><ele>196.60000000000002</ele><time>2026-05-01T07:15:46.621Z</time></trkpt><trkpt lat="43.4221534" lon="11.2275599"><ele>197.2</ele><time>2026-05-01T07:15:48.673Z</time></trkpt><trkpt lat="43.4221793" lon="11.2276458"><ele>197.8</ele><time>2026-05-01T07:15:49.682Z</time></trkpt><trkpt lat="43.4222215" lon="11.2277914"><ele>198.39999999999998</ele><time>2026-05-01T07:15:51.623Z</time></trkpt><trkpt lat="43.4222647" lon="11.2279252"><ele>199.0</ele><time>2026-05-01T07:15:53.615Z</time></trkpt><trkpt lat="43.4223344" lon="11.2280206"><ele>198.99999999999997</ele><time>2026-05-01T07:15:55.618Z</time></trkpt><trkpt lat="43.4223607" lon="11.2281032"><ele>199.0</ele><time>2026-05-01T07:15:56.619Z</time></trkpt><trkpt lat="43.422374" lon="11.2281917"><ele>199.0</ele><time>2026-05-01T07:15:57.607Z</time></trkpt><trkpt lat="43.4223906" lon="11.2282774"><ele>199.0</ele><time>2026-05-01T07:15:58.608Z</time></trkpt><trkpt lat="43.4224104" lon="11.2283609"><ele>198.99999999999997</ele><time>2026-05-01T07:15:59.617Z</time></trkpt><trkpt lat="43.422457" lon="11.2285104"><ele>199.0</ele><time>2026-05-01T07:16:01.61Z</time></trkpt><trkpt lat="43.4225042" lon="11.2286623"><ele>198.75</ele><time>2026-05-01T07:16:03.624Z</time></trkpt><trkpt lat="43.4225521" lon="11.2288135"><ele>198.5</ele><time>2026-05-01T07:16:05.624Z</time></trkpt><trkpt lat="43.4225988" lon="11.2289642"><ele>198.25</ele><time>2026-05-01T07:16:07.616Z</time></trkpt><trkpt lat="43.4226482" lon="11.2291078"><ele>198.0</ele><time>2026-05-01T07:16:09.694Z</time></trkpt><trkpt lat="43.4226915" lon="11.229259"><ele>197.60000000000002</ele><time>2026-05-01T07:16:11.615Z</time></trkpt><trkpt lat="43.4227368" lon="11.2294245"><ele>197.20000000000002</ele><time>2026-05-01T07:16:13.605Z</time></trkpt><trkpt lat="43.4227635" lon="11.2295033"><ele>196.8</ele><time>2026-05-01T07:16:14.696Z</time></trkpt><trkpt lat="43.4228143" lon="11.2296406"><ele>196.4</ele><time>2026-05-01T07:16:16.617Z</time></trkpt><trkpt lat="43.4228594" lon="11.229783"><ele>196.0</ele><time>2026-05-01T07:16:18.677Z</time></trkpt><trkpt lat="43.4229159" lon="11.2299306"><ele>196.20000000000002</ele><time>2026-05-01T07:16:20.613Z</time></trkpt><trkpt lat="43.4229584" lon="11.2300699"><ele>196.4</ele><time>2026-05-01T07:16:22.607Z</time></trkpt><trkpt lat="43.4230012" lon="11.2302151"><ele>196.6</ele><time>2026-05-01T07:16:24.615Z</time></trkpt><trkpt lat="43.4230435" lon="11.2303539"><ele>196.8</ele><time>2026-05-01T07:16:26.609Z</time></trkpt><trkpt lat="43.4230904" lon="11.2304943"><ele>197.0</ele><time>2026-05-01T07:16:28.682Z</time></trkpt><trkpt lat="43.4231413" lon="11.2306299"><ele>196.8</ele><time>2026-05-01T07:16:30.592Z</time></trkpt><trkpt lat="43.4231868" lon="11.2307746"><ele>196.6</ele><time>2026-05-01T07:16:32.602Z</time></trkpt><trkpt lat="43.4232371" lon="11.2309086"><ele>196.4</ele><time>2026-05-01T07:16:34.609Z</time></trkpt><trkpt lat="43.4232803" lon="11.2310393"><ele>196.20000000000002</ele><time>2026-05-01T07:16:36.6Z</time></trkpt><trkpt lat="43.4233219" lon="11.2311708"><ele>196.0</ele><time>2026-05-01T07:16:38.607Z</time></trkpt><trkpt lat="43.4233677" lon="11.2313067"><ele>196.0</ele><time>2026-05-01T07:16:40.604Z</time></trkpt><trkpt lat="43.4234133" lon="11.2314405"><ele>196.0</ele><time>2026-05-01T07:16:42.611Z</time></trkpt><trkpt lat="43.4234537" lon="11.2315859"><ele>196.0</ele><time>2026-05-01T07:16:44.623Z</time></trkpt><trkpt lat="43.4234852" lon="11.231732"><ele>196.0</ele><time>2026-05-01T07:16:46.61Z</time></trkpt><trkpt lat="43.4235364" lon="11.231856"><ele>196.0</ele><time>2026-05-01T07:16:48.582Z</time></trkpt><trkpt lat="43.4236049" lon="11.2319791"><ele>195.8</ele><time>2026-05-01T07:16:50.615Z</time></trkpt><trkpt lat="43.4236448" lon="11.2321084"><ele>195.60000000000002</ele><time>2026-05-01T07:16:52.611Z</time></trkpt><trkpt lat="43.4236802" lon="11.2322448"><ele>195.4</ele><time>2026-05-01T07:16:54.676Z</time></trkpt><trkpt lat="43.4237093" lon="11.2323789"><ele>195.2</ele><time>2026-05-01T07:16:56.621Z</time></trkpt><trkpt lat="43.42376" lon="11.232521"><ele>195.0</ele><time>2026-05-01T07:16:58.688Z</time></trkpt><trkpt lat="43.4238058" lon="11.2326467"><ele>195.6</ele><time>2026-05-01T07:17:00.602Z</time></trkpt><trkpt lat="43.423852" lon="11.2327783"><ele>196.2</ele><time>2026-05-01T07:17:02.605Z</time></trkpt><trkpt lat="43.4238846" lon="11.2329079"><ele>196.8</ele><time>2026-05-01T07:17:04.673Z</time></trkpt><trkpt lat="43.4239258" lon="11.2330375"><ele>197.4</ele><time>2026-05-01T07:17:06.611Z</time></trkpt><trkpt lat="43.4239678" lon="11.2331632"><ele>198.0</ele><time>2026-05-01T07:17:08.6Z</time></trkpt><trkpt lat="43.4240221" lon="11.2332913"><ele>198.2</ele><time>2026-05-01T07:17:10.614Z</time></trkpt><trkpt lat="43.4240742" lon="11.2334187"><ele>198.4</ele><time>2026-05-01T07:17:12.62Z</time></trkpt><trkpt lat="43.4241155" lon="11.233543"><ele>198.6</ele><time>2026-05-01T07:17:14.622Z</time></trkpt><trkpt lat="43.4241564" lon="11.2336631"><ele>198.79999999999998</ele><time>2026-05-01T07:17:16.607Z</time></trkpt><trkpt lat="43.4241933" lon="11.2337868"><ele>199.0</ele><time>2026-05-01T07:17:18.678Z</time></trkpt><trkpt lat="43.4242368" lon="11.2339038"><ele>198.79999999999998</ele><time>2026-05-01T07:17:20.608Z</time></trkpt><trkpt lat="43.4242824" lon="11.2340225"><ele>198.6</ele><time>2026-05-01T07:17:22.617Z</time></trkpt><trkpt lat="43.4243244" lon="11.2341395"><ele>198.4</ele><time>2026-05-01T07:17:24.591Z</time></trkpt><trkpt lat="43.4243658" lon="11.2342595"><ele>198.2</ele><time>2026-05-01T07:17:26.615Z</time></trkpt><trkpt lat="43.4244043" lon="11.2343724"><ele>198.0</ele><time>2026-05-01T07:17:28.673Z</time></trkpt><trkpt lat="43.4244382" lon="11.2344805"><ele>198.0</ele><time>2026-05-01T07:17:30.603Z</time></trkpt><trkpt lat="43.4244861" lon="11.2346004"><ele>198.0</ele><time>2026-05-01T07:17:32.613Z</time></trkpt><trkpt lat="43.4245007" lon="11.2347019"><ele>198.0</ele><time>2026-05-01T07:17:34.681Z</time></trkpt><trkpt lat="43.4245352" lon="11.2348193"><ele>198.0</ele><time>2026-05-01T07:17:36.617Z</time></trkpt><trkpt lat="43.4245818" lon="11.2349444"><ele>198.0</ele><time>2026-05-01T07:17:38.685Z</time></trkpt><trkpt lat="43.4245802" lon="11.2350974"><ele>197.83333333333334</ele><time>2026-05-01T07:17:40.614Z</time></trkpt><trkpt lat="43.4246087" lon="11.2351985"><ele>197.66666666666669</ele><time>2026-05-01T07:17:42.618Z</time></trkpt><trkpt lat="43.4246186" lon="11.2353177"><ele>197.5</ele><time>2026-05-01T07:17:44.618Z</time></trkpt><trkpt lat="43.4246172" lon="11.2354457"><ele>197.33333333333334</ele><time>2026-05-01T07:17:46.614Z</time></trkpt><trkpt lat="43.4246015" lon="11.2355741"><ele>197.16666666666669</ele><time>2026-05-01T07:17:48.604Z</time></trkpt><trkpt lat="43.4245784" lon="11.2356971"><ele>197.0</ele><time>2026-05-01T07:17:50.611Z</time></trkpt><trkpt lat="43.4245494" lon="11.2358165"><ele>197.39999999999998</ele><time>2026-05-01T07:17:52.595Z</time></trkpt><trkpt lat="43.4245091" lon="11.2359345"><ele>197.79999999999998</ele><time>2026-05-01T07:17:54.61Z</time></trkpt><trkpt lat="43.4244644" lon="11.2360518"><ele>198.2</ele><time>2026-05-01T07:17:56.618Z</time></trkpt><trkpt lat="43.4244133" lon="11.2361648"><ele>198.6</ele><time>2026-05-01T07:17:58.675Z</time></trkpt><trkpt lat="43.4243577" lon="11.2362561"><ele>199.0</ele><time>2026-05-01T07:18:00.609Z</time></trkpt><trkpt lat="43.4243093" lon="11.2363693"><ele>199.2</ele><time>2026-05-01T07:18:02.617Z</time></trkpt><trkpt lat="43.424261" lon="11.2364887"><ele>199.39999999999998</ele><time>2026-05-01T07:18:04.611Z</time></trkpt><trkpt lat="43.4242081" lon="11.236597"><ele>199.6</ele><time>2026-05-01T07:18:06.602Z</time></trkpt><trkpt lat="43.424163" lon="11.2367289"><ele>199.8</ele><time>2026-05-01T07:18:08.592Z</time></trkpt><trkpt lat="43.4241262" lon="11.2368486"><ele>200.0</ele><time>2026-05-01T07:18:10.619Z</time></trkpt><trkpt lat="43.4240857" lon="11.2369574"><ele>200.00000000000003</ele><time>2026-05-01T07:18:12.63Z</time></trkpt><trkpt lat="43.4240543" lon="11.2370616"><ele>200.0</ele><time>2026-05-01T07:18:14.611Z</time></trkpt><trkpt lat="43.4240351" lon="11.2371679"><ele>200.0</ele><time>2026-05-01T07:18:16.613Z</time></trkpt><trkpt lat="43.4240129" lon="11.2372713"><ele>200.0</ele><time>2026-05-01T07:18:18.62Z</time></trkpt><trkpt lat="43.4239962" lon="11.237379"><ele>200.00000000000003</ele><time>2026-05-01T07:18:20.614Z</time></trkpt><trkpt lat="43.4239837" lon="11.2374828"><ele>200.0</ele><time>2026-05-01T07:18:22.613Z</time></trkpt><trkpt lat="43.4239716" lon="11.2375839"><ele>200.16666666666669</ele><time>2026-05-01T07:18:24.616Z</time></trkpt><trkpt lat="43.4239699" lon="11.2376831"><ele>200.33333333333334</ele><time>2026-05-01T07:18:26.609Z</time></trkpt><trkpt lat="43.4239686" lon="11.2377851"><ele>200.5</ele><time>2026-05-01T07:18:28.684Z</time></trkpt><trkpt lat="43.423958" lon="11.237905"><ele>200.66666666666669</ele><time>2026-05-01T07:18:30.599Z</time></trkpt><trkpt lat="43.4239607" lon="11.2380317"><ele>200.83333333333334</ele><time>2026-05-01T07:18:33.595Z</time></trkpt><trkpt lat="43.4239697" lon="11.2381242"><ele>201.0</ele><time>2026-05-01T07:18:35.61Z</time></trkpt><trkpt lat="43.4239819" lon="11.2382148"><ele>201.16666666666666</ele><time>2026-05-01T07:18:37.607Z</time></trkpt><trkpt lat="43.4239946" lon="11.2383054"><ele>201.33333333333331</ele><time>2026-05-01T07:18:39.602Z</time></trkpt><trkpt lat="43.4240138" lon="11.2383922"><ele>201.5</ele><time>2026-05-01T07:18:41.598Z</time></trkpt><trkpt lat="43.4240429" lon="11.2385096"><ele>201.66666666666666</ele><time>2026-05-01T07:18:44.597Z</time></trkpt><trkpt lat="43.4240531" lon="11.2386144"><ele>201.83333333333331</ele><time>2026-05-01T07:18:47.59Z</time></trkpt><trkpt lat="43.4240879" lon="11.2387131"><ele>202.0</ele><time>2026-05-01T07:18:50.611Z</time></trkpt><trkpt lat="43.4241375" lon="11.2388137"><ele>201.99999999999997</ele><time>2026-05-01T07:18:53.608Z</time></trkpt><trkpt lat="43.4241763" lon="11.2389119"><ele>202.0</ele><time>2026-05-01T07:18:56.62Z</time></trkpt><trkpt lat="43.4242179" lon="11.239012"><ele>202.0</ele><time>2026-05-01T07:18:59.613Z</time></trkpt><trkpt lat="43.4242625" lon="11.2391089"><ele>202.0</ele><time>2026-05-01T07:19:02.624Z</time></trkpt><trkpt lat="43.4243108" lon="11.2392043"><ele>201.99999999999997</ele><time>2026-05-01T07:19:05.606Z</time></trkpt><trkpt lat="43.4243618" lon="11.2392952"><ele>202.0</ele><time>2026-05-01T07:19:08.606Z</time></trkpt><trkpt lat="43.4244099" lon="11.2393728"><ele>202.85714285714286</ele><time>2026-05-01T07:19:11.606Z</time></trkpt><trkpt lat="43.4244594" lon="11.2394445"><ele>203.71428571428572</ele><time>2026-05-01T07:19:14.609Z</time></trkpt><trkpt lat="43.4245105" lon="11.2395161"><ele>204.57142857142856</ele><time>2026-05-01T07:19:17.621Z</time></trkpt><trkpt lat="43.4245586" lon="11.2395805"><ele>205.42857142857144</ele><time>2026-05-01T07:19:20.611Z</time></trkpt><trkpt lat="43.4245966" lon="11.2396604"><ele>206.2857142857143</ele><time>2026-05-01T07:19:23.613Z</time></trkpt><trkpt lat="43.4246373" lon="11.239742"><ele>207.14285714285714</ele><time>2026-05-01T07:19:26.626Z</time></trkpt><trkpt lat="43.4246871" lon="11.2398204"><ele>208.0</ele><time>2026-05-01T07:19:29.612Z</time></trkpt><trkpt lat="43.4247367" lon="11.2398903"><ele>208.42857142857142</ele><time>2026-05-01T07:19:32.606Z</time></trkpt><trkpt lat="43.424779" lon="11.2399703"><ele>208.85714285714286</ele><time>2026-05-01T07:19:35.605Z</time></trkpt><trkpt lat="43.4248296" lon="11.2400633"><ele>209.28571428571428</ele><time>2026-05-01T07:19:39.615Z</time></trkpt><trkpt lat="43.4248715" lon="11.2401347"><ele>209.71428571428572</ele><time>2026-05-01T07:19:42.62Z</time></trkpt><trkpt lat="43.4249158" lon="11.2402078"><ele>210.14285714285717</ele><time>2026-05-01T07:19:45.621Z</time></trkpt><trkpt lat="43.424964" lon="11.2402829"><ele>210.57142857142858</ele><time>2026-05-01T07:19:48.623Z</time></trkpt><trkpt lat="43.4250098" lon="11.2403548"><ele>211.0</ele><time>2026-05-01T07:19:51.615Z</time></trkpt><trkpt lat="43.4250533" lon="11.2404241"><ele>211.0</ele><time>2026-05-01T07:19:54.624Z</time></trkpt><trkpt lat="43.4251034" lon="11.2404903"><ele>211.0</ele><time>2026-05-01T07:19:57.608Z</time></trkpt><trkpt lat="43.4251527" lon="11.240554"><ele>211.0</ele><time>2026-05-01T07:20:00.616Z</time></trkpt><trkpt lat="43.4252067" lon="11.2406083"><ele>211.0</ele><time>2026-05-01T07:20:03.625Z</time></trkpt><trkpt lat="43.4252623" lon="11.2406608"><ele>211.0</ele><time>2026-05-01T07:20:06.626Z</time></trkpt><trkpt lat="43.4253234" lon="11.2407153"><ele>211.0</ele><time>2026-05-01T07:20:09.623Z</time></trkpt><trkpt lat="43.4253885" lon="11.2407653"><ele>211.0</ele><time>2026-05-01T07:20:12.621Z</time></trkpt><trkpt lat="43.4254649" lon="11.240829"><ele>212.49999999999997</ele><time>2026-05-01T07:20:15.605Z</time></trkpt><trkpt lat="43.4255327" lon="11.2408693"><ele>214.0</ele><time>2026-05-01T07:20:18.595Z</time></trkpt><trkpt lat="43.4256075" lon="11.2408939"><ele>215.5</ele><time>2026-05-01T07:20:21.609Z</time></trkpt><trkpt lat="43.4256773" lon="11.2409138"><ele>217.0</ele><time>2026-05-01T07:20:24.675Z</time></trkpt><trkpt lat="43.4257491" lon="11.2409279"><ele>218.49999999999997</ele><time>2026-05-01T07:20:27.614Z</time></trkpt><trkpt lat="43.4258286" lon="11.2409214"><ele>220.0</ele><time>2026-05-01T07:20:30.603Z</time></trkpt><trkpt lat="43.4259044" lon="11.24094"><ele>219.99999999999997</ele><time>2026-05-01T07:20:34.686Z</time></trkpt><trkpt lat="43.4259883" lon="11.2409712"><ele>220.0</ele><time>2026-05-01T07:20:38.61Z</time></trkpt><trkpt lat="43.4260725" lon="11.240973"><ele>220.0</ele><time>2026-05-01T07:20:41.602Z</time></trkpt><trkpt lat="43.426147" lon="11.2409843"><ele>220.0</ele><time>2026-05-01T07:20:44.613Z</time></trkpt><trkpt lat="43.4262201" lon="11.2409905"><ele>219.99999999999997</ele><time>2026-05-01T07:20:47.595Z</time></trkpt><trkpt lat="43.4262867" lon="11.2409944"><ele>220.0</ele><time>2026-05-01T07:20:50.621Z</time></trkpt><trkpt lat="43.4263546" lon="11.2409948"><ele>220.66666666666666</ele><time>2026-05-01T07:20:53.605Z</time></trkpt><trkpt lat="43.4264305" lon="11.2410092"><ele>221.33333333333331</ele><time>2026-05-01T07:20:56.604Z</time></trkpt><trkpt lat="43.4265012" lon="11.2410188"><ele>222.0</ele><time>2026-05-01T07:20:59.678Z</time></trkpt><trkpt lat="43.4265685" lon="11.2410749"><ele>222.66666666666669</ele><time>2026-05-01T07:21:02.604Z</time></trkpt><trkpt lat="43.4266484" lon="11.2410708"><ele>223.33333333333334</ele><time>2026-05-01T07:21:05.605Z</time></trkpt><trkpt lat="43.4267291" lon="11.2410765"><ele>224.0</ele><time>2026-05-01T07:21:08.596Z</time></trkpt><trkpt lat="43.4268056" lon="11.2410963"><ele>224.00000000000003</ele><time>2026-05-01T07:21:11.609Z</time></trkpt><trkpt lat="43.4268842" lon="11.2411114"><ele>224.0</ele><time>2026-05-01T07:21:14.601Z</time></trkpt><trkpt lat="43.4269635" lon="11.2411423"><ele>224.0</ele><time>2026-05-01T07:21:17.606Z</time></trkpt><trkpt lat="43.4270394" lon="11.2411783"><ele>224.0</ele><time>2026-05-01T07:21:20.608Z</time></trkpt><trkpt lat="43.4271106" lon="11.2412226"><ele>224.00000000000003</ele><time>2026-05-01T07:21:23.602Z</time></trkpt><trkpt lat="43.427185" lon="11.2412696"><ele>224.0</ele><time>2026-05-01T07:21:26.606Z</time></trkpt><trkpt lat="43.4272581" lon="11.2413303"><ele>224.50000000000003</ele><time>2026-05-01T07:21:29.594Z</time></trkpt><trkpt lat="43.4273177" lon="11.2413916"><ele>225.0</ele><time>2026-05-01T07:21:32.6Z</time></trkpt><trkpt lat="43.4273867" lon="11.2414507"><ele>225.5</ele><time>2026-05-01T07:21:35.604Z</time></trkpt><trkpt lat="43.4274488" lon="11.2415231"><ele>226.0</ele><time>2026-05-01T07:21:38.59Z</time></trkpt><trkpt lat="43.4275124" lon="11.241599"><ele>226.50000000000003</ele><time>2026-05-01T07:21:41.587Z</time></trkpt><trkpt lat="43.4275741" lon="11.2416765"><ele>227.0</ele><time>2026-05-01T07:21:44.584Z</time></trkpt><trkpt lat="43.4276298" lon="11.24175"><ele>226.57142857142858</ele><time>2026-05-01T07:21:47.602Z</time></trkpt><trkpt lat="43.4276787" lon="11.2418179"><ele>226.14285714285717</ele><time>2026-05-01T07:21:49.609Z</time></trkpt><trkpt lat="43.4277243" lon="11.2418923"><ele>225.71428571428572</ele><time>2026-05-01T07:21:51.619Z</time></trkpt><trkpt lat="43.4277719" lon="11.241954"><ele>225.28571428571428</ele><time>2026-05-01T07:21:53.615Z</time></trkpt><trkpt lat="43.4278248" lon="11.2420141"><ele>224.85714285714286</ele><time>2026-05-01T07:21:55.612Z</time></trkpt><trkpt lat="43.4278927" lon="11.2421043"><ele>224.42857142857144</ele><time>2026-05-01T07:21:58.613Z</time></trkpt><trkpt lat="43.4279348" lon="11.2421773"><ele>224.0</ele><time>2026-05-01T07:22:00.608Z</time></trkpt><trkpt lat="43.4279845" lon="11.2422435"><ele>224.85714285714286</ele><time>2026-05-01T07:22:02.605Z</time></trkpt><trkpt lat="43.4280305" lon="11.2423125"><ele>225.71428571428572</ele><time>2026-05-01T07:22:04.609Z</time></trkpt><trkpt lat="43.4280772" lon="11.2423767"><ele>226.57142857142856</ele><time>2026-05-01T07:22:06.6Z</time></trkpt><trkpt lat="43.4281257" lon="11.2424457"><ele>227.42857142857142</ele><time>2026-05-01T07:22:08.693Z</time></trkpt><trkpt lat="43.4281762" lon="11.242517"><ele>228.28571428571428</ele><time>2026-05-01T07:22:10.588Z</time></trkpt><trkpt lat="43.4282218" lon="11.2426082"><ele>229.1428571428571</ele><time>2026-05-01T07:22:12.608Z</time></trkpt><trkpt lat="43.4282559" lon="11.2426876"><ele>229.99999999999997</ele><time>2026-05-01T07:22:14.603Z</time></trkpt><trkpt lat="43.4283004" lon="11.2427709"><ele>230.00000000000003</ele><time>2026-05-01T07:22:16.615Z</time></trkpt><trkpt lat="43.4283397" lon="11.242861"><ele>230.0</ele><time>2026-05-01T07:22:18.655Z</time></trkpt><trkpt lat="43.4283762" lon="11.2429675"><ele>230.0</ele><time>2026-05-01T07:22:20.609Z</time></trkpt><trkpt lat="43.428406" lon="11.2430651"><ele>230.0</ele><time>2026-05-01T07:22:22.616Z</time></trkpt><trkpt lat="43.4284273" lon="11.243172"><ele>230.00000000000003</ele><time>2026-05-01T07:22:24.613Z</time></trkpt><trkpt lat="43.428443" lon="11.2432875"><ele>230.0</ele><time>2026-05-01T07:22:26.614Z</time></trkpt><trkpt lat="43.4284605" lon="11.2434034"><ele>229.83333333333334</ele><time>2026-05-01T07:22:28.589Z</time></trkpt><trkpt lat="43.428469" lon="11.2435266"><ele>229.66666666666669</ele><time>2026-05-01T07:22:30.619Z</time></trkpt><trkpt lat="43.4284686" lon="11.2436487"><ele>229.5</ele><time>2026-05-01T07:22:32.608Z</time></trkpt><trkpt lat="43.428464" lon="11.2437659"><ele>229.33333333333331</ele><time>2026-05-01T07:22:34.611Z</time></trkpt><trkpt lat="43.428454" lon="11.2438823"><ele>229.16666666666666</ele><time>2026-05-01T07:22:36.62Z</time></trkpt><trkpt lat="43.428437" lon="11.2440041"><ele>229.0</ele><time>2026-05-01T07:22:38.612Z</time></trkpt><trkpt lat="43.4284145" lon="11.2441307"><ele>229.0</ele><time>2026-05-01T07:22:40.608Z</time></trkpt><trkpt lat="43.4283921" lon="11.244266"><ele>228.99999999999997</ele><time>2026-05-01T07:22:42.595Z</time></trkpt><trkpt lat="43.4283634" lon="11.2443907"><ele>228.99999999999997</ele><time>2026-05-01T07:22:44.695Z</time></trkpt><trkpt lat="43.428351" lon="11.2445353"><ele>229.0</ele><time>2026-05-01T07:22:46.61Z</time></trkpt><trkpt lat="43.428329" lon="11.2446796"><ele>229.0</ele><time>2026-05-01T07:22:48.607Z</time></trkpt><trkpt lat="43.4283186" lon="11.2448072"><ele>229.0</ele><time>2026-05-01T07:22:50.612Z</time></trkpt><trkpt lat="43.4283048" lon="11.2449491"><ele>228.99999999999997</ele><time>2026-05-01T07:22:52.622Z</time></trkpt><trkpt lat="43.4282649" lon="11.2450919"><ele>228.99999999999997</ele><time>2026-05-01T07:22:54.591Z</time></trkpt><trkpt lat="43.4282457" lon="11.2452404"><ele>229.0</ele><time>2026-05-01T07:22:56.608Z</time></trkpt><trkpt lat="43.4282204" lon="11.2453822"><ele>229.0</ele><time>2026-05-01T07:22:58.666Z</time></trkpt><trkpt lat="43.4282145" lon="11.2455174"><ele>229.0</ele><time>2026-05-01T07:23:00.61Z</time></trkpt><trkpt lat="43.4282171" lon="11.2456566"><ele>228.99999999999997</ele><time>2026-05-01T07:23:02.607Z</time></trkpt><trkpt lat="43.4282282" lon="11.2457949"><ele>228.99999999999997</ele><time>2026-05-01T07:23:04.614Z</time></trkpt><trkpt lat="43.4282499" lon="11.2459339"><ele>229.0</ele><time>2026-05-01T07:23:06.607Z</time></trkpt><trkpt lat="43.428276" lon="11.2460688"><ele>229.0</ele><time>2026-05-01T07:23:08.621Z</time></trkpt><trkpt lat="43.4283156" lon="11.2462072"><ele>229.0</ele><time>2026-05-01T07:23:10.617Z</time></trkpt><trkpt lat="43.4283655" lon="11.2463411"><ele>228.99999999999997</ele><time>2026-05-01T07:23:12.625Z</time></trkpt><trkpt lat="43.4284221" lon="11.2464611"><ele>228.99999999999997</ele><time>2026-05-01T07:23:14.709Z</time></trkpt><trkpt lat="43.4284927" lon="11.2465948"><ele>229.0</ele><time>2026-05-01T07:23:16.615Z</time></trkpt><trkpt lat="43.4285333" lon="11.2466644"><ele>229.0</ele><time>2026-05-01T07:23:17.674Z</time></trkpt><trkpt lat="43.4286001" lon="11.2467868"><ele>228.25</ele><time>2026-05-01T07:23:19.61Z</time></trkpt><trkpt lat="43.4286769" lon="11.2469007"><ele>227.5</ele><time>2026-05-01T07:23:21.622Z</time></trkpt><trkpt lat="43.4287585" lon="11.2470134"><ele>226.75</ele><time>2026-05-01T07:23:23.605Z</time></trkpt><trkpt lat="43.4288349" lon="11.2471282"><ele>226.0</ele><time>2026-05-01T07:23:25.617Z</time></trkpt><trkpt lat="43.4289069" lon="11.247256"><ele>227.75</ele><time>2026-05-01T07:23:27.663Z</time></trkpt><trkpt lat="43.4289685" lon="11.247394"><ele>229.5</ele><time>2026-05-01T07:23:29.602Z</time></trkpt><trkpt lat="43.4290208" lon="11.2475172"><ele>231.25</ele><time>2026-05-01T07:23:31.609Z</time></trkpt><trkpt lat="43.4290565" lon="11.2476673"><ele>233.0</ele><time>2026-05-01T07:23:33.686Z</time></trkpt><trkpt lat="43.4290913" lon="11.2478312"><ele>233.0</ele><time>2026-05-01T07:23:35.628Z</time></trkpt><trkpt lat="43.4291132" lon="11.2479154"><ele>233.0</ele><time>2026-05-01T07:23:36.61Z</time></trkpt><trkpt lat="43.4291327" lon="11.2479985"><ele>233.0</ele><time>2026-05-01T07:23:37.609Z</time></trkpt><trkpt lat="43.4291528" lon="11.2480866"><ele>233.0</ele><time>2026-05-01T07:23:38.605Z</time></trkpt><trkpt lat="43.4291712" lon="11.2481778"><ele>233.0</ele><time>2026-05-01T07:23:39.606Z</time></trkpt><trkpt lat="43.4291898" lon="11.2482756"><ele>233.0</ele><time>2026-05-01T07:23:40.611Z</time></trkpt><trkpt lat="43.4292078" lon="11.2483733"><ele>233.0</ele><time>2026-05-01T07:23:41.612Z</time></trkpt><trkpt lat="43.4292277" lon="11.2484642"><ele>231.85714285714286</ele><time>2026-05-01T07:23:42.61Z</time></trkpt><trkpt lat="43.4292476" lon="11.2485551"><ele>230.71428571428572</ele><time>2026-05-01T07:23:43.618Z</time></trkpt><trkpt lat="43.4292654" lon="11.2486434"><ele>229.57142857142858</ele><time>2026-05-01T07:23:44.612Z</time></trkpt><trkpt lat="43.4292814" lon="11.2487348"><ele>228.42857142857144</ele><time>2026-05-01T07:23:45.626Z</time></trkpt><trkpt lat="43.4292949" lon="11.2488274"><ele>227.28571428571428</ele><time>2026-05-01T07:23:46.602Z</time></trkpt><trkpt lat="43.4293098" lon="11.2489187"><ele>226.14285714285717</ele><time>2026-05-01T07:23:47.61Z</time></trkpt><trkpt lat="43.4293244" lon="11.249006"><ele>225.00000000000003</ele><time>2026-05-01T07:23:48.602Z</time></trkpt><trkpt lat="43.4293337" lon="11.2490957"><ele>225.0</ele><time>2026-05-01T07:23:49.684Z</time></trkpt><trkpt lat="43.4293405" lon="11.2492641"><ele>225.0</ele><time>2026-05-01T07:23:51.615Z</time></trkpt><trkpt lat="43.4293405" lon="11.2494327"><ele>225.0</ele><time>2026-05-01T07:23:53.611Z</time></trkpt><trkpt lat="43.4293385" lon="11.2495976"><ele>225.0</ele><time>2026-05-01T07:23:55.69Z</time></trkpt><trkpt lat="43.429332" lon="11.2497482"><ele>225.2</ele><time>2026-05-01T07:23:57.685Z</time></trkpt><trkpt lat="43.4293193" lon="11.2498858"><ele>225.4</ele><time>2026-05-01T07:23:59.581Z</time></trkpt><trkpt lat="43.4293148" lon="11.2500224"><ele>225.60000000000002</ele><time>2026-05-01T07:24:01.61Z</time></trkpt><trkpt lat="43.4293076" lon="11.2501589"><ele>225.8</ele><time>2026-05-01T07:24:03.609Z</time></trkpt><trkpt lat="43.4292995" lon="11.2502889"><ele>226.0</ele><time>2026-05-01T07:24:05.587Z</time></trkpt><trkpt lat="43.4293086" lon="11.2504051"><ele>225.99999999999997</ele><time>2026-05-01T07:24:07.603Z</time></trkpt><trkpt lat="43.4293361" lon="11.2505237"><ele>226.0</ele><time>2026-05-01T07:24:09.611Z</time></trkpt><trkpt lat="43.4293518" lon="11.2506536"><ele>226.0</ele><time>2026-05-01T07:24:11.605Z</time></trkpt><trkpt lat="43.4293849" lon="11.2507553"><ele>226.0</ele><time>2026-05-01T07:24:13.615Z</time></trkpt><trkpt lat="43.4294073" lon="11.2508462"><ele>225.99999999999997</ele><time>2026-05-01T07:24:15.613Z</time></trkpt><trkpt lat="43.4294303" lon="11.250941"><ele>226.0</ele><time>2026-05-01T07:24:17.606Z</time></trkpt><trkpt lat="43.4294497" lon="11.2510369"><ele>225.99999999999997</ele><time>2026-05-01T07:24:19.594Z</time></trkpt><trkpt lat="43.4294753" lon="11.2511248"><ele>226.0</ele><time>2026-05-01T07:24:21.61Z</time></trkpt><trkpt lat="43.4294992" lon="11.2512099"><ele>226.0</ele><time>2026-05-01T07:24:23.63Z</time></trkpt><trkpt lat="43.4295209" lon="11.2512972"><ele>226.0</ele><time>2026-05-01T07:24:25.601Z</time></trkpt><trkpt lat="43.4295528" lon="11.2514148"><ele>225.99999999999997</ele><time>2026-05-01T07:24:28.689Z</time></trkpt><trkpt lat="43.429582" lon="11.2515208"><ele>226.0</ele><time>2026-05-01T07:24:31.616Z</time></trkpt><trkpt lat="43.4296176" lon="11.2516244"><ele>225.99999999999997</ele><time>2026-05-01T07:24:34.686Z</time></trkpt><trkpt lat="43.4296414" lon="11.2517315"><ele>226.0</ele><time>2026-05-01T07:24:37.603Z</time></trkpt><trkpt lat="43.4297099" lon="11.2518203"><ele>226.0</ele><time>2026-05-01T07:24:40.61Z</time></trkpt><trkpt lat="43.4297672" lon="11.2519107"><ele>226.0</ele><time>2026-05-01T07:24:43.674Z</time></trkpt><trkpt lat="43.4298112" lon="11.251981"><ele>225.99999999999997</ele><time>2026-05-01T07:24:46.599Z</time></trkpt><trkpt lat="43.429888" lon="11.2520317"><ele>226.0</ele><time>2026-05-01T07:24:49.615Z</time></trkpt><trkpt lat="43.4299588" lon="11.2521075"><ele>227.16666666666666</ele><time>2026-05-01T07:24:52.616Z</time></trkpt><trkpt lat="43.4300112" lon="11.2521598"><ele>228.33333333333331</ele><time>2026-05-01T07:24:54.611Z</time></trkpt><trkpt lat="43.4300886" lon="11.2522221"><ele>229.5</ele><time>2026-05-01T07:24:57.623Z</time></trkpt><trkpt lat="43.4301689" lon="11.252276"><ele>230.66666666666669</ele><time>2026-05-01T07:25:00.626Z</time></trkpt><trkpt lat="43.4302487" lon="11.2523371"><ele>231.83333333333334</ele><time>2026-05-01T07:25:03.615Z</time></trkpt><trkpt lat="43.4303224" lon="11.252392"><ele>233.0</ele><time>2026-05-01T07:25:06.61Z</time></trkpt><trkpt lat="43.4304027" lon="11.2524462"><ele>234.60000000000002</ele><time>2026-05-01T07:25:09.587Z</time></trkpt><trkpt lat="43.4304814" lon="11.2524989"><ele>236.20000000000002</ele><time>2026-05-01T07:25:12.609Z</time></trkpt><trkpt lat="43.4306219" lon="11.2525875"><ele>237.8</ele><time>2026-05-01T07:25:17.658Z</time></trkpt><trkpt lat="43.4306769" lon="11.2526314"><ele>239.4</ele><time>2026-05-01T07:25:20.603Z</time></trkpt><trkpt lat="43.4307578" lon="11.2526751"><ele>241.0</ele><time>2026-05-01T07:25:23.612Z</time></trkpt><trkpt lat="43.4308333" lon="11.25273"><ele>240.99999999999997</ele><time>2026-05-01T07:25:26.592Z</time></trkpt><trkpt lat="43.430915" lon="11.2527806"><ele>241.0</ele><time>2026-05-01T07:25:29.614Z</time></trkpt><trkpt lat="43.4309939" lon="11.2528331"><ele>241.0</ele><time>2026-05-01T07:25:32.611Z</time></trkpt><trkpt lat="43.431073" lon="11.2528981"><ele>241.0</ele><time>2026-05-01T07:25:35.613Z</time></trkpt><trkpt lat="43.4311518" lon="11.2529528"><ele>240.99999999999997</ele><time>2026-05-01T07:25:38.593Z</time></trkpt><trkpt lat="43.4312316" lon="11.2529994"><ele>241.0</ele><time>2026-05-01T07:25:41.613Z</time></trkpt><trkpt lat="43.4313115" lon="11.2530521"><ele>241.42857142857144</ele><time>2026-05-01T07:25:44.59Z</time></trkpt><trkpt lat="43.4313888" lon="11.2530765"><ele>241.8571428571429</ele><time>2026-05-01T07:25:47.602Z</time></trkpt><trkpt lat="43.4314435" lon="11.2531273"><ele>242.28571428571428</ele><time>2026-05-01T07:25:49.687Z</time></trkpt><trkpt lat="43.4314996" lon="11.2531714"><ele>242.71428571428572</ele><time>2026-05-01T07:25:52.61Z</time></trkpt><trkpt lat="43.431563" lon="11.2532327"><ele>243.14285714285714</ele><time>2026-05-01T07:25:55.706Z</time></trkpt><trkpt lat="43.4316434" lon="11.2532746"><ele>243.57142857142856</ele><time>2026-05-01T07:25:58.61Z</time></trkpt><trkpt lat="43.4317075" lon="11.2533227"><ele>243.99999999999997</ele><time>2026-05-01T07:26:00.592Z</time></trkpt><trkpt lat="43.4317917" lon="11.2533803"><ele>243.99999999999997</ele><time>2026-05-01T07:26:03.609Z</time></trkpt><trkpt lat="43.4318715" lon="11.253434"><ele>244.0</ele><time>2026-05-01T07:26:06.607Z</time></trkpt><trkpt lat="43.4319443" lon="11.2534924"><ele>244.0</ele><time>2026-05-01T07:26:09.616Z</time></trkpt><trkpt lat="43.4320121" lon="11.2535575"><ele>244.0</ele><time>2026-05-01T07:26:12.619Z</time></trkpt><trkpt lat="43.4320821" lon="11.2536289"><ele>243.99999999999997</ele><time>2026-05-01T07:26:15.651Z</time></trkpt><trkpt lat="43.4321489" lon="11.2537078"><ele>244.0</ele><time>2026-05-01T07:26:18.604Z</time></trkpt><trkpt lat="43.4321883" lon="11.2537983"><ele>244.66666666666666</ele><time>2026-05-01T07:26:20.602Z</time></trkpt><trkpt lat="43.4322317" lon="11.2538614"><ele>245.33333333333331</ele><time>2026-05-01T07:26:22.608Z</time></trkpt><trkpt lat="43.4323369" lon="11.2539905"><ele>246.0</ele><time>2026-05-01T07:26:26.626Z</time></trkpt><trkpt lat="43.4323572" lon="11.2540811"><ele>246.66666666666669</ele><time>2026-05-01T07:26:30.603Z</time></trkpt><trkpt lat="43.432386" lon="11.2541878"><ele>247.33333333333334</ele><time>2026-05-01T07:26:33.601Z</time></trkpt><trkpt lat="43.4324179" lon="11.2543035"><ele>248.0</ele><time>2026-05-01T07:26:36.616Z</time></trkpt><trkpt lat="43.4324383" lon="11.2543997"><ele>248.00000000000003</ele><time>2026-05-01T07:26:38.619Z</time></trkpt><trkpt lat="43.4324596" lon="11.2544866"><ele>248.0</ele><time>2026-05-01T07:26:40.606Z</time></trkpt><trkpt lat="43.4324841" lon="11.2545971"><ele>248.0</ele><time>2026-05-01T07:26:43.603Z</time></trkpt><trkpt lat="43.4325076" lon="11.2547119"><ele>248.0</ele><time>2026-05-01T07:26:46.609Z</time></trkpt><trkpt lat="43.4325339" lon="11.2548282"><ele>248.00000000000003</ele><time>2026-05-01T07:26:49.67Z</time></trkpt><trkpt lat="43.4325525" lon="11.25492"><ele>248.0</ele><time>2026-05-01T07:26:52.621Z</time></trkpt><trkpt lat="43.4325782" lon="11.2550135"><ele>247.71428571428572</ele><time>2026-05-01T07:26:55.609Z</time></trkpt><trkpt lat="43.4326001" lon="11.2551044"><ele>247.42857142857144</ele><time>2026-05-01T07:26:58.691Z</time></trkpt><trkpt lat="43.432625" lon="11.2552008"><ele>247.14285714285717</ele><time>2026-05-01T07:27:00.591Z</time></trkpt><trkpt lat="43.4326593" lon="11.2552974"><ele>246.8571428571429</ele><time>2026-05-01T07:27:05.59Z</time></trkpt><trkpt lat="43.4326883" lon="11.255389"><ele>246.57142857142858</ele><time>2026-05-01T07:27:08.613Z</time></trkpt><trkpt lat="43.4327054" lon="11.2554947"><ele>246.28571428571433</ele><time>2026-05-01T07:27:12.601Z</time></trkpt><trkpt lat="43.4327238" lon="11.2555782"><ele>246.00000000000003</ele><time>2026-05-01T07:27:15.621Z</time></trkpt><trkpt lat="43.4327532" lon="11.2556841"><ele>246.00000000000003</ele><time>2026-05-01T07:27:19.604Z</time></trkpt><trkpt lat="43.4327751" lon="11.2557921"><ele>246.0</ele><time>2026-05-01T07:27:23.606Z</time></trkpt><trkpt lat="43.432788" lon="11.2558782"><ele>246.00000000000003</ele><time>2026-05-01T07:27:27.614Z</time></trkpt><trkpt lat="43.4328089" lon="11.2559645"><ele>246.00000000000003</ele><time>2026-05-01T07:27:31.601Z</time></trkpt><trkpt lat="43.432829" lon="11.2560732"><ele>246.0</ele><time>2026-05-01T07:27:35.606Z</time></trkpt><trkpt lat="43.4328626" lon="11.256163"><ele>246.00000000000003</ele><time>2026-05-01T07:27:40.691Z</time></trkpt><trkpt lat="43.4328831" lon="11.2562646"><ele>246.00000000000003</ele><time>2026-05-01T07:27:45.624Z</time></trkpt><trkpt lat="43.4328957" lon="11.2563576"><ele>247.00000000000003</ele><time>2026-05-01T07:27:50.614Z</time></trkpt><trkpt lat="43.4329172" lon="11.2564543"><ele>248.0</ele><time>2026-05-01T07:27:55.607Z</time></trkpt><trkpt lat="43.4329362" lon="11.2565412"><ele>249.00000000000003</ele><time>2026-05-01T07:27:59.595Z</time></trkpt><trkpt lat="43.4329633" lon="11.2566308"><ele>250.00000000000003</ele><time>2026-05-01T07:28:04.67Z</time></trkpt><trkpt lat="43.4330072" lon="11.2567503"><ele>251.0</ele><time>2026-05-01T07:28:09.592Z</time></trkpt><trkpt lat="43.4330139" lon="11.2568502"><ele>252.00000000000003</ele><time>2026-05-01T07:28:14.606Z</time></trkpt><trkpt lat="43.4330306" lon="11.2569345"><ele>253.00000000000003</ele><time>2026-05-01T07:28:17.613Z</time></trkpt><trkpt lat="43.4330598" lon="11.257025"><ele>253.8571428571429</ele><time>2026-05-01T07:28:24.605Z</time></trkpt><trkpt lat="43.4330822" lon="11.2571145"><ele>254.71428571428572</ele><time>2026-05-01T07:28:29.616Z</time></trkpt><trkpt lat="43.4331061" lon="11.2572084"><ele>255.57142857142858</ele><time>2026-05-01T07:28:34.588Z</time></trkpt><trkpt lat="43.433122" lon="11.2572935"><ele>256.42857142857144</ele><time>2026-05-01T07:28:38.607Z</time></trkpt><trkpt lat="43.4331477" lon="11.2573929"><ele>257.2857142857143</ele><time>2026-05-01T07:28:43.604Z</time></trkpt><trkpt lat="43.4331697" lon="11.2574914"><ele>258.14285714285717</ele><time>2026-05-01T07:28:48.617Z</time></trkpt><trkpt lat="43.4331888" lon="11.2575893"><ele>259.0</ele><time>2026-05-01T07:28:53.618Z</time></trkpt><trkpt lat="43.4332069" lon="11.2576752"><ele>260.14285714285717</ele><time>2026-05-01T07:28:57.618Z</time></trkpt><trkpt lat="43.4332359" lon="11.2577695"><ele>261.2857142857143</ele><time>2026-05-01T07:29:02.59Z</time></trkpt><trkpt lat="43.4332604" lon="11.2578697"><ele>262.42857142857144</ele><time>2026-05-01T07:29:07.607Z</time></trkpt><trkpt lat="43.4332822" lon="11.2579694"><ele>263.57142857142856</ele><time>2026-05-01T07:29:12.615Z</time></trkpt><trkpt lat="43.4333071" lon="11.2580532"><ele>264.7142857142857</ele><time>2026-05-01T07:29:16.616Z</time></trkpt><trkpt lat="43.4333296" lon="11.2581474"><ele>265.8571428571429</ele><time>2026-05-01T07:29:21.606Z</time></trkpt><trkpt lat="43.4333589" lon="11.2582491"><ele>267.0</ele><time>2026-05-01T07:29:26.609Z</time></trkpt><trkpt lat="43.4333785" lon="11.2583489"><ele>267.7142857142857</ele><time>2026-05-01T07:29:31.6Z</time></trkpt><trkpt lat="43.4333933" lon="11.2584369"><ele>268.42857142857144</ele><time>2026-05-01T07:29:35.617Z</time></trkpt><trkpt lat="43.4334155" lon="11.2585385"><ele>269.1428571428571</ele><time>2026-05-01T07:29:40.618Z</time></trkpt><trkpt lat="43.4334429" lon="11.2586283"><ele>269.8571428571429</ele><time>2026-05-01T07:29:45.61Z</time></trkpt><trkpt lat="43.433458" lon="11.2587164"><ele>270.57142857142856</ele><time>2026-05-01T07:29:49.606Z</time></trkpt><trkpt lat="43.4334792" lon="11.258809"><ele>271.2857142857143</ele><time>2026-05-01T07:29:54.664Z</time></trkpt><trkpt lat="43.4334854" lon="11.2589099"><ele>272.0</ele><time>2026-05-01T07:30:00.612Z</time></trkpt><trkpt lat="43.4335008" lon="11.2589956"><ele>272.57142857142856</ele><time>2026-05-01T07:30:04.687Z</time></trkpt><trkpt lat="43.4335116" lon="11.2591027"><ele>273.1428571428571</ele><time>2026-05-01T07:30:09.609Z</time></trkpt><trkpt lat="43.4335303" lon="11.2592021"><ele>273.7142857142857</ele><time>2026-05-01T07:30:14.615Z</time></trkpt><trkpt lat="43.4335392" lon="11.2593041"><ele>274.2857142857143</ele><time>2026-05-01T07:30:19.608Z</time></trkpt><trkpt lat="43.4335534" lon="11.2594043"><ele>274.8571428571429</ele><time>2026-05-01T07:30:24.613Z</time></trkpt><trkpt lat="43.4335545" lon="11.2595011"><ele>275.42857142857144</ele><time>2026-05-01T07:30:29.62Z</time></trkpt><trkpt lat="43.4335487" lon="11.2596002"><ele>276.0</ele><time>2026-05-01T07:30:34.606Z</time></trkpt><trkpt lat="43.4335578" lon="11.2596941"><ele>277.0</ele><time>2026-05-01T07:30:39.606Z</time></trkpt><trkpt lat="43.4335592" lon="11.2597965"><ele>278.0</ele><time>2026-05-01T07:30:44.675Z</time></trkpt><trkpt lat="43.433562" lon="11.2599022"><ele>279.0</ele><time>2026-05-01T07:30:50.604Z</time></trkpt><trkpt lat="43.4335645" lon="11.2599994"><ele>280.0</ele><time>2026-05-01T07:30:54.607Z</time></trkpt><trkpt lat="43.4335623" lon="11.2601004"><ele>281.0</ele><time>2026-05-01T07:30:59.61Z</time></trkpt><trkpt lat="43.4335547" lon="11.260196"><ele>282.0</ele><time>2026-05-01T07:31:04.599Z</time></trkpt><trkpt lat="43.433552" lon="11.2602859"><ele>283.0</ele><time>2026-05-01T07:31:08.608Z</time></trkpt><trkpt lat="43.43355" lon="11.2603857"><ele>283.0</ele><time>2026-05-01T07:31:12.584Z</time></trkpt><trkpt lat="43.4335431" lon="11.2604944"><ele>283.0</ele><time>2026-05-01T07:31:17.588Z</time></trkpt><trkpt lat="43.4335413" lon="11.2605905"><ele>283.0</ele><time>2026-05-01T07:31:22.604Z</time></trkpt><trkpt lat="43.4335232" lon="11.260696"><ele>283.0</ele><time>2026-05-01T07:31:27.6Z</time></trkpt><trkpt lat="43.4335174" lon="11.2607857"><ele>283.0</ele><time>2026-05-01T07:31:31.597Z</time></trkpt><trkpt lat="43.4335051" lon="11.2608838"><ele>283.0</ele><time>2026-05-01T07:31:36.612Z</time></trkpt><trkpt lat="43.4334932" lon="11.260982"><ele>283.0</ele><time>2026-05-01T07:31:41.608Z</time></trkpt><trkpt lat="43.4334814" lon="11.261082"><ele>284.14285714285717</ele><time>2026-05-01T07:31:46.612Z</time></trkpt><trkpt lat="43.4334632" lon="11.2611679"><ele>285.28571428571433</ele><time>2026-05-01T07:31:50.604Z</time></trkpt><trkpt lat="43.4334515" lon="11.2612578"><ele>286.42857142857144</ele><time>2026-05-01T07:31:55.62Z</time></trkpt><trkpt lat="43.433428" lon="11.26135"><ele>287.57142857142856</ele><time>2026-05-01T07:32:00.6Z</time></trkpt><trkpt lat="43.4334075" lon="11.2614457"><ele>288.71428571428567</ele><time>2026-05-01T07:32:05.605Z</time></trkpt><trkpt lat="43.4333894" lon="11.2615497"><ele>289.85714285714283</ele><time>2026-05-01T07:32:10.607Z</time></trkpt><trkpt lat="43.433372" lon="11.2616503"><ele>291.0</ele><time>2026-05-01T07:32:15.599Z</time></trkpt><trkpt lat="43.4333511" lon="11.2617534"><ele>292.1428571428571</ele><time>2026-05-01T07:32:20.609Z</time></trkpt><trkpt lat="43.4333298" lon="11.2618497"><ele>293.2857142857143</ele><time>2026-05-01T07:32:25.674Z</time></trkpt><trkpt lat="43.4333039" lon="11.2619362"><ele>294.42857142857144</ele><time>2026-05-01T07:32:27.609Z</time></trkpt><trkpt lat="43.4332969" lon="11.2620326"><ele>295.57142857142856</ele><time>2026-05-01T07:32:33.605Z</time></trkpt><trkpt lat="43.4332686" lon="11.262132"><ele>296.7142857142857</ele><time>2026-05-01T07:32:40.664Z</time></trkpt><trkpt lat="43.433257" lon="11.2622339"><ele>297.85714285714283</ele><time>2026-05-01T07:32:45.595Z</time></trkpt><trkpt lat="43.4332377" lon="11.2623384"><ele>299.0</ele><time>2026-05-01T07:32:50.604Z</time></trkpt><trkpt lat="43.4332212" lon="11.2624398"><ele>300.0</ele><time>2026-05-01T07:32:55.603Z</time></trkpt><trkpt lat="43.4332426" lon="11.2625335"><ele>301.0</ele><time>2026-05-01T07:33:01.603Z</time></trkpt><trkpt lat="43.433205" lon="11.2626204"><ele>302.0</ele><time>2026-05-01T07:33:04.681Z</time></trkpt><trkpt lat="43.4331704" lon="11.2627148"><ele>303.0</ele><time>2026-05-01T07:33:08.61Z</time></trkpt><trkpt lat="43.4331189" lon="11.262816"><ele>304.0</ele><time>2026-05-01T07:33:12.61Z</time></trkpt><trkpt lat="43.4331148" lon="11.2629044"><ele>305.0</ele><time>2026-05-01T07:33:16.608Z</time></trkpt><trkpt lat="43.4331192" lon="11.2629941"><ele>306.0</ele><time>2026-05-01T07:33:21.618Z</time></trkpt><trkpt lat="43.4331068" lon="11.2630818"><ele>307.0</ele><time>2026-05-01T07:33:25.617Z</time></trkpt><trkpt lat="43.4330871" lon="11.2631706"><ele>308.0</ele><time>2026-05-01T07:33:29.61Z</time></trkpt><trkpt lat="43.4330749" lon="11.2632561"><ele>309.0</ele><time>2026-05-01T07:33:33.715Z</time></trkpt><trkpt lat="43.4330563" lon="11.2633432"><ele>310.0</ele><time>2026-05-01T07:33:37.605Z</time></trkpt><trkpt lat="43.4330406" lon="11.2634331"><ele>311.0</ele><time>2026-05-01T07:33:41.621Z</time></trkpt><trkpt lat="43.4330119" lon="11.2635343"><ele>312.0</ele><time>2026-05-01T07:33:45.696Z</time></trkpt><trkpt lat="43.4331145" lon="11.2636058"><ele>312.0</ele><time>2026-05-01T07:33:52.617Z</time></trkpt><trkpt lat="43.4330253" lon="11.2636703"><ele>312.0</ele><time>2026-05-01T07:33:54.679Z</time></trkpt><trkpt lat="43.4329802" lon="11.2637479"><ele>312.0</ele><time>2026-05-01T07:33:57.611Z</time></trkpt><trkpt lat="43.432982" lon="11.2638503"><ele>312.0</ele><time>2026-05-01T07:34:01.623Z</time></trkpt><trkpt lat="43.4329705" lon="11.2639381"><ele>312.0</ele><time>2026-05-01T07:34:05.599Z</time></trkpt><trkpt lat="43.4329646" lon="11.2640249"><ele>312.0</ele><time>2026-05-01T07:34:09.703Z</time></trkpt><trkpt lat="43.4330141" lon="11.2641038"><ele>313.0</ele><time>2026-05-01T07:34:12.602Z</time></trkpt><trkpt lat="43.4330198" lon="11.2641977"><ele>314.0</ele><time>2026-05-01T07:34:17.625Z</time></trkpt><trkpt lat="43.433011" lon="11.264296"><ele>315.0</ele><time>2026-05-01T07:34:22.627Z</time></trkpt><trkpt lat="43.4329916" lon="11.2643848"><ele>316.0</ele><time>2026-05-01T07:34:26.639Z</time></trkpt><trkpt lat="43.4330105" lon="11.2644764"><ele>317.0</ele><time>2026-05-01T07:34:31.634Z</time></trkpt><trkpt lat="43.4330378" lon="11.2645553"><ele>318.0</ele><time>2026-05-01T07:34:35.632Z</time></trkpt><trkpt lat="43.4330731" lon="11.2646485"><ele>319.0</ele><time>2026-05-01T07:34:40.63Z</time></trkpt><trkpt lat="43.4331032" lon="11.2647339"><ele>319.3333333333333</ele><time>2026-05-01T07:34:44.622Z</time></trkpt><trkpt lat="43.4331281" lon="11.264815"><ele>319.66666666666663</ele><time>2026-05-01T07:34:48.625Z</time></trkpt><trkpt lat="43.4331475" lon="11.2649272"><ele>320.0</ele><time>2026-05-01T07:34:51.644Z</time></trkpt><trkpt lat="43.4331917" lon="11.2650121"><ele>320.3333333333333</ele><time>2026-05-01T07:34:56.624Z</time></trkpt><trkpt lat="43.4332029" lon="11.2651139"><ele>320.6666666666667</ele><time>2026-05-01T07:35:01.612Z</time></trkpt><trkpt lat="43.4332438" lon="11.2652049"><ele>321.0</ele><time>2026-05-01T07:35:05.689Z</time></trkpt><trkpt lat="43.433264" lon="11.2653044"><ele>320.99999999999994</ele><time>2026-05-01T07:35:10.63Z</time></trkpt><trkpt lat="43.4333128" lon="11.2653857"><ele>321.0</ele><time>2026-05-01T07:35:14.618Z</time></trkpt><trkpt lat="43.4333628" lon="11.2654595"><ele>321.0</ele><time>2026-05-01T07:35:18.71Z</time></trkpt><trkpt lat="43.4333913" lon="11.2655369"><ele>321.0</ele><time>2026-05-01T07:35:22.625Z</time></trkpt><trkpt lat="43.4334366" lon="11.2655991"><ele>321.0</ele><time>2026-05-01T07:35:25.622Z</time></trkpt><trkpt lat="43.4334969" lon="11.2656681"><ele>320.99999999999994</ele><time>2026-05-01T07:35:29.618Z</time></trkpt><trkpt lat="43.4335106" lon="11.2657776"><ele>321.0</ele><time>2026-05-01T07:35:33.684Z</time></trkpt><trkpt lat="43.4335576" lon="11.2658396"><ele>320.99999999999994</ele><time>2026-05-01T07:35:36.624Z</time></trkpt><trkpt lat="43.4336377" lon="11.2658727"><ele>321.0</ele><time>2026-05-01T07:35:40.712Z</time></trkpt><trkpt lat="43.4336985" lon="11.2659093"><ele>321.0</ele><time>2026-05-01T07:35:42.639Z</time></trkpt><trkpt lat="43.4337427" lon="11.2659848"><ele>321.0</ele><time>2026-05-01T07:35:46.638Z</time></trkpt><trkpt lat="43.4337891" lon="11.266054"><ele>321.0</ele><time>2026-05-01T07:35:50.639Z</time></trkpt><trkpt lat="43.4338409" lon="11.2661169"><ele>320.99999999999994</ele><time>2026-05-01T07:35:54.62Z</time></trkpt><trkpt lat="43.4338757" lon="11.2661996"><ele>321.0</ele><time>2026-05-01T07:35:58.628Z</time></trkpt><trkpt lat="43.4339171" lon="11.2663082"><ele>321.2857142857143</ele><time>2026-05-01T07:36:04.694Z</time></trkpt><trkpt lat="43.4339841" lon="11.2663573"><ele>321.57142857142856</ele><time>2026-05-01T07:36:07.63Z</time></trkpt><trkpt lat="43.4340381" lon="11.2664214"><ele>321.8571428571429</ele><time>2026-05-01T07:36:10.687Z</time></trkpt><trkpt lat="43.4340905" lon="11.2664801"><ele>322.1428571428571</ele><time>2026-05-01T07:36:14.621Z</time></trkpt><trkpt lat="43.434144" lon="11.266527"><ele>322.42857142857144</ele><time>2026-05-01T07:36:17.628Z</time></trkpt><trkpt lat="43.4341912" lon="11.2665861"><ele>322.7142857142857</ele><time>2026-05-01T07:36:20.632Z</time></trkpt><trkpt lat="43.4342564" lon="11.2666522"><ele>323.0</ele><time>2026-05-01T07:36:24.625Z</time></trkpt><trkpt lat="43.4343076" lon="11.2667242"><ele>323.00000000000006</ele><time>2026-05-01T07:36:28.638Z</time></trkpt><trkpt lat="43.434357" lon="11.266792"><ele>323.0</ele><time>2026-05-01T07:36:32.624Z</time></trkpt><trkpt lat="43.434395" lon="11.2668685"><ele>323.0</ele><time>2026-05-01T07:36:35.63Z</time></trkpt><trkpt lat="43.4344464" lon="11.2669485"><ele>323.0</ele><time>2026-05-01T07:36:41.624Z</time></trkpt><trkpt lat="43.4345111" lon="11.2670016"><ele>323.0</ele><time>2026-05-01T07:36:45.684Z</time></trkpt><trkpt lat="43.4345597" lon="11.267064"><ele>323.00000000000006</ele><time>2026-05-01T07:36:49.698Z</time></trkpt><trkpt lat="43.4346085" lon="11.2671302"><ele>323.0</ele><time>2026-05-01T07:36:53.61Z</time></trkpt><trkpt lat="43.434659" lon="11.2671865"><ele>323.14285714285717</ele><time>2026-05-01T07:36:57.618Z</time></trkpt><trkpt lat="43.4347111" lon="11.267253"><ele>323.2857142857143</ele><time>2026-05-01T07:37:01.619Z</time></trkpt><trkpt lat="43.4347661" lon="11.2673136"><ele>323.42857142857144</ele><time>2026-05-01T07:37:05.635Z</time></trkpt><trkpt lat="43.4348166" lon="11.2673769"><ele>323.57142857142856</ele><time>2026-05-01T07:37:09.633Z</time></trkpt><trkpt lat="43.4348542" lon="11.2674548"><ele>323.7142857142857</ele><time>2026-05-01T07:37:15.7Z</time></trkpt><trkpt lat="43.434908" lon="11.2675301"><ele>323.8571428571429</ele><time>2026-05-01T07:37:20.63Z</time></trkpt><trkpt lat="43.4349566" lon="11.2675916"><ele>324.0</ele><time>2026-05-01T07:37:23.634Z</time></trkpt><trkpt lat="43.4350117" lon="11.2676456"><ele>325.14285714285717</ele><time>2026-05-01T07:37:27.622Z</time></trkpt><trkpt lat="43.4350618" lon="11.2677095"><ele>326.2857142857143</ele><time>2026-05-01T07:37:31.64Z</time></trkpt><trkpt lat="43.4351136" lon="11.2677671"><ele>327.42857142857144</ele><time>2026-05-01T07:37:35.617Z</time></trkpt><trkpt lat="43.4351618" lon="11.2678333"><ele>328.57142857142856</ele><time>2026-05-01T07:37:39.707Z</time></trkpt><trkpt lat="43.4351999" lon="11.2679099"><ele>329.7142857142857</ele><time>2026-05-01T07:37:44.608Z</time></trkpt><trkpt lat="43.4352451" lon="11.2680043"><ele>330.85714285714283</ele><time>2026-05-01T07:37:51.615Z</time></trkpt><trkpt lat="43.4353172" lon="11.268048"><ele>332.0</ele><time>2026-05-01T07:37:55.7Z</time></trkpt><trkpt lat="43.43538" lon="11.2680933"><ele>332.4285714285714</ele><time>2026-05-01T07:37:58.627Z</time></trkpt><trkpt lat="43.4354289" lon="11.2681746"><ele>332.8571428571429</ele><time>2026-05-01T07:38:01.623Z</time></trkpt><trkpt lat="43.4354803" lon="11.2682326"><ele>333.2857142857143</ele><time>2026-05-01T07:38:05.63Z</time></trkpt><trkpt lat="43.4355279" lon="11.2683009"><ele>333.71428571428567</ele><time>2026-05-01T07:38:09.627Z</time></trkpt><trkpt lat="43.4355982" lon="11.2683598"><ele>334.1428571428571</ele><time>2026-05-01T07:38:14.606Z</time></trkpt><trkpt lat="43.4356357" lon="11.2684336"><ele>334.57142857142856</ele><time>2026-05-01T07:38:18.668Z</time></trkpt><trkpt lat="43.4356928" lon="11.2684998"><ele>335.0</ele><time>2026-05-01T07:38:23.627Z</time></trkpt><trkpt lat="43.4357517" lon="11.2685631"><ele>335.71428571428567</ele><time>2026-05-01T07:38:28.624Z</time></trkpt><trkpt lat="43.4358028" lon="11.2686348"><ele>336.42857142857144</ele><time>2026-05-01T07:38:32.612Z</time></trkpt><trkpt lat="43.4358606" lon="11.2687011"><ele>337.1428571428571</ele><time>2026-05-01T07:38:37.63Z</time></trkpt><trkpt lat="43.4359076" lon="11.2687657"><ele>337.85714285714283</ele><time>2026-05-01T07:38:41.622Z</time></trkpt><trkpt lat="43.4359522" lon="11.2688316"><ele>338.57142857142856</ele><time>2026-05-01T07:38:45.621Z</time></trkpt><trkpt lat="43.4360009" lon="11.2688929"><ele>339.2857142857143</ele><time>2026-05-01T07:38:49.699Z</time></trkpt><trkpt lat="43.4360534" lon="11.2689726"><ele>340.0</ele><time>2026-05-01T07:38:54.618Z</time></trkpt><trkpt lat="43.436104" lon="11.2690479"><ele>340.2857142857143</ele><time>2026-05-01T07:38:59.625Z</time></trkpt><trkpt lat="43.4361609" lon="11.2691174"><ele>340.57142857142856</ele><time>2026-05-01T07:39:05.688Z</time></trkpt><trkpt lat="43.4362186" lon="11.2691721"><ele>340.85714285714283</ele><time>2026-05-01T07:39:09.683Z</time></trkpt><trkpt lat="43.4362751" lon="11.2692407"><ele>341.1428571428571</ele><time>2026-05-01T07:39:13.606Z</time></trkpt><trkpt lat="43.4363138" lon="11.2693272"><ele>341.42857142857144</ele><time>2026-05-01T07:39:17.599Z</time></trkpt><trkpt lat="43.4363251" lon="11.2694215"><ele>341.71428571428567</ele><time>2026-05-01T07:39:21.586Z</time></trkpt><trkpt lat="43.4363549" lon="11.2695011"><ele>342.0</ele><time>2026-05-01T07:39:25.673Z</time></trkpt><trkpt lat="43.4363998" lon="11.2695836"><ele>341.99999999999994</ele><time>2026-05-01T07:39:30.602Z</time></trkpt><trkpt lat="43.4364453" lon="11.2696554"><ele>342.0</ele><time>2026-05-01T07:39:34.663Z</time></trkpt><trkpt lat="43.4364948" lon="11.2697103"><ele>342.0</ele><time>2026-05-01T07:39:38.656Z</time></trkpt><trkpt lat="43.4365421" lon="11.2697758"><ele>342.0</ele><time>2026-05-01T07:39:42.594Z</time></trkpt><trkpt lat="43.4365857" lon="11.2698406"><ele>342.0</ele><time>2026-05-01T07:39:46.608Z</time></trkpt><trkpt lat="43.4366394" lon="11.2699113"><ele>341.99999999999994</ele><time>2026-05-01T07:39:51.605Z</time></trkpt><trkpt lat="43.4366962" lon="11.2699901"><ele>342.0</ele><time>2026-05-01T07:39:56.596Z</time></trkpt><trkpt lat="43.4367447" lon="11.2700511"><ele>343.4285714285714</ele><time>2026-05-01T07:40:00.69Z</time></trkpt><trkpt lat="43.4368168" lon="11.2701189"><ele>344.85714285714283</ele><time>2026-05-01T07:40:05.604Z</time></trkpt><trkpt lat="43.436871" lon="11.2701639"><ele>346.2857142857143</ele><time>2026-05-01T07:40:09.61Z</time></trkpt><trkpt lat="43.4369167" lon="11.2702429"><ele>347.71428571428567</ele><time>2026-05-01T07:40:14.588Z</time></trkpt><trkpt lat="43.4369617" lon="11.2703088"><ele>349.1428571428571</ele><time>2026-05-01T07:40:18.613Z</time></trkpt><trkpt lat="43.4370191" lon="11.2703761"><ele>350.57142857142856</ele><time>2026-05-01T07:40:23.599Z</time></trkpt><trkpt lat="43.4370661" lon="11.2704489"><ele>352.0</ele><time>2026-05-01T07:40:28.598Z</time></trkpt><trkpt lat="43.4371188" lon="11.270512"><ele>352.0</ele><time>2026-05-01T07:40:33.584Z</time></trkpt><trkpt lat="43.4371627" lon="11.2705752"><ele>352.0</ele><time>2026-05-01T07:40:37.619Z</time></trkpt><trkpt lat="43.4372143" lon="11.270645"><ele>352.0</ele><time>2026-05-01T07:40:42.607Z</time></trkpt><trkpt lat="43.4372659" lon="11.2707139"><ele>352.0</ele><time>2026-05-01T07:40:47.607Z</time></trkpt><trkpt lat="43.4373193" lon="11.2707801"><ele>352.0</ele><time>2026-05-01T07:40:52.591Z</time></trkpt><trkpt lat="43.4373771" lon="11.2708498"><ele>352.0</ele><time>2026-05-01T07:40:57.593Z</time></trkpt><trkpt lat="43.4374323" lon="11.2709178"><ele>352.0</ele><time>2026-05-01T07:41:02.598Z</time></trkpt><trkpt lat="43.4374794" lon="11.2709771"><ele>352.8571428571429</ele><time>2026-05-01T07:41:06.607Z</time></trkpt><trkpt lat="43.4375241" lon="11.2710388"><ele>353.7142857142857</ele><time>2026-05-01T07:41:10.602Z</time></trkpt><trkpt lat="43.4375731" lon="11.2711056"><ele>354.57142857142856</ele><time>2026-05-01T07:41:14.588Z</time></trkpt><trkpt lat="43.4376285" lon="11.271175"><ele>355.42857142857144</ele><time>2026-05-01T07:41:19.603Z</time></trkpt><trkpt lat="43.4376831" lon="11.2712297"><ele>356.2857142857143</ele><time>2026-05-01T07:41:23.614Z</time></trkpt><trkpt lat="43.4377359" lon="11.2712927"><ele>357.14285714285717</ele><time>2026-05-01T07:41:27.611Z</time></trkpt><trkpt lat="43.4377968" lon="11.2713333"><ele>358.0</ele><time>2026-05-01T07:41:31.602Z</time></trkpt><trkpt lat="43.4378607" lon="11.2713796"><ele>358.00000000000006</ele><time>2026-05-01T07:41:36.603Z</time></trkpt><trkpt lat="43.4379225" lon="11.2714166"><ele>358.0</ele><time>2026-05-01T07:41:40.604Z</time></trkpt><trkpt lat="43.4379843" lon="11.2714552"><ele>358.0</ele><time>2026-05-01T07:41:44.604Z</time></trkpt><trkpt lat="43.4380588" lon="11.2714752"><ele>358.0</ele><time>2026-05-01T07:41:48.598Z</time></trkpt><trkpt lat="43.4381313" lon="11.2714798"><ele>358.0</ele><time>2026-05-01T07:41:52.597Z</time></trkpt><trkpt lat="43.4382009" lon="11.2714651"><ele>358.00000000000006</ele><time>2026-05-01T07:41:56.595Z</time></trkpt><trkpt lat="43.4382749" lon="11.271469"><ele>358.0</ele><time>2026-05-01T07:42:00.671Z</time></trkpt><trkpt lat="43.4383412" lon="11.2714749"><ele>359.5714285714286</ele><time>2026-05-01T07:42:03.649Z</time></trkpt><trkpt lat="43.4384211" lon="11.2715023"><ele>361.14285714285717</ele><time>2026-05-01T07:42:09.666Z</time></trkpt><trkpt lat="43.4385" lon="11.2715123"><ele>362.7142857142857</ele><time>2026-05-01T07:42:12.597Z</time></trkpt><trkpt lat="43.4385736" lon="11.2715243"><ele>364.28571428571433</ele><time>2026-05-01T07:42:17.601Z</time></trkpt><trkpt lat="43.4386387" lon="11.2715378"><ele>365.85714285714283</ele><time>2026-05-01T07:42:21.596Z</time></trkpt><trkpt lat="43.4387024" lon="11.2715506"><ele>367.42857142857144</ele><time>2026-05-01T07:42:25.604Z</time></trkpt><trkpt lat="43.4387648" lon="11.2715676"><ele>369.0</ele><time>2026-05-01T07:42:29.675Z</time></trkpt><trkpt lat="43.4388314" lon="11.2715727"><ele>371.1428571428571</ele><time>2026-05-01T07:42:33.651Z</time></trkpt><trkpt lat="43.4388975" lon="11.2715574"><ele>373.2857142857143</ele><time>2026-05-01T07:42:38.61Z</time></trkpt><trkpt lat="43.4389613" lon="11.2715897"><ele>375.42857142857144</ele><time>2026-05-01T07:42:44.669Z</time></trkpt><trkpt lat="43.439033" lon="11.2715975"><ele>377.57142857142856</ele><time>2026-05-01T07:42:48.662Z</time></trkpt><trkpt lat="43.4391111" lon="11.2716226"><ele>379.7142857142857</ele><time>2026-05-01T07:42:52.615Z</time></trkpt><trkpt lat="43.4391728" lon="11.2716413"><ele>381.85714285714283</ele><time>2026-05-01T07:42:56.608Z</time></trkpt><trkpt lat="43.4392451" lon="11.2716477"><ele>384.0</ele><time>2026-05-01T07:43:01.61Z</time></trkpt><trkpt lat="43.4393101" lon="11.2716436"><ele>383.99999999999994</ele><time>2026-05-01T07:43:06.613Z</time></trkpt><trkpt lat="43.4393794" lon="11.2716289"><ele>384.0</ele><time>2026-05-01T07:43:10.69Z</time></trkpt><trkpt lat="43.4394543" lon="11.2715906"><ele>384.0</ele><time>2026-05-01T07:43:15.599Z</time></trkpt><trkpt lat="43.4395253" lon="11.2715748"><ele>384.0</ele><time>2026-05-01T07:43:19.602Z</time></trkpt><trkpt lat="43.4395938" lon="11.271553"><ele>384.0</ele><time>2026-05-01T07:43:23.6Z</time></trkpt><trkpt lat="43.4396603" lon="11.2715305"><ele>383.99999999999994</ele><time>2026-05-01T07:43:27.604Z</time></trkpt><trkpt lat="43.4397303" lon="11.2714992"><ele>384.0</ele><time>2026-05-01T07:43:31.611Z</time></trkpt><trkpt lat="43.4398014" lon="11.271463"><ele>384.85714285714283</ele><time>2026-05-01T07:43:36.608Z</time></trkpt><trkpt lat="43.4398673" lon="11.2714422"><ele>385.7142857142857</ele><time>2026-05-01T07:43:40.597Z</time></trkpt><trkpt lat="43.4399413" lon="11.2714125"><ele>386.57142857142856</ele><time>2026-05-01T07:43:45.613Z</time></trkpt><trkpt lat="43.4400178" lon="11.2713925"><ele>387.42857142857144</ele><time>2026-05-01T07:43:50.607Z</time></trkpt><trkpt lat="43.440079" lon="11.2713702"><ele>388.2857142857143</ele><time>2026-05-01T07:43:54.604Z</time></trkpt><trkpt lat="43.4401522" lon="11.271333"><ele>389.1428571428571</ele><time>2026-05-01T07:43:59.601Z</time></trkpt><trkpt lat="43.4402266" lon="11.2713029"><ele>390.0</ele><time>2026-05-01T07:44:04.598Z</time></trkpt><trkpt lat="43.4402879" lon="11.2712783"><ele>390.7142857142857</ele><time>2026-05-01T07:44:08.598Z</time></trkpt><trkpt lat="43.4403626" lon="11.2712491"><ele>391.42857142857144</ele><time>2026-05-01T07:44:13.601Z</time></trkpt><trkpt lat="43.4404231" lon="11.271224"><ele>392.1428571428571</ele><time>2026-05-01T07:44:17.584Z</time></trkpt><trkpt lat="43.4404852" lon="11.2711912"><ele>392.8571428571429</ele><time>2026-05-01T07:44:21.61Z</time></trkpt><trkpt lat="43.4405495" lon="11.2711669"><ele>393.5714285714286</ele><time>2026-05-01T07:44:25.606Z</time></trkpt><trkpt lat="43.4406134" lon="11.2711516"><ele>394.2857142857143</ele><time>2026-05-01T07:44:29.604Z</time></trkpt><trkpt lat="43.4406784" lon="11.2711218"><ele>395.0</ele><time>2026-05-01T07:44:33.586Z</time></trkpt><trkpt lat="43.4407547" lon="11.2710936"><ele>395.57142857142856</ele><time>2026-05-01T07:44:37.599Z</time></trkpt><trkpt lat="43.4408199" lon="11.2710584"><ele>396.14285714285717</ele><time>2026-05-01T07:44:41.592Z</time></trkpt><trkpt lat="43.440898" lon="11.2710305"><ele>396.7142857142857</ele><time>2026-05-01T07:44:45.676Z</time></trkpt><trkpt lat="43.4409662" lon="11.2710065"><ele>397.2857142857143</ele><time>2026-05-01T07:44:49.61Z</time></trkpt><trkpt lat="43.4410317" lon="11.2709781"><ele>397.8571428571429</ele><time>2026-05-01T07:44:53.595Z</time></trkpt><trkpt lat="43.4411065" lon="11.27094"><ele>398.42857142857144</ele><time>2026-05-01T07:44:57.6Z</time></trkpt><trkpt lat="43.4411823" lon="11.2709106"><ele>399.0</ele><time>2026-05-01T07:45:01.61Z</time></trkpt><trkpt lat="43.4412542" lon="11.2708787"><ele>399.0</ele><time>2026-05-01T07:45:05.62Z</time></trkpt><trkpt lat="43.4413274" lon="11.270845"><ele>399.0</ele><time>2026-05-01T07:45:09.605Z</time></trkpt><trkpt lat="43.4414012" lon="11.2708205"><ele>399.0</ele><time>2026-05-01T07:45:13.599Z</time></trkpt><trkpt lat="43.4415295" lon="11.2707555"><ele>399.0</ele><time>2026-05-01T07:45:19.667Z</time></trkpt><trkpt lat="43.4416143" lon="11.2707279"><ele>399.0</ele><time>2026-05-01T07:45:25.675Z</time></trkpt><trkpt lat="43.4416889" lon="11.2707147"><ele>399.0</ele><time>2026-05-01T07:45:29.678Z</time></trkpt><trkpt lat="43.4417538" lon="11.2706643"><ele>399.0</ele><time>2026-05-01T07:45:34.665Z</time></trkpt><trkpt lat="43.441824" lon="11.2706519"><ele>399.0</ele><time>2026-05-01T07:45:37.608Z</time></trkpt><trkpt lat="43.4418998" lon="11.2706305"><ele>399.0</ele><time>2026-05-01T07:45:41.617Z</time></trkpt><trkpt lat="43.4419762" lon="11.2706031"><ele>399.0</ele><time>2026-05-01T07:45:45.605Z</time></trkpt><trkpt lat="43.4420469" lon="11.2705655"><ele>399.0</ele><time>2026-05-01T07:45:49.672Z</time></trkpt><trkpt lat="43.4421091" lon="11.2705315"><ele>399.0</ele><time>2026-05-01T07:45:53.602Z</time></trkpt><trkpt lat="43.4421814" lon="11.2704888"><ele>400.3333333333333</ele><time>2026-05-01T07:45:56.612Z</time></trkpt><trkpt lat="43.4422606" lon="11.2704604"><ele>401.66666666666663</ele><time>2026-05-01T07:45:59.651Z</time></trkpt><trkpt lat="43.4423293" lon="11.2704399"><ele>403.0</ele><time>2026-05-01T07:46:02.606Z</time></trkpt><trkpt lat="43.4423985" lon="11.2704274"><ele>404.3333333333333</ele><time>2026-05-01T07:46:05.596Z</time></trkpt><trkpt lat="43.4424644" lon="11.2704204"><ele>405.66666666666663</ele><time>2026-05-01T07:46:08.653Z</time></trkpt><trkpt lat="43.4425462" lon="11.2704108"><ele>407.0</ele><time>2026-05-01T07:46:11.589Z</time></trkpt><trkpt lat="43.4426257" lon="11.2704088"><ele>407.00000000000006</ele><time>2026-05-01T07:46:14.606Z</time></trkpt><trkpt lat="43.4426841" lon="11.2704475"><ele>407.0</ele><time>2026-05-01T07:46:17.612Z</time></trkpt><trkpt lat="43.4427545" lon="11.2704754"><ele>407.0</ele><time>2026-05-01T07:46:20.6Z</time></trkpt><trkpt lat="43.4428176" lon="11.2705159"><ele>407.0</ele><time>2026-05-01T07:46:23.595Z</time></trkpt><trkpt lat="43.4428799" lon="11.2705513"><ele>407.0</ele><time>2026-05-01T07:46:26.594Z</time></trkpt><trkpt lat="43.4429456" lon="11.2705908"><ele>407.00000000000006</ele><time>2026-05-01T07:46:29.685Z</time></trkpt><trkpt lat="43.4430086" lon="11.2706617"><ele>407.0</ele><time>2026-05-01T07:46:32.606Z</time></trkpt><trkpt lat="43.4430645" lon="11.2707209"><ele>407.3333333333333</ele><time>2026-05-01T07:46:35.664Z</time></trkpt><trkpt lat="43.4431362" lon="11.2707646"><ele>407.66666666666663</ele><time>2026-05-01T07:46:38.671Z</time></trkpt><trkpt lat="43.4431847" lon="11.2708369"><ele>408.0</ele><time>2026-05-01T07:46:41.622Z</time></trkpt><trkpt lat="43.4432238" lon="11.270926"><ele>408.33333333333337</ele><time>2026-05-01T07:46:44.668Z</time></trkpt><trkpt lat="43.443283" lon="11.2710096"><ele>408.6666666666667</ele><time>2026-05-01T07:46:47.62Z</time></trkpt><trkpt lat="43.4433223" lon="11.2711041"><ele>409.0</ele><time>2026-05-01T07:46:51.619Z</time></trkpt><trkpt lat="43.4433524" lon="11.271188"><ele>409.0</ele><time>2026-05-01T07:46:54.608Z</time></trkpt><trkpt lat="43.4433779" lon="11.2712764"><ele>409.0</ele><time>2026-05-01T07:46:57.613Z</time></trkpt><trkpt lat="43.4433968" lon="11.2713622"><ele>409.0</ele><time>2026-05-01T07:47:00.587Z</time></trkpt><trkpt lat="43.4434185" lon="11.2714569"><ele>409.0</ele><time>2026-05-01T07:47:03.674Z</time></trkpt><trkpt lat="43.4434483" lon="11.2715467"><ele>409.0</ele><time>2026-05-01T07:47:06.59Z</time></trkpt><trkpt lat="43.4434799" lon="11.2716334"><ele>409.0</ele><time>2026-05-01T07:47:09.693Z</time></trkpt><trkpt lat="43.4434904" lon="11.2717321"><ele>409.0</ele><time>2026-05-01T07:47:12.598Z</time></trkpt><trkpt lat="43.4435202" lon="11.2718208"><ele>408.57142857142856</ele><time>2026-05-01T07:47:15.61Z</time></trkpt><trkpt lat="43.4435468" lon="11.2719181"><ele>408.14285714285717</ele><time>2026-05-01T07:47:18.65Z</time></trkpt><trkpt lat="43.4435717" lon="11.2720059"><ele>407.7142857142857</ele><time>2026-05-01T07:47:21.595Z</time></trkpt><trkpt lat="43.4436057" lon="11.2721093"><ele>407.2857142857143</ele><time>2026-05-01T07:47:24.605Z</time></trkpt><trkpt lat="43.4436318" lon="11.2721952"><ele>406.8571428571429</ele><time>2026-05-01T07:47:27.61Z</time></trkpt><trkpt lat="43.4436553" lon="11.2722865"><ele>406.42857142857144</ele><time>2026-05-01T07:47:30.611Z</time></trkpt><trkpt lat="43.4436883" lon="11.2723764"><ele>406.0</ele><time>2026-05-01T07:47:33.608Z</time></trkpt><trkpt lat="43.4437236" lon="11.2724672"><ele>405.50000000000006</ele><time>2026-05-01T07:47:36.593Z</time></trkpt><trkpt lat="43.443764" lon="11.2725728"><ele>405.0</ele><time>2026-05-01T07:47:39.697Z</time></trkpt><trkpt lat="43.4438011" lon="11.2726724"><ele>404.5</ele><time>2026-05-01T07:47:42.62Z</time></trkpt><trkpt lat="43.4438464" lon="11.272771"><ele>404.0</ele><time>2026-05-01T07:47:45.622Z</time></trkpt><trkpt lat="43.4439004" lon="11.2728728"><ele>403.50000000000006</ele><time>2026-05-01T07:47:48.651Z</time></trkpt><trkpt lat="43.4439642" lon="11.2729668"><ele>403.0</ele><time>2026-05-01T07:47:51.6Z</time></trkpt><trkpt lat="43.4440113" lon="11.273035"><ele>404.42857142857144</ele><time>2026-05-01T07:47:53.659Z</time></trkpt><trkpt lat="43.4440572" lon="11.2731027"><ele>405.85714285714283</ele><time>2026-05-01T07:47:55.685Z</time></trkpt><trkpt lat="43.4441018" lon="11.2731776"><ele>407.2857142857143</ele><time>2026-05-01T07:47:57.579Z</time></trkpt><trkpt lat="43.4441456" lon="11.2732425"><ele>408.7142857142857</ele><time>2026-05-01T07:47:59.679Z</time></trkpt><trkpt lat="43.4442005" lon="11.2732912"><ele>410.1428571428571</ele><time>2026-05-01T07:48:01.602Z</time></trkpt><trkpt lat="43.4442593" lon="11.2733422"><ele>411.57142857142856</ele><time>2026-05-01T07:48:03.583Z</time></trkpt><trkpt lat="43.444319" lon="11.2733913"><ele>413.0</ele><time>2026-05-01T07:48:05.588Z</time></trkpt><trkpt lat="43.444384" lon="11.2734345"><ele>412.99999999999994</ele><time>2026-05-01T07:48:07.606Z</time></trkpt><trkpt lat="43.4444424" lon="11.2734794"><ele>413.0</ele><time>2026-05-01T07:48:09.61Z</time></trkpt><trkpt lat="43.4445253" lon="11.2735409"><ele>413.0</ele><time>2026-05-01T07:48:12.602Z</time></trkpt><trkpt lat="43.4445943" lon="11.2735795"><ele>413.0</ele><time>2026-05-01T07:48:14.678Z</time></trkpt><trkpt lat="43.4446735" lon="11.273623"><ele>412.99999999999994</ele><time>2026-05-01T07:48:16.603Z</time></trkpt><trkpt lat="43.444732" lon="11.273667"><ele>413.0</ele><time>2026-05-01T07:48:18.672Z</time></trkpt><trkpt lat="43.4448912" lon="11.2737704"><ele>412.66666666666663</ele><time>2026-05-01T07:48:23.586Z</time></trkpt><trkpt lat="43.444894" lon="11.273887"><ele>412.3333333333333</ele><time>2026-05-01T07:48:26.572Z</time></trkpt><trkpt lat="43.4449619" lon="11.2739964"><ele>412.0</ele><time>2026-05-01T07:48:28.581Z</time></trkpt><trkpt lat="43.4450468" lon="11.2740025"><ele>411.66666666666663</ele><time>2026-05-01T07:48:30.585Z</time></trkpt><trkpt lat="43.4451274" lon="11.2739799"><ele>411.3333333333333</ele><time>2026-05-01T07:48:32.599Z</time></trkpt><trkpt lat="43.4452091" lon="11.2740159"><ele>411.0</ele><time>2026-05-01T07:48:35.581Z</time></trkpt><trkpt lat="43.4452608" lon="11.2740664"><ele>411.0</ele><time>2026-05-01T07:48:37.606Z</time></trkpt><trkpt lat="43.4453147" lon="11.2741195"><ele>411.0</ele><time>2026-05-01T07:48:39.6Z</time></trkpt><trkpt lat="43.4453691" lon="11.2741663"><ele>411.0</ele><time>2026-05-01T07:48:41.609Z</time></trkpt><trkpt lat="43.4454412" lon="11.2742497"><ele>411.0</ele><time>2026-05-01T07:48:44.605Z</time></trkpt><trkpt lat="43.4455057" lon="11.2743394"><ele>411.0</ele><time>2026-05-01T07:48:47.613Z</time></trkpt><trkpt lat="43.445569" lon="11.2744389"><ele>411.0</ele><time>2026-05-01T07:48:50.584Z</time></trkpt><trkpt lat="43.445613" lon="11.2745051"><ele>411.1666666666667</ele><time>2026-05-01T07:48:52.606Z</time></trkpt><trkpt lat="43.4456697" lon="11.2746021"><ele>411.33333333333337</ele><time>2026-05-01T07:48:55.672Z</time></trkpt><trkpt lat="43.4457077" lon="11.2747158"><ele>411.5</ele><time>2026-05-01T07:48:58.604Z</time></trkpt><trkpt lat="43.4457334" lon="11.2747983"><ele>411.6666666666667</ele><time>2026-05-01T07:49:00.688Z</time></trkpt><trkpt lat="43.4457692" lon="11.274919"><ele>411.83333333333337</ele><time>2026-05-01T07:49:03.605Z</time></trkpt><trkpt lat="43.4458028" lon="11.2750365"><ele>412.0</ele><time>2026-05-01T07:49:06.598Z</time></trkpt><trkpt lat="43.4458384" lon="11.2751108"><ele>411.99999999999994</ele><time>2026-05-01T07:49:08.613Z</time></trkpt><trkpt lat="43.4458544" lon="11.2752144"><ele>412.0</ele><time>2026-05-01T07:49:11.62Z</time></trkpt><trkpt lat="43.445877" lon="11.2752991"><ele>412.0</ele><time>2026-05-01T07:49:14.601Z</time></trkpt><trkpt lat="43.4459013" lon="11.2753921"><ele>412.0</ele><time>2026-05-01T07:49:17.601Z</time></trkpt><trkpt lat="43.4459261" lon="11.275484"><ele>412.0</ele><time>2026-05-01T07:49:20.579Z</time></trkpt><trkpt lat="43.4459529" lon="11.2755785"><ele>411.99999999999994</ele><time>2026-05-01T07:49:23.605Z</time></trkpt><trkpt lat="43.4459876" lon="11.27567"><ele>412.0</ele><time>2026-05-01T07:49:26.594Z</time></trkpt><trkpt lat="43.446007" lon="11.2757834"><ele>412.4285714285714</ele><time>2026-05-01T07:49:30.6Z</time></trkpt><trkpt lat="43.4460253" lon="11.2758774"><ele>412.85714285714283</ele><time>2026-05-01T07:49:33.663Z</time></trkpt><trkpt lat="43.4460516" lon="11.2759568"><ele>413.2857142857143</ele><time>2026-05-01T07:49:36.596Z</time></trkpt><trkpt lat="43.4460673" lon="11.2760556"><ele>413.71428571428567</ele><time>2026-05-01T07:49:40.672Z</time></trkpt><trkpt lat="43.4460945" lon="11.2761499"><ele>414.14285714285717</ele><time>2026-05-01T07:49:42.6Z</time></trkpt><trkpt lat="43.4461312" lon="11.2762511"><ele>414.57142857142856</ele><time>2026-05-01T07:49:46.6Z</time></trkpt><trkpt lat="43.4461545" lon="11.2763337"><ele>415.0</ele><time>2026-05-01T07:49:49.611Z</time></trkpt><trkpt lat="43.4461908" lon="11.2764159"><ele>415.57142857142856</ele><time>2026-05-01T07:49:54.61Z</time></trkpt><trkpt lat="43.4462169" lon="11.2765119"><ele>416.14285714285717</ele><time>2026-05-01T07:49:58.611Z</time></trkpt><trkpt lat="43.4462359" lon="11.2766047"><ele>416.71428571428567</ele><time>2026-05-01T07:50:02.601Z</time></trkpt><trkpt lat="43.4462054" lon="11.2766943"><ele>417.2857142857143</ele><time>2026-05-01T07:50:06.587Z</time></trkpt><trkpt lat="43.4462526" lon="11.2767586"><ele>417.85714285714283</ele><time>2026-05-01T07:50:09.669Z</time></trkpt><trkpt lat="43.4462931" lon="11.2768269"><ele>418.4285714285714</ele><time>2026-05-01T07:50:11.597Z</time></trkpt><trkpt lat="43.4463273" lon="11.2769004"><ele>419.0</ele><time>2026-05-01T07:50:15.648Z</time></trkpt><trkpt lat="43.4463696" lon="11.2769737"><ele>419.85714285714283</ele><time>2026-05-01T07:50:20.592Z</time></trkpt><trkpt lat="43.4464181" lon="11.277044"><ele>420.7142857142857</ele><time>2026-05-01T07:50:24.616Z</time></trkpt><trkpt lat="43.4464539" lon="11.2771168"><ele>421.57142857142856</ele><time>2026-05-01T07:50:28.61Z</time></trkpt><trkpt lat="43.4464913" lon="11.2771969"><ele>422.42857142857144</ele><time>2026-05-01T07:50:32.606Z</time></trkpt><trkpt lat="43.4465404" lon="11.277271"><ele>423.2857142857143</ele><time>2026-05-01T07:50:36.618Z</time></trkpt><trkpt lat="43.4465855" lon="11.277337"><ele>424.1428571428571</ele><time>2026-05-01T07:50:40.679Z</time></trkpt><trkpt lat="43.4466352" lon="11.2774111"><ele>425.0</ele><time>2026-05-01T07:50:44.68Z</time></trkpt><trkpt lat="43.4466875" lon="11.2774753"><ele>425.2857142857143</ele><time>2026-05-01T07:50:48.667Z</time></trkpt><trkpt lat="43.4467525" lon="11.2775447"><ele>425.57142857142856</ele><time>2026-05-01T07:50:51.598Z</time></trkpt><trkpt lat="43.4467872" lon="11.2776314"><ele>425.8571428571429</ele><time>2026-05-01T07:50:56.58Z</time></trkpt><trkpt lat="43.4468379" lon="11.2776937"><ele>426.1428571428571</ele><time>2026-05-01T07:51:01.616Z</time></trkpt><trkpt lat="43.4468967" lon="11.2777676"><ele>426.42857142857144</ele><time>2026-05-01T07:51:06.594Z</time></trkpt><trkpt lat="43.446943" lon="11.2778264"><ele>426.7142857142857</ele><time>2026-05-01T07:51:10.615Z</time></trkpt><trkpt lat="43.4469882" lon="11.2778899"><ele>427.0</ele><time>2026-05-01T07:51:14.664Z</time></trkpt><trkpt lat="43.4470231" lon="11.2779658"><ele>427.00000000000006</ele><time>2026-05-01T07:51:17.608Z</time></trkpt><trkpt lat="43.4470811" lon="11.2780343"><ele>427.0</ele><time>2026-05-01T07:51:22.601Z</time></trkpt><trkpt lat="43.4471339" lon="11.2781016"><ele>427.0</ele><time>2026-05-01T07:51:27.619Z</time></trkpt><trkpt lat="43.4471939" lon="11.2781861"><ele>427.0</ele><time>2026-05-01T07:51:32.61Z</time></trkpt><trkpt lat="43.4472652" lon="11.2782419"><ele>427.00000000000006</ele><time>2026-05-01T07:51:36.61Z</time></trkpt><trkpt lat="43.4473054" lon="11.2783111"><ele>427.0</ele><time>2026-05-01T07:51:42.608Z</time></trkpt><trkpt lat="43.4473583" lon="11.2783783"><ele>428.85714285714283</ele><time>2026-05-01T07:51:47.614Z</time></trkpt><trkpt lat="43.4474079" lon="11.2784537"><ele>430.7142857142857</ele><time>2026-05-01T07:51:52.604Z</time></trkpt><trkpt lat="43.4474534" lon="11.2785453"><ele>432.57142857142856</ele><time>2026-05-01T07:51:55.684Z</time></trkpt><trkpt lat="43.4474863" lon="11.2786196"><ele>434.42857142857144</ele><time>2026-05-01T07:52:01.621Z</time></trkpt><trkpt lat="43.4475483" lon="11.278664"><ele>436.2857142857143</ele><time>2026-05-01T07:52:06.618Z</time></trkpt><trkpt lat="43.4475644" lon="11.2787602"><ele>438.1428571428571</ele><time>2026-05-01T07:52:11.6Z</time></trkpt><trkpt lat="43.4476299" lon="11.278812"><ele>440.0</ele><time>2026-05-01T07:52:15.6Z</time></trkpt><trkpt lat="43.4476799" lon="11.2788754"><ele>439.66666666666663</ele><time>2026-05-01T07:52:19.596Z</time></trkpt><trkpt lat="43.4477216" lon="11.2789471"><ele>439.3333333333333</ele><time>2026-05-01T07:52:23.612Z</time></trkpt><trkpt lat="43.4477657" lon="11.27903"><ele>439.0</ele><time>2026-05-01T07:52:27.607Z</time></trkpt><trkpt lat="43.4478304" lon="11.2791783"><ele>438.66666666666663</ele><time>2026-05-01T07:52:34.608Z</time></trkpt><trkpt lat="43.4478651" lon="11.2792773"><ele>438.3333333333333</ele><time>2026-05-01T07:52:41.588Z</time></trkpt><trkpt lat="43.4478947" lon="11.2793736"><ele>438.0</ele><time>2026-05-01T07:52:46.601Z</time></trkpt><trkpt lat="43.4479167" lon="11.279474"><ele>438.0</ele><time>2026-05-01T07:52:51.612Z</time></trkpt><trkpt lat="43.4479404" lon="11.279574"><ele>438.0</ele><time>2026-05-01T07:52:56.615Z</time></trkpt><trkpt lat="43.4479534" lon="11.2796737"><ele>438.0</ele><time>2026-05-01T07:53:01.597Z</time></trkpt><trkpt lat="43.4479758" lon="11.2797703"><ele>438.0</ele><time>2026-05-01T07:53:06.619Z</time></trkpt><trkpt lat="43.4479928" lon="11.2798617"><ele>438.0</ele><time>2026-05-01T07:53:10.665Z</time></trkpt><trkpt lat="43.4479942" lon="11.2799511"><ele>438.0</ele><time>2026-05-01T07:53:13.656Z</time></trkpt><trkpt lat="43.4480381" lon="11.2800417"><ele>438.0</ele><time>2026-05-01T07:53:17.612Z</time></trkpt><trkpt lat="43.4480479" lon="11.2801275"><ele>439.14285714285717</ele><time>2026-05-01T07:53:23.67Z</time></trkpt><trkpt lat="43.448085" lon="11.2802184"><ele>440.2857142857143</ele><time>2026-05-01T07:53:29.605Z</time></trkpt><trkpt lat="43.448103" lon="11.2803059"><ele>441.42857142857144</ele><time>2026-05-01T07:53:33.602Z</time></trkpt><trkpt lat="43.4481224" lon="11.2803937"><ele>442.57142857142856</ele><time>2026-05-01T07:53:37.597Z</time></trkpt><trkpt lat="43.4481513" lon="11.2804872"><ele>443.71428571428567</ele><time>2026-05-01T07:53:42.606Z</time></trkpt><trkpt lat="43.4481723" lon="11.2805822"><ele>444.85714285714283</ele><time>2026-05-01T07:53:46.596Z</time></trkpt><trkpt lat="43.4482064" lon="11.2806721"><ele>446.0</ele><time>2026-05-01T07:53:50.661Z</time></trkpt><trkpt lat="43.4482526" lon="11.280734"><ele>447.99999999999994</ele><time>2026-05-01T07:53:54.68Z</time></trkpt><trkpt lat="43.4483957" lon="11.2808105"><ele>450.0</ele><time>2026-05-01T07:53:58.65Z</time></trkpt><trkpt lat="43.448389" lon="11.2809046"><ele>452.0</ele><time>2026-05-01T07:54:05.606Z</time></trkpt><trkpt lat="43.4484481" lon="11.2809639"><ele>454.0</ele><time>2026-05-01T07:54:10.6Z</time></trkpt><trkpt lat="43.4485023" lon="11.281012"><ele>455.99999999999994</ele><time>2026-05-01T07:54:15.668Z</time></trkpt><trkpt lat="43.448564" lon="11.281081"><ele>458.0</ele><time>2026-05-01T07:54:20.668Z</time></trkpt><trkpt lat="43.4486348" lon="11.2811252"><ele>458.0</ele><time>2026-05-01T07:54:26.583Z</time></trkpt><trkpt lat="43.4486961" lon="11.2811646"><ele>458.0</ele><time>2026-05-01T07:54:30.674Z</time></trkpt><trkpt lat="43.4487586" lon="11.2811963"><ele>458.0</ele><time>2026-05-01T07:54:34.584Z</time></trkpt><trkpt lat="43.4488087" lon="11.2812507"><ele>458.0</ele><time>2026-05-01T07:54:38.607Z</time></trkpt><trkpt lat="43.4488685" lon="11.2812966"><ele>458.0</ele><time>2026-05-01T07:54:42.596Z</time></trkpt><trkpt lat="43.4489313" lon="11.2813413"><ele>458.0</ele><time>2026-05-01T07:54:46.602Z</time></trkpt><trkpt lat="43.4489929" lon="11.2813993"><ele>458.0</ele><time>2026-05-01T07:54:50.593Z</time></trkpt><trkpt lat="43.44902" lon="11.2814892"><ele>460.16666666666663</ele><time>2026-05-01T07:54:54.582Z</time></trkpt><trkpt lat="43.4491071" lon="11.2814552"><ele>462.3333333333333</ele><time>2026-05-01T07:54:56.597Z</time></trkpt><trkpt lat="43.4491482" lon="11.281532"><ele>464.5</ele><time>2026-05-01T07:54:59.676Z</time></trkpt><trkpt lat="43.4492045" lon="11.2816051"><ele>466.66666666666663</ele><time>2026-05-01T07:55:07.602Z</time></trkpt><trkpt lat="43.4492658" lon="11.2816735"><ele>468.8333333333333</ele><time>2026-05-01T07:55:11.608Z</time></trkpt><trkpt lat="43.449313" lon="11.2817591"><ele>471.0</ele><time>2026-05-01T07:55:16.597Z</time></trkpt><trkpt lat="43.4493568" lon="11.2818225"><ele>471.00000000000006</ele><time>2026-05-01T07:55:20.678Z</time></trkpt><trkpt lat="43.4493951" lon="11.2818977"><ele>471.0</ele><time>2026-05-01T07:55:24.677Z</time></trkpt><trkpt lat="43.4494309" lon="11.2819711"><ele>471.00000000000006</ele><time>2026-05-01T07:55:28.61Z</time></trkpt><trkpt lat="43.4494656" lon="11.2820452"><ele>471.00000000000006</ele><time>2026-05-01T07:55:32.594Z</time></trkpt><trkpt lat="43.4495041" lon="11.2821347"><ele>471.0</ele><time>2026-05-01T07:55:37.601Z</time></trkpt><trkpt lat="43.4495272" lon="11.2822219"><ele>471.00000000000006</ele><time>2026-05-01T07:55:41.603Z</time></trkpt><trkpt lat="43.4495709" lon="11.2823113"><ele>471.00000000000006</ele><time>2026-05-01T07:55:46.595Z</time></trkpt><trkpt lat="43.4496039" lon="11.2823868"><ele>470.8571428571429</ele><time>2026-05-01T07:55:50.674Z</time></trkpt><trkpt lat="43.4496418" lon="11.2824722"><ele>470.7142857142857</ele><time>2026-05-01T07:55:55.675Z</time></trkpt><trkpt lat="43.4496835" lon="11.2825682"><ele>470.57142857142856</ele><time>2026-05-01T07:56:00.664Z</time></trkpt><trkpt lat="43.4497142" lon="11.2826631"><ele>470.42857142857144</ele><time>2026-05-01T07:56:05.601Z</time></trkpt><trkpt lat="43.4497595" lon="11.2827376"><ele>470.2857142857142</ele><time>2026-05-01T07:56:09.598Z</time></trkpt><trkpt lat="43.4497928" lon="11.2828273"><ele>470.1428571428571</ele><time>2026-05-01T07:56:13.6Z</time></trkpt><trkpt lat="43.4498235" lon="11.282912"><ele>470.0</ele><time>2026-05-01T07:56:17.602Z</time></trkpt><trkpt lat="43.4498183" lon="11.2830237"><ele>471.66666666666663</ele><time>2026-05-01T07:56:21.603Z</time></trkpt><trkpt lat="43.4498638" lon="11.2831106"><ele>473.3333333333333</ele><time>2026-05-01T07:56:25.679Z</time></trkpt><trkpt lat="43.4499226" lon="11.2831841"><ele>475.0</ele><time>2026-05-01T07:56:30.665Z</time></trkpt><trkpt lat="43.4499827" lon="11.2832597"><ele>476.66666666666663</ele><time>2026-05-01T07:56:34.67Z</time></trkpt><trkpt lat="43.4500377" lon="11.2833381"><ele>478.3333333333333</ele><time>2026-05-01T07:56:40.598Z</time></trkpt><trkpt lat="43.4500834" lon="11.2834286"><ele>480.0</ele><time>2026-05-01T07:56:44.597Z</time></trkpt><trkpt lat="43.4501339" lon="11.283508"><ele>480.0</ele><time>2026-05-01T07:56:48.596Z</time></trkpt><trkpt lat="43.4501732" lon="11.2835886"><ele>480.0</ele><time>2026-05-01T07:56:52.586Z</time></trkpt><trkpt lat="43.4502291" lon="11.2836573"><ele>480.0</ele><time>2026-05-01T07:56:56.599Z</time></trkpt><trkpt lat="43.4502978" lon="11.2837084"><ele>480.0</ele><time>2026-05-01T07:57:00.674Z</time></trkpt><trkpt lat="43.4503567" lon="11.2837609"><ele>480.0</ele><time>2026-05-01T07:57:05.681Z</time></trkpt><trkpt lat="43.4504192" lon="11.2838118"><ele>480.0</ele><time>2026-05-01T07:57:10.664Z</time></trkpt><trkpt lat="43.4504875" lon="11.2838651"><ele>480.0</ele><time>2026-05-01T07:57:15.594Z</time></trkpt><trkpt lat="43.4505515" lon="11.2839072"><ele>481.28571428571433</ele><time>2026-05-01T07:57:19.575Z</time></trkpt><trkpt lat="43.4506135" lon="11.2839479"><ele>482.57142857142856</ele><time>2026-05-01T07:57:23.602Z</time></trkpt><trkpt lat="43.4506737" lon="11.283983"><ele>483.8571428571429</ele><time>2026-05-01T07:57:27.602Z</time></trkpt><trkpt lat="43.4507526" lon="11.2839819"><ele>485.14285714285717</ele><time>2026-05-01T07:57:31.61Z</time></trkpt><trkpt lat="43.4508099" lon="11.2840228"><ele>486.42857142857144</ele><time>2026-05-01T07:57:34.674Z</time></trkpt><trkpt lat="43.450872" lon="11.2840718"><ele>487.7142857142857</ele><time>2026-05-01T07:57:39.591Z</time></trkpt><trkpt lat="43.4509399" lon="11.284121"><ele>489.0</ele><time>2026-05-01T07:57:42.611Z</time></trkpt><trkpt lat="43.4510008" lon="11.284161"><ele>489.0</ele><time>2026-05-01T07:57:47.607Z</time></trkpt><trkpt lat="43.4510545" lon="11.2842072"><ele>489.00000000000006</ele><time>2026-05-01T07:57:51.601Z</time></trkpt><trkpt lat="43.4511165" lon="11.284238"><ele>489.0</ele><time>2026-05-01T07:57:55.606Z</time></trkpt><trkpt lat="43.4511743" lon="11.2842767"><ele>489.0</ele><time>2026-05-01T07:57:59.602Z</time></trkpt><trkpt lat="43.4512314" lon="11.2843228"><ele>489.00000000000006</ele><time>2026-05-01T07:58:03.598Z</time></trkpt><trkpt lat="43.4513026" lon="11.2843693"><ele>489.0</ele><time>2026-05-01T07:58:08.656Z</time></trkpt><trkpt lat="43.4513865" lon="11.2843803"><ele>489.0</ele><time>2026-05-01T07:58:12.599Z</time></trkpt><trkpt lat="43.4514616" lon="11.2844076"><ele>489.0</ele><time>2026-05-01T07:58:15.67Z</time></trkpt><trkpt lat="43.4515163" lon="11.2844852"><ele>489.00000000000006</ele><time>2026-05-01T07:58:20.674Z</time></trkpt><trkpt lat="43.4515789" lon="11.284539"><ele>489.0</ele><time>2026-05-01T07:58:26.606Z</time></trkpt><trkpt lat="43.4516402" lon="11.2845765"><ele>489.0</ele><time>2026-05-01T07:58:30.605Z</time></trkpt><trkpt lat="43.45171" lon="11.2846149"><ele>489.00000000000006</ele><time>2026-05-01T07:58:34.605Z</time></trkpt><trkpt lat="43.4517719" lon="11.2846428"><ele>489.0</ele><time>2026-05-01T07:58:38.6Z</time></trkpt><trkpt lat="43.4518417" lon="11.2846908"><ele>489.0</ele><time>2026-05-01T07:58:43.648Z</time></trkpt><trkpt lat="43.4518629" lon="11.2847743"><ele>490.28571428571433</ele><time>2026-05-01T07:58:47.594Z</time></trkpt><trkpt lat="43.4519298" lon="11.284787"><ele>491.5714285714286</ele><time>2026-05-01T07:58:51.595Z</time></trkpt><trkpt lat="43.4520008" lon="11.2848137"><ele>492.8571428571429</ele><time>2026-05-01T07:58:55.669Z</time></trkpt><trkpt lat="43.4520658" lon="11.2848434"><ele>494.1428571428571</ele><time>2026-05-01T07:58:59.663Z</time></trkpt><trkpt lat="43.4521311" lon="11.2848952"><ele>495.4285714285714</ele><time>2026-05-01T07:59:05.599Z</time></trkpt><trkpt lat="43.4521947" lon="11.2849295"><ele>496.71428571428567</ele><time>2026-05-01T07:59:08.613Z</time></trkpt><trkpt lat="43.4522676" lon="11.2849679"><ele>498.0</ele><time>2026-05-01T07:59:12.602Z</time></trkpt><trkpt lat="43.452333" lon="11.2850083"><ele>498.0</ele><time>2026-05-01T07:59:16.598Z</time></trkpt><trkpt lat="43.4524023" lon="11.2850426"><ele>498.0</ele><time>2026-05-01T07:59:20.607Z</time></trkpt><trkpt lat="43.4524711" lon="11.285096"><ele>498.0</ele><time>2026-05-01T07:59:24.611Z</time></trkpt><trkpt lat="43.4525379" lon="11.285132"><ele>498.0</ele><time>2026-05-01T07:59:28.61Z</time></trkpt><trkpt lat="43.4526115" lon="11.2851685"><ele>498.0</ele><time>2026-05-01T07:59:32.608Z</time></trkpt><trkpt lat="43.4526825" lon="11.2852083"><ele>498.0</ele><time>2026-05-01T07:59:36.602Z</time></trkpt><trkpt lat="43.4527463" lon="11.2852659"><ele>498.0</ele><time>2026-05-01T07:59:40.612Z</time></trkpt><trkpt lat="43.4528114" lon="11.2853166"><ele>498.0</ele><time>2026-05-01T07:59:44.622Z</time></trkpt><trkpt lat="43.4528766" lon="11.285377"><ele>498.0</ele><time>2026-05-01T07:59:48.613Z</time></trkpt><trkpt lat="43.4529327" lon="11.2854447"><ele>498.0</ele><time>2026-05-01T07:59:52.606Z</time></trkpt><trkpt lat="43.4529882" lon="11.2855161"><ele>498.0</ele><time>2026-05-01T07:59:56.612Z</time></trkpt><trkpt lat="43.4530359" lon="11.2856004"><ele>498.0</ele><time>2026-05-01T08:00:00.612Z</time></trkpt><trkpt lat="43.453088" lon="11.2856842"><ele>499.0</ele><time>2026-05-01T08:00:04.586Z</time></trkpt><trkpt lat="43.4531206" lon="11.2857822"><ele>500.0</ele><time>2026-05-01T08:00:08.606Z</time></trkpt><trkpt lat="43.4531552" lon="11.2858802"><ele>501.0</ele><time>2026-05-01T08:00:12.606Z</time></trkpt><trkpt lat="43.4531852" lon="11.2859749"><ele>502.0</ele><time>2026-05-01T08:00:16.6Z</time></trkpt><trkpt lat="43.4532066" lon="11.2860812"><ele>503.0</ele><time>2026-05-01T08:00:20.604Z</time></trkpt><trkpt lat="43.4532287" lon="11.2861801"><ele>504.0</ele><time>2026-05-01T08:00:24.605Z</time></trkpt><trkpt lat="43.4532372" lon="11.2862961"><ele>504.0</ele><time>2026-05-01T08:00:27.605Z</time></trkpt><trkpt lat="43.4532547" lon="11.2863842"><ele>504.0</ele><time>2026-05-01T08:00:31.577Z</time></trkpt><trkpt lat="43.4532798" lon="11.286471"><ele>504.0</ele><time>2026-05-01T08:00:35.665Z</time></trkpt><trkpt lat="43.4532932" lon="11.2865578"><ele>504.0</ele><time>2026-05-01T08:00:39.663Z</time></trkpt><trkpt lat="43.4533057" lon="11.2866475"><ele>504.0</ele><time>2026-05-01T08:00:43.658Z</time></trkpt><trkpt lat="43.4533169" lon="11.2867397"><ele>504.0</ele><time>2026-05-01T08:00:47.599Z</time></trkpt><trkpt lat="43.4533289" lon="11.286838"><ele>504.0</ele><time>2026-05-01T08:00:51.607Z</time></trkpt><trkpt lat="43.4533528" lon="11.2869364"><ele>504.6666666666667</ele><time>2026-05-01T08:00:55.611Z</time></trkpt><trkpt lat="43.4533882" lon="11.2870386"><ele>505.33333333333337</ele><time>2026-05-01T08:00:59.661Z</time></trkpt><trkpt lat="43.4534224" lon="11.2871301"><ele>506.0</ele><time>2026-05-01T08:01:03.579Z</time></trkpt><trkpt lat="43.4534615" lon="11.2872235"><ele>506.6666666666667</ele><time>2026-05-01T08:01:07.604Z</time></trkpt><trkpt lat="43.4535123" lon="11.2872914"><ele>507.33333333333337</ele><time>2026-05-01T08:01:11.578Z</time></trkpt><trkpt lat="43.4535754" lon="11.2873322"><ele>508.0</ele><time>2026-05-01T08:01:15.678Z</time></trkpt><trkpt lat="43.4536107" lon="11.2874221"><ele>508.42857142857144</ele><time>2026-05-01T08:01:20.677Z</time></trkpt><trkpt lat="43.4536635" lon="11.2874819"><ele>508.85714285714283</ele><time>2026-05-01T08:01:23.603Z</time></trkpt><trkpt lat="43.4537249" lon="11.2875332"><ele>509.2857142857143</ele><time>2026-05-01T08:01:27.594Z</time></trkpt><trkpt lat="43.4537955" lon="11.2875825"><ele>509.7142857142857</ele><time>2026-05-01T08:01:31.603Z</time></trkpt><trkpt lat="43.4538729" lon="11.2876196"><ele>510.1428571428571</ele><time>2026-05-01T08:01:35.681Z</time></trkpt><trkpt lat="43.4539454" lon="11.2876664"><ele>510.57142857142856</ele><time>2026-05-01T08:01:39.664Z</time></trkpt><trkpt lat="43.4540033" lon="11.2877059"><ele>511.0</ele><time>2026-05-01T08:01:42.593Z</time></trkpt><trkpt lat="43.454082" lon="11.287724"><ele>511.0</ele><time>2026-05-01T08:01:46.58Z</time></trkpt><trkpt lat="43.4541502" lon="11.2877419"><ele>511.0</ele><time>2026-05-01T08:01:49.668Z</time></trkpt><trkpt lat="43.4542206" lon="11.2877844"><ele>511.0</ele><time>2026-05-01T08:01:53.603Z</time></trkpt><trkpt lat="43.4542916" lon="11.2878156"><ele>511.0</ele><time>2026-05-01T08:01:57.584Z</time></trkpt><trkpt lat="43.4543638" lon="11.2878228"><ele>511.0</ele><time>2026-05-01T08:02:01.59Z</time></trkpt><trkpt lat="43.4544237" lon="11.2878498"><ele>511.0</ele><time>2026-05-01T08:02:05.602Z</time></trkpt><trkpt lat="43.4544868" lon="11.2878919"><ele>511.0</ele><time>2026-05-01T08:02:09.588Z</time></trkpt><trkpt lat="43.4545558" lon="11.2879304"><ele>511.00000000000006</ele><time>2026-05-01T08:02:13.595Z</time></trkpt><trkpt lat="43.4546208" lon="11.287949"><ele>511.0</ele><time>2026-05-01T08:02:16.584Z</time></trkpt><trkpt lat="43.454705" lon="11.2879837"><ele>511.0</ele><time>2026-05-01T08:02:20.671Z</time></trkpt><trkpt lat="43.4547772" lon="11.2879885"><ele>511.0</ele><time>2026-05-01T08:02:23.661Z</time></trkpt><trkpt lat="43.4548609" lon="11.2880455"><ele>511.00000000000006</ele><time>2026-05-01T08:02:27.6Z</time></trkpt><trkpt lat="43.4549447" lon="11.288078"><ele>511.0</ele><time>2026-05-01T08:02:31.649Z</time></trkpt><trkpt lat="43.4550173" lon="11.2880932"><ele>512.1428571428571</ele><time>2026-05-01T08:02:36.597Z</time></trkpt><trkpt lat="43.4550848" lon="11.2881426"><ele>513.2857142857142</ele><time>2026-05-01T08:02:41.615Z</time></trkpt><trkpt lat="43.4551529" lon="11.2881835"><ele>514.4285714285714</ele><time>2026-05-01T08:02:45.6Z</time></trkpt><trkpt lat="43.4552157" lon="11.2882118"><ele>515.5714285714286</ele><time>2026-05-01T08:02:48.605Z</time></trkpt><trkpt lat="43.4552814" lon="11.2882315"><ele>516.7142857142857</ele><time>2026-05-01T08:02:51.582Z</time></trkpt><trkpt lat="43.4553597" lon="11.2882638"><ele>517.8571428571429</ele><time>2026-05-01T08:02:55.595Z</time></trkpt><trkpt lat="43.4554345" lon="11.288305"><ele>519.0</ele><time>2026-05-01T08:02:59.604Z</time></trkpt><trkpt lat="43.4555128" lon="11.2883379"><ele>519.0</ele><time>2026-05-01T08:03:03.61Z</time></trkpt><trkpt lat="43.4555779" lon="11.2883678"><ele>519.0</ele><time>2026-05-01T08:03:06.599Z</time></trkpt><trkpt lat="43.4556574" lon="11.2884032"><ele>519.0</ele><time>2026-05-01T08:03:10.612Z</time></trkpt><trkpt lat="43.455733" lon="11.2884462"><ele>519.0</ele><time>2026-05-01T08:03:14.608Z</time></trkpt><trkpt lat="43.4558008" lon="11.2884977"><ele>519.0</ele><time>2026-05-01T08:03:18.603Z</time></trkpt><trkpt lat="43.4558659" lon="11.2885521"><ele>519.0</ele><time>2026-05-01T08:03:22.604Z</time></trkpt><trkpt lat="43.4559274" lon="11.2886063"><ele>519.0</ele><time>2026-05-01T08:03:25.599Z</time></trkpt><trkpt lat="43.4559923" lon="11.2886662"><ele>519.0</ele><time>2026-05-01T08:03:28.61Z</time></trkpt><trkpt lat="43.4560562" lon="11.2887215"><ele>519.0</ele><time>2026-05-01T08:03:31.607Z</time></trkpt><trkpt lat="43.4561205" lon="11.2887852"><ele>519.0</ele><time>2026-05-01T08:03:34.583Z</time></trkpt><trkpt lat="43.4561792" lon="11.2888673"><ele>519.0</ele><time>2026-05-01T08:03:37.605Z</time></trkpt><trkpt lat="43.4562451" lon="11.2889468"><ele>519.0</ele><time>2026-05-01T08:03:40.604Z</time></trkpt><trkpt lat="43.4563135" lon="11.2890274"><ele>520.3333333333334</ele><time>2026-05-01T08:03:43.594Z</time></trkpt><trkpt lat="43.4563833" lon="11.2890968"><ele>521.6666666666666</ele><time>2026-05-01T08:03:46.606Z</time></trkpt><trkpt lat="43.4564499" lon="11.2891728"><ele>523.0</ele><time>2026-05-01T08:03:49.603Z</time></trkpt><trkpt lat="43.4565159" lon="11.2892433"><ele>524.3333333333333</ele><time>2026-05-01T08:03:52.613Z</time></trkpt><trkpt lat="43.4565742" lon="11.2893172"><ele>525.6666666666666</ele><time>2026-05-01T08:03:55.604Z</time></trkpt><trkpt lat="43.4566364" lon="11.2893951"><ele>527.0</ele><time>2026-05-01T08:03:58.615Z</time></trkpt><trkpt lat="43.4567035" lon="11.2894659"><ele>527.0</ele><time>2026-05-01T08:04:01.6Z</time></trkpt><trkpt lat="43.4567727" lon="11.2895322"><ele>527.0</ele><time>2026-05-01T08:04:04.598Z</time></trkpt><trkpt lat="43.4568463" lon="11.2896013"><ele>527.0</ele><time>2026-05-01T08:04:07.614Z</time></trkpt><trkpt lat="43.4569158" lon="11.289661"><ele>527.0</ele><time>2026-05-01T08:04:10.598Z</time></trkpt><trkpt lat="43.4569901" lon="11.2897215"><ele>527.0</ele><time>2026-05-01T08:04:13.609Z</time></trkpt><trkpt lat="43.4570479" lon="11.2897745"><ele>527.0</ele><time>2026-05-01T08:04:16.607Z</time></trkpt><trkpt lat="43.4571169" lon="11.2898162"><ele>527.6666666666666</ele><time>2026-05-01T08:04:19.605Z</time></trkpt><trkpt lat="43.4571923" lon="11.289861"><ele>528.3333333333333</ele><time>2026-05-01T08:04:22.598Z</time></trkpt><trkpt lat="43.4572637" lon="11.2899077"><ele>529.0</ele><time>2026-05-01T08:04:25.615Z</time></trkpt><trkpt lat="43.4573358" lon="11.2899481"><ele>529.6666666666666</ele><time>2026-05-01T08:04:28.605Z</time></trkpt><trkpt lat="43.4574147" lon="11.2899808"><ele>530.3333333333334</ele><time>2026-05-01T08:04:31.616Z</time></trkpt><trkpt lat="43.4575012" lon="11.290016"><ele>531.0</ele><time>2026-05-01T08:04:34.605Z</time></trkpt><trkpt lat="43.4575868" lon="11.2900511"><ele>531.0</ele><time>2026-05-01T08:04:37.603Z</time></trkpt><trkpt lat="43.4576541" lon="11.2900725"><ele>531.0</ele><time>2026-05-01T08:04:40.612Z</time></trkpt><trkpt lat="43.4577288" lon="11.2901107"><ele>531.0</ele><time>2026-05-01T08:04:43.61Z</time></trkpt><trkpt lat="43.4578045" lon="11.2901291"><ele>531.0</ele><time>2026-05-01T08:04:46.598Z</time></trkpt><trkpt lat="43.4578894" lon="11.2901416"><ele>531.0</ele><time>2026-05-01T08:04:49.609Z</time></trkpt><trkpt lat="43.4579767" lon="11.290154"><ele>531.0</ele><time>2026-05-01T08:04:52.602Z</time></trkpt><trkpt lat="43.4580589" lon="11.2901609"><ele>531.3333333333334</ele><time>2026-05-01T08:04:55.601Z</time></trkpt><trkpt lat="43.4581381" lon="11.2901629"><ele>531.6666666666666</ele><time>2026-05-01T08:04:58.595Z</time></trkpt><trkpt lat="43.4582234" lon="11.2901605"><ele>532.0</ele><time>2026-05-01T08:05:01.601Z</time></trkpt><trkpt lat="43.4583155" lon="11.2901486"><ele>532.3333333333333</ele><time>2026-05-01T08:05:04.599Z</time></trkpt><trkpt lat="43.4584012" lon="11.2901352"><ele>532.6666666666666</ele><time>2026-05-01T08:05:07.624Z</time></trkpt><trkpt lat="43.4584935" lon="11.2901222"><ele>533.0</ele><time>2026-05-01T08:05:10.609Z</time></trkpt><trkpt lat="43.4585859" lon="11.2901007"><ele>533.0</ele><time>2026-05-01T08:05:13.61Z</time></trkpt><trkpt lat="43.4586469" lon="11.2900776"><ele>533.0</ele><time>2026-05-01T08:05:15.6Z</time></trkpt><trkpt lat="43.4587083" lon="11.2900549"><ele>533.0</ele><time>2026-05-01T08:05:17.612Z</time></trkpt><trkpt lat="43.4588026" lon="11.2900336"><ele>533.0</ele><time>2026-05-01T08:05:20.601Z</time></trkpt><trkpt lat="43.4588672" lon="11.2899999"><ele>533.0</ele><time>2026-05-01T08:05:22.597Z</time></trkpt><trkpt lat="43.4589309" lon="11.2899667"><ele>533.0</ele><time>2026-05-01T08:05:24.605Z</time></trkpt><trkpt lat="43.4589925" lon="11.289928"><ele>533.0</ele><time>2026-05-01T08:05:26.597Z</time></trkpt><trkpt lat="43.4590553" lon="11.2898942"><ele>533.4285714285714</ele><time>2026-05-01T08:05:28.594Z</time></trkpt><trkpt lat="43.4591206" lon="11.2898607"><ele>533.8571428571428</ele><time>2026-05-01T08:05:30.598Z</time></trkpt><trkpt lat="43.459185" lon="11.2898337"><ele>534.2857142857142</ele><time>2026-05-01T08:05:32.599Z</time></trkpt><trkpt lat="43.4592544" lon="11.2898243"><ele>534.7142857142857</ele><time>2026-05-01T08:05:34.607Z</time></trkpt><trkpt lat="43.4593207" lon="11.2898072"><ele>535.1428571428571</ele><time>2026-05-01T08:05:36.611Z</time></trkpt><trkpt lat="43.4593816" lon="11.2897819"><ele>535.5714285714286</ele><time>2026-05-01T08:05:38.599Z</time></trkpt><trkpt lat="43.4594516" lon="11.2897559"><ele>536.0</ele><time>2026-05-01T08:05:41.615Z</time></trkpt><trkpt lat="43.4595176" lon="11.2897161"><ele>535.1428571428571</ele><time>2026-05-01T08:05:44.595Z</time></trkpt><trkpt lat="43.4595982" lon="11.2896706"><ele>534.2857142857142</ele><time>2026-05-01T08:05:47.602Z</time></trkpt><trkpt lat="43.4596587" lon="11.2896435"><ele>533.4285714285713</ele><time>2026-05-01T08:05:49.61Z</time></trkpt><trkpt lat="43.4597199" lon="11.2896153"><ele>532.5714285714286</ele><time>2026-05-01T08:05:51.591Z</time></trkpt><trkpt lat="43.4597803" lon="11.2895877"><ele>531.7142857142857</ele><time>2026-05-01T08:05:53.596Z</time></trkpt><trkpt lat="43.4598447" lon="11.2895522"><ele>530.8571428571428</ele><time>2026-05-01T08:05:55.603Z</time></trkpt><trkpt lat="43.4599109" lon="11.2895175"><ele>530.0</ele><time>2026-05-01T08:05:57.601Z</time></trkpt><trkpt lat="43.4599758" lon="11.2894826"><ele>529.9999999999999</ele><time>2026-05-01T08:05:59.597Z</time></trkpt><trkpt lat="43.4600384" lon="11.2894527"><ele>530.0</ele><time>2026-05-01T08:06:01.605Z</time></trkpt><trkpt lat="43.4601032" lon="11.2894201"><ele>530.0</ele><time>2026-05-01T08:06:03.587Z</time></trkpt><trkpt lat="43.4601628" lon="11.2893912"><ele>530.0</ele><time>2026-05-01T08:06:05.601Z</time></trkpt><trkpt lat="43.4602225" lon="11.2893595"><ele>530.0</ele><time>2026-05-01T08:06:07.59Z</time></trkpt><trkpt lat="43.4602853" lon="11.2893248"><ele>529.9999999999999</ele><time>2026-05-01T08:06:09.617Z</time></trkpt><trkpt lat="43.4603462" lon="11.2892832"><ele>530.0</ele><time>2026-05-01T08:06:11.604Z</time></trkpt><trkpt lat="43.4604076" lon="11.2892406"><ele>531.5714285714286</ele><time>2026-05-01T08:06:13.605Z</time></trkpt><trkpt lat="43.4604711" lon="11.2892023"><ele>533.1428571428571</ele><time>2026-05-01T08:06:15.62Z</time></trkpt><trkpt lat="43.460532" lon="11.2891551"><ele>534.7142857142858</ele><time>2026-05-01T08:06:17.592Z</time></trkpt><trkpt lat="43.4605957" lon="11.2891021"><ele>536.2857142857142</ele><time>2026-05-01T08:06:19.608Z</time></trkpt><trkpt lat="43.4606609" lon="11.2890537"><ele>537.8571428571429</ele><time>2026-05-01T08:06:21.61Z</time></trkpt><trkpt lat="43.460734" lon="11.289014"><ele>539.4285714285714</ele><time>2026-05-01T08:06:23.601Z</time></trkpt><trkpt lat="43.4608085" lon="11.2889752"><ele>541.0</ele><time>2026-05-01T08:06:25.598Z</time></trkpt><trkpt lat="43.460878" lon="11.2889358"><ele>541.5</ele><time>2026-05-01T08:06:27.609Z</time></trkpt><trkpt lat="43.4609469" lon="11.2889036"><ele>542.0</ele><time>2026-05-01T08:06:29.675Z</time></trkpt><trkpt lat="43.4610117" lon="11.2888714"><ele>542.5</ele><time>2026-05-01T08:06:31.672Z</time></trkpt><trkpt lat="43.4610755" lon="11.2888351"><ele>543.0</ele><time>2026-05-01T08:06:33.61Z</time></trkpt><trkpt lat="43.4611406" lon="11.2888033"><ele>543.5</ele><time>2026-05-01T08:06:35.683Z</time></trkpt><trkpt lat="43.4612359" lon="11.2887649"><ele>544.0</ele><time>2026-05-01T08:06:37.615Z</time></trkpt><trkpt lat="43.4613033" lon="11.288729"><ele>543.9999999999999</ele><time>2026-05-01T08:06:39.605Z</time></trkpt><trkpt lat="43.4613625" lon="11.2886921"><ele>544.0</ele><time>2026-05-01T08:06:41.668Z</time></trkpt><trkpt lat="43.4614299" lon="11.2886558"><ele>544.0</ele><time>2026-05-01T08:06:43.58Z</time></trkpt><trkpt lat="43.4614941" lon="11.2886234"><ele>544.0</ele><time>2026-05-01T08:06:45.595Z</time></trkpt><trkpt lat="43.4615617" lon="11.288582"><ele>544.0</ele><time>2026-05-01T08:06:47.601Z</time></trkpt><trkpt lat="43.4616276" lon="11.2885451"><ele>543.9999999999999</ele><time>2026-05-01T08:06:49.604Z</time></trkpt><trkpt lat="43.4616938" lon="11.2885075"><ele>544.0</ele><time>2026-05-01T08:06:51.611Z</time></trkpt><trkpt lat="43.4617588" lon="11.2884707"><ele>543.9999999999999</ele><time>2026-05-01T08:06:53.591Z</time></trkpt><trkpt lat="43.4618236" lon="11.2884362"><ele>544.0</ele><time>2026-05-01T08:06:55.671Z</time></trkpt><trkpt lat="43.4618858" lon="11.288404"><ele>544.0</ele><time>2026-05-01T08:06:57.588Z</time></trkpt><trkpt lat="43.4619691" lon="11.2883604"><ele>544.0</ele><time>2026-05-01T08:07:00.67Z</time></trkpt><trkpt lat="43.4620374" lon="11.2883454"><ele>544.0</ele><time>2026-05-01T08:07:03.613Z</time></trkpt><trkpt lat="43.4620959" lon="11.2883099"><ele>543.9999999999999</ele><time>2026-05-01T08:07:05.603Z</time></trkpt><trkpt lat="43.462171" lon="11.2882584"><ele>544.0</ele><time>2026-05-01T08:07:08.605Z</time></trkpt><trkpt lat="43.4622493" lon="11.2882045"><ele>543.7142857142857</ele><time>2026-05-01T08:07:11.61Z</time></trkpt><trkpt lat="43.4623238" lon="11.2881813"><ele>543.4285714285714</ele><time>2026-05-01T08:07:14.581Z</time></trkpt><trkpt lat="43.4623885" lon="11.2881471"><ele>543.1428571428571</ele><time>2026-05-01T08:07:17.589Z</time></trkpt><trkpt lat="43.4624547" lon="11.2881153"><ele>542.8571428571429</ele><time>2026-05-01T08:07:20.628Z</time></trkpt><trkpt lat="43.462538" lon="11.2880713"><ele>542.5714285714286</ele><time>2026-05-01T08:07:24.588Z</time></trkpt><trkpt lat="43.4626038" lon="11.2880515"><ele>542.2857142857142</ele><time>2026-05-01T08:07:27.593Z</time></trkpt><trkpt lat="43.4626742" lon="11.2880301"><ele>542.0</ele><time>2026-05-01T08:07:30.627Z</time></trkpt><trkpt lat="43.4627453" lon="11.2880043"><ele>542.0</ele><time>2026-05-01T08:07:33.616Z</time></trkpt><trkpt lat="43.4628276" lon="11.2879864"><ele>542.0</ele><time>2026-05-01T08:07:37.594Z</time></trkpt><trkpt lat="43.46291" lon="11.287982"><ele>542.0</ele><time>2026-05-01T08:07:41.596Z</time></trkpt><trkpt lat="43.4629722" lon="11.2880041"><ele>542.0</ele><time>2026-05-01T08:07:44.608Z</time></trkpt><trkpt lat="43.4630331" lon="11.288028"><ele>542.0</ele><time>2026-05-01T08:07:47.587Z</time></trkpt><trkpt lat="43.4631142" lon="11.2880517"><ele>542.0</ele><time>2026-05-01T08:07:51.595Z</time></trkpt><trkpt lat="43.4631904" lon="11.2880933"><ele>543.8571428571429</ele><time>2026-05-01T08:07:55.598Z</time></trkpt><trkpt lat="43.4632568" lon="11.2881225"><ele>545.7142857142858</ele><time>2026-05-01T08:07:58.603Z</time></trkpt><trkpt lat="43.4633187" lon="11.2881592"><ele>547.5714285714287</ele><time>2026-05-01T08:08:01.605Z</time></trkpt><trkpt lat="43.4633784" lon="11.288188"><ele>549.4285714285714</ele><time>2026-05-01T08:08:04.607Z</time></trkpt><trkpt lat="43.4634389" lon="11.2882152"><ele>551.2857142857143</ele><time>2026-05-01T08:08:07.596Z</time></trkpt><trkpt lat="43.4635176" lon="11.2882519"><ele>553.1428571428572</ele><time>2026-05-01T08:08:11.594Z</time></trkpt><trkpt lat="43.463578" lon="11.2882821"><ele>555.0</ele><time>2026-05-01T08:08:14.58Z</time></trkpt><trkpt lat="43.4636492" lon="11.2883188"><ele>555.0000000000001</ele><time>2026-05-01T08:08:18.6Z</time></trkpt><trkpt lat="43.4637108" lon="11.2883501"><ele>555.0</ele><time>2026-05-01T08:08:21.61Z</time></trkpt><trkpt lat="43.4637852" lon="11.288391"><ele>555.0</ele><time>2026-05-01T08:08:25.611Z</time></trkpt><trkpt lat="43.4638458" lon="11.2884203"><ele>555.0</ele><time>2026-05-01T08:08:28.582Z</time></trkpt><trkpt lat="43.4639039" lon="11.2884725"><ele>555.0</ele><time>2026-05-01T08:08:31.614Z</time></trkpt><trkpt lat="43.4639558" lon="11.2885275"><ele>555.0000000000001</ele><time>2026-05-01T08:08:34.593Z</time></trkpt><trkpt lat="43.4640126" lon="11.2885966"><ele>555.0</ele><time>2026-05-01T08:08:37.598Z</time></trkpt><trkpt lat="43.4640649" lon="11.2886728"><ele>555.8333333333334</ele><time>2026-05-01T08:08:40.595Z</time></trkpt><trkpt lat="43.4641004" lon="11.2887572"><ele>556.6666666666666</ele><time>2026-05-01T08:08:43.584Z</time></trkpt><trkpt lat="43.4641229" lon="11.2888539"><ele>557.5</ele><time>2026-05-01T08:08:46.606Z</time></trkpt><trkpt lat="43.4641444" lon="11.2889553"><ele>558.3333333333333</ele><time>2026-05-01T08:08:49.584Z</time></trkpt><trkpt lat="43.4641795" lon="11.2890723"><ele>559.1666666666666</ele><time>2026-05-01T08:08:52.592Z</time></trkpt><trkpt lat="43.4642041" lon="11.2891544"><ele>560.0</ele><time>2026-05-01T08:08:54.59Z</time></trkpt><trkpt lat="43.4642338" lon="11.2892593"><ele>560.1666666666666</ele><time>2026-05-01T08:08:57.589Z</time></trkpt><trkpt lat="43.4642543" lon="11.2893673"><ele>560.3333333333333</ele><time>2026-05-01T08:09:00.607Z</time></trkpt><trkpt lat="43.4642833" lon="11.2894554"><ele>560.5</ele><time>2026-05-01T08:09:03.597Z</time></trkpt><trkpt lat="43.464346" lon="11.2895273"><ele>560.6666666666666</ele><time>2026-05-01T08:09:06.608Z</time></trkpt><trkpt lat="43.4644314" lon="11.289543"><ele>560.8333333333334</ele><time>2026-05-01T08:09:09.595Z</time></trkpt><trkpt lat="43.4645187" lon="11.2895479"><ele>561.0</ele><time>2026-05-01T08:09:12.617Z</time></trkpt><trkpt lat="43.4645902" lon="11.2895255"><ele>561.5</ele><time>2026-05-01T08:09:15.593Z</time></trkpt><trkpt lat="43.4646684" lon="11.2895065"><ele>562.0</ele><time>2026-05-01T08:09:19.61Z</time></trkpt><trkpt lat="43.4647538" lon="11.2894953"><ele>562.5</ele><time>2026-05-01T08:09:23.608Z</time></trkpt><trkpt lat="43.4648264" lon="11.2894699"><ele>563.0</ele><time>2026-05-01T08:09:26.597Z</time></trkpt><trkpt lat="43.4648976" lon="11.2894369"><ele>563.5</ele><time>2026-05-01T08:09:29.587Z</time></trkpt><trkpt lat="43.464968" lon="11.2894159"><ele>564.0</ele><time>2026-05-01T08:09:32.586Z</time></trkpt><trkpt lat="43.4650478" lon="11.2893919"><ele>564.0</ele><time>2026-05-01T08:09:35.623Z</time></trkpt><trkpt lat="43.4651259" lon="11.2893766"><ele>564.0</ele><time>2026-05-01T08:09:38.591Z</time></trkpt><trkpt lat="43.4652048" lon="11.2893551"><ele>564.0</ele><time>2026-05-01T08:09:41.608Z</time></trkpt><trkpt lat="43.4652803" lon="11.2893312"><ele>564.0</ele><time>2026-05-01T08:09:44.598Z</time></trkpt><trkpt lat="43.4653493" lon="11.2893054"><ele>564.0</ele><time>2026-05-01T08:09:47.6Z</time></trkpt><trkpt lat="43.4654243" lon="11.2892916"><ele>564.0</ele><time>2026-05-01T08:09:50.59Z</time></trkpt><trkpt lat="43.4655042" lon="11.2892637"><ele>564.5</ele><time>2026-05-01T08:09:53.594Z</time></trkpt><trkpt lat="43.4655826" lon="11.28924"><ele>565.0</ele><time>2026-05-01T08:09:56.598Z</time></trkpt><trkpt lat="43.4656586" lon="11.2892074"><ele>565.5</ele><time>2026-05-01T08:09:59.58Z</time></trkpt><trkpt lat="43.4657276" lon="11.2891703"><ele>566.0</ele><time>2026-05-01T08:10:02.581Z</time></trkpt><trkpt lat="43.4658081" lon="11.2891405"><ele>566.5</ele><time>2026-05-01T08:10:05.61Z</time></trkpt><trkpt lat="43.465882" lon="11.2891108"><ele>567.0</ele><time>2026-05-01T08:10:08.585Z</time></trkpt><trkpt lat="43.4659585" lon="11.2890793"><ele>567.0</ele><time>2026-05-01T08:10:11.604Z</time></trkpt><trkpt lat="43.4660248" lon="11.2890314"><ele>567.0</ele><time>2026-05-01T08:10:14.582Z</time></trkpt><trkpt lat="43.4660856" lon="11.2889974"><ele>567.0</ele><time>2026-05-01T08:10:17.594Z</time></trkpt><trkpt lat="43.4661698" lon="11.2889631"><ele>567.0</ele><time>2026-05-01T08:10:21.612Z</time></trkpt><trkpt lat="43.4662477" lon="11.2889364"><ele>567.0</ele><time>2026-05-01T08:10:24.597Z</time></trkpt><trkpt lat="43.4663389" lon="11.2888992"><ele>567.0</ele><time>2026-05-01T08:10:27.62Z</time></trkpt><trkpt lat="43.4664008" lon="11.2888659"><ele>567.8333333333334</ele><time>2026-05-01T08:10:29.585Z</time></trkpt><trkpt lat="43.4664632" lon="11.2888137"><ele>568.6666666666666</ele><time>2026-05-01T08:10:31.581Z</time></trkpt><trkpt lat="43.4665242" lon="11.2887547"><ele>569.5</ele><time>2026-05-01T08:10:33.601Z</time></trkpt><trkpt lat="43.4665855" lon="11.2887145"><ele>570.3333333333333</ele><time>2026-05-01T08:10:35.676Z</time></trkpt><trkpt lat="43.4666784" lon="11.2886972"><ele>571.1666666666666</ele><time>2026-05-01T08:10:38.578Z</time></trkpt><trkpt lat="43.4667665" lon="11.2886593"><ele>572.0</ele><time>2026-05-01T08:10:40.585Z</time></trkpt><trkpt lat="43.466842" lon="11.2886117"><ele>572.0</ele><time>2026-05-01T08:10:42.598Z</time></trkpt><trkpt lat="43.466909" lon="11.2885784"><ele>572.0</ele><time>2026-05-01T08:10:44.596Z</time></trkpt><trkpt lat="43.4669744" lon="11.2885258"><ele>572.0</ele><time>2026-05-01T08:10:46.665Z</time></trkpt><trkpt lat="43.4670339" lon="11.2884578"><ele>572.0</ele><time>2026-05-01T08:10:48.62Z</time></trkpt><trkpt lat="43.4671085" lon="11.2883793"><ele>572.0</ele><time>2026-05-01T08:10:50.598Z</time></trkpt><trkpt lat="43.4671777" lon="11.2882958"><ele>572.0</ele><time>2026-05-01T08:10:52.606Z</time></trkpt><trkpt lat="43.4672237" lon="11.2882038"><ele>571.5</ele><time>2026-05-01T08:10:54.592Z</time></trkpt><trkpt lat="43.4672833" lon="11.288129"><ele>571.0</ele><time>2026-05-01T08:10:56.606Z</time></trkpt><trkpt lat="43.4673258" lon="11.2880512"><ele>570.5</ele><time>2026-05-01T08:10:58.619Z</time></trkpt><trkpt lat="43.4673804" lon="11.287949"><ele>570.0</ele><time>2026-05-01T08:11:01.598Z</time></trkpt><trkpt lat="43.4674346" lon="11.2878516"><ele>569.5</ele><time>2026-05-01T08:11:04.6Z</time></trkpt><trkpt lat="43.4674875" lon="11.2877418"><ele>569.0</ele><time>2026-05-01T08:11:07.581Z</time></trkpt><trkpt lat="43.4675259" lon="11.2876698"><ele>569.0</ele><time>2026-05-01T08:11:09.667Z</time></trkpt><trkpt lat="43.46758" lon="11.287581"><ele>569.0</ele><time>2026-05-01T08:11:11.676Z</time></trkpt><trkpt lat="43.4676314" lon="11.2874929"><ele>569.0</ele><time>2026-05-01T08:11:13.608Z</time></trkpt><trkpt lat="43.4676917" lon="11.2874213"><ele>569.0</ele><time>2026-05-01T08:11:15.67Z</time></trkpt><trkpt lat="43.4677586" lon="11.2873617"><ele>569.0</ele><time>2026-05-01T08:11:17.599Z</time></trkpt><trkpt lat="43.4678405" lon="11.2873253"><ele>569.0</ele><time>2026-05-01T08:11:19.673Z</time></trkpt><trkpt lat="43.4679245" lon="11.2872689"><ele>568.4</ele><time>2026-05-01T08:11:21.664Z</time></trkpt><trkpt lat="43.468004" lon="11.2872245"><ele>567.8</ele><time>2026-05-01T08:11:23.608Z</time></trkpt><trkpt lat="43.4681076" lon="11.2871861"><ele>567.2</ele><time>2026-05-01T08:11:25.676Z</time></trkpt><trkpt lat="43.46819" lon="11.2871274"><ele>566.6</ele><time>2026-05-01T08:11:27.609Z</time></trkpt><trkpt lat="43.4682774" lon="11.2870539"><ele>566.0</ele><time>2026-05-01T08:11:29.594Z</time></trkpt><trkpt lat="43.4683535" lon="11.2869656"><ele>566.0</ele><time>2026-05-01T08:11:31.59Z</time></trkpt><trkpt lat="43.4684208" lon="11.2868784"><ele>566.0</ele><time>2026-05-01T08:11:33.588Z</time></trkpt><trkpt lat="43.4684829" lon="11.2867861"><ele>566.0</ele><time>2026-05-01T08:11:35.581Z</time></trkpt><trkpt lat="43.4685366" lon="11.2867021"><ele>566.0</ele><time>2026-05-01T08:11:37.582Z</time></trkpt><trkpt lat="43.4685899" lon="11.2866175"><ele>566.0</ele><time>2026-05-01T08:11:39.585Z</time></trkpt><trkpt lat="43.4686397" lon="11.2865474"><ele>566.0</ele><time>2026-05-01T08:11:41.601Z</time></trkpt><trkpt lat="43.4686903" lon="11.2864722"><ele>566.0</ele><time>2026-05-01T08:11:43.595Z</time></trkpt><trkpt lat="43.4687424" lon="11.2864055"><ele>566.0</ele><time>2026-05-01T08:11:45.605Z</time></trkpt><trkpt lat="43.468804" lon="11.2863268"><ele>566.0</ele><time>2026-05-01T08:11:47.642Z</time></trkpt><trkpt lat="43.4688712" lon="11.2862567"><ele>566.0</ele><time>2026-05-01T08:11:49.604Z</time></trkpt><trkpt lat="43.4689363" lon="11.2861886"><ele>566.0</ele><time>2026-05-01T08:11:51.605Z</time></trkpt><trkpt lat="43.4690106" lon="11.2861329"><ele>566.0</ele><time>2026-05-01T08:11:53.599Z</time></trkpt><trkpt lat="43.4690832" lon="11.2861102"><ele>566.0</ele><time>2026-05-01T08:11:55.67Z</time></trkpt><trkpt lat="43.4691524" lon="11.2860997"><ele>566.0</ele><time>2026-05-01T08:11:57.588Z</time></trkpt><trkpt lat="43.4692616" lon="11.2861168"><ele>566.0</ele><time>2026-05-01T08:11:59.588Z</time></trkpt><trkpt lat="43.4693571" lon="11.2861289"><ele>566.0</ele><time>2026-05-01T08:12:01.677Z</time></trkpt><trkpt lat="43.46946" lon="11.286124"><ele>566.0</ele><time>2026-05-01T08:12:03.608Z</time></trkpt><trkpt lat="43.4695607" lon="11.2861125"><ele>566.4</ele><time>2026-05-01T08:12:05.686Z</time></trkpt><trkpt lat="43.4696471" lon="11.2861008"><ele>566.8</ele><time>2026-05-01T08:12:07.598Z</time></trkpt><trkpt lat="43.4697417" lon="11.2860885"><ele>567.1999999999999</ele><time>2026-05-01T08:12:09.598Z</time></trkpt><trkpt lat="43.4698316" lon="11.2860678"><ele>567.6</ele><time>2026-05-01T08:12:11.575Z</time></trkpt><trkpt lat="43.4699162" lon="11.2860309"><ele>568.0</ele><time>2026-05-01T08:12:13.599Z</time></trkpt><trkpt lat="43.4700023" lon="11.2859861"><ele>568.0</ele><time>2026-05-01T08:12:15.603Z</time></trkpt><trkpt lat="43.4700855" lon="11.2859403"><ele>568.0</ele><time>2026-05-01T08:12:17.595Z</time></trkpt><trkpt lat="43.4701567" lon="11.2858903"><ele>568.0</ele><time>2026-05-01T08:12:19.682Z</time></trkpt><trkpt lat="43.4702539" lon="11.2858333"><ele>568.0</ele><time>2026-05-01T08:12:22.598Z</time></trkpt><trkpt lat="43.4703415" lon="11.2857935"><ele>568.0</ele><time>2026-05-01T08:12:24.615Z</time></trkpt><trkpt lat="43.4704339" lon="11.2857774"><ele>568.1666666666667</ele><time>2026-05-01T08:12:26.669Z</time></trkpt><trkpt lat="43.470521" lon="11.2857404"><ele>568.3333333333334</ele><time>2026-05-01T08:12:28.604Z</time></trkpt><trkpt lat="43.4706047" lon="11.285675"><ele>568.5</ele><time>2026-05-01T08:12:30.668Z</time></trkpt><trkpt lat="43.470679" lon="11.2856265"><ele>568.6666666666666</ele><time>2026-05-01T08:12:32.597Z</time></trkpt><trkpt lat="43.4707425" lon="11.2855768"><ele>568.8333333333333</ele><time>2026-05-01T08:12:34.648Z</time></trkpt><trkpt lat="43.4708056" lon="11.2855362"><ele>569.0</ele><time>2026-05-01T08:12:36.62Z</time></trkpt><trkpt lat="43.470891" lon="11.2854979"><ele>567.8333333333333</ele><time>2026-05-01T08:12:39.658Z</time></trkpt><trkpt lat="43.4709673" lon="11.2854711"><ele>566.6666666666666</ele><time>2026-05-01T08:12:42.598Z</time></trkpt><trkpt lat="43.4710412" lon="11.2854919"><ele>565.5</ele><time>2026-05-01T08:12:45.615Z</time></trkpt><trkpt lat="43.4711179" lon="11.285471"><ele>564.3333333333334</ele><time>2026-05-01T08:12:48.61Z</time></trkpt><trkpt lat="43.4711938" lon="11.2854776"><ele>563.1666666666667</ele><time>2026-05-01T08:12:51.682Z</time></trkpt><trkpt lat="43.4712694" lon="11.2854484"><ele>562.0</ele><time>2026-05-01T08:12:55.668Z</time></trkpt><trkpt lat="43.4713262" lon="11.2853441"><ele>564.3333333333334</ele><time>2026-05-01T08:12:58.608Z</time></trkpt><trkpt lat="43.4713448" lon="11.2852547"><ele>566.6666666666667</ele><time>2026-05-01T08:13:01.664Z</time></trkpt><trkpt lat="43.4713499" lon="11.2851587"><ele>569.0</ele><time>2026-05-01T08:13:05.674Z</time></trkpt><trkpt lat="43.4714001" lon="11.2851036"><ele>571.3333333333334</ele><time>2026-05-01T08:13:09.608Z</time></trkpt><trkpt lat="43.4713218" lon="11.2850188"><ele>573.6666666666666</ele><time>2026-05-01T08:13:41.679Z</time></trkpt><trkpt lat="43.4714056" lon="11.2851137"><ele>576.0</ele><time>2026-05-01T08:14:52.594Z</time></trkpt><trkpt lat="43.471369" lon="11.2850403"><ele>576.0</ele><time>2026-05-01T08:16:12.597Z</time></trkpt><trkpt lat="43.4713471" lon="11.2849546"><ele>576.0</ele><time>2026-05-01T08:16:15.574Z</time></trkpt><trkpt lat="43.4713453" lon="11.2848646"><ele>576.0</ele><time>2026-05-01T08:16:18.595Z</time></trkpt><trkpt lat="43.4713546" lon="11.2847461"><ele>576.0</ele><time>2026-05-01T08:16:21.675Z</time></trkpt><trkpt lat="43.4713648" lon="11.2846328"><ele>576.0</ele><time>2026-05-01T08:16:23.594Z</time></trkpt><trkpt lat="43.4713791" lon="11.284506"><ele>576.0</ele><time>2026-05-01T08:16:25.668Z</time></trkpt><trkpt lat="43.4714081" lon="11.2843987"><ele>576.5</ele><time>2026-05-01T08:16:27.598Z</time></trkpt><trkpt lat="43.4714212" lon="11.2842889"><ele>577.0</ele><time>2026-05-01T08:16:29.672Z</time></trkpt><trkpt lat="43.4714362" lon="11.2841725"><ele>577.5</ele><time>2026-05-01T08:16:31.667Z</time></trkpt><trkpt lat="43.4714477" lon="11.2840449"><ele>578.0</ele><time>2026-05-01T08:16:33.61Z</time></trkpt><trkpt lat="43.4714647" lon="11.2839112"><ele>578.5</ele><time>2026-05-01T08:16:35.678Z</time></trkpt><trkpt lat="43.471488" lon="11.2838157"><ele>579.0</ele><time>2026-05-01T08:16:37.591Z</time></trkpt><trkpt lat="43.4715035" lon="11.2836702"><ele>579.1666666666666</ele><time>2026-05-01T08:16:39.591Z</time></trkpt><trkpt lat="43.4715131" lon="11.283529"><ele>579.3333333333334</ele><time>2026-05-01T08:16:41.67Z</time></trkpt><trkpt lat="43.4715249" lon="11.2834386"><ele>579.5</ele><time>2026-05-01T08:16:42.592Z</time></trkpt><trkpt lat="43.4715162" lon="11.2833196"><ele>579.6666666666667</ele><time>2026-05-01T08:16:44.615Z</time></trkpt><trkpt lat="43.4715097" lon="11.2832067"><ele>579.8333333333334</ele><time>2026-05-01T08:16:46.597Z</time></trkpt><trkpt lat="43.471493" lon="11.2831075"><ele>580.0</ele><time>2026-05-01T08:16:48.603Z</time></trkpt><trkpt lat="43.4714529" lon="11.2830084"><ele>580.8</ele><time>2026-05-01T08:16:50.599Z</time></trkpt><trkpt lat="43.4713824" lon="11.2829239"><ele>581.6</ele><time>2026-05-01T08:16:52.602Z</time></trkpt><trkpt lat="43.4712983" lon="11.2828513"><ele>582.4</ele><time>2026-05-01T08:16:54.609Z</time></trkpt><trkpt lat="43.4712124" lon="11.2827775"><ele>583.2</ele><time>2026-05-01T08:16:56.679Z</time></trkpt><trkpt lat="43.4711243" lon="11.282711"><ele>584.0</ele><time>2026-05-01T08:16:58.611Z</time></trkpt><trkpt lat="43.471042" lon="11.2826466"><ele>581.2</ele><time>2026-05-01T08:17:00.67Z</time></trkpt><trkpt lat="43.4709805" lon="11.282552"><ele>578.4</ele><time>2026-05-01T08:17:02.598Z</time></trkpt><trkpt lat="43.4709164" lon="11.28248"><ele>575.6</ele><time>2026-05-01T08:17:04.656Z</time></trkpt><trkpt lat="43.4708861" lon="11.2823572"><ele>572.8</ele><time>2026-05-01T08:17:06.605Z</time></trkpt><trkpt lat="43.4708585" lon="11.2822158"><ele>570.0</ele><time>2026-05-01T08:17:08.603Z</time></trkpt><trkpt lat="43.470838" lon="11.2821087"><ele>570.0</ele><time>2026-05-01T08:17:10.609Z</time></trkpt><trkpt lat="43.4708644" lon="11.282004"><ele>570.0</ele><time>2026-05-01T08:17:12.59Z</time></trkpt><trkpt lat="43.4708871" lon="11.2818889"><ele>570.0</ele><time>2026-05-01T08:17:14.607Z</time></trkpt><trkpt lat="43.4709195" lon="11.2817768"><ele>570.0</ele><time>2026-05-01T08:17:16.599Z</time></trkpt><trkpt lat="43.4709544" lon="11.2816665"><ele>570.0</ele><time>2026-05-01T08:17:18.592Z</time></trkpt><trkpt lat="43.4709759" lon="11.281566"><ele>570.0</ele><time>2026-05-01T08:17:20.594Z</time></trkpt><trkpt lat="43.4709981" lon="11.2814578"><ele>569.4</ele><time>2026-05-01T08:17:22.599Z</time></trkpt><trkpt lat="43.4710014" lon="11.2813196"><ele>568.8</ele><time>2026-05-01T08:17:24.611Z</time></trkpt><trkpt lat="43.4709857" lon="11.2811825"><ele>568.2</ele><time>2026-05-01T08:17:26.61Z</time></trkpt><trkpt lat="43.4709766" lon="11.2810581"><ele>567.6</ele><time>2026-05-01T08:17:28.607Z</time></trkpt><trkpt lat="43.4709704" lon="11.2809363"><ele>567.0</ele><time>2026-05-01T08:17:30.607Z</time></trkpt><trkpt lat="43.4709696" lon="11.2808042"><ele>567.0</ele><time>2026-05-01T08:17:32.607Z</time></trkpt><trkpt lat="43.4709711" lon="11.2807165"><ele>567.0</ele><time>2026-05-01T08:17:33.613Z</time></trkpt><trkpt lat="43.4709666" lon="11.2805936"><ele>567.0</ele><time>2026-05-01T08:17:35.676Z</time></trkpt><trkpt lat="43.4709887" lon="11.2804868"><ele>567.0</ele><time>2026-05-01T08:17:37.596Z</time></trkpt><trkpt lat="43.4710249" lon="11.2803818"><ele>567.0</ele><time>2026-05-01T08:17:39.666Z</time></trkpt><trkpt lat="43.4710907" lon="11.2802776"><ele>567.0</ele><time>2026-05-01T08:17:41.589Z</time></trkpt><trkpt lat="43.4711848" lon="11.2802295"><ele>567.0</ele><time>2026-05-01T08:17:43.611Z</time></trkpt><trkpt lat="43.4712691" lon="11.2802403"><ele>567.0</ele><time>2026-05-01T08:17:45.683Z</time></trkpt><trkpt lat="43.4713705" lon="11.2802514"><ele>567.0</ele><time>2026-05-01T08:17:47.599Z</time></trkpt><trkpt lat="43.4714419" lon="11.2802544"><ele>567.0</ele><time>2026-05-01T08:17:49.654Z</time></trkpt><trkpt lat="43.4715208" lon="11.2802752"><ele>567.0</ele><time>2026-05-01T08:17:51.684Z</time></trkpt><trkpt lat="43.4715945" lon="11.2803007"><ele>567.0</ele><time>2026-05-01T08:17:53.611Z</time></trkpt><trkpt lat="43.4716763" lon="11.2803183"><ele>567.0</ele><time>2026-05-01T08:17:55.617Z</time></trkpt><trkpt lat="43.4717535" lon="11.2803251"><ele>567.0</ele><time>2026-05-01T08:17:57.608Z</time></trkpt><trkpt lat="43.4718286" lon="11.2803133"><ele>567.0</ele><time>2026-05-01T08:17:59.608Z</time></trkpt><trkpt lat="43.4719009" lon="11.2802774"><ele>567.0</ele><time>2026-05-01T08:18:01.593Z</time></trkpt><trkpt lat="43.4719805" lon="11.2802017"><ele>567.0</ele><time>2026-05-01T08:18:03.618Z</time></trkpt><trkpt lat="43.4720564" lon="11.2801023"><ele>567.0</ele><time>2026-05-01T08:18:05.605Z</time></trkpt><trkpt lat="43.4721156" lon="11.2799891"><ele>569.6</ele><time>2026-05-01T08:18:07.594Z</time></trkpt><trkpt lat="43.472149" lon="11.2798578"><ele>572.2</ele><time>2026-05-01T08:18:09.652Z</time></trkpt><trkpt lat="43.4721831" lon="11.2797086"><ele>574.8</ele><time>2026-05-01T08:18:11.676Z</time></trkpt><trkpt lat="43.4721873" lon="11.2796165"><ele>577.4</ele><time>2026-05-01T08:18:12.597Z</time></trkpt><trkpt lat="43.4721662" lon="11.2794798"><ele>580.0</ele><time>2026-05-01T08:18:14.653Z</time></trkpt><trkpt lat="43.472144" lon="11.2793777"><ele>579.2</ele><time>2026-05-01T08:18:16.685Z</time></trkpt><trkpt lat="43.472094" lon="11.2792694"><ele>578.4</ele><time>2026-05-01T08:18:18.606Z</time></trkpt><trkpt lat="43.4720286" lon="11.2791721"><ele>577.6</ele><time>2026-05-01T08:18:20.584Z</time></trkpt><trkpt lat="43.4719189" lon="11.279056"><ele>576.8</ele><time>2026-05-01T08:18:23.606Z</time></trkpt><trkpt lat="43.4718402" lon="11.2789788"><ele>576.0</ele><time>2026-05-01T08:18:25.679Z</time></trkpt><trkpt lat="43.4717646" lon="11.2789012"><ele>576.0</ele><time>2026-05-01T08:18:27.597Z</time></trkpt><trkpt lat="43.4716852" lon="11.2788167"><ele>576.0</ele><time>2026-05-01T08:18:29.602Z</time></trkpt><trkpt lat="43.4716192" lon="11.2787271"><ele>576.0</ele><time>2026-05-01T08:18:31.597Z</time></trkpt><trkpt lat="43.4715486" lon="11.278647"><ele>576.0</ele><time>2026-05-01T08:18:33.596Z</time></trkpt><trkpt lat="43.4714866" lon="11.278559"><ele>576.0</ele><time>2026-05-01T08:18:35.597Z</time></trkpt><trkpt lat="43.4714409" lon="11.2784594"><ele>576.0</ele><time>2026-05-01T08:18:37.599Z</time></trkpt><trkpt lat="43.4714281" lon="11.2783383"><ele>576.0</ele><time>2026-05-01T08:18:39.702Z</time></trkpt><trkpt lat="43.4714338" lon="11.2782098"><ele>576.0</ele><time>2026-05-01T08:18:41.67Z</time></trkpt><trkpt lat="43.4714516" lon="11.2780914"><ele>576.0</ele><time>2026-05-01T08:18:43.598Z</time></trkpt><trkpt lat="43.4714881" lon="11.2779803"><ele>576.0</ele><time>2026-05-01T08:18:45.61Z</time></trkpt><trkpt lat="43.4715271" lon="11.2778718"><ele>576.0</ele><time>2026-05-01T08:18:47.61Z</time></trkpt><trkpt lat="43.4715657" lon="11.277779"><ele>574.8333333333334</ele><time>2026-05-01T08:18:49.597Z</time></trkpt><trkpt lat="43.4716106" lon="11.2777128"><ele>573.6666666666666</ele><time>2026-05-01T08:18:51.667Z</time></trkpt><trkpt lat="43.4716595" lon="11.2776544"><ele>572.5</ele><time>2026-05-01T08:18:53.6Z</time></trkpt><trkpt lat="43.4717442" lon="11.2775532"><ele>571.3333333333333</ele><time>2026-05-01T08:18:55.679Z</time></trkpt><trkpt lat="43.4718167" lon="11.2774768"><ele>570.1666666666666</ele><time>2026-05-01T08:18:57.6Z</time></trkpt><trkpt lat="43.4718762" lon="11.2773962"><ele>569.0</ele><time>2026-05-01T08:18:59.653Z</time></trkpt><trkpt lat="43.4719486" lon="11.2773417"><ele>568.2</ele><time>2026-05-01T08:19:01.672Z</time></trkpt><trkpt lat="43.4720241" lon="11.277262"><ele>567.4</ele><time>2026-05-01T08:19:03.603Z</time></trkpt><trkpt lat="43.4720803" lon="11.2771657"><ele>566.6</ele><time>2026-05-01T08:19:05.592Z</time></trkpt><trkpt lat="43.472118" lon="11.2770403"><ele>565.8</ele><time>2026-05-01T08:19:07.597Z</time></trkpt><trkpt lat="43.4721134" lon="11.2768953"><ele>565.0</ele><time>2026-05-01T08:19:09.601Z</time></trkpt><trkpt lat="43.4720661" lon="11.2767516"><ele>565.0</ele><time>2026-05-01T08:19:11.579Z</time></trkpt><trkpt lat="43.4720073" lon="11.2766261"><ele>565.0</ele><time>2026-05-01T08:19:13.608Z</time></trkpt><trkpt lat="43.4719409" lon="11.2765128"><ele>565.0</ele><time>2026-05-01T08:19:15.697Z</time></trkpt><trkpt lat="43.4718772" lon="11.2763978"><ele>565.0</ele><time>2026-05-01T08:19:17.605Z</time></trkpt><trkpt lat="43.4718313" lon="11.2762753"><ele>565.0</ele><time>2026-05-01T08:19:19.596Z</time></trkpt><trkpt lat="43.4717932" lon="11.2761692"><ele>565.2</ele><time>2026-05-01T08:19:21.675Z</time></trkpt><trkpt lat="43.4717968" lon="11.2760672"><ele>565.4</ele><time>2026-05-01T08:19:23.605Z</time></trkpt><trkpt lat="43.4718007" lon="11.2759392"><ele>565.6</ele><time>2026-05-01T08:19:25.682Z</time></trkpt><trkpt lat="43.4718194" lon="11.2757986"><ele>565.8</ele><time>2026-05-01T08:19:27.599Z</time></trkpt><trkpt lat="43.4718482" lon="11.275658"><ele>566.0</ele><time>2026-05-01T08:19:29.602Z</time></trkpt><trkpt lat="43.4718772" lon="11.2755141"><ele>566.0</ele><time>2026-05-01T08:19:31.672Z</time></trkpt><trkpt lat="43.4719084" lon="11.2753721"><ele>566.0</ele><time>2026-05-01T08:19:33.602Z</time></trkpt><trkpt lat="43.4719125" lon="11.2752227"><ele>566.0</ele><time>2026-05-01T08:19:35.585Z</time></trkpt><trkpt lat="43.471924" lon="11.275104"><ele>566.0</ele><time>2026-05-01T08:19:37.59Z</time></trkpt><trkpt lat="43.4719311" lon="11.2749905"><ele>566.0</ele><time>2026-05-01T08:19:39.659Z</time></trkpt><trkpt lat="43.4719424" lon="11.2748666"><ele>565.1666666666666</ele><time>2026-05-01T08:19:41.605Z</time></trkpt><trkpt lat="43.4719576" lon="11.2747565"><ele>564.3333333333333</ele><time>2026-05-01T08:19:43.604Z</time></trkpt><trkpt lat="43.4719699" lon="11.274657"><ele>563.5</ele><time>2026-05-01T08:19:45.606Z</time></trkpt><trkpt lat="43.4719701" lon="11.2745497"><ele>562.6666666666666</ele><time>2026-05-01T08:19:47.616Z</time></trkpt><trkpt lat="43.471964" lon="11.274426"><ele>561.8333333333334</ele><time>2026-05-01T08:19:49.615Z</time></trkpt><trkpt lat="43.4719546" lon="11.2743051"><ele>561.0</ele><time>2026-05-01T08:19:51.609Z</time></trkpt><trkpt lat="43.4719468" lon="11.2741804"><ele>561.0</ele><time>2026-05-01T08:19:53.602Z</time></trkpt><trkpt lat="43.4719415" lon="11.2740586"><ele>561.0</ele><time>2026-05-01T08:19:55.671Z</time></trkpt><trkpt lat="43.4719617" lon="11.2737355"><ele>561.0</ele><time>2026-05-01T08:20:00.667Z</time></trkpt><trkpt lat="43.4719588" lon="11.2736143"><ele>561.0</ele><time>2026-05-01T08:20:02.603Z</time></trkpt><trkpt lat="43.4719676" lon="11.2735008"><ele>560.6</ele><time>2026-05-01T08:20:04.661Z</time></trkpt><trkpt lat="43.4719791" lon="11.2733762"><ele>560.2</ele><time>2026-05-01T08:20:06.666Z</time></trkpt><trkpt lat="43.4719918" lon="11.2732554"><ele>559.8</ele><time>2026-05-01T08:20:08.605Z</time></trkpt><trkpt lat="43.4719962" lon="11.2731312"><ele>559.4</ele><time>2026-05-01T08:20:10.67Z</time></trkpt><trkpt lat="43.4720012" lon="11.2729993"><ele>559.0</ele><time>2026-05-01T08:20:12.598Z</time></trkpt><trkpt lat="43.4720046" lon="11.2728703"><ele>559.0</ele><time>2026-05-01T08:20:14.608Z</time></trkpt><trkpt lat="43.4719804" lon="11.272719"><ele>559.0</ele><time>2026-05-01T08:20:16.597Z</time></trkpt><trkpt lat="43.4719596" lon="11.2725567"><ele>559.0</ele><time>2026-05-01T08:20:18.606Z</time></trkpt><trkpt lat="43.4719435" lon="11.2723932"><ele>559.0</ele><time>2026-05-01T08:20:20.609Z</time></trkpt><trkpt lat="43.4719244" lon="11.2722353"><ele>560.0</ele><time>2026-05-01T08:20:22.604Z</time></trkpt><trkpt lat="43.4718974" lon="11.2720679"><ele>561.0</ele><time>2026-05-01T08:20:24.602Z</time></trkpt><trkpt lat="43.4718786" lon="11.2719135"><ele>562.0</ele><time>2026-05-01T08:20:26.596Z</time></trkpt><trkpt lat="43.4718599" lon="11.2717548"><ele>563.0</ele><time>2026-05-01T08:20:28.604Z</time></trkpt><trkpt lat="43.4718425" lon="11.2715876"><ele>563.0</ele><time>2026-05-01T08:20:30.596Z</time></trkpt><trkpt lat="43.4718309" lon="11.2715016"><ele>563.0</ele><time>2026-05-01T08:20:31.672Z</time></trkpt><trkpt lat="43.47182" lon="11.271355"><ele>563.0</ele><time>2026-05-01T08:20:33.595Z</time></trkpt><trkpt lat="43.4717868" lon="11.2712112"><ele>563.0</ele><time>2026-05-01T08:20:35.599Z</time></trkpt><trkpt lat="43.4717489" lon="11.2710681"><ele>563.0</ele><time>2026-05-01T08:20:37.609Z</time></trkpt><trkpt lat="43.4716986" lon="11.2709063"><ele>563.3333333333333</ele><time>2026-05-01T08:20:39.651Z</time></trkpt><trkpt lat="43.4716663" lon="11.270808"><ele>563.6666666666666</ele><time>2026-05-01T08:20:40.593Z</time></trkpt><trkpt lat="43.4716337" lon="11.2707169"><ele>564.0</ele><time>2026-05-01T08:20:41.588Z</time></trkpt><trkpt lat="43.4716004" lon="11.2706246"><ele>564.3333333333334</ele><time>2026-05-01T08:20:42.61Z</time></trkpt><trkpt lat="43.4715652" lon="11.2705317"><ele>564.6666666666667</ele><time>2026-05-01T08:20:43.609Z</time></trkpt><trkpt lat="43.4715329" lon="11.2704407"><ele>565.0</ele><time>2026-05-01T08:20:44.602Z</time></trkpt><trkpt lat="43.4714957" lon="11.2703473"><ele>564.9999999999999</ele><time>2026-05-01T08:20:45.611Z</time></trkpt><trkpt lat="43.4714611" lon="11.2702601"><ele>565.0</ele><time>2026-05-01T08:20:46.669Z</time></trkpt><trkpt lat="43.471429" lon="11.2701672"><ele>565.0</ele><time>2026-05-01T08:20:47.6Z</time></trkpt><trkpt lat="43.4714049" lon="11.2700748"><ele>565.0</ele><time>2026-05-01T08:20:48.62Z</time></trkpt><trkpt lat="43.4713875" lon="11.2699862"><ele>565.0</ele><time>2026-05-01T08:20:49.611Z</time></trkpt><trkpt lat="43.4713844" lon="11.2698903"><ele>564.9999999999999</ele><time>2026-05-01T08:20:50.586Z</time></trkpt><trkpt lat="43.4713885" lon="11.2697924"><ele>565.0</ele><time>2026-05-01T08:20:51.609Z</time></trkpt><trkpt lat="43.4713995" lon="11.2696933"><ele>564.1428571428571</ele><time>2026-05-01T08:20:52.608Z</time></trkpt><trkpt lat="43.4714221" lon="11.269598"><ele>563.2857142857142</ele><time>2026-05-01T08:20:53.597Z</time></trkpt><trkpt lat="43.4714539" lon="11.2695152"><ele>562.4285714285714</ele><time>2026-05-01T08:20:54.611Z</time></trkpt><trkpt lat="43.4714993" lon="11.2694402"><ele>561.5714285714286</ele><time>2026-05-01T08:20:55.601Z</time></trkpt><trkpt lat="43.4715499" lon="11.2693742"><ele>560.7142857142858</ele><time>2026-05-01T08:20:56.602Z</time></trkpt><trkpt lat="43.4716137" lon="11.26932"><ele>559.8571428571429</ele><time>2026-05-01T08:20:57.61Z</time></trkpt><trkpt lat="43.4716792" lon="11.2692679"><ele>559.0</ele><time>2026-05-01T08:20:58.603Z</time></trkpt><trkpt lat="43.4717437" lon="11.2692171"><ele>559.0</ele><time>2026-05-01T08:20:59.607Z</time></trkpt><trkpt lat="43.4718106" lon="11.2691736"><ele>559.0</ele><time>2026-05-01T08:21:00.609Z</time></trkpt><trkpt lat="43.4718822" lon="11.2691323"><ele>559.0</ele><time>2026-05-01T08:21:01.61Z</time></trkpt><trkpt lat="43.4719464" lon="11.2690849"><ele>559.0</ele><time>2026-05-01T08:21:02.608Z</time></trkpt><trkpt lat="43.4720164" lon="11.2690487"><ele>559.0</ele><time>2026-05-01T08:21:03.612Z</time></trkpt><trkpt lat="43.4720906" lon="11.2690035"><ele>559.0</ele><time>2026-05-01T08:21:04.619Z</time></trkpt><trkpt lat="43.472167" lon="11.2689618"><ele>556.5</ele><time>2026-05-01T08:21:05.691Z</time></trkpt><trkpt lat="43.4722378" lon="11.2689206"><ele>554.0</ele><time>2026-05-01T08:21:06.667Z</time></trkpt><trkpt lat="43.4723525" lon="11.2688666"><ele>551.5</ele><time>2026-05-01T08:21:08.579Z</time></trkpt><trkpt lat="43.4724193" lon="11.2688227"><ele>549.0</ele><time>2026-05-01T08:21:09.651Z</time></trkpt><trkpt lat="43.4724836" lon="11.2687781"><ele>546.5</ele><time>2026-05-01T08:21:10.667Z</time></trkpt><trkpt lat="43.4725535" lon="11.26875"><ele>544.0</ele><time>2026-05-01T08:21:11.67Z</time></trkpt><trkpt lat="43.4726297" lon="11.2687439"><ele>544.0</ele><time>2026-05-01T08:21:12.588Z</time></trkpt><trkpt lat="43.4727016" lon="11.2687522"><ele>544.0</ele><time>2026-05-01T08:21:13.601Z</time></trkpt><trkpt lat="43.4727766" lon="11.2687659"><ele>544.0</ele><time>2026-05-01T08:21:14.652Z</time></trkpt><trkpt lat="43.4728527" lon="11.2687863"><ele>544.0</ele><time>2026-05-01T08:21:15.669Z</time></trkpt><trkpt lat="43.4729233" lon="11.2688133"><ele>544.0</ele><time>2026-05-01T08:21:17.608Z</time></trkpt><trkpt lat="43.4729971" lon="11.2688429"><ele>544.0</ele><time>2026-05-01T08:21:18.608Z</time></trkpt><trkpt lat="43.4730699" lon="11.2688832"><ele>543.1666666666667</ele><time>2026-05-01T08:21:19.659Z</time></trkpt><trkpt lat="43.4731379" lon="11.2689171"><ele>542.3333333333334</ele><time>2026-05-01T08:21:20.583Z</time></trkpt><trkpt lat="43.4732013" lon="11.2689491"><ele>541.5</ele><time>2026-05-01T08:21:21.678Z</time></trkpt><trkpt lat="43.4732633" lon="11.2689795"><ele>540.6666666666666</ele><time>2026-05-01T08:21:22.58Z</time></trkpt><trkpt lat="43.4733837" lon="11.2690251"><ele>539.8333333333333</ele><time>2026-05-01T08:21:24.586Z</time></trkpt><trkpt lat="43.4734482" lon="11.2690547"><ele>539.0</ele><time>2026-05-01T08:21:25.674Z</time></trkpt><trkpt lat="43.4735575" lon="11.2691107"><ele>540.8</ele><time>2026-05-01T08:21:27.607Z</time></trkpt><trkpt lat="43.473665" lon="11.2691745"><ele>542.5999999999999</ele><time>2026-05-01T08:21:29.584Z</time></trkpt><trkpt lat="43.4737764" lon="11.2692407"><ele>544.4</ele><time>2026-05-01T08:21:31.582Z</time></trkpt><trkpt lat="43.4738329" lon="11.2692817"><ele>546.1999999999999</ele><time>2026-05-01T08:21:32.601Z</time></trkpt><trkpt lat="43.4739382" lon="11.2693598"><ele>548.0</ele><time>2026-05-01T08:21:34.581Z</time></trkpt><trkpt lat="43.474038" lon="11.2694532"><ele>548.0</ele><time>2026-05-01T08:21:36.67Z</time></trkpt><trkpt lat="43.4741318" lon="11.2695574"><ele>548.0</ele><time>2026-05-01T08:21:38.604Z</time></trkpt><trkpt lat="43.4742212" lon="11.2696664"><ele>548.0</ele><time>2026-05-01T08:21:40.667Z</time></trkpt><trkpt lat="43.4742707" lon="11.2697256"><ele>548.0</ele><time>2026-05-01T08:21:41.68Z</time></trkpt><trkpt lat="43.4743239" lon="11.2697722"><ele>548.0</ele><time>2026-05-01T08:21:42.604Z</time></trkpt><trkpt lat="43.4744462" lon="11.2697673"><ele>548.0</ele><time>2026-05-01T08:21:44.648Z</time></trkpt><trkpt lat="43.4745117" lon="11.269725"><ele>548.0</ele><time>2026-05-01T08:21:45.663Z</time></trkpt><trkpt lat="43.4745695" lon="11.2696614"><ele>548.0</ele><time>2026-05-01T08:21:46.672Z</time></trkpt><trkpt lat="43.4746119" lon="11.2695863"><ele>548.0</ele><time>2026-05-01T08:21:47.584Z</time></trkpt><trkpt lat="43.4746453" lon="11.269508"><ele>548.0</ele><time>2026-05-01T08:21:48.594Z</time></trkpt><trkpt lat="43.4746911" lon="11.2693566"><ele>548.0</ele><time>2026-05-01T08:21:50.664Z</time></trkpt><trkpt lat="43.4747271" lon="11.2692106"><ele>549.8</ele><time>2026-05-01T08:21:52.584Z</time></trkpt><trkpt lat="43.4747686" lon="11.2690661"><ele>551.5999999999999</ele><time>2026-05-01T08:21:54.596Z</time></trkpt><trkpt lat="43.4747957" lon="11.2689858"><ele>553.4000000000001</ele><time>2026-05-01T08:21:55.68Z</time></trkpt><trkpt lat="43.4748677" lon="11.2688636"><ele>555.2</ele><time>2026-05-01T08:21:57.601Z</time></trkpt><trkpt lat="43.4749441" lon="11.2687535"><ele>557.0</ele><time>2026-05-01T08:21:59.613Z</time></trkpt><trkpt lat="43.4750035" lon="11.2686211"><ele>557.0</ele><time>2026-05-01T08:22:01.608Z</time></trkpt><trkpt lat="43.4750234" lon="11.268462"><ele>557.0</ele><time>2026-05-01T08:22:03.603Z</time></trkpt><trkpt lat="43.4749883" lon="11.268297"><ele>557.0</ele><time>2026-05-01T08:22:05.607Z</time></trkpt><trkpt lat="43.474947" lon="11.2682218"><ele>557.0</ele><time>2026-05-01T08:22:06.603Z</time></trkpt><trkpt lat="43.4748977" lon="11.2681528"><ele>557.0</ele><time>2026-05-01T08:22:07.605Z</time></trkpt><trkpt lat="43.4748007" lon="11.2680401"><ele>558.5</ele><time>2026-05-01T08:22:09.603Z</time></trkpt><trkpt lat="43.4747536" lon="11.2679825"><ele>560.0</ele><time>2026-05-01T08:22:10.61Z</time></trkpt><trkpt lat="43.4746714" lon="11.2678676"><ele>561.5</ele><time>2026-05-01T08:22:12.599Z</time></trkpt><trkpt lat="43.4745945" lon="11.2677474"><ele>563.0</ele><time>2026-05-01T08:22:14.67Z</time></trkpt><trkpt lat="43.4745484" lon="11.2676752"><ele>564.5</ele><time>2026-05-01T08:22:15.673Z</time></trkpt><trkpt lat="43.4744958" lon="11.2676064"><ele>566.0</ele><time>2026-05-01T08:22:16.677Z</time></trkpt><trkpt lat="43.4744027" lon="11.267516"><ele>564.4</ele><time>2026-05-01T08:22:18.593Z</time></trkpt><trkpt lat="43.4743177" lon="11.2674203"><ele>562.8</ele><time>2026-05-01T08:22:20.593Z</time></trkpt><trkpt lat="43.4742197" lon="11.267332"><ele>561.1999999999999</ele><time>2026-05-01T08:22:22.59Z</time></trkpt><trkpt lat="43.4741356" lon="11.2672331"><ele>559.6</ele><time>2026-05-01T08:22:24.658Z</time></trkpt><trkpt lat="43.4740618" lon="11.2671292"><ele>558.0</ele><time>2026-05-01T08:22:26.666Z</time></trkpt><trkpt lat="43.4739931" lon="11.2670298"><ele>558.0</ele><time>2026-05-01T08:22:28.595Z</time></trkpt><trkpt lat="43.4739079" lon="11.2669344"><ele>558.0</ele><time>2026-05-01T08:22:30.664Z</time></trkpt><trkpt lat="43.4738074" lon="11.2668556"><ele>558.0</ele><time>2026-05-01T08:22:32.604Z</time></trkpt><trkpt lat="43.4737006" lon="11.2667609"><ele>558.0</ele><time>2026-05-01T08:22:34.596Z</time></trkpt><trkpt lat="43.4736095" lon="11.2666668"><ele>556.6</ele><time>2026-05-01T08:22:36.583Z</time></trkpt><trkpt lat="43.473517" lon="11.2665849"><ele>555.1999999999999</ele><time>2026-05-01T08:22:38.595Z</time></trkpt><trkpt lat="43.4734326" lon="11.2665009"><ele>553.8</ele><time>2026-05-01T08:22:40.605Z</time></trkpt><trkpt lat="43.4733484" lon="11.2664191"><ele>552.4</ele><time>2026-05-01T08:22:42.598Z</time></trkpt><trkpt lat="43.473272" lon="11.2663316"><ele>551.0</ele><time>2026-05-01T08:22:44.603Z</time></trkpt><trkpt lat="43.473204" lon="11.2662304"><ele>551.0</ele><time>2026-05-01T08:22:46.613Z</time></trkpt><trkpt lat="43.4731324" lon="11.26613"><ele>551.0</ele><time>2026-05-01T08:22:48.599Z</time></trkpt><trkpt lat="43.4730664" lon="11.2660265"><ele>551.0</ele><time>2026-05-01T08:22:50.587Z</time></trkpt><trkpt lat="43.4730134" lon="11.2659078"><ele>551.0</ele><time>2026-05-01T08:22:52.598Z</time></trkpt><trkpt lat="43.4729627" lon="11.2657967"><ele>551.0</ele><time>2026-05-01T08:22:54.61Z</time></trkpt><trkpt lat="43.4729216" lon="11.2656751"><ele>545.8</ele><time>2026-05-01T08:22:56.599Z</time></trkpt><trkpt lat="43.4728967" lon="11.2655428"><ele>540.6</ele><time>2026-05-01T08:22:58.613Z</time></trkpt><trkpt lat="43.4728755" lon="11.2654116"><ele>535.4</ele><time>2026-05-01T08:23:00.656Z</time></trkpt><trkpt lat="43.472847" lon="11.2652862"><ele>530.2</ele><time>2026-05-01T08:23:02.607Z</time></trkpt><trkpt lat="43.4728321" lon="11.2651603"><ele>525.0</ele><time>2026-05-01T08:23:04.604Z</time></trkpt><trkpt lat="43.4728347" lon="11.2650359"><ele>525.0</ele><time>2026-05-01T08:23:06.601Z</time></trkpt><trkpt lat="43.4728595" lon="11.2649096"><ele>525.0</ele><time>2026-05-01T08:23:08.597Z</time></trkpt><trkpt lat="43.4728983" lon="11.2648067"><ele>525.0</ele><time>2026-05-01T08:23:10.61Z</time></trkpt><trkpt lat="43.4729456" lon="11.2647237"><ele>525.0</ele><time>2026-05-01T08:23:12.61Z</time></trkpt><trkpt lat="43.4730123" lon="11.2646485"><ele>525.0</ele><time>2026-05-01T08:23:14.593Z</time></trkpt><trkpt lat="43.4730852" lon="11.2645921"><ele>525.0</ele><time>2026-05-01T08:23:16.604Z</time></trkpt><trkpt lat="43.4731723" lon="11.2645732"><ele>525.6</ele><time>2026-05-01T08:23:18.61Z</time></trkpt><trkpt lat="43.4732634" lon="11.2645744"><ele>526.2</ele><time>2026-05-01T08:23:20.607Z</time></trkpt><trkpt lat="43.4733634" lon="11.264591"><ele>526.8</ele><time>2026-05-01T08:23:22.612Z</time></trkpt><trkpt lat="43.4734671" lon="11.2646207"><ele>527.4</ele><time>2026-05-01T08:23:24.607Z</time></trkpt><trkpt lat="43.4735699" lon="11.2646553"><ele>528.0</ele><time>2026-05-01T08:23:26.6Z</time></trkpt><trkpt lat="43.4736727" lon="11.2646673"><ele>530.1999999999999</ele><time>2026-05-01T08:23:28.592Z</time></trkpt><trkpt lat="43.4737767" lon="11.2646596"><ele>532.4</ele><time>2026-05-01T08:23:30.612Z</time></trkpt><trkpt lat="43.4738848" lon="11.2645968"><ele>534.5999999999999</ele><time>2026-05-01T08:23:32.617Z</time></trkpt><trkpt lat="43.4739816" lon="11.2644838"><ele>536.8</ele><time>2026-05-01T08:23:34.608Z</time></trkpt><trkpt lat="43.4740221" lon="11.2644126"><ele>539.0</ele><time>2026-05-01T08:23:35.613Z</time></trkpt><trkpt lat="43.474053" lon="11.2643326"><ele>539.0</ele><time>2026-05-01T08:23:36.618Z</time></trkpt><trkpt lat="43.4740857" lon="11.2642523"><ele>539.0</ele><time>2026-05-01T08:23:37.607Z</time></trkpt><trkpt lat="43.4741137" lon="11.2641662"><ele>539.0</ele><time>2026-05-01T08:23:38.602Z</time></trkpt><trkpt lat="43.4741391" lon="11.2640817"><ele>539.0</ele><time>2026-05-01T08:23:39.601Z</time></trkpt><trkpt lat="43.4741961" lon="11.2639261"><ele>539.0</ele><time>2026-05-01T08:23:41.598Z</time></trkpt><trkpt lat="43.474252" lon="11.2637798"><ele>539.0</ele><time>2026-05-01T08:23:43.613Z</time></trkpt><trkpt lat="43.4743048" lon="11.2636488"><ele>538.4</ele><time>2026-05-01T08:23:45.606Z</time></trkpt><trkpt lat="43.4743526" lon="11.2635144"><ele>537.8</ele><time>2026-05-01T08:23:47.6Z</time></trkpt><trkpt lat="43.4744096" lon="11.2633837"><ele>537.2</ele><time>2026-05-01T08:23:49.603Z</time></trkpt><trkpt lat="43.4744852" lon="11.2632727"><ele>536.6</ele><time>2026-05-01T08:23:51.59Z</time></trkpt><trkpt lat="43.4745805" lon="11.26321"><ele>536.0</ele><time>2026-05-01T08:23:53.613Z</time></trkpt><trkpt lat="43.4746723" lon="11.2631829"><ele>536.0</ele><time>2026-05-01T08:23:55.601Z</time></trkpt><trkpt lat="43.474765" lon="11.2631952"><ele>536.0</ele><time>2026-05-01T08:23:57.603Z</time></trkpt><trkpt lat="43.4748468" lon="11.2632556"><ele>536.0</ele><time>2026-05-01T08:23:59.604Z</time></trkpt><trkpt lat="43.4749168" lon="11.2633075"><ele>536.0</ele><time>2026-05-01T08:24:01.603Z</time></trkpt><trkpt lat="43.474983" lon="11.2633706"><ele>536.0</ele><time>2026-05-01T08:24:03.603Z</time></trkpt><trkpt lat="43.4750532" lon="11.2634357"><ele>536.0</ele><time>2026-05-01T08:24:05.592Z</time></trkpt><trkpt lat="43.4751236" lon="11.2635081"><ele>536.0</ele><time>2026-05-01T08:24:07.611Z</time></trkpt><trkpt lat="43.4751927" lon="11.26357"><ele>536.0</ele><time>2026-05-01T08:24:09.599Z</time></trkpt><trkpt lat="43.4752656" lon="11.2636299"><ele>536.0</ele><time>2026-05-01T08:24:11.607Z</time></trkpt><trkpt lat="43.475344" lon="11.2637064"><ele>536.0</ele><time>2026-05-01T08:24:13.578Z</time></trkpt><trkpt lat="43.4754205" lon="11.2637966"><ele>536.0</ele><time>2026-05-01T08:24:15.605Z</time></trkpt><trkpt lat="43.4754933" lon="11.2638908"><ele>536.75</ele><time>2026-05-01T08:24:17.61Z</time></trkpt><trkpt lat="43.4755831" lon="11.2639769"><ele>537.5</ele><time>2026-05-01T08:24:19.614Z</time></trkpt><trkpt lat="43.4756887" lon="11.2640485"><ele>538.25</ele><time>2026-05-01T08:24:21.689Z</time></trkpt><trkpt lat="43.47579" lon="11.2641126"><ele>539.0</ele><time>2026-05-01T08:24:23.61Z</time></trkpt><trkpt lat="43.4758985" lon="11.2641681"><ele>539.0</ele><time>2026-05-01T08:24:25.595Z</time></trkpt><trkpt lat="43.4760136" lon="11.2642108"><ele>539.0</ele><time>2026-05-01T08:24:27.576Z</time></trkpt><trkpt lat="43.4761297" lon="11.2642149"><ele>539.0</ele><time>2026-05-01T08:24:29.612Z</time></trkpt><trkpt lat="43.4762389" lon="11.2641614"><ele>539.0</ele><time>2026-05-01T08:24:31.603Z</time></trkpt><trkpt lat="43.4763082" lon="11.2640368"><ele>541.1666666666666</ele><time>2026-05-01T08:24:33.603Z</time></trkpt><trkpt lat="43.476326" lon="11.2639451"><ele>543.3333333333333</ele><time>2026-05-01T08:24:34.58Z</time></trkpt><trkpt lat="43.4763434" lon="11.263789"><ele>545.5</ele><time>2026-05-01T08:24:36.671Z</time></trkpt><trkpt lat="43.4763188" lon="11.263635"><ele>547.6666666666666</ele><time>2026-05-01T08:24:38.606Z</time></trkpt><trkpt lat="43.4762915" lon="11.2635452"><ele>549.8333333333334</ele><time>2026-05-01T08:24:39.616Z</time></trkpt><trkpt lat="43.4762627" lon="11.2634546"><ele>552.0</ele><time>2026-05-01T08:24:40.665Z</time></trkpt><trkpt lat="43.4762369" lon="11.2633632"><ele>547.6666666666666</ele><time>2026-05-01T08:24:41.681Z</time></trkpt><trkpt lat="43.4762167" lon="11.2632619"><ele>543.3333333333334</ele><time>2026-05-01T08:24:42.605Z</time></trkpt><trkpt lat="43.4761977" lon="11.263157"><ele>539.0</ele><time>2026-05-01T08:24:43.606Z</time></trkpt><trkpt lat="43.476172" lon="11.2630481"><ele>534.6666666666667</ele><time>2026-05-01T08:24:44.664Z</time></trkpt><trkpt lat="43.4761557" lon="11.2629405"><ele>530.3333333333334</ele><time>2026-05-01T08:24:45.667Z</time></trkpt><trkpt lat="43.4761469" lon="11.2628279"><ele>526.0</ele><time>2026-05-01T08:24:46.667Z</time></trkpt><trkpt lat="43.4761399" lon="11.2627218"><ele>524.8571428571429</ele><time>2026-05-01T08:24:47.61Z</time></trkpt><trkpt lat="43.4761431" lon="11.2626123"><ele>523.7142857142857</ele><time>2026-05-01T08:24:48.601Z</time></trkpt><trkpt lat="43.4761467" lon="11.2625145"><ele>522.5714285714286</ele><time>2026-05-01T08:24:49.673Z</time></trkpt><trkpt lat="43.4761603" lon="11.2624206"><ele>521.4285714285714</ele><time>2026-05-01T08:24:50.665Z</time></trkpt><trkpt lat="43.4761791" lon="11.2623179"><ele>520.2857142857142</ele><time>2026-05-01T08:24:51.603Z</time></trkpt><trkpt lat="43.4762006" lon="11.2622206"><ele>519.1428571428571</ele><time>2026-05-01T08:24:52.605Z</time></trkpt><trkpt lat="43.47622" lon="11.2621199"><ele>518.0</ele><time>2026-05-01T08:24:53.605Z</time></trkpt><trkpt lat="43.4762387" lon="11.2620217"><ele>517.2857142857143</ele><time>2026-05-01T08:24:54.654Z</time></trkpt><trkpt lat="43.4762609" lon="11.2619208"><ele>516.5714285714286</ele><time>2026-05-01T08:24:55.654Z</time></trkpt><trkpt lat="43.4762824" lon="11.2618223"><ele>515.8571428571429</ele><time>2026-05-01T08:24:56.58Z</time></trkpt><trkpt lat="43.476301" lon="11.2617238"><ele>515.1428571428571</ele><time>2026-05-01T08:24:57.597Z</time></trkpt><trkpt lat="43.4763208" lon="11.2616306"><ele>514.4285714285714</ele><time>2026-05-01T08:24:58.598Z</time></trkpt><trkpt lat="43.4763413" lon="11.2615309"><ele>513.7142857142858</ele><time>2026-05-01T08:24:59.604Z</time></trkpt><trkpt lat="43.476357" lon="11.2614296"><ele>513.0</ele><time>2026-05-01T08:25:00.621Z</time></trkpt><trkpt lat="43.4763735" lon="11.2613278"><ele>513.7142857142858</ele><time>2026-05-01T08:25:01.605Z</time></trkpt><trkpt lat="43.4763845" lon="11.2612328"><ele>514.4285714285714</ele><time>2026-05-01T08:25:02.599Z</time></trkpt><trkpt lat="43.476386" lon="11.2611408"><ele>515.1428571428571</ele><time>2026-05-01T08:25:03.61Z</time></trkpt><trkpt lat="43.4763728" lon="11.2610506"><ele>515.8571428571429</ele><time>2026-05-01T08:25:04.606Z</time></trkpt><trkpt lat="43.4763488" lon="11.2609628"><ele>516.5714285714286</ele><time>2026-05-01T08:25:05.612Z</time></trkpt><trkpt lat="43.4763091" lon="11.260881"><ele>517.2857142857143</ele><time>2026-05-01T08:25:06.595Z</time></trkpt><trkpt lat="43.4762614" lon="11.2608099"><ele>518.0</ele><time>2026-05-01T08:25:07.62Z</time></trkpt><trkpt lat="43.4762073" lon="11.2607395"><ele>518.0</ele><time>2026-05-01T08:25:08.603Z</time></trkpt><trkpt lat="43.4761478" lon="11.2606792"><ele>518.0</ele><time>2026-05-01T08:25:09.607Z</time></trkpt><trkpt lat="43.4760893" lon="11.2606294"><ele>518.0</ele><time>2026-05-01T08:25:10.611Z</time></trkpt><trkpt lat="43.4760262" lon="11.2605789"><ele>518.0</ele><time>2026-05-01T08:25:11.603Z</time></trkpt><trkpt lat="43.4759646" lon="11.2605278"><ele>518.0</ele><time>2026-05-01T08:25:12.6Z</time></trkpt><trkpt lat="43.4758984" lon="11.2604786"><ele>518.0</ele><time>2026-05-01T08:25:13.598Z</time></trkpt><trkpt lat="43.4758359" lon="11.2604238"><ele>518.0</ele><time>2026-05-01T08:25:14.62Z</time></trkpt><trkpt lat="43.4757723" lon="11.260366"><ele>519.5714285714286</ele><time>2026-05-01T08:25:15.586Z</time></trkpt><trkpt lat="43.4757147" lon="11.2603092"><ele>521.1428571428571</ele><time>2026-05-01T08:25:16.61Z</time></trkpt><trkpt lat="43.4756575" lon="11.2602423"><ele>522.7142857142858</ele><time>2026-05-01T08:25:17.596Z</time></trkpt><trkpt lat="43.4756061" lon="11.2601732"><ele>524.2857142857142</ele><time>2026-05-01T08:25:18.583Z</time></trkpt><trkpt lat="43.4755547" lon="11.2601048"><ele>525.8571428571429</ele><time>2026-05-01T08:25:19.6Z</time></trkpt><trkpt lat="43.475507" lon="11.260038"><ele>527.4285714285714</ele><time>2026-05-01T08:25:20.595Z</time></trkpt><trkpt lat="43.475456" lon="11.2599704"><ele>529.0</ele><time>2026-05-01T08:25:21.668Z</time></trkpt><trkpt lat="43.4754091" lon="11.2598992"><ele>527.4285714285714</ele><time>2026-05-01T08:25:22.607Z</time></trkpt><trkpt lat="43.4753627" lon="11.2598383"><ele>525.8571428571429</ele><time>2026-05-01T08:25:23.6Z</time></trkpt><trkpt lat="43.4753158" lon="11.259768"><ele>524.2857142857142</ele><time>2026-05-01T08:25:24.597Z</time></trkpt><trkpt lat="43.4752681" lon="11.2597041"><ele>522.7142857142858</ele><time>2026-05-01T08:25:25.647Z</time></trkpt><trkpt lat="43.4752214" lon="11.2596411"><ele>521.1428571428571</ele><time>2026-05-01T08:25:26.599Z</time></trkpt><trkpt lat="43.4751766" lon="11.2595772"><ele>519.5714285714286</ele><time>2026-05-01T08:25:27.607Z</time></trkpt><trkpt lat="43.4751345" lon="11.2595121"><ele>518.0</ele><time>2026-05-01T08:25:28.601Z</time></trkpt><trkpt lat="43.4750508" lon="11.2593901"><ele>518.0</ele><time>2026-05-01T08:25:30.667Z</time></trkpt><trkpt lat="43.4750086" lon="11.2593226"><ele>518.0</ele><time>2026-05-01T08:25:31.597Z</time></trkpt><trkpt lat="43.4749334" lon="11.2591935"><ele>518.0</ele><time>2026-05-01T08:25:33.599Z</time></trkpt><trkpt lat="43.4748962" lon="11.2590528"><ele>518.0</ele><time>2026-05-01T08:25:35.611Z</time></trkpt><trkpt lat="43.4748764" lon="11.258898"><ele>518.0</ele><time>2026-05-01T08:25:37.597Z</time></trkpt><trkpt lat="43.4748906" lon="11.2587398"><ele>517.1999999999999</ele><time>2026-05-01T08:25:39.6Z</time></trkpt><trkpt lat="43.4749449" lon="11.2586075"><ele>516.4</ele><time>2026-05-01T08:25:41.612Z</time></trkpt><trkpt lat="43.4750203" lon="11.2584934"><ele>515.5999999999999</ele><time>2026-05-01T08:25:43.618Z</time></trkpt><trkpt lat="43.475106" lon="11.2584007"><ele>514.8</ele><time>2026-05-01T08:25:45.666Z</time></trkpt><trkpt lat="43.4751866" lon="11.2583314"><ele>514.0</ele><time>2026-05-01T08:25:47.673Z</time></trkpt><trkpt lat="43.47527" lon="11.2582976"><ele>514.0</ele><time>2026-05-01T08:25:49.605Z</time></trkpt><trkpt lat="43.4753523" lon="11.2582482"><ele>514.0</ele><time>2026-05-01T08:25:51.611Z</time></trkpt><trkpt lat="43.4754416" lon="11.2582141"><ele>514.0</ele><time>2026-05-01T08:25:53.59Z</time></trkpt><trkpt lat="43.4755399" lon="11.2582242"><ele>514.0</ele><time>2026-05-01T08:25:55.663Z</time></trkpt><trkpt lat="43.4756458" lon="11.2582437"><ele>514.0</ele><time>2026-05-01T08:25:57.597Z</time></trkpt><trkpt lat="43.4757144" lon="11.2582444"><ele>514.4</ele><time>2026-05-01T08:25:58.594Z</time></trkpt><trkpt lat="43.4758095" lon="11.258297"><ele>514.8</ele><time>2026-05-01T08:26:00.67Z</time></trkpt><trkpt lat="43.4758843" lon="11.2583718"><ele>515.2</ele><time>2026-05-01T08:26:02.6Z</time></trkpt><trkpt lat="43.4759577" lon="11.2584726"><ele>515.6</ele><time>2026-05-01T08:26:04.578Z</time></trkpt><trkpt lat="43.4760247" lon="11.2585812"><ele>516.0</ele><time>2026-05-01T08:26:06.587Z</time></trkpt><trkpt lat="43.476091" lon="11.2586874"><ele>516.0</ele><time>2026-05-01T08:26:08.595Z</time></trkpt><trkpt lat="43.4761594" lon="11.2587904"><ele>516.0</ele><time>2026-05-01T08:26:10.595Z</time></trkpt><trkpt lat="43.4762271" lon="11.2588956"><ele>516.0</ele><time>2026-05-01T08:26:12.61Z</time></trkpt><trkpt lat="43.4762962" lon="11.2589939"><ele>516.0</ele><time>2026-05-01T08:26:14.597Z</time></trkpt><trkpt lat="43.4763706" lon="11.2590799"><ele>516.0</ele><time>2026-05-01T08:26:16.6Z</time></trkpt><trkpt lat="43.4764433" lon="11.2591604"><ele>516.0</ele><time>2026-05-01T08:26:18.598Z</time></trkpt><trkpt lat="43.4765235" lon="11.2592382"><ele>516.0</ele><time>2026-05-01T08:26:20.672Z</time></trkpt><trkpt lat="43.4765896" lon="11.2593167"><ele>516.0</ele><time>2026-05-01T08:26:22.6Z</time></trkpt><trkpt lat="43.4766809" lon="11.259353"><ele>516.0</ele><time>2026-05-01T08:26:24.611Z</time></trkpt><trkpt lat="43.4767831" lon="11.2593972"><ele>516.0</ele><time>2026-05-01T08:26:26.679Z</time></trkpt><trkpt lat="43.4769084" lon="11.2594306"><ele>516.0</ele><time>2026-05-01T08:26:28.592Z</time></trkpt><trkpt lat="43.4769926" lon="11.2594205"><ele>516.0</ele><time>2026-05-01T08:26:29.588Z</time></trkpt><trkpt lat="43.4770624" lon="11.2594218"><ele>516.0</ele><time>2026-05-01T08:26:30.662Z</time></trkpt><trkpt lat="43.4771639" lon="11.2594467"><ele>516.0</ele><time>2026-05-01T08:26:32.579Z</time></trkpt><trkpt lat="43.4772296" lon="11.259438"><ele>516.0</ele><time>2026-05-01T08:26:33.599Z</time></trkpt><trkpt lat="43.4773456" lon="11.259452"><ele>516.0</ele><time>2026-05-01T08:26:35.681Z</time></trkpt><trkpt lat="43.4774637" lon="11.2594519"><ele>513.25</ele><time>2026-05-01T08:26:37.671Z</time></trkpt><trkpt lat="43.477612" lon="11.259578"><ele>510.5</ele><time>2026-05-01T08:26:40.657Z</time></trkpt><trkpt lat="43.4776785" lon="11.2596725"><ele>507.75</ele><time>2026-05-01T08:26:42.671Z</time></trkpt><trkpt lat="43.4777783" lon="11.2598331"><ele>505.0</ele><time>2026-05-01T08:26:46.584Z</time></trkpt><trkpt lat="43.477855" lon="11.2599207"><ele>505.6</ele><time>2026-05-01T08:26:48.599Z</time></trkpt><trkpt lat="43.4779451" lon="11.2599915"><ele>506.2</ele><time>2026-05-01T08:26:50.601Z</time></trkpt><trkpt lat="43.4780271" lon="11.2600505"><ele>506.79999999999995</ele><time>2026-05-01T08:26:52.594Z</time></trkpt><trkpt lat="43.4781122" lon="11.2601098"><ele>507.4</ele><time>2026-05-01T08:26:54.591Z</time></trkpt><trkpt lat="43.4781892" lon="11.2601797"><ele>508.0</ele><time>2026-05-01T08:26:56.675Z</time></trkpt><trkpt lat="43.4782589" lon="11.2602605"><ele>508.0</ele><time>2026-05-01T08:26:58.584Z</time></trkpt><trkpt lat="43.4783126" lon="11.2603542"><ele>507.99999999999994</ele><time>2026-05-01T08:27:00.665Z</time></trkpt><trkpt lat="43.4783804" lon="11.260477"><ele>507.99999999999994</ele><time>2026-05-01T08:27:03.603Z</time></trkpt><trkpt lat="43.47841" lon="11.2606261"><ele>508.0</ele><time>2026-05-01T08:27:05.663Z</time></trkpt><trkpt lat="43.4784358" lon="11.2607641"><ele>508.0</ele><time>2026-05-01T08:27:07.58Z</time></trkpt><trkpt lat="43.4784715" lon="11.2608818"><ele>510.59999999999997</ele><time>2026-05-01T08:27:09.652Z</time></trkpt><trkpt lat="43.4784973" lon="11.2610074"><ele>513.1999999999999</ele><time>2026-05-01T08:27:11.679Z</time></trkpt><trkpt lat="43.4785195" lon="11.261135"><ele>515.8</ele><time>2026-05-01T08:27:13.611Z</time></trkpt><trkpt lat="43.4785446" lon="11.2612603"><ele>518.4</ele><time>2026-05-01T08:27:15.66Z</time></trkpt><trkpt lat="43.4785805" lon="11.2613715"><ele>521.0</ele><time>2026-05-01T08:27:17.573Z</time></trkpt><trkpt lat="43.4786649" lon="11.2614184"><ele>521.6</ele><time>2026-05-01T08:27:19.65Z</time></trkpt><trkpt lat="43.4787394" lon="11.2615153"><ele>522.2</ele><time>2026-05-01T08:27:21.597Z</time></trkpt><trkpt lat="43.4788432" lon="11.2615306"><ele>522.8</ele><time>2026-05-01T08:27:23.593Z</time></trkpt><trkpt lat="43.4789561" lon="11.2614898"><ele>523.4</ele><time>2026-05-01T08:27:25.591Z</time></trkpt><trkpt lat="43.479067" lon="11.2614236"><ele>524.0</ele><time>2026-05-01T08:27:27.594Z</time></trkpt><trkpt lat="43.4791731" lon="11.2613374"><ele>519.0</ele><time>2026-05-01T08:27:29.593Z</time></trkpt><trkpt lat="43.4792754" lon="11.2612485"><ele>514.0</ele><time>2026-05-01T08:27:31.675Z</time></trkpt><trkpt lat="43.4793776" lon="11.2611607"><ele>509.0</ele><time>2026-05-01T08:27:33.61Z</time></trkpt><trkpt lat="43.4794738" lon="11.2610776"><ele>504.0</ele><time>2026-05-01T08:27:35.672Z</time></trkpt><trkpt lat="43.4795753" lon="11.2610005"><ele>505.6</ele><time>2026-05-01T08:27:37.599Z</time></trkpt><trkpt lat="43.4796816" lon="11.2609172"><ele>507.2</ele><time>2026-05-01T08:27:39.652Z</time></trkpt><trkpt lat="43.4797995" lon="11.2608567"><ele>508.80000000000007</ele><time>2026-05-01T08:27:41.67Z</time></trkpt><trkpt lat="43.4798665" lon="11.2608421"><ele>510.40000000000003</ele><time>2026-05-01T08:27:42.583Z</time></trkpt><trkpt lat="43.479933" lon="11.2608299"><ele>512.0</ele><time>2026-05-01T08:27:43.608Z</time></trkpt><trkpt lat="43.4799996" lon="11.2608215"><ele>512.0</ele><time>2026-05-01T08:27:44.656Z</time></trkpt><trkpt lat="43.4801118" lon="11.2607933"><ele>512.0</ele><time>2026-05-01T08:27:46.664Z</time></trkpt><trkpt lat="43.48021" lon="11.2607964"><ele>512.0</ele><time>2026-05-01T08:27:48.598Z</time></trkpt><trkpt lat="43.4803312" lon="11.2607718"><ele>512.0</ele><time>2026-05-01T08:27:50.675Z</time></trkpt><trkpt lat="43.4803975" lon="11.2607665"><ele>512.0</ele><time>2026-05-01T08:27:51.668Z</time></trkpt><trkpt lat="43.4804638" lon="11.2607491"><ele>512.3333333333333</ele><time>2026-05-01T08:27:52.609Z</time></trkpt><trkpt lat="43.4805875" lon="11.2607047"><ele>512.6666666666666</ele><time>2026-05-01T08:27:54.607Z</time></trkpt><trkpt lat="43.480652" lon="11.260681"><ele>513.0</ele><time>2026-05-01T08:27:55.596Z</time></trkpt><trkpt lat="43.4807114" lon="11.2606492"><ele>513.3333333333334</ele><time>2026-05-01T08:27:56.612Z</time></trkpt><trkpt lat="43.4807731" lon="11.2606105"><ele>513.6666666666667</ele><time>2026-05-01T08:27:57.614Z</time></trkpt><trkpt lat="43.4808303" lon="11.2605725"><ele>514.0</ele><time>2026-05-01T08:27:58.607Z</time></trkpt><trkpt lat="43.4808888" lon="11.2605378"><ele>512.1428571428571</ele><time>2026-05-01T08:27:59.596Z</time></trkpt><trkpt lat="43.4809492" lon="11.2604982"><ele>510.28571428571433</ele><time>2026-05-01T08:28:00.604Z</time></trkpt><trkpt lat="43.4810097" lon="11.2604527"><ele>508.42857142857144</ele><time>2026-05-01T08:28:01.594Z</time></trkpt><trkpt lat="43.4810642" lon="11.2603948"><ele>506.57142857142856</ele><time>2026-05-01T08:28:02.625Z</time></trkpt><trkpt lat="43.4811134" lon="11.2603321"><ele>504.71428571428567</ele><time>2026-05-01T08:28:03.61Z</time></trkpt><trkpt lat="43.4811656" lon="11.2602679"><ele>502.8571428571429</ele><time>2026-05-01T08:28:04.62Z</time></trkpt><trkpt lat="43.4812082" lon="11.2601989"><ele>501.0</ele><time>2026-05-01T08:28:05.617Z</time></trkpt><trkpt lat="43.4812423" lon="11.2601154"><ele>500.28571428571433</ele><time>2026-05-01T08:28:06.67Z</time></trkpt><trkpt lat="43.4812853" lon="11.2600424"><ele>499.57142857142856</ele><time>2026-05-01T08:28:07.587Z</time></trkpt><trkpt lat="43.4813242" lon="11.2599589"><ele>498.8571428571429</ele><time>2026-05-01T08:28:08.589Z</time></trkpt><trkpt lat="43.4813224" lon="11.2598644"><ele>498.14285714285717</ele><time>2026-05-01T08:28:09.678Z</time></trkpt><trkpt lat="43.4812986" lon="11.2597787"><ele>497.42857142857144</ele><time>2026-05-01T08:28:10.681Z</time></trkpt><trkpt lat="43.4812674" lon="11.2596878"><ele>496.7142857142857</ele><time>2026-05-01T08:28:11.67Z</time></trkpt><trkpt lat="43.4812582" lon="11.2596"><ele>496.0</ele><time>2026-05-01T08:28:12.594Z</time></trkpt><trkpt lat="43.4812189" lon="11.259423"><ele>496.0</ele><time>2026-05-01T08:28:14.607Z</time></trkpt><trkpt lat="43.4812097" lon="11.2593272"><ele>496.0</ele><time>2026-05-01T08:28:15.666Z</time></trkpt><trkpt lat="43.481198" lon="11.2591623"><ele>496.0</ele><time>2026-05-01T08:28:17.614Z</time></trkpt><trkpt lat="43.4811832" lon="11.2590552"><ele>496.0</ele><time>2026-05-01T08:28:18.598Z</time></trkpt><trkpt lat="43.4811765" lon="11.2589558"><ele>496.0</ele><time>2026-05-01T08:28:19.595Z</time></trkpt><trkpt lat="43.481169" lon="11.2587754"><ele>496.0</ele><time>2026-05-01T08:28:21.68Z</time></trkpt><trkpt lat="43.481107" lon="11.2584967"><ele>496.0</ele><time>2026-05-01T08:28:24.596Z</time></trkpt><trkpt lat="43.4810652" lon="11.2583476"><ele>496.0</ele><time>2026-05-01T08:28:26.683Z</time></trkpt><trkpt lat="43.4809848" lon="11.2581964"><ele>497.6666666666667</ele><time>2026-05-01T08:28:28.606Z</time></trkpt><trkpt lat="43.4809597" lon="11.2581143"><ele>499.33333333333337</ele><time>2026-05-01T08:28:29.602Z</time></trkpt><trkpt lat="43.480933" lon="11.2580304"><ele>501.0</ele><time>2026-05-01T08:28:30.6Z</time></trkpt><trkpt lat="43.4809089" lon="11.2579455"><ele>502.66666666666663</ele><time>2026-05-01T08:28:31.596Z</time></trkpt><trkpt lat="43.4808856" lon="11.2578608"><ele>504.3333333333333</ele><time>2026-05-01T08:28:32.594Z</time></trkpt><trkpt lat="43.4808395" lon="11.2577096"><ele>506.0</ele><time>2026-05-01T08:28:34.598Z</time></trkpt><trkpt lat="43.4807874" lon="11.2575627"><ele>506.0</ele><time>2026-05-01T08:28:36.592Z</time></trkpt><trkpt lat="43.4807388" lon="11.2574267"><ele>506.0</ele><time>2026-05-01T08:28:38.594Z</time></trkpt><trkpt lat="43.4806916" lon="11.2572886"><ele>506.0</ele><time>2026-05-01T08:28:40.673Z</time></trkpt><trkpt lat="43.480692" lon="11.2571281"><ele>506.0</ele><time>2026-05-01T08:28:42.58Z</time></trkpt><trkpt lat="43.4806538" lon="11.2570111"><ele>506.0</ele><time>2026-05-01T08:28:44.664Z</time></trkpt><trkpt lat="43.4806093" lon="11.2568992"><ele>506.6</ele><time>2026-05-01T08:28:46.592Z</time></trkpt><trkpt lat="43.480588" lon="11.2567199"><ele>507.20000000000005</ele><time>2026-05-01T08:28:49.595Z</time></trkpt><trkpt lat="43.4805734" lon="11.2565943"><ele>507.79999999999995</ele><time>2026-05-01T08:28:51.68Z</time></trkpt><trkpt lat="43.4805599" lon="11.2564456"><ele>508.4</ele><time>2026-05-01T08:28:53.595Z</time></trkpt><trkpt lat="43.4805375" lon="11.2562993"><ele>509.0</ele><time>2026-05-01T08:28:55.596Z</time></trkpt><trkpt lat="43.4805399" lon="11.256158"><ele>507.6</ele><time>2026-05-01T08:28:57.589Z</time></trkpt><trkpt lat="43.480572" lon="11.256021"><ele>506.2</ele><time>2026-05-01T08:28:59.644Z</time></trkpt><trkpt lat="43.4806213" lon="11.2559086"><ele>504.80000000000007</ele><time>2026-05-01T08:29:01.671Z</time></trkpt><trkpt lat="43.480684" lon="11.2557999"><ele>503.40000000000003</ele><time>2026-05-01T08:29:03.603Z</time></trkpt><trkpt lat="43.4807535" lon="11.2557041"><ele>502.0</ele><time>2026-05-01T08:29:05.602Z</time></trkpt><trkpt lat="43.4808367" lon="11.2556154"><ele>499.0</ele><time>2026-05-01T08:29:07.601Z</time></trkpt><trkpt lat="43.4809273" lon="11.2555357"><ele>496.00000000000006</ele><time>2026-05-01T08:29:09.602Z</time></trkpt><trkpt lat="43.4810152" lon="11.2554507"><ele>493.00000000000006</ele><time>2026-05-01T08:29:11.576Z</time></trkpt><trkpt lat="43.4811036" lon="11.2553644"><ele>490.0</ele><time>2026-05-01T08:29:13.596Z</time></trkpt><trkpt lat="43.4811945" lon="11.25527"><ele>487.0</ele><time>2026-05-01T08:29:15.679Z</time></trkpt><trkpt lat="43.4812651" lon="11.2551581"><ele>488.75</ele><time>2026-05-01T08:29:17.587Z</time></trkpt><trkpt lat="43.4813777" lon="11.2551142"><ele>490.5</ele><time>2026-05-01T08:29:19.661Z</time></trkpt><trkpt lat="43.4814911" lon="11.2551036"><ele>492.25</ele><time>2026-05-01T08:29:21.593Z</time></trkpt><trkpt lat="43.4816084" lon="11.2551141"><ele>494.0</ele><time>2026-05-01T08:29:23.587Z</time></trkpt><trkpt lat="43.4817156" lon="11.2551522"><ele>494.0</ele><time>2026-05-01T08:29:25.592Z</time></trkpt><trkpt lat="43.4817702" lon="11.255196"><ele>494.0</ele><time>2026-05-01T08:29:26.668Z</time></trkpt><trkpt lat="43.4818261" lon="11.2552423"><ele>494.0</ele><time>2026-05-01T08:29:27.599Z</time></trkpt><trkpt lat="43.4819272" lon="11.2553224"><ele>494.0</ele><time>2026-05-01T08:29:29.675Z</time></trkpt><trkpt lat="43.4820366" lon="11.2553182"><ele>494.0</ele><time>2026-05-01T08:29:31.678Z</time></trkpt><trkpt lat="43.4821107" lon="11.2554167"><ele>494.25</ele><time>2026-05-01T08:29:33.596Z</time></trkpt><trkpt lat="43.4821742" lon="11.2555418"><ele>494.5</ele><time>2026-05-01T08:29:35.589Z</time></trkpt><trkpt lat="43.4822583" lon="11.2557211"><ele>494.75</ele><time>2026-05-01T08:29:38.599Z</time></trkpt><trkpt lat="43.4823227" lon="11.2558366"><ele>495.0</ele><time>2026-05-01T08:29:40.599Z</time></trkpt><trkpt lat="43.482397" lon="11.2559641"><ele>495.0</ele><time>2026-05-01T08:29:42.604Z</time></trkpt><trkpt lat="43.4824499" lon="11.25609"><ele>495.0</ele><time>2026-05-01T08:29:44.604Z</time></trkpt><trkpt lat="43.4825045" lon="11.2562274"><ele>495.0</ele><time>2026-05-01T08:29:46.593Z</time></trkpt><trkpt lat="43.4825642" lon="11.2563463"><ele>495.0</ele><time>2026-05-01T08:29:48.611Z</time></trkpt><trkpt lat="43.4826197" lon="11.2564465"><ele>495.0</ele><time>2026-05-01T08:29:50.599Z</time></trkpt><trkpt lat="43.4826696" lon="11.2565526"><ele>494.5</ele><time>2026-05-01T08:29:52.6Z</time></trkpt><trkpt lat="43.4827411" lon="11.2566299"><ele>494.0</ele><time>2026-05-01T08:29:54.665Z</time></trkpt><trkpt lat="43.4828095" lon="11.2566608"><ele>493.5</ele><time>2026-05-01T08:29:56.665Z</time></trkpt><trkpt lat="43.4828734" lon="11.2567108"><ele>493.0</ele><time>2026-05-01T08:29:58.613Z</time></trkpt><trkpt lat="43.4829277" lon="11.2567793"><ele>492.5</ele><time>2026-05-01T08:29:59.667Z</time></trkpt><trkpt lat="43.4829702" lon="11.2568513"><ele>492.0</ele><time>2026-05-01T08:30:00.68Z</time></trkpt><trkpt lat="43.4830656" lon="11.2569604"><ele>492.0</ele><time>2026-05-01T08:30:02.595Z</time></trkpt><trkpt lat="43.483242" lon="11.2571096"><ele>492.0</ele><time>2026-05-01T08:30:05.682Z</time></trkpt><trkpt lat="43.4833359" lon="11.257083"><ele>492.0</ele><time>2026-05-01T08:30:07.586Z</time></trkpt><trkpt lat="43.4834087" lon="11.2570838"><ele>492.0</ele><time>2026-05-01T08:30:08.598Z</time></trkpt><trkpt lat="43.4835032" lon="11.2570167"><ele>492.0</ele><time>2026-05-01T08:30:10.668Z</time></trkpt><trkpt lat="43.483576" lon="11.2569224"><ele>492.00000000000006</ele><time>2026-05-01T08:30:12.587Z</time></trkpt><trkpt lat="43.4836165" lon="11.2568514"><ele>492.00000000000006</ele><time>2026-05-01T08:30:13.603Z</time></trkpt><trkpt lat="43.4836703" lon="11.2567019"><ele>492.0</ele><time>2026-05-01T08:30:15.592Z</time></trkpt><trkpt lat="43.4836997" lon="11.2565275"><ele>492.0</ele><time>2026-05-01T08:30:17.613Z</time></trkpt><trkpt lat="43.4837198" lon="11.2564411"><ele>492.4285714285715</ele><time>2026-05-01T08:30:18.598Z</time></trkpt><trkpt lat="43.4837487" lon="11.2563554"><ele>492.8571428571429</ele><time>2026-05-01T08:30:19.602Z</time></trkpt><trkpt lat="43.4837892" lon="11.2562823"><ele>493.2857142857143</ele><time>2026-05-01T08:30:20.607Z</time></trkpt><trkpt lat="43.4838331" lon="11.2562191"><ele>493.7142857142857</ele><time>2026-05-01T08:30:21.602Z</time></trkpt><trkpt lat="43.4838779" lon="11.2561481"><ele>494.1428571428571</ele><time>2026-05-01T08:30:22.614Z</time></trkpt><trkpt lat="43.4839223" lon="11.2560825"><ele>494.5714285714285</ele><time>2026-05-01T08:30:23.592Z</time></trkpt><trkpt lat="43.4839648" lon="11.2560099"><ele>494.99999999999994</ele><time>2026-05-01T08:30:24.598Z</time></trkpt><trkpt lat="43.4840032" lon="11.2559301"><ele>494.99999999999994</ele><time>2026-05-01T08:30:25.601Z</time></trkpt><trkpt lat="43.4840369" lon="11.2558472"><ele>495.0</ele><time>2026-05-01T08:30:26.604Z</time></trkpt><trkpt lat="43.4840624" lon="11.2557569"><ele>494.99999999999994</ele><time>2026-05-01T08:30:27.586Z</time></trkpt><trkpt lat="43.4840795" lon="11.2556656"><ele>494.99999999999994</ele><time>2026-05-01T08:30:28.599Z</time></trkpt><trkpt lat="43.4840922" lon="11.2555649"><ele>495.0</ele><time>2026-05-01T08:30:29.584Z</time></trkpt><trkpt lat="43.4841054" lon="11.2554642"><ele>494.99999999999994</ele><time>2026-05-01T08:30:30.599Z</time></trkpt><trkpt lat="43.4841292" lon="11.2553645"><ele>494.99999999999994</ele><time>2026-05-01T08:30:31.602Z</time></trkpt><trkpt lat="43.4841587" lon="11.2552683"><ele>493.6666666666667</ele><time>2026-05-01T08:30:32.596Z</time></trkpt><trkpt lat="43.4841953" lon="11.2551773"><ele>492.33333333333337</ele><time>2026-05-01T08:30:33.599Z</time></trkpt><trkpt lat="43.4842308" lon="11.2550917"><ele>491.0</ele><time>2026-05-01T08:30:34.603Z</time></trkpt><trkpt lat="43.4842646" lon="11.2549991"><ele>489.6666666666667</ele><time>2026-05-01T08:30:35.597Z</time></trkpt><trkpt lat="43.4842904" lon="11.2549004"><ele>488.33333333333337</ele><time>2026-05-01T08:30:36.606Z</time></trkpt><trkpt lat="43.4843068" lon="11.254795"><ele>487.0</ele><time>2026-05-01T08:30:37.601Z</time></trkpt><trkpt lat="43.4843149" lon="11.2546867"><ele>486.50000000000006</ele><time>2026-05-01T08:30:38.608Z</time></trkpt><trkpt lat="43.4843147" lon="11.2545823"><ele>486.0</ele><time>2026-05-01T08:30:39.597Z</time></trkpt><trkpt lat="43.484304" lon="11.2544854"><ele>485.5</ele><time>2026-05-01T08:30:40.609Z</time></trkpt><trkpt lat="43.4842874" lon="11.2543867"><ele>485.0</ele><time>2026-05-01T08:30:41.607Z</time></trkpt><trkpt lat="43.4842673" lon="11.2542828"><ele>484.50000000000006</ele><time>2026-05-01T08:30:42.614Z</time></trkpt><trkpt lat="43.4842412" lon="11.2541809"><ele>484.0</ele><time>2026-05-01T08:30:43.602Z</time></trkpt><trkpt lat="43.4842109" lon="11.2540813"><ele>484.00000000000006</ele><time>2026-05-01T08:30:44.599Z</time></trkpt><trkpt lat="43.4841797" lon="11.2539759"><ele>484.0</ele><time>2026-05-01T08:30:45.598Z</time></trkpt><trkpt lat="43.4841489" lon="11.2538751"><ele>484.0</ele><time>2026-05-01T08:30:46.609Z</time></trkpt><trkpt lat="43.4841238" lon="11.2537752"><ele>484.0</ele><time>2026-05-01T08:30:47.614Z</time></trkpt><trkpt lat="43.4840979" lon="11.2536747"><ele>484.00000000000006</ele><time>2026-05-01T08:30:48.59Z</time></trkpt><trkpt lat="43.484076" lon="11.2535762"><ele>484.0</ele><time>2026-05-01T08:30:49.599Z</time></trkpt><trkpt lat="43.4840525" lon="11.2534779"><ele>484.2857142857143</ele><time>2026-05-01T08:30:50.602Z</time></trkpt><trkpt lat="43.484028" lon="11.2533766"><ele>484.57142857142856</ele><time>2026-05-01T08:30:51.602Z</time></trkpt><trkpt lat="43.4840083" lon="11.253279"><ele>484.85714285714283</ele><time>2026-05-01T08:30:52.594Z</time></trkpt><trkpt lat="43.4839992" lon="11.253179"><ele>485.1428571428571</ele><time>2026-05-01T08:30:53.61Z</time></trkpt><trkpt lat="43.4839996" lon="11.2530752"><ele>485.42857142857144</ele><time>2026-05-01T08:30:54.601Z</time></trkpt><trkpt lat="43.4840117" lon="11.2529759"><ele>485.71428571428567</ele><time>2026-05-01T08:30:55.606Z</time></trkpt><trkpt lat="43.4840277" lon="11.252881"><ele>486.0</ele><time>2026-05-01T08:30:56.599Z</time></trkpt><trkpt lat="43.4840551" lon="11.2527862"><ele>485.0</ele><time>2026-05-01T08:30:57.621Z</time></trkpt><trkpt lat="43.4840889" lon="11.2526935"><ele>484.0</ele><time>2026-05-01T08:30:58.608Z</time></trkpt><trkpt lat="43.4841342" lon="11.2526111"><ele>483.0</ele><time>2026-05-01T08:30:59.595Z</time></trkpt><trkpt lat="43.4841952" lon="11.2525509"><ele>482.0</ele><time>2026-05-01T08:31:00.598Z</time></trkpt><trkpt lat="43.4842643" lon="11.2525076"><ele>481.0</ele><time>2026-05-01T08:31:01.614Z</time></trkpt><trkpt lat="43.4843369" lon="11.2524728"><ele>480.0</ele><time>2026-05-01T08:31:02.601Z</time></trkpt><trkpt lat="43.4844072" lon="11.2524425"><ele>480.0</ele><time>2026-05-01T08:31:03.595Z</time></trkpt><trkpt lat="43.4844748" lon="11.2524313"><ele>480.0</ele><time>2026-05-01T08:31:04.611Z</time></trkpt><trkpt lat="43.4845414" lon="11.2524308"><ele>480.0</ele><time>2026-05-01T08:31:05.597Z</time></trkpt><trkpt lat="43.4846105" lon="11.2524317"><ele>480.0</ele><time>2026-05-01T08:31:06.597Z</time></trkpt><trkpt lat="43.4846797" lon="11.2524312"><ele>480.0</ele><time>2026-05-01T08:31:07.601Z</time></trkpt><trkpt lat="43.4847449" lon="11.2524373"><ele>480.0</ele><time>2026-05-01T08:31:08.601Z</time></trkpt><trkpt lat="43.48481" lon="11.2524478"><ele>480.0</ele><time>2026-05-01T08:31:09.6Z</time></trkpt><trkpt lat="43.4848783" lon="11.2524652"><ele>480.5</ele><time>2026-05-01T08:31:10.596Z</time></trkpt><trkpt lat="43.4849435" lon="11.2524895"><ele>481.0</ele><time>2026-05-01T08:31:11.595Z</time></trkpt><trkpt lat="43.4850063" lon="11.252508"><ele>481.5</ele><time>2026-05-01T08:31:12.601Z</time></trkpt><trkpt lat="43.4850669" lon="11.2525317"><ele>482.0</ele><time>2026-05-01T08:31:13.598Z</time></trkpt><trkpt lat="43.4851841" lon="11.2525846"><ele>482.5</ele><time>2026-05-01T08:31:15.597Z</time></trkpt><trkpt lat="43.4852878" lon="11.2526535"><ele>483.0</ele><time>2026-05-01T08:31:17.6Z</time></trkpt><trkpt lat="43.485402" lon="11.2527232"><ele>482.0</ele><time>2026-05-01T08:31:19.608Z</time></trkpt><trkpt lat="43.4855064" lon="11.2528134"><ele>481.0</ele><time>2026-05-01T08:31:21.593Z</time></trkpt><trkpt lat="43.4855608" lon="11.2528625"><ele>480.0</ele><time>2026-05-01T08:31:22.613Z</time></trkpt><trkpt lat="43.4856117" lon="11.2529173"><ele>479.0</ele><time>2026-05-01T08:31:23.603Z</time></trkpt><trkpt lat="43.4857053" lon="11.2530275"><ele>478.0</ele><time>2026-05-01T08:31:25.602Z</time></trkpt><trkpt lat="43.4857542" lon="11.2530857"><ele>477.0</ele><time>2026-05-01T08:31:26.603Z</time></trkpt><trkpt lat="43.485853" lon="11.25318"><ele>479.0</ele><time>2026-05-01T08:31:28.606Z</time></trkpt><trkpt lat="43.4859648" lon="11.2532397"><ele>481.0</ele><time>2026-05-01T08:31:30.597Z</time></trkpt><trkpt lat="43.4860291" lon="11.2532538"><ele>483.0</ele><time>2026-05-01T08:31:31.585Z</time></trkpt><trkpt lat="43.4860989" lon="11.2532473"><ele>485.0</ele><time>2026-05-01T08:31:32.6Z</time></trkpt><trkpt lat="43.4861791" lon="11.2532274"><ele>487.0</ele><time>2026-05-01T08:31:33.603Z</time></trkpt><trkpt lat="43.4862513" lon="11.2531876"><ele>489.0</ele><time>2026-05-01T08:31:34.6Z</time></trkpt><trkpt lat="43.4863168" lon="11.2531313"><ele>487.8571428571429</ele><time>2026-05-01T08:31:35.609Z</time></trkpt><trkpt lat="43.4863623" lon="11.2530595"><ele>486.7142857142858</ele><time>2026-05-01T08:31:36.601Z</time></trkpt><trkpt lat="43.4864062" lon="11.2529771"><ele>485.57142857142856</ele><time>2026-05-01T08:31:37.608Z</time></trkpt><trkpt lat="43.4864348" lon="11.2528837"><ele>484.42857142857144</ele><time>2026-05-01T08:31:38.604Z</time></trkpt><trkpt lat="43.4864441" lon="11.2527859"><ele>483.2857142857143</ele><time>2026-05-01T08:31:39.598Z</time></trkpt><trkpt lat="43.4864484" lon="11.252691"><ele>482.1428571428571</ele><time>2026-05-01T08:31:40.601Z</time></trkpt><trkpt lat="43.4864442" lon="11.2525945"><ele>480.99999999999994</ele><time>2026-05-01T08:31:41.597Z</time></trkpt><trkpt lat="43.4864366" lon="11.2524913"><ele>480.99999999999994</ele><time>2026-05-01T08:31:42.602Z</time></trkpt><trkpt lat="43.4864298" lon="11.2523841"><ele>481.0</ele><time>2026-05-01T08:31:43.6Z</time></trkpt><trkpt lat="43.4864223" lon="11.2522827"><ele>480.99999999999994</ele><time>2026-05-01T08:31:44.603Z</time></trkpt><trkpt lat="43.4864169" lon="11.2521815"><ele>480.99999999999994</ele><time>2026-05-01T08:31:45.599Z</time></trkpt><trkpt lat="43.4864124" lon="11.2520861"><ele>481.0</ele><time>2026-05-01T08:31:46.599Z</time></trkpt><trkpt lat="43.4864126" lon="11.2519939"><ele>480.99999999999994</ele><time>2026-05-01T08:31:47.608Z</time></trkpt><trkpt lat="43.4864324" lon="11.2519017"><ele>480.99999999999994</ele><time>2026-05-01T08:31:48.596Z</time></trkpt><trkpt lat="43.4864714" lon="11.251821"><ele>479.99999999999994</ele><time>2026-05-01T08:31:49.596Z</time></trkpt><trkpt lat="43.4865202" lon="11.2517444"><ele>479.0</ele><time>2026-05-01T08:31:50.604Z</time></trkpt><trkpt lat="43.4865787" lon="11.2516766"><ele>477.99999999999994</ele><time>2026-05-01T08:31:51.61Z</time></trkpt><trkpt lat="43.4866423" lon="11.2516293"><ele>476.99999999999994</ele><time>2026-05-01T08:31:52.607Z</time></trkpt><trkpt lat="43.4867045" lon="11.2516008"><ele>476.0</ele><time>2026-05-01T08:31:53.592Z</time></trkpt><trkpt lat="43.4867708" lon="11.2515909"><ele>474.99999999999994</ele><time>2026-05-01T08:31:54.597Z</time></trkpt><trkpt lat="43.4868429" lon="11.2515884"><ele>473.99999999999994</ele><time>2026-05-01T08:31:55.602Z</time></trkpt><trkpt lat="43.4869177" lon="11.2515809"><ele>473.99999999999994</ele><time>2026-05-01T08:31:56.607Z</time></trkpt><trkpt lat="43.4869889" lon="11.2515779"><ele>474.0</ele><time>2026-05-01T08:31:57.611Z</time></trkpt><trkpt lat="43.4870563" lon="11.2515722"><ele>473.99999999999994</ele><time>2026-05-01T08:31:58.595Z</time></trkpt><trkpt lat="43.487126" lon="11.2515657"><ele>473.99999999999994</ele><time>2026-05-01T08:31:59.618Z</time></trkpt><trkpt lat="43.4872008" lon="11.2515611"><ele>474.0</ele><time>2026-05-01T08:32:00.602Z</time></trkpt><trkpt lat="43.4872711" lon="11.251559"><ele>473.99999999999994</ele><time>2026-05-01T08:32:01.599Z</time></trkpt><trkpt lat="43.4873423" lon="11.2515502"><ele>473.99999999999994</ele><time>2026-05-01T08:32:02.607Z</time></trkpt><trkpt lat="43.4874168" lon="11.2515488"><ele>473.8571428571428</ele><time>2026-05-01T08:32:03.596Z</time></trkpt><trkpt lat="43.487492" lon="11.2515412"><ele>473.71428571428567</ele><time>2026-05-01T08:32:04.597Z</time></trkpt><trkpt lat="43.4875641" lon="11.2515338"><ele>473.57142857142856</ele><time>2026-05-01T08:32:05.603Z</time></trkpt><trkpt lat="43.4876343" lon="11.2515197"><ele>473.4285714285714</ele><time>2026-05-01T08:32:06.598Z</time></trkpt><trkpt lat="43.4877066" lon="11.2514983"><ele>473.2857142857142</ele><time>2026-05-01T08:32:07.607Z</time></trkpt><trkpt lat="43.4877742" lon="11.2514572"><ele>473.14285714285717</ele><time>2026-05-01T08:32:08.606Z</time></trkpt><trkpt lat="43.4878375" lon="11.2513971"><ele>473.0</ele><time>2026-05-01T08:32:09.591Z</time></trkpt><trkpt lat="43.4878915" lon="11.2513268"><ele>473.7142857142857</ele><time>2026-05-01T08:32:10.604Z</time></trkpt><trkpt lat="43.487939" lon="11.2512424"><ele>474.42857142857144</ele><time>2026-05-01T08:32:11.594Z</time></trkpt><trkpt lat="43.4879716" lon="11.2511515"><ele>475.14285714285717</ele><time>2026-05-01T08:32:12.599Z</time></trkpt><trkpt lat="43.4879916" lon="11.2510575"><ele>475.8571428571429</ele><time>2026-05-01T08:32:13.595Z</time></trkpt><trkpt lat="43.4879906" lon="11.2509639"><ele>476.57142857142856</ele><time>2026-05-01T08:32:14.588Z</time></trkpt><trkpt lat="43.4879722" lon="11.2508788"><ele>477.28571428571433</ele><time>2026-05-01T08:32:15.598Z</time></trkpt><trkpt lat="43.4879489" lon="11.2507965"><ele>478.00000000000006</ele><time>2026-05-01T08:32:16.611Z</time></trkpt><trkpt lat="43.4879248" lon="11.2507116"><ele>475.00000000000006</ele><time>2026-05-01T08:32:17.605Z</time></trkpt><trkpt lat="43.4879016" lon="11.2506244"><ele>472.0</ele><time>2026-05-01T08:32:18.613Z</time></trkpt><trkpt lat="43.4878772" lon="11.2505407"><ele>469.00000000000006</ele><time>2026-05-01T08:32:19.6Z</time></trkpt><trkpt lat="43.4878535" lon="11.2504534"><ele>466.00000000000006</ele><time>2026-05-01T08:32:20.594Z</time></trkpt><trkpt lat="43.4878302" lon="11.25037"><ele>463.0</ele><time>2026-05-01T08:32:21.599Z</time></trkpt><trkpt lat="43.4878123" lon="11.2502813"><ele>460.00000000000006</ele><time>2026-05-01T08:32:22.607Z</time></trkpt><trkpt lat="43.487795" lon="11.2501859"><ele>457.00000000000006</ele><time>2026-05-01T08:32:23.595Z</time></trkpt><trkpt lat="43.4877772" lon="11.2500966"><ele>457.00000000000006</ele><time>2026-05-01T08:32:24.599Z</time></trkpt><trkpt lat="43.487761" lon="11.2500089"><ele>457.0</ele><time>2026-05-01T08:32:25.599Z</time></trkpt><trkpt lat="43.4877452" lon="11.2499164"><ele>457.00000000000006</ele><time>2026-05-01T08:32:26.6Z</time></trkpt><trkpt lat="43.4877319" lon="11.2498253"><ele>457.00000000000006</ele><time>2026-05-01T08:32:27.604Z</time></trkpt><trkpt lat="43.4877215" lon="11.2497292"><ele>457.0</ele><time>2026-05-01T08:32:28.602Z</time></trkpt><trkpt lat="43.4877131" lon="11.2496314"><ele>457.00000000000006</ele><time>2026-05-01T08:32:29.605Z</time></trkpt><trkpt lat="43.4877068" lon="11.2495332"><ele>457.00000000000006</ele><time>2026-05-01T08:32:30.608Z</time></trkpt><trkpt lat="43.4876955" lon="11.2494316"><ele>456.8571428571429</ele><time>2026-05-01T08:32:31.605Z</time></trkpt><trkpt lat="43.4876835" lon="11.2493352"><ele>456.7142857142857</ele><time>2026-05-01T08:32:32.604Z</time></trkpt><trkpt lat="43.4876741" lon="11.2492399"><ele>456.57142857142856</ele><time>2026-05-01T08:32:33.606Z</time></trkpt><trkpt lat="43.487666" lon="11.249148"><ele>456.42857142857144</ele><time>2026-05-01T08:32:34.604Z</time></trkpt><trkpt lat="43.4876616" lon="11.2490575"><ele>456.2857142857142</ele><time>2026-05-01T08:32:35.608Z</time></trkpt><trkpt lat="43.4876548" lon="11.2489685"><ele>456.1428571428571</ele><time>2026-05-01T08:32:36.608Z</time></trkpt><trkpt lat="43.4876534" lon="11.2488782"><ele>456.0</ele><time>2026-05-01T08:32:37.59Z</time></trkpt><trkpt lat="43.4876595" lon="11.2487898"><ele>455.0</ele><time>2026-05-01T08:32:38.598Z</time></trkpt><trkpt lat="43.4876644" lon="11.2487027"><ele>454.0</ele><time>2026-05-01T08:32:39.592Z</time></trkpt><trkpt lat="43.4877219" lon="11.2485571"><ele>453.0</ele><time>2026-05-01T08:32:41.602Z</time></trkpt><trkpt lat="43.4877759" lon="11.2485003"><ele>452.0</ele><time>2026-05-01T08:32:42.6Z</time></trkpt><trkpt lat="43.4878819" lon="11.2484209"><ele>451.0</ele><time>2026-05-01T08:32:44.598Z</time></trkpt><trkpt lat="43.4879943" lon="11.2483701"><ele>450.6</ele><time>2026-05-01T08:32:46.601Z</time></trkpt><trkpt lat="43.4881084" lon="11.2483298"><ele>450.20000000000005</ele><time>2026-05-01T08:32:48.601Z</time></trkpt><trkpt lat="43.4882188" lon="11.2482785"><ele>449.79999999999995</ele><time>2026-05-01T08:32:50.606Z</time></trkpt><trkpt lat="43.4882763" lon="11.2482406"><ele>449.4</ele><time>2026-05-01T08:32:51.596Z</time></trkpt><trkpt lat="43.4883843" lon="11.2481437"><ele>449.0</ele><time>2026-05-01T08:32:53.606Z</time></trkpt><trkpt lat="43.4884391" lon="11.2480862"><ele>448.99999999999994</ele><time>2026-05-01T08:32:54.595Z</time></trkpt><trkpt lat="43.4884943" lon="11.2480178"><ele>449.0</ele><time>2026-05-01T08:32:55.592Z</time></trkpt><trkpt lat="43.4885476" lon="11.2479471"><ele>449.0</ele><time>2026-05-01T08:32:56.609Z</time></trkpt><trkpt lat="43.488603" lon="11.2478809"><ele>449.0</ele><time>2026-05-01T08:32:57.619Z</time></trkpt><trkpt lat="43.4886628" lon="11.2478201"><ele>448.99999999999994</ele><time>2026-05-01T08:32:58.609Z</time></trkpt><trkpt lat="43.4887247" lon="11.2477554"><ele>449.0</ele><time>2026-05-01T08:32:59.602Z</time></trkpt><trkpt lat="43.4887906" lon="11.2476929"><ele>450.49999999999994</ele><time>2026-05-01T08:33:00.583Z</time></trkpt><trkpt lat="43.4888598" lon="11.2476268"><ele>452.0</ele><time>2026-05-01T08:33:01.598Z</time></trkpt><trkpt lat="43.4889283" lon="11.2475668"><ele>453.5</ele><time>2026-05-01T08:33:02.674Z</time></trkpt><trkpt lat="43.488996" lon="11.2475081"><ele>455.0</ele><time>2026-05-01T08:33:03.576Z</time></trkpt><trkpt lat="43.4890705" lon="11.2474628"><ele>456.49999999999994</ele><time>2026-05-01T08:33:04.595Z</time></trkpt><trkpt lat="43.4891505" lon="11.2474395"><ele>458.0</ele><time>2026-05-01T08:33:05.659Z</time></trkpt><trkpt lat="43.4892335" lon="11.2474342"><ele>457.99999999999994</ele><time>2026-05-01T08:33:06.672Z</time></trkpt><trkpt lat="43.4893072" lon="11.247448"><ele>458.0</ele><time>2026-05-01T08:33:07.674Z</time></trkpt><trkpt lat="43.4893668" lon="11.2474955"><ele>458.0</ele><time>2026-05-01T08:33:08.599Z</time></trkpt><trkpt lat="43.4894386" lon="11.2475521"><ele>458.0</ele><time>2026-05-01T08:33:09.593Z</time></trkpt><trkpt lat="43.4895126" lon="11.2475908"><ele>457.99999999999994</ele><time>2026-05-01T08:33:10.597Z</time></trkpt><trkpt lat="43.4895969" lon="11.2476092"><ele>458.0</ele><time>2026-05-01T08:33:11.603Z</time></trkpt><trkpt lat="43.4896826" lon="11.2476309"><ele>457.66666666666663</ele><time>2026-05-01T08:33:12.607Z</time></trkpt><trkpt lat="43.4897682" lon="11.2476186"><ele>457.3333333333333</ele><time>2026-05-01T08:33:13.605Z</time></trkpt><trkpt lat="43.489863" lon="11.2475996"><ele>457.0</ele><time>2026-05-01T08:33:14.596Z</time></trkpt><trkpt lat="43.4899457" lon="11.2475716"><ele>456.66666666666663</ele><time>2026-05-01T08:33:15.593Z</time></trkpt><trkpt lat="43.4900287" lon="11.2475427"><ele>456.3333333333333</ele><time>2026-05-01T08:33:16.572Z</time></trkpt><trkpt lat="43.490117" lon="11.2475242"><ele>456.0</ele><time>2026-05-01T08:33:17.592Z</time></trkpt><trkpt lat="43.4902115" lon="11.2475159"><ele>456.0</ele><time>2026-05-01T08:33:18.61Z</time></trkpt><trkpt lat="43.4903035" lon="11.2475122"><ele>456.0</ele><time>2026-05-01T08:33:19.597Z</time></trkpt><trkpt lat="43.4903895" lon="11.2475044"><ele>456.0</ele><time>2026-05-01T08:33:20.664Z</time></trkpt><trkpt lat="43.4904739" lon="11.2475037"><ele>456.0</ele><time>2026-05-01T08:33:21.67Z</time></trkpt><trkpt lat="43.4905599" lon="11.2475111"><ele>456.0</ele><time>2026-05-01T08:33:22.678Z</time></trkpt><trkpt lat="43.4906498" lon="11.2475228"><ele>456.0</ele><time>2026-05-01T08:33:23.591Z</time></trkpt><trkpt lat="43.4907335" lon="11.247545"><ele>455.1666666666667</ele><time>2026-05-01T08:33:24.601Z</time></trkpt><trkpt lat="43.4908194" lon="11.2475664"><ele>454.33333333333337</ele><time>2026-05-01T08:33:25.589Z</time></trkpt><trkpt lat="43.4908968" lon="11.2475972"><ele>453.5</ele><time>2026-05-01T08:33:26.658Z</time></trkpt><trkpt lat="43.4909679" lon="11.2476449"><ele>452.6666666666667</ele><time>2026-05-01T08:33:27.672Z</time></trkpt><trkpt lat="43.4910423" lon="11.2476855"><ele>451.83333333333337</ele><time>2026-05-01T08:33:28.6Z</time></trkpt><trkpt lat="43.4911093" lon="11.2477297"><ele>451.0</ele><time>2026-05-01T08:33:29.6Z</time></trkpt><trkpt lat="43.4911741" lon="11.247778"><ele>451.00000000000006</ele><time>2026-05-01T08:33:30.601Z</time></trkpt><trkpt lat="43.4912367" lon="11.2478222"><ele>451.0</ele><time>2026-05-01T08:33:31.664Z</time></trkpt><trkpt lat="43.4913023" lon="11.2478649"><ele>451.0</ele><time>2026-05-01T08:33:32.638Z</time></trkpt><trkpt lat="43.4914129" lon="11.2479447"><ele>451.0</ele><time>2026-05-01T08:33:34.593Z</time></trkpt><trkpt lat="43.4914729" lon="11.247988"><ele>451.00000000000006</ele><time>2026-05-01T08:33:35.666Z</time></trkpt><trkpt lat="43.4915303" lon="11.2480284"><ele>451.0</ele><time>2026-05-01T08:33:36.676Z</time></trkpt><trkpt lat="43.4916372" lon="11.2481018"><ele>449.4285714285714</ele><time>2026-05-01T08:33:38.593Z</time></trkpt><trkpt lat="43.4917078" lon="11.2481202"><ele>447.8571428571429</ele><time>2026-05-01T08:33:39.585Z</time></trkpt><trkpt lat="43.4917797" lon="11.248114"><ele>446.2857142857143</ele><time>2026-05-01T08:33:40.66Z</time></trkpt><trkpt lat="43.4918503" lon="11.2480846"><ele>444.71428571428567</ele><time>2026-05-01T08:33:41.671Z</time></trkpt><trkpt lat="43.4919103" lon="11.248052"><ele>443.1428571428571</ele><time>2026-05-01T08:33:42.599Z</time></trkpt><trkpt lat="43.4919724" lon="11.2480127"><ele>441.57142857142856</ele><time>2026-05-01T08:33:43.589Z</time></trkpt><trkpt lat="43.4920349" lon="11.2479462"><ele>440.0</ele><time>2026-05-01T08:33:44.595Z</time></trkpt><trkpt lat="43.4920875" lon="11.2478671"><ele>442.8333333333333</ele><time>2026-05-01T08:33:45.598Z</time></trkpt><trkpt lat="43.4921251" lon="11.247789"><ele>445.66666666666663</ele><time>2026-05-01T08:33:46.603Z</time></trkpt><trkpt lat="43.4921569" lon="11.2476969"><ele>448.5</ele><time>2026-05-01T08:33:47.607Z</time></trkpt><trkpt lat="43.4921941" lon="11.2476076"><ele>451.33333333333337</ele><time>2026-05-01T08:33:48.6Z</time></trkpt><trkpt lat="43.4922355" lon="11.2475138"><ele>454.1666666666667</ele><time>2026-05-01T08:33:49.597Z</time></trkpt><trkpt lat="43.4922759" lon="11.2474108"><ele>457.0</ele><time>2026-05-01T08:33:50.608Z</time></trkpt><trkpt lat="43.4923197" lon="11.2473071"><ele>454.00000000000006</ele><time>2026-05-01T08:33:51.595Z</time></trkpt><trkpt lat="43.4923659" lon="11.2472057"><ele>451.0</ele><time>2026-05-01T08:33:52.581Z</time></trkpt><trkpt lat="43.4924151" lon="11.2471075"><ele>448.0</ele><time>2026-05-01T08:33:53.595Z</time></trkpt><trkpt lat="43.4924646" lon="11.2470122"><ele>445.0</ele><time>2026-05-01T08:33:54.608Z</time></trkpt><trkpt lat="43.4925149" lon="11.2469204"><ele>442.00000000000006</ele><time>2026-05-01T08:33:55.604Z</time></trkpt><trkpt lat="43.4925588" lon="11.2468303"><ele>439.0</ele><time>2026-05-01T08:33:56.6Z</time></trkpt><trkpt lat="43.4926058" lon="11.2467338"><ele>439.00000000000006</ele><time>2026-05-01T08:33:57.677Z</time></trkpt><trkpt lat="43.4926538" lon="11.2466419"><ele>439.0</ele><time>2026-05-01T08:33:58.577Z</time></trkpt><trkpt lat="43.4927041" lon="11.246551"><ele>439.0</ele><time>2026-05-01T08:33:59.593Z</time></trkpt><trkpt lat="43.4927561" lon="11.2464699"><ele>439.0</ele><time>2026-05-01T08:34:00.577Z</time></trkpt><trkpt lat="43.4928095" lon="11.2463875"><ele>439.00000000000006</ele><time>2026-05-01T08:34:01.668Z</time></trkpt><trkpt lat="43.4928587" lon="11.2463102"><ele>439.0</ele><time>2026-05-01T08:34:02.568Z</time></trkpt><trkpt lat="43.4929104" lon="11.2462282"><ele>439.0</ele><time>2026-05-01T08:34:03.573Z</time></trkpt><trkpt lat="43.4929642" lon="11.2461544"><ele>439.0</ele><time>2026-05-01T08:34:04.572Z</time></trkpt><trkpt lat="43.4930195" lon="11.2460868"><ele>439.0</ele><time>2026-05-01T08:34:05.599Z</time></trkpt><trkpt lat="43.49307" lon="11.2460181"><ele>439.0</ele><time>2026-05-01T08:34:06.674Z</time></trkpt><trkpt lat="43.4931139" lon="11.2459487"><ele>439.0</ele><time>2026-05-01T08:34:07.677Z</time></trkpt><trkpt lat="43.4931583" lon="11.2458823"><ele>439.0</ele><time>2026-05-01T08:34:08.599Z</time></trkpt><trkpt lat="43.4932029" lon="11.2458182"><ele>439.0</ele><time>2026-05-01T08:34:09.604Z</time></trkpt><trkpt lat="43.4932857" lon="11.2457005"><ele>437.1666666666667</ele><time>2026-05-01T08:34:11.685Z</time></trkpt><trkpt lat="43.493388" lon="11.245593"><ele>435.33333333333337</ele><time>2026-05-01T08:34:13.601Z</time></trkpt><trkpt lat="43.493448" lon="11.2455403"><ele>433.5</ele><time>2026-05-01T08:34:14.598Z</time></trkpt><trkpt lat="43.4935173" lon="11.2455097"><ele>431.66666666666663</ele><time>2026-05-01T08:34:15.597Z</time></trkpt><trkpt lat="43.4935877" lon="11.2454923"><ele>429.8333333333333</ele><time>2026-05-01T08:34:16.664Z</time></trkpt><trkpt lat="43.4936502" lon="11.2455044"><ele>428.0</ele><time>2026-05-01T08:34:17.68Z</time></trkpt><trkpt lat="43.4937179" lon="11.2455078"><ele>429.28571428571433</ele><time>2026-05-01T08:34:18.597Z</time></trkpt><trkpt lat="43.4937913" lon="11.2455103"><ele>430.57142857142856</ele><time>2026-05-01T08:34:19.594Z</time></trkpt><trkpt lat="43.4938623" lon="11.2454955"><ele>431.8571428571429</ele><time>2026-05-01T08:34:20.601Z</time></trkpt><trkpt lat="43.4939309" lon="11.2454462"><ele>433.14285714285717</ele><time>2026-05-01T08:34:21.576Z</time></trkpt><trkpt lat="43.4939953" lon="11.245382"><ele>434.42857142857144</ele><time>2026-05-01T08:34:22.602Z</time></trkpt><trkpt lat="43.4940442" lon="11.2453102"><ele>435.7142857142857</ele><time>2026-05-01T08:34:23.597Z</time></trkpt><trkpt lat="43.4940696" lon="11.245223"><ele>437.0</ele><time>2026-05-01T08:34:24.595Z</time></trkpt><trkpt lat="43.4940824" lon="11.2451288"><ele>437.0</ele><time>2026-05-01T08:34:25.592Z</time></trkpt><trkpt lat="43.4940887" lon="11.2450364"><ele>437.00000000000006</ele><time>2026-05-01T08:34:26.593Z</time></trkpt><trkpt lat="43.4940837" lon="11.2448733"><ele>437.00000000000006</ele><time>2026-05-01T08:34:28.61Z</time></trkpt><trkpt lat="43.4940604" lon="11.2447189"><ele>437.0</ele><time>2026-05-01T08:34:30.613Z</time></trkpt><trkpt lat="43.4940393" lon="11.2445478"><ele>437.0</ele><time>2026-05-01T08:34:32.596Z</time></trkpt><trkpt lat="43.4940329" lon="11.2444582"><ele>436.57142857142856</ele><time>2026-05-01T08:34:33.605Z</time></trkpt><trkpt lat="43.4940269" lon="11.2443691"><ele>436.14285714285717</ele><time>2026-05-01T08:34:34.583Z</time></trkpt><trkpt lat="43.4940292" lon="11.2442742"><ele>435.7142857142857</ele><time>2026-05-01T08:34:35.677Z</time></trkpt><trkpt lat="43.494039" lon="11.2441809"><ele>435.2857142857143</ele><time>2026-05-01T08:34:36.672Z</time></trkpt><trkpt lat="43.494054" lon="11.2440897"><ele>434.8571428571429</ele><time>2026-05-01T08:34:37.612Z</time></trkpt><trkpt lat="43.4940746" lon="11.2440052"><ele>434.42857142857144</ele><time>2026-05-01T08:34:38.599Z</time></trkpt><trkpt lat="43.4940985" lon="11.2439195"><ele>434.0</ele><time>2026-05-01T08:34:39.601Z</time></trkpt><trkpt lat="43.4941214" lon="11.2438357"><ele>433.49999999999994</ele><time>2026-05-01T08:34:40.588Z</time></trkpt><trkpt lat="43.4941447" lon="11.2437516"><ele>433.0</ele><time>2026-05-01T08:34:41.673Z</time></trkpt><trkpt lat="43.4941752" lon="11.2436708"><ele>432.5</ele><time>2026-05-01T08:34:42.677Z</time></trkpt><trkpt lat="43.4942405" lon="11.2435293"><ele>432.0</ele><time>2026-05-01T08:34:44.596Z</time></trkpt><trkpt lat="43.4942978" lon="11.2433813"><ele>431.49999999999994</ele><time>2026-05-01T08:34:46.667Z</time></trkpt><trkpt lat="43.4943109" lon="11.2432912"><ele>431.0</ele><time>2026-05-01T08:34:47.59Z</time></trkpt><trkpt lat="43.4943177" lon="11.2431983"><ele>430.49999999999994</ele><time>2026-05-01T08:34:48.607Z</time></trkpt><trkpt lat="43.4943179" lon="11.2431027"><ele>430.0</ele><time>2026-05-01T08:34:49.596Z</time></trkpt><trkpt lat="43.4943205" lon="11.2430086"><ele>429.5</ele><time>2026-05-01T08:34:50.576Z</time></trkpt><trkpt lat="43.494317" lon="11.242919"><ele>429.0</ele><time>2026-05-01T08:34:51.667Z</time></trkpt><trkpt lat="43.4943193" lon="11.2428264"><ele>428.49999999999994</ele><time>2026-05-01T08:34:52.674Z</time></trkpt><trkpt lat="43.494322" lon="11.2427383"><ele>428.0</ele><time>2026-05-01T08:34:53.595Z</time></trkpt><trkpt lat="43.4943291" lon="11.2425725"><ele>428.00000000000006</ele><time>2026-05-01T08:34:55.601Z</time></trkpt><trkpt lat="43.4943334" lon="11.2424817"><ele>428.0</ele><time>2026-05-01T08:34:56.595Z</time></trkpt><trkpt lat="43.4943357" lon="11.2423865"><ele>428.0</ele><time>2026-05-01T08:34:57.607Z</time></trkpt><trkpt lat="43.4943246" lon="11.242289"><ele>428.0</ele><time>2026-05-01T08:34:58.605Z</time></trkpt><trkpt lat="43.4943156" lon="11.242197"><ele>428.0</ele><time>2026-05-01T08:34:59.598Z</time></trkpt><trkpt lat="43.4943154" lon="11.2421071"><ele>428.00000000000006</ele><time>2026-05-01T08:35:00.597Z</time></trkpt><trkpt lat="43.4943159" lon="11.2420141"><ele>428.0</ele><time>2026-05-01T08:35:01.597Z</time></trkpt><trkpt lat="43.494318" lon="11.241927"><ele>428.00000000000006</ele><time>2026-05-01T08:35:02.6Z</time></trkpt><trkpt lat="43.4943167" lon="11.2418367"><ele>428.0</ele><time>2026-05-01T08:35:03.605Z</time></trkpt><trkpt lat="43.4943105" lon="11.2417426"><ele>428.0</ele><time>2026-05-01T08:35:04.602Z</time></trkpt><trkpt lat="43.4943014" lon="11.2416488"><ele>428.0</ele><time>2026-05-01T08:35:05.598Z</time></trkpt><trkpt lat="43.4942971" lon="11.2415578"><ele>428.0</ele><time>2026-05-01T08:35:06.616Z</time></trkpt><trkpt lat="43.4942963" lon="11.2414647"><ele>428.00000000000006</ele><time>2026-05-01T08:35:07.599Z</time></trkpt><trkpt lat="43.4942935" lon="11.2413728"><ele>428.0</ele><time>2026-05-01T08:35:08.605Z</time></trkpt><trkpt lat="43.4942929" lon="11.2412801"><ele>428.00000000000006</ele><time>2026-05-01T08:35:09.581Z</time></trkpt><trkpt lat="43.4942899" lon="11.2411889"><ele>428.0</ele><time>2026-05-01T08:35:10.597Z</time></trkpt><trkpt lat="43.4942768" lon="11.2410908"><ele>428.0</ele><time>2026-05-01T08:35:11.671Z</time></trkpt><trkpt lat="43.4942509" lon="11.2409957"><ele>428.0</ele><time>2026-05-01T08:35:12.678Z</time></trkpt><trkpt lat="43.4942192" lon="11.2408999"><ele>428.0</ele><time>2026-05-01T08:35:13.583Z</time></trkpt><trkpt lat="43.49418" lon="11.2408118"><ele>428.00000000000006</ele><time>2026-05-01T08:35:14.61Z</time></trkpt><trkpt lat="43.4941413" lon="11.2407241"><ele>428.0</ele><time>2026-05-01T08:35:15.614Z</time></trkpt><trkpt lat="43.4941015" lon="11.2406435"><ele>428.8333333333333</ele><time>2026-05-01T08:35:16.675Z</time></trkpt><trkpt lat="43.4940601" lon="11.2405409"><ele>429.66666666666663</ele><time>2026-05-01T08:35:17.597Z</time></trkpt><trkpt lat="43.4940146" lon="11.2404392"><ele>430.5</ele><time>2026-05-01T08:35:18.596Z</time></trkpt><trkpt lat="43.4939731" lon="11.2403717"><ele>431.33333333333337</ele><time>2026-05-01T08:35:19.586Z</time></trkpt><trkpt lat="43.4939242" lon="11.2403047"><ele>432.1666666666667</ele><time>2026-05-01T08:35:20.603Z</time></trkpt><trkpt lat="43.4938762" lon="11.2402391"><ele>433.0</ele><time>2026-05-01T08:35:21.601Z</time></trkpt><trkpt lat="43.4937861" lon="11.2401298"><ele>431.2</ele><time>2026-05-01T08:35:23.598Z</time></trkpt><trkpt lat="43.4937409" lon="11.2400671"><ele>429.4</ele><time>2026-05-01T08:35:24.6Z</time></trkpt><trkpt lat="43.4936498" lon="11.2399427"><ele>427.59999999999997</ele><time>2026-05-01T08:35:26.583Z</time></trkpt><trkpt lat="43.4935774" lon="11.2398146"><ele>425.79999999999995</ele><time>2026-05-01T08:35:28.613Z</time></trkpt><trkpt lat="43.4935257" lon="11.2397478"><ele>424.0</ele><time>2026-05-01T08:35:29.615Z</time></trkpt><trkpt lat="43.4934724" lon="11.2396833"><ele>424.00000000000006</ele><time>2026-05-01T08:35:30.585Z</time></trkpt><trkpt lat="43.493379" lon="11.2395706"><ele>424.0</ele><time>2026-05-01T08:35:32.592Z</time></trkpt><trkpt lat="43.4933334" lon="11.2395077"><ele>424.0</ele><time>2026-05-01T08:35:33.606Z</time></trkpt><trkpt lat="43.4932921" lon="11.2394375"><ele>424.0</ele><time>2026-05-01T08:35:34.587Z</time></trkpt><trkpt lat="43.4932539" lon="11.2393652"><ele>424.00000000000006</ele><time>2026-05-01T08:35:35.61Z</time></trkpt><trkpt lat="43.4932256" lon="11.2392835"><ele>424.0</ele><time>2026-05-01T08:35:36.602Z</time></trkpt><trkpt lat="43.4932076" lon="11.2391936"><ele>424.0</ele><time>2026-05-01T08:35:37.609Z</time></trkpt><trkpt lat="43.4931953" lon="11.2391055"><ele>424.0</ele><time>2026-05-01T08:35:38.603Z</time></trkpt><trkpt lat="43.4931913" lon="11.2390112"><ele>424.0</ele><time>2026-05-01T08:35:39.608Z</time></trkpt><trkpt lat="43.4931867" lon="11.2389215"><ele>424.0</ele><time>2026-05-01T08:35:40.594Z</time></trkpt><trkpt lat="43.4931775" lon="11.238832"><ele>424.0</ele><time>2026-05-01T08:35:41.579Z</time></trkpt><trkpt lat="43.4931664" lon="11.238735"><ele>424.0</ele><time>2026-05-01T08:35:42.587Z</time></trkpt><trkpt lat="43.4931494" lon="11.2386403"><ele>424.0</ele><time>2026-05-01T08:35:43.599Z</time></trkpt><trkpt lat="43.4931243" lon="11.2385472"><ele>424.1666666666667</ele><time>2026-05-01T08:35:44.608Z</time></trkpt><trkpt lat="43.4930923" lon="11.2384528"><ele>424.33333333333337</ele><time>2026-05-01T08:35:45.642Z</time></trkpt><trkpt lat="43.4930536" lon="11.2383627"><ele>424.5</ele><time>2026-05-01T08:35:46.671Z</time></trkpt><trkpt lat="43.4930172" lon="11.2382648"><ele>424.66666666666663</ele><time>2026-05-01T08:35:47.612Z</time></trkpt><trkpt lat="43.4929693" lon="11.2381607"><ele>424.8333333333333</ele><time>2026-05-01T08:35:48.607Z</time></trkpt><trkpt lat="43.4929195" lon="11.2380851"><ele>425.0</ele><time>2026-05-01T08:35:49.602Z</time></trkpt><trkpt lat="43.4928579" lon="11.23803"><ele>424.99999999999994</ele><time>2026-05-01T08:35:50.614Z</time></trkpt><trkpt lat="43.4927847" lon="11.2379767"><ele>425.0</ele><time>2026-05-01T08:35:51.606Z</time></trkpt><trkpt lat="43.4927159" lon="11.2379251"><ele>425.0</ele><time>2026-05-01T08:35:52.674Z</time></trkpt><trkpt lat="43.4926425" lon="11.2378761"><ele>425.0</ele><time>2026-05-01T08:35:53.599Z</time></trkpt><trkpt lat="43.4925595" lon="11.2378328"><ele>424.99999999999994</ele><time>2026-05-01T08:35:54.612Z</time></trkpt><trkpt lat="43.4924793" lon="11.2377951"><ele>425.0</ele><time>2026-05-01T08:35:55.612Z</time></trkpt><trkpt lat="43.4924028" lon="11.2377711"><ele>424.99999999999994</ele><time>2026-05-01T08:35:56.599Z</time></trkpt><trkpt lat="43.4923233" lon="11.2377533"><ele>425.0</ele><time>2026-05-01T08:35:57.611Z</time></trkpt><trkpt lat="43.4922435" lon="11.2377545"><ele>425.0</ele><time>2026-05-01T08:35:58.598Z</time></trkpt><trkpt lat="43.4921629" lon="11.2377604"><ele>425.0</ele><time>2026-05-01T08:35:59.607Z</time></trkpt><trkpt lat="43.4920831" lon="11.237767"><ele>424.99999999999994</ele><time>2026-05-01T08:36:00.69Z</time></trkpt><trkpt lat="43.4920055" lon="11.2377669"><ele>425.0</ele><time>2026-05-01T08:36:01.653Z</time></trkpt><trkpt lat="43.4919289" lon="11.2377609"><ele>423.8333333333333</ele><time>2026-05-01T08:36:02.61Z</time></trkpt><trkpt lat="43.491853" lon="11.2377424"><ele>422.66666666666663</ele><time>2026-05-01T08:36:03.595Z</time></trkpt><trkpt lat="43.4917799" lon="11.237704"><ele>421.5</ele><time>2026-05-01T08:36:04.612Z</time></trkpt><trkpt lat="43.4917139" lon="11.2376524"><ele>420.33333333333337</ele><time>2026-05-01T08:36:05.58Z</time></trkpt><trkpt lat="43.4916519" lon="11.2375901"><ele>419.1666666666667</ele><time>2026-05-01T08:36:06.596Z</time></trkpt><trkpt lat="43.4915925" lon="11.2375235"><ele>418.0</ele><time>2026-05-01T08:36:07.583Z</time></trkpt><trkpt lat="43.4915341" lon="11.2374488"><ele>418.00000000000006</ele><time>2026-05-01T08:36:08.606Z</time></trkpt><trkpt lat="43.4914819" lon="11.2373701"><ele>418.0</ele><time>2026-05-01T08:36:09.602Z</time></trkpt><trkpt lat="43.4914317" lon="11.2372917"><ele>418.0</ele><time>2026-05-01T08:36:10.6Z</time></trkpt><trkpt lat="43.4913793" lon="11.2372198"><ele>418.0</ele><time>2026-05-01T08:36:11.606Z</time></trkpt><trkpt lat="43.4913234" lon="11.2371513"><ele>418.00000000000006</ele><time>2026-05-01T08:36:12.581Z</time></trkpt><trkpt lat="43.4912624" lon="11.2370836"><ele>418.0</ele><time>2026-05-01T08:36:13.599Z</time></trkpt><trkpt lat="43.4911987" lon="11.2370244"><ele>419.42857142857144</ele><time>2026-05-01T08:36:14.59Z</time></trkpt><trkpt lat="43.4911312" lon="11.2369719"><ele>420.85714285714283</ele><time>2026-05-01T08:36:15.574Z</time></trkpt><trkpt lat="43.4910637" lon="11.2369318"><ele>422.28571428571433</ele><time>2026-05-01T08:36:16.576Z</time></trkpt><trkpt lat="43.4909901" lon="11.2369057"><ele>423.7142857142857</ele><time>2026-05-01T08:36:17.583Z</time></trkpt><trkpt lat="43.4909161" lon="11.2368902"><ele>425.14285714285717</ele><time>2026-05-01T08:36:18.598Z</time></trkpt><trkpt lat="43.4908412" lon="11.2368774"><ele>426.5714285714286</ele><time>2026-05-01T08:36:19.583Z</time></trkpt><trkpt lat="43.49077" lon="11.2368712"><ele>428.0</ele><time>2026-05-01T08:36:20.588Z</time></trkpt><trkpt lat="43.4907001" lon="11.236864"><ele>428.00000000000006</ele><time>2026-05-01T08:36:21.675Z</time></trkpt><trkpt lat="43.490633" lon="11.2368571"><ele>428.0</ele><time>2026-05-01T08:36:22.67Z</time></trkpt><trkpt lat="43.4905655" lon="11.2368454"><ele>428.0</ele><time>2026-05-01T08:36:23.605Z</time></trkpt><trkpt lat="43.4904971" lon="11.2368279"><ele>428.0</ele><time>2026-05-01T08:36:24.612Z</time></trkpt><trkpt lat="43.4904328" lon="11.2368098"><ele>428.0</ele><time>2026-05-01T08:36:25.596Z</time></trkpt><trkpt lat="43.4903678" lon="11.2367922"><ele>428.00000000000006</ele><time>2026-05-01T08:36:26.601Z</time></trkpt><trkpt lat="43.4903045" lon="11.2367789"><ele>428.0</ele><time>2026-05-01T08:36:27.597Z</time></trkpt><trkpt lat="43.4902409" lon="11.2367678"><ele>426.59999999999997</ele><time>2026-05-01T08:36:28.599Z</time></trkpt><trkpt lat="43.490177" lon="11.2367581"><ele>425.19999999999993</ele><time>2026-05-01T08:36:29.602Z</time></trkpt><trkpt lat="43.4900596" lon="11.2367454"><ele>423.8</ele><time>2026-05-01T08:36:31.674Z</time></trkpt><trkpt lat="43.4899351" lon="11.2366902"><ele>422.4</ele><time>2026-05-01T08:36:33.593Z</time></trkpt><trkpt lat="43.4898699" lon="11.2366688"><ele>421.0</ele><time>2026-05-01T08:36:34.611Z</time></trkpt><trkpt lat="43.4897482" lon="11.2366593"><ele>421.0</ele><time>2026-05-01T08:36:36.601Z</time></trkpt><trkpt lat="43.4896377" lon="11.2366412"><ele>421.0</ele><time>2026-05-01T08:36:38.609Z</time></trkpt><trkpt lat="43.4895312" lon="11.236614"><ele>421.0</ele><time>2026-05-01T08:36:40.599Z</time></trkpt><trkpt lat="43.4894203" lon="11.2366015"><ele>421.0</ele><time>2026-05-01T08:36:42.595Z</time></trkpt><trkpt lat="43.4892981" lon="11.2366035"><ele>420.20000000000005</ele><time>2026-05-01T08:36:44.593Z</time></trkpt><trkpt lat="43.489183" lon="11.2366072"><ele>419.40000000000003</ele><time>2026-05-01T08:36:46.608Z</time></trkpt><trkpt lat="43.489071" lon="11.2366117"><ele>418.6</ele><time>2026-05-01T08:36:48.594Z</time></trkpt><trkpt lat="43.4889632" lon="11.2366218"><ele>417.8</ele><time>2026-05-01T08:36:50.602Z</time></trkpt><trkpt lat="43.488856" lon="11.2366327"><ele>417.0</ele><time>2026-05-01T08:36:52.655Z</time></trkpt><trkpt lat="43.4887575" lon="11.2366476"><ele>417.0</ele><time>2026-05-01T08:36:54.596Z</time></trkpt><trkpt lat="43.4886536" lon="11.2366579"><ele>417.0</ele><time>2026-05-01T08:36:56.606Z</time></trkpt><trkpt lat="43.4885589" lon="11.2366732"><ele>417.0</ele><time>2026-05-01T08:36:58.586Z</time></trkpt><trkpt lat="43.4884777" lon="11.2366768"><ele>417.0</ele><time>2026-05-01T08:37:00.685Z</time></trkpt><trkpt lat="43.4883992" lon="11.2366596"><ele>417.0</ele><time>2026-05-01T08:37:02.594Z</time></trkpt><trkpt lat="43.4883128" lon="11.2366468"><ele>417.0</ele><time>2026-05-01T08:37:04.597Z</time></trkpt><trkpt lat="43.4882001" lon="11.2366126"><ele>417.0</ele><time>2026-05-01T08:37:06.684Z</time></trkpt><trkpt lat="43.4880992" lon="11.236571"><ele>417.0</ele><time>2026-05-01T08:37:08.591Z</time></trkpt><trkpt lat="43.4879846" lon="11.2365428"><ele>417.0</ele><time>2026-05-01T08:37:10.599Z</time></trkpt><trkpt lat="43.4878731" lon="11.2365256"><ele>417.0</ele><time>2026-05-01T08:37:12.682Z</time></trkpt><trkpt lat="43.4877749" lon="11.236538"><ele>417.0</ele><time>2026-05-01T08:37:14.609Z</time></trkpt><trkpt lat="43.4876758" lon="11.2366076"><ele>417.40000000000003</ele><time>2026-05-01T08:37:16.598Z</time></trkpt><trkpt lat="43.487589" lon="11.2366787"><ele>417.8</ele><time>2026-05-01T08:37:18.6Z</time></trkpt><trkpt lat="43.4874948" lon="11.2367595"><ele>418.2</ele><time>2026-05-01T08:37:20.589Z</time></trkpt><trkpt lat="43.4874018" lon="11.2368391"><ele>418.6</ele><time>2026-05-01T08:37:22.61Z</time></trkpt><trkpt lat="43.4873087" lon="11.2369338"><ele>419.0</ele><time>2026-05-01T08:37:24.618Z</time></trkpt><trkpt lat="43.4872022" lon="11.236998"><ele>418.25</ele><time>2026-05-01T08:37:26.604Z</time></trkpt><trkpt lat="43.4870784" lon="11.2370163"><ele>417.5</ele><time>2026-05-01T08:37:28.598Z</time></trkpt><trkpt lat="43.4869622" lon="11.2370013"><ele>416.75</ele><time>2026-05-01T08:37:30.663Z</time></trkpt><trkpt lat="43.4868558" lon="11.2369322"><ele>416.0</ele><time>2026-05-01T08:37:32.676Z</time></trkpt><trkpt lat="43.4867562" lon="11.2368388"><ele>416.0</ele><time>2026-05-01T08:37:34.599Z</time></trkpt><trkpt lat="43.4867019" lon="11.2367863"><ele>416.0</ele><time>2026-05-01T08:37:35.664Z</time></trkpt><trkpt lat="43.4866436" lon="11.2367323"><ele>416.0</ele><time>2026-05-01T08:37:36.673Z</time></trkpt><trkpt lat="43.4865853" lon="11.2366805"><ele>416.0</ele><time>2026-05-01T08:37:37.675Z</time></trkpt><trkpt lat="43.4865297" lon="11.2366359"><ele>416.0</ele><time>2026-05-01T08:37:38.599Z</time></trkpt><trkpt lat="43.4864674" lon="11.2365908"><ele>416.0</ele><time>2026-05-01T08:37:39.597Z</time></trkpt><trkpt lat="43.4864037" lon="11.2365463"><ele>416.0</ele><time>2026-05-01T08:37:40.596Z</time></trkpt><trkpt lat="43.486338" lon="11.2365139"><ele>415.99999999999994</ele><time>2026-05-01T08:37:41.578Z</time></trkpt><trkpt lat="43.4862707" lon="11.2364965"><ele>416.0</ele><time>2026-05-01T08:37:42.688Z</time></trkpt><trkpt lat="43.4861389" lon="11.2364924"><ele>416.0</ele><time>2026-05-01T08:37:44.591Z</time></trkpt><trkpt lat="43.486075" lon="11.2364899"><ele>416.0</ele><time>2026-05-01T08:37:45.646Z</time></trkpt><trkpt lat="43.486012" lon="11.2364877"><ele>415.99999999999994</ele><time>2026-05-01T08:37:46.674Z</time></trkpt><trkpt lat="43.4858907" lon="11.2364864"><ele>416.0</ele><time>2026-05-01T08:37:48.601Z</time></trkpt><trkpt lat="43.4857702" lon="11.2364848"><ele>414.8</ele><time>2026-05-01T08:37:50.61Z</time></trkpt><trkpt lat="43.485653" lon="11.236484"><ele>413.6</ele><time>2026-05-01T08:37:52.587Z</time></trkpt><trkpt lat="43.4855421" lon="11.2364836"><ele>412.4</ele><time>2026-05-01T08:37:54.575Z</time></trkpt><trkpt lat="43.4854369" lon="11.2364767"><ele>411.2</ele><time>2026-05-01T08:37:56.58Z</time></trkpt><trkpt lat="43.4853339" lon="11.2364762"><ele>410.0</ele><time>2026-05-01T08:37:58.609Z</time></trkpt><trkpt lat="43.4852269" lon="11.2364705"><ele>412.0</ele><time>2026-05-01T08:38:00.593Z</time></trkpt><trkpt lat="43.4851203" lon="11.236468"><ele>414.0</ele><time>2026-05-01T08:38:02.595Z</time></trkpt><trkpt lat="43.485012" lon="11.2364569"><ele>416.0</ele><time>2026-05-01T08:38:04.601Z</time></trkpt><trkpt lat="43.4849052" lon="11.2364019"><ele>418.0</ele><time>2026-05-01T08:38:06.674Z</time></trkpt><trkpt lat="43.4848116" lon="11.2363157"><ele>420.0</ele><time>2026-05-01T08:38:08.602Z</time></trkpt><trkpt lat="43.4847441" lon="11.2362087"><ele>420.0</ele><time>2026-05-01T08:38:10.606Z</time></trkpt><trkpt lat="43.4846919" lon="11.2361002"><ele>420.0</ele><time>2026-05-01T08:38:12.689Z</time></trkpt><trkpt lat="43.484646" lon="11.2359902"><ele>420.0</ele><time>2026-05-01T08:38:14.618Z</time></trkpt><trkpt lat="43.4845865" lon="11.2358688"><ele>420.0</ele><time>2026-05-01T08:38:16.676Z</time></trkpt><trkpt lat="43.4845267" lon="11.235748"><ele>420.0</ele><time>2026-05-01T08:38:18.593Z</time></trkpt><trkpt lat="43.4844929" lon="11.2356242"><ele>420.0</ele><time>2026-05-01T08:38:20.603Z</time></trkpt><trkpt lat="43.4845321" lon="11.2354772"><ele>420.0</ele><time>2026-05-01T08:38:22.675Z</time></trkpt><trkpt lat="43.4845963" lon="11.2353601"><ele>420.0</ele><time>2026-05-01T08:38:24.594Z</time></trkpt><trkpt lat="43.4846789" lon="11.2352528"><ele>420.0</ele><time>2026-05-01T08:38:26.68Z</time></trkpt><trkpt lat="43.4847572" lon="11.2351569"><ele>420.0</ele><time>2026-05-01T08:38:28.605Z</time></trkpt><trkpt lat="43.4848317" lon="11.2350796"><ele>420.0</ele><time>2026-05-01T08:38:30.597Z</time></trkpt><trkpt lat="43.4848762" lon="11.2349736"><ele>420.0</ele><time>2026-05-01T08:38:32.58Z</time></trkpt><trkpt lat="43.4849128" lon="11.2348512"><ele>420.0</ele><time>2026-05-01T08:38:34.609Z</time></trkpt><trkpt lat="43.4849217" lon="11.2347224"><ele>420.0</ele><time>2026-05-01T08:38:36.607Z</time></trkpt><trkpt lat="43.4848911" lon="11.2345856"><ele>420.0</ele><time>2026-05-01T08:38:38.606Z</time></trkpt><trkpt lat="43.4848316" lon="11.2345285"><ele>420.57142857142856</ele><time>2026-05-01T08:38:39.577Z</time></trkpt><trkpt lat="43.4847648" lon="11.2344859"><ele>421.1428571428571</ele><time>2026-05-01T08:38:40.589Z</time></trkpt><trkpt lat="43.4846985" lon="11.2344411"><ele>421.7142857142857</ele><time>2026-05-01T08:38:41.669Z</time></trkpt><trkpt lat="43.4846356" lon="11.2343987"><ele>422.2857142857143</ele><time>2026-05-01T08:38:42.67Z</time></trkpt><trkpt lat="43.484571" lon="11.2343526"><ele>422.85714285714283</ele><time>2026-05-01T08:38:43.603Z</time></trkpt><trkpt lat="43.4845058" lon="11.2343231"><ele>423.42857142857144</ele><time>2026-05-01T08:38:44.6Z</time></trkpt><trkpt lat="43.484427" lon="11.2342937"><ele>424.0</ele><time>2026-05-01T08:38:45.579Z</time></trkpt><trkpt lat="43.484351" lon="11.2342764"><ele>420.6</ele><time>2026-05-01T08:38:46.668Z</time></trkpt><trkpt lat="43.4842838" lon="11.2342569"><ele>417.2</ele><time>2026-05-01T08:38:47.611Z</time></trkpt><trkpt lat="43.4841524" lon="11.2341828"><ele>413.8</ele><time>2026-05-01T08:38:49.611Z</time></trkpt><trkpt lat="43.484077" lon="11.2341409"><ele>410.40000000000003</ele><time>2026-05-01T08:38:50.602Z</time></trkpt><trkpt lat="43.4840018" lon="11.2341035"><ele>407.0</ele><time>2026-05-01T08:38:51.594Z</time></trkpt><trkpt lat="43.4839266" lon="11.2340704"><ele>406.99999999999994</ele><time>2026-05-01T08:38:52.667Z</time></trkpt><trkpt lat="43.4838563" lon="11.2340406"><ele>407.0</ele><time>2026-05-01T08:38:53.599Z</time></trkpt><trkpt lat="43.4837908" lon="11.2340071"><ele>407.0</ele><time>2026-05-01T08:38:54.609Z</time></trkpt><trkpt lat="43.4837247" lon="11.2339587"><ele>407.0</ele><time>2026-05-01T08:38:55.599Z</time></trkpt><trkpt lat="43.483661" lon="11.2339083"><ele>406.99999999999994</ele><time>2026-05-01T08:38:56.581Z</time></trkpt><trkpt lat="43.4835985" lon="11.2338538"><ele>407.0</ele><time>2026-05-01T08:38:57.697Z</time></trkpt><trkpt lat="43.4834755" lon="11.2337586"><ele>406.8333333333333</ele><time>2026-05-01T08:38:59.602Z</time></trkpt><trkpt lat="43.4834112" lon="11.2337074"><ele>406.66666666666663</ele><time>2026-05-01T08:39:00.594Z</time></trkpt><trkpt lat="43.4833407" lon="11.2336447"><ele>406.5</ele><time>2026-05-01T08:39:01.68Z</time></trkpt><trkpt lat="43.483276" lon="11.2335888"><ele>406.33333333333337</ele><time>2026-05-01T08:39:02.603Z</time></trkpt><trkpt lat="43.4832106" lon="11.2335297"><ele>406.1666666666667</ele><time>2026-05-01T08:39:03.607Z</time></trkpt><trkpt lat="43.483149" lon="11.2334456"><ele>406.0</ele><time>2026-05-01T08:39:04.592Z</time></trkpt><trkpt lat="43.4830919" lon="11.2333576"><ele>406.00000000000006</ele><time>2026-05-01T08:39:05.597Z</time></trkpt><trkpt lat="43.4830372" lon="11.2332611"><ele>406.0</ele><time>2026-05-01T08:39:06.599Z</time></trkpt><trkpt lat="43.4829924" lon="11.2331577"><ele>406.0</ele><time>2026-05-01T08:39:07.606Z</time></trkpt><trkpt lat="43.4829568" lon="11.2330487"><ele>406.0</ele><time>2026-05-01T08:39:08.592Z</time></trkpt><trkpt lat="43.4829252" lon="11.2329392"><ele>406.00000000000006</ele><time>2026-05-01T08:39:09.586Z</time></trkpt><trkpt lat="43.48289" lon="11.2328329"><ele>406.0</ele><time>2026-05-01T08:39:10.601Z</time></trkpt><trkpt lat="43.4828523" lon="11.2327361"><ele>403.83333333333337</ele><time>2026-05-01T08:39:11.596Z</time></trkpt><trkpt lat="43.4828017" lon="11.2326544"><ele>401.6666666666667</ele><time>2026-05-01T08:39:12.598Z</time></trkpt><trkpt lat="43.4827341" lon="11.2325803"><ele>399.5</ele><time>2026-05-01T08:39:13.578Z</time></trkpt><trkpt lat="43.4826576" lon="11.2325195"><ele>397.33333333333337</ele><time>2026-05-01T08:39:14.601Z</time></trkpt><trkpt lat="43.4825798" lon="11.2324739"><ele>395.1666666666667</ele><time>2026-05-01T08:39:15.598Z</time></trkpt><trkpt lat="43.4825016" lon="11.2324324"><ele>393.0</ele><time>2026-05-01T08:39:16.667Z</time></trkpt><trkpt lat="43.4824292" lon="11.2323853"><ele>393.0</ele><time>2026-05-01T08:39:17.6Z</time></trkpt><trkpt lat="43.4823548" lon="11.2323174"><ele>393.0</ele><time>2026-05-01T08:39:18.601Z</time></trkpt><trkpt lat="43.4823046" lon="11.2322606"><ele>393.0</ele><time>2026-05-01T08:39:19.611Z</time></trkpt><trkpt lat="43.4822511" lon="11.2321905"><ele>393.0</ele><time>2026-05-01T08:39:20.607Z</time></trkpt><trkpt lat="43.4822051" lon="11.2321116"><ele>393.0</ele><time>2026-05-01T08:39:21.6Z</time></trkpt><trkpt lat="43.482179" lon="11.2320215"><ele>393.0</ele><time>2026-05-01T08:39:22.671Z</time></trkpt><trkpt lat="43.4821488" lon="11.2319056"><ele>394.0</ele><time>2026-05-01T08:39:23.589Z</time></trkpt><trkpt lat="43.4821261" lon="11.2317912"><ele>395.0</ele><time>2026-05-01T08:39:24.574Z</time></trkpt><trkpt lat="43.482121" lon="11.2316855"><ele>396.0</ele><time>2026-05-01T08:39:25.654Z</time></trkpt><trkpt lat="43.4821118" lon="11.2315851"><ele>397.0</ele><time>2026-05-01T08:39:26.597Z</time></trkpt><trkpt lat="43.4820944" lon="11.2314773"><ele>398.0</ele><time>2026-05-01T08:39:27.606Z</time></trkpt><trkpt lat="43.4820699" lon="11.231366"><ele>399.0</ele><time>2026-05-01T08:39:28.603Z</time></trkpt><trkpt lat="43.4820342" lon="11.2312566"><ele>395.2</ele><time>2026-05-01T08:39:29.591Z</time></trkpt><trkpt lat="43.481994" lon="11.2311531"><ele>391.4</ele><time>2026-05-01T08:39:30.679Z</time></trkpt><trkpt lat="43.4819501" lon="11.2310361"><ele>387.6</ele><time>2026-05-01T08:39:31.595Z</time></trkpt><trkpt lat="43.4819039" lon="11.230914"><ele>383.8</ele><time>2026-05-01T08:39:32.605Z</time></trkpt><trkpt lat="43.4818602" lon="11.2308101"><ele>380.0</ele><time>2026-05-01T08:39:33.619Z</time></trkpt><trkpt lat="43.4818094" lon="11.2307186"><ele>380.6</ele><time>2026-05-01T08:39:34.603Z</time></trkpt><trkpt lat="43.4817604" lon="11.2306198"><ele>381.2</ele><time>2026-05-01T08:39:35.605Z</time></trkpt><trkpt lat="43.4817169" lon="11.2305091"><ele>381.79999999999995</ele><time>2026-05-01T08:39:36.668Z</time></trkpt><trkpt lat="43.4816752" lon="11.2303903"><ele>382.4</ele><time>2026-05-01T08:39:37.673Z</time></trkpt><trkpt lat="43.4816625" lon="11.2302605"><ele>383.0</ele><time>2026-05-01T08:39:38.613Z</time></trkpt><trkpt lat="43.4816715" lon="11.2301344"><ele>383.0</ele><time>2026-05-01T08:39:39.616Z</time></trkpt><trkpt lat="43.4817097" lon="11.2300155"><ele>383.0</ele><time>2026-05-01T08:39:40.665Z</time></trkpt><trkpt lat="43.4817526" lon="11.229902"><ele>383.0</ele><time>2026-05-01T08:39:41.602Z</time></trkpt><trkpt lat="43.4817933" lon="11.2297953"><ele>383.0</ele><time>2026-05-01T08:39:42.6Z</time></trkpt><trkpt lat="43.4818176" lon="11.229684"><ele>383.0</ele><time>2026-05-01T08:39:43.601Z</time></trkpt><trkpt lat="43.4818282" lon="11.2295733"><ele>383.0</ele><time>2026-05-01T08:39:44.6Z</time></trkpt><trkpt lat="43.4818179" lon="11.2294663"><ele>383.6666666666667</ele><time>2026-05-01T08:39:45.6Z</time></trkpt><trkpt lat="43.4817849" lon="11.229361"><ele>384.33333333333337</ele><time>2026-05-01T08:39:46.618Z</time></trkpt><trkpt lat="43.4817413" lon="11.229267"><ele>385.0</ele><time>2026-05-01T08:39:47.603Z</time></trkpt><trkpt lat="43.481689" lon="11.2291828"><ele>385.6666666666667</ele><time>2026-05-01T08:39:48.601Z</time></trkpt><trkpt lat="43.4816236" lon="11.2291265"><ele>386.3333333333333</ele><time>2026-05-01T08:39:49.613Z</time></trkpt><trkpt lat="43.481559" lon="11.2290835"><ele>387.0</ele><time>2026-05-01T08:39:50.6Z</time></trkpt><trkpt lat="43.4814841" lon="11.2290511"><ele>387.0</ele><time>2026-05-01T08:39:51.599Z</time></trkpt><trkpt lat="43.4814026" lon="11.229039"><ele>387.0</ele><time>2026-05-01T08:39:52.678Z</time></trkpt><trkpt lat="43.4813332" lon="11.2290404"><ele>387.0</ele><time>2026-05-01T08:39:53.599Z</time></trkpt><trkpt lat="43.4812677" lon="11.2290474"><ele>387.0</ele><time>2026-05-01T08:39:54.608Z</time></trkpt><trkpt lat="43.4811891" lon="11.2290623"><ele>387.0</ele><time>2026-05-01T08:39:55.613Z</time></trkpt><trkpt lat="43.4811055" lon="11.2290694"><ele>387.0</ele><time>2026-05-01T08:39:56.668Z</time></trkpt><trkpt lat="43.4810267" lon="11.2290659"><ele>387.3333333333333</ele><time>2026-05-01T08:39:57.675Z</time></trkpt><trkpt lat="43.4809597" lon="11.2290527"><ele>387.66666666666663</ele><time>2026-05-01T08:39:58.581Z</time></trkpt><trkpt lat="43.4808911" lon="11.2290429"><ele>388.0</ele><time>2026-05-01T08:39:59.617Z</time></trkpt><trkpt lat="43.4808051" lon="11.2290271"><ele>388.3333333333333</ele><time>2026-05-01T08:40:00.655Z</time></trkpt><trkpt lat="43.4807113" lon="11.2290047"><ele>388.66666666666663</ele><time>2026-05-01T08:40:01.676Z</time></trkpt><trkpt lat="43.4806179" lon="11.2289807"><ele>389.0</ele><time>2026-05-01T08:40:02.6Z</time></trkpt><trkpt lat="43.4805261" lon="11.2289434"><ele>388.99999999999994</ele><time>2026-05-01T08:40:03.596Z</time></trkpt><trkpt lat="43.480448" lon="11.2288908"><ele>389.0</ele><time>2026-05-01T08:40:04.603Z</time></trkpt><trkpt lat="43.4803804" lon="11.228829"><ele>389.0</ele><time>2026-05-01T08:40:05.596Z</time></trkpt><trkpt lat="43.4803182" lon="11.2287639"><ele>389.0</ele><time>2026-05-01T08:40:06.676Z</time></trkpt><trkpt lat="43.4802714" lon="11.2286911"><ele>388.99999999999994</ele><time>2026-05-01T08:40:07.647Z</time></trkpt><trkpt lat="43.4802346" lon="11.2286045"><ele>389.0</ele><time>2026-05-01T08:40:08.599Z</time></trkpt><trkpt lat="43.4802043" lon="11.2285125"><ele>386.4</ele><time>2026-05-01T08:40:09.585Z</time></trkpt><trkpt lat="43.480182" lon="11.2284103"><ele>383.79999999999995</ele><time>2026-05-01T08:40:10.597Z</time></trkpt><trkpt lat="43.4801711" lon="11.2283027"><ele>381.20000000000005</ele><time>2026-05-01T08:40:11.585Z</time></trkpt><trkpt lat="43.4801589" lon="11.2281923"><ele>378.6</ele><time>2026-05-01T08:40:12.575Z</time></trkpt><trkpt lat="43.4801319" lon="11.2279717"><ele>376.0</ele><time>2026-05-01T08:40:14.594Z</time></trkpt><trkpt lat="43.4801297" lon="11.2278582"><ele>375.66666666666663</ele><time>2026-05-01T08:40:15.579Z</time></trkpt><trkpt lat="43.4801357" lon="11.227742"><ele>375.3333333333333</ele><time>2026-05-01T08:40:16.613Z</time></trkpt><trkpt lat="43.4801518" lon="11.2276307"><ele>375.0</ele><time>2026-05-01T08:40:17.593Z</time></trkpt><trkpt lat="43.4801801" lon="11.2275212"><ele>374.6666666666667</ele><time>2026-05-01T08:40:18.622Z</time></trkpt><trkpt lat="43.4802165" lon="11.2274174"><ele>374.33333333333337</ele><time>2026-05-01T08:40:19.608Z</time></trkpt><trkpt lat="43.4802572" lon="11.2273119"><ele>374.0</ele><time>2026-05-01T08:40:20.619Z</time></trkpt><trkpt lat="43.4802962" lon="11.2272089"><ele>373.83333333333337</ele><time>2026-05-01T08:40:21.621Z</time></trkpt><trkpt lat="43.4803339" lon="11.227103"><ele>373.6666666666667</ele><time>2026-05-01T08:40:22.596Z</time></trkpt><trkpt lat="43.4803635" lon="11.2269967"><ele>373.5</ele><time>2026-05-01T08:40:23.604Z</time></trkpt><trkpt lat="43.4803832" lon="11.22689"><ele>373.3333333333333</ele><time>2026-05-01T08:40:24.605Z</time></trkpt><trkpt lat="43.4803908" lon="11.2267805"><ele>373.16666666666663</ele><time>2026-05-01T08:40:25.597Z</time></trkpt><trkpt lat="43.4803832" lon="11.2266673"><ele>373.0</ele><time>2026-05-01T08:40:26.583Z</time></trkpt><trkpt lat="43.4803646" lon="11.2265574"><ele>373.2</ele><time>2026-05-01T08:40:27.598Z</time></trkpt><trkpt lat="43.4803211" lon="11.2264558"><ele>373.4</ele><time>2026-05-01T08:40:28.617Z</time></trkpt><trkpt lat="43.4802514" lon="11.2263755"><ele>373.59999999999997</ele><time>2026-05-01T08:40:29.613Z</time></trkpt><trkpt lat="43.4801669" lon="11.2263121"><ele>373.79999999999995</ele><time>2026-05-01T08:40:30.585Z</time></trkpt><trkpt lat="43.4800817" lon="11.2262493"><ele>374.0</ele><time>2026-05-01T08:40:31.597Z</time></trkpt><trkpt lat="43.4799996" lon="11.2261948"><ele>374.0</ele><time>2026-05-01T08:40:32.597Z</time></trkpt><trkpt lat="43.4799184" lon="11.2261456"><ele>374.0</ele><time>2026-05-01T08:40:33.609Z</time></trkpt><trkpt lat="43.4798406" lon="11.2260987"><ele>374.0</ele><time>2026-05-01T08:40:34.589Z</time></trkpt><trkpt lat="43.4797614" lon="11.2260472"><ele>374.0</ele><time>2026-05-01T08:40:35.611Z</time></trkpt><trkpt lat="43.4796854" lon="11.2259965"><ele>374.0</ele><time>2026-05-01T08:40:36.578Z</time></trkpt><trkpt lat="43.4796098" lon="11.2259461"><ele>374.0</ele><time>2026-05-01T08:40:37.577Z</time></trkpt><trkpt lat="43.4795371" lon="11.2258971"><ele>373.6666666666667</ele><time>2026-05-01T08:40:38.583Z</time></trkpt><trkpt lat="43.479468" lon="11.225846"><ele>373.33333333333337</ele><time>2026-05-01T08:40:39.59Z</time></trkpt><trkpt lat="43.4793999" lon="11.2258014"><ele>373.0</ele><time>2026-05-01T08:40:40.574Z</time></trkpt><trkpt lat="43.4793309" lon="11.2257607"><ele>372.6666666666667</ele><time>2026-05-01T08:40:41.587Z</time></trkpt><trkpt lat="43.4792586" lon="11.2257273"><ele>372.3333333333333</ele><time>2026-05-01T08:40:42.584Z</time></trkpt><trkpt lat="43.4791841" lon="11.22571"><ele>372.0</ele><time>2026-05-01T08:40:43.594Z</time></trkpt><trkpt lat="43.4791071" lon="11.2257155"><ele>372.0</ele><time>2026-05-01T08:40:44.588Z</time></trkpt><trkpt lat="43.479026" lon="11.2257352"><ele>372.0</ele><time>2026-05-01T08:40:45.585Z</time></trkpt><trkpt lat="43.47895" lon="11.2257649"><ele>372.0</ele><time>2026-05-01T08:40:46.582Z</time></trkpt><trkpt lat="43.4788841" lon="11.2258032"><ele>372.0</ele><time>2026-05-01T08:40:47.597Z</time></trkpt><trkpt lat="43.47882" lon="11.2258548"><ele>372.0</ele><time>2026-05-01T08:40:48.59Z</time></trkpt><trkpt lat="43.47875" lon="11.2259143"><ele>372.0</ele><time>2026-05-01T08:40:49.587Z</time></trkpt><trkpt lat="43.4786807" lon="11.2259752"><ele>372.0</ele><time>2026-05-01T08:40:50.589Z</time></trkpt><trkpt lat="43.4786046" lon="11.2260432"><ele>372.0</ele><time>2026-05-01T08:40:51.605Z</time></trkpt><trkpt lat="43.4785281" lon="11.2261169"><ele>372.0</ele><time>2026-05-01T08:40:52.584Z</time></trkpt><trkpt lat="43.478456" lon="11.2261862"><ele>372.0</ele><time>2026-05-01T08:40:53.596Z</time></trkpt><trkpt lat="43.4783865" lon="11.2262558"><ele>372.0</ele><time>2026-05-01T08:40:54.598Z</time></trkpt><trkpt lat="43.4783195" lon="11.226322"><ele>372.0</ele><time>2026-05-01T08:40:55.581Z</time></trkpt><trkpt lat="43.4782526" lon="11.226383"><ele>372.00000000000006</ele><time>2026-05-01T08:40:56.587Z</time></trkpt><trkpt lat="43.478189" lon="11.2264347"><ele>372.0</ele><time>2026-05-01T08:40:57.594Z</time></trkpt><trkpt lat="43.4781271" lon="11.2264763"><ele>372.0</ele><time>2026-05-01T08:40:58.591Z</time></trkpt><trkpt lat="43.478067" lon="11.2265045"><ele>372.0</ele><time>2026-05-01T08:40:59.6Z</time></trkpt><trkpt lat="43.4780008" lon="11.2265104"><ele>372.0</ele><time>2026-05-01T08:41:00.601Z</time></trkpt><trkpt lat="43.4779258" lon="11.2265027"><ele>372.00000000000006</ele><time>2026-05-01T08:41:01.603Z</time></trkpt><trkpt lat="43.4778424" lon="11.2264919"><ele>372.0</ele><time>2026-05-01T08:41:02.581Z</time></trkpt><trkpt lat="43.4777555" lon="11.2264723"><ele>370.3333333333333</ele><time>2026-05-01T08:41:03.596Z</time></trkpt><trkpt lat="43.4776747" lon="11.2264288"><ele>368.6666666666667</ele><time>2026-05-01T08:41:04.593Z</time></trkpt><trkpt lat="43.4776046" lon="11.2263612"><ele>367.0</ele><time>2026-05-01T08:41:05.58Z</time></trkpt><trkpt lat="43.477555" lon="11.2262706"><ele>365.33333333333337</ele><time>2026-05-01T08:41:06.593Z</time></trkpt><trkpt lat="43.4775241" lon="11.2261638"><ele>363.6666666666667</ele><time>2026-05-01T08:41:07.607Z</time></trkpt><trkpt lat="43.4775071" lon="11.2260565"><ele>362.0</ele><time>2026-05-01T08:41:08.594Z</time></trkpt><trkpt lat="43.4774992" lon="11.2259429"><ele>362.0</ele><time>2026-05-01T08:41:09.606Z</time></trkpt><trkpt lat="43.4774996" lon="11.225826"><ele>362.0</ele><time>2026-05-01T08:41:10.606Z</time></trkpt><trkpt lat="43.477497" lon="11.225715"><ele>362.0</ele><time>2026-05-01T08:41:11.595Z</time></trkpt><trkpt lat="43.4774924" lon="11.2256068"><ele>362.0</ele><time>2026-05-01T08:41:12.583Z</time></trkpt><trkpt lat="43.477488" lon="11.2254977"><ele>362.0</ele><time>2026-05-01T08:41:13.593Z</time></trkpt><trkpt lat="43.4774859" lon="11.2253851"><ele>362.0</ele><time>2026-05-01T08:41:14.592Z</time></trkpt><trkpt lat="43.4774849" lon="11.2252738"><ele>362.0</ele><time>2026-05-01T08:41:15.599Z</time></trkpt><trkpt lat="43.4774836" lon="11.2251631"><ele>362.0</ele><time>2026-05-01T08:41:16.585Z</time></trkpt><trkpt lat="43.4774825" lon="11.2250555"><ele>362.0</ele><time>2026-05-01T08:41:17.58Z</time></trkpt><trkpt lat="43.4774814" lon="11.224949"><ele>362.0</ele><time>2026-05-01T08:41:18.585Z</time></trkpt><trkpt lat="43.4774773" lon="11.2248421"><ele>362.0</ele><time>2026-05-01T08:41:19.578Z</time></trkpt><trkpt lat="43.4774754" lon="11.2247301"><ele>362.0</ele><time>2026-05-01T08:41:20.602Z</time></trkpt><trkpt lat="43.4774715" lon="11.224622"><ele>362.0</ele><time>2026-05-01T08:41:21.59Z</time></trkpt><trkpt lat="43.4774651" lon="11.2245117"><ele>362.0</ele><time>2026-05-01T08:41:22.601Z</time></trkpt><trkpt lat="43.4774586" lon="11.224405"><ele>362.0</ele><time>2026-05-01T08:41:23.579Z</time></trkpt><trkpt lat="43.4774495" lon="11.2242964"><ele>362.0</ele><time>2026-05-01T08:41:24.583Z</time></trkpt><trkpt lat="43.4774373" lon="11.2241859"><ele>362.0</ele><time>2026-05-01T08:41:25.608Z</time></trkpt><trkpt lat="43.4774166" lon="11.2240796"><ele>362.0</ele><time>2026-05-01T08:41:26.595Z</time></trkpt><trkpt lat="43.4773806" lon="11.2239818"><ele>361.33333333333337</ele><time>2026-05-01T08:41:27.586Z</time></trkpt><trkpt lat="43.477333" lon="11.22389"><ele>360.6666666666667</ele><time>2026-05-01T08:41:28.576Z</time></trkpt><trkpt lat="43.4772738" lon="11.2238184"><ele>360.0</ele><time>2026-05-01T08:41:29.595Z</time></trkpt><trkpt lat="43.477201" lon="11.2237711"><ele>359.3333333333333</ele><time>2026-05-01T08:41:30.595Z</time></trkpt><trkpt lat="43.4771241" lon="11.2237374"><ele>358.66666666666663</ele><time>2026-05-01T08:41:31.6Z</time></trkpt><trkpt lat="43.4770444" lon="11.2237105"><ele>358.0</ele><time>2026-05-01T08:41:32.602Z</time></trkpt><trkpt lat="43.4769637" lon="11.2236875"><ele>358.0</ele><time>2026-05-01T08:41:33.598Z</time></trkpt><trkpt lat="43.4768805" lon="11.2236706"><ele>358.0</ele><time>2026-05-01T08:41:34.584Z</time></trkpt><trkpt lat="43.4767963" lon="11.2236458"><ele>358.0</ele><time>2026-05-01T08:41:35.601Z</time></trkpt><trkpt lat="43.4767124" lon="11.2236166"><ele>358.0</ele><time>2026-05-01T08:41:36.582Z</time></trkpt><trkpt lat="43.4766323" lon="11.223578"><ele>358.0</ele><time>2026-05-01T08:41:37.595Z</time></trkpt><trkpt lat="43.4765563" lon="11.2235385"><ele>358.0</ele><time>2026-05-01T08:41:38.589Z</time></trkpt><trkpt lat="43.4764834" lon="11.2235057"><ele>358.0</ele><time>2026-05-01T08:41:39.573Z</time></trkpt><trkpt lat="43.4764075" lon="11.2234752"><ele>358.0</ele><time>2026-05-01T08:41:40.586Z</time></trkpt><trkpt lat="43.476331" lon="11.2234381"><ele>358.0</ele><time>2026-05-01T08:41:41.588Z</time></trkpt><trkpt lat="43.4762542" lon="11.223398"><ele>358.0</ele><time>2026-05-01T08:41:42.587Z</time></trkpt><trkpt lat="43.4761805" lon="11.223355"><ele>358.0</ele><time>2026-05-01T08:41:43.589Z</time></trkpt><trkpt lat="43.4761045" lon="11.2233088"><ele>358.0</ele><time>2026-05-01T08:41:44.597Z</time></trkpt><trkpt lat="43.4760324" lon="11.2232598"><ele>357.0</ele><time>2026-05-01T08:41:45.592Z</time></trkpt><trkpt lat="43.4759626" lon="11.2231967"><ele>356.0</ele><time>2026-05-01T08:41:46.583Z</time></trkpt><trkpt lat="43.4758987" lon="11.2231199"><ele>355.0</ele><time>2026-05-01T08:41:47.581Z</time></trkpt><trkpt lat="43.4758425" lon="11.2230297"><ele>354.0</ele><time>2026-05-01T08:41:48.582Z</time></trkpt><trkpt lat="43.4757973" lon="11.2229313"><ele>353.0</ele><time>2026-05-01T08:41:49.586Z</time></trkpt><trkpt lat="43.4757627" lon="11.2228301"><ele>352.0</ele><time>2026-05-01T08:41:50.599Z</time></trkpt><trkpt lat="43.4757504" lon="11.2227213"><ele>352.0</ele><time>2026-05-01T08:41:51.591Z</time></trkpt><trkpt lat="43.4757668" lon="11.2226117"><ele>352.0</ele><time>2026-05-01T08:41:52.594Z</time></trkpt><trkpt lat="43.4757982" lon="11.2225028"><ele>352.0</ele><time>2026-05-01T08:41:53.601Z</time></trkpt><trkpt lat="43.4758249" lon="11.2223968"><ele>352.0</ele><time>2026-05-01T08:41:54.596Z</time></trkpt><trkpt lat="43.475837" lon="11.2222838"><ele>352.0</ele><time>2026-05-01T08:41:55.589Z</time></trkpt><trkpt lat="43.4758301" lon="11.2221816"><ele>352.0</ele><time>2026-05-01T08:41:56.591Z</time></trkpt><trkpt lat="43.4757953" lon="11.2220926"><ele>352.7142857142857</ele><time>2026-05-01T08:41:57.587Z</time></trkpt><trkpt lat="43.4757456" lon="11.2220232"><ele>353.42857142857144</ele><time>2026-05-01T08:41:58.608Z</time></trkpt><trkpt lat="43.4756942" lon="11.2219671"><ele>354.1428571428571</ele><time>2026-05-01T08:41:59.586Z</time></trkpt><trkpt lat="43.4756328" lon="11.2219133"><ele>354.8571428571429</ele><time>2026-05-01T08:42:00.579Z</time></trkpt><trkpt lat="43.4755637" lon="11.2218791"><ele>355.57142857142856</ele><time>2026-05-01T08:42:01.585Z</time></trkpt><trkpt lat="43.475485" lon="11.2218501"><ele>356.2857142857143</ele><time>2026-05-01T08:42:02.591Z</time></trkpt><trkpt lat="43.4754049" lon="11.2218243"><ele>357.0</ele><time>2026-05-01T08:42:03.583Z</time></trkpt><trkpt lat="43.4753211" lon="11.2218013"><ele>355.0</ele><time>2026-05-01T08:42:04.59Z</time></trkpt><trkpt lat="43.4752348" lon="11.2217746"><ele>353.0</ele><time>2026-05-01T08:42:05.611Z</time></trkpt><trkpt lat="43.4751501" lon="11.2217469"><ele>351.0</ele><time>2026-05-01T08:42:06.598Z</time></trkpt><trkpt lat="43.4750677" lon="11.2217052"><ele>349.0</ele><time>2026-05-01T08:42:07.577Z</time></trkpt><trkpt lat="43.4749947" lon="11.2216516"><ele>347.0</ele><time>2026-05-01T08:42:08.598Z</time></trkpt><trkpt lat="43.4749322" lon="11.2215747"><ele>345.0</ele><time>2026-05-01T08:42:09.586Z</time></trkpt><trkpt lat="43.4748841" lon="11.2214713"><ele>345.0</ele><time>2026-05-01T08:42:10.597Z</time></trkpt><trkpt lat="43.4748442" lon="11.2213602"><ele>345.0</ele><time>2026-05-01T08:42:11.583Z</time></trkpt><trkpt lat="43.4748434" lon="11.2212387"><ele>345.0</ele><time>2026-05-01T08:42:12.585Z</time></trkpt><trkpt lat="43.4748653" lon="11.2211238"><ele>345.0</ele><time>2026-05-01T08:42:13.59Z</time></trkpt><trkpt lat="43.4748887" lon="11.2210089"><ele>345.0</ele><time>2026-05-01T08:42:14.578Z</time></trkpt><trkpt lat="43.4749155" lon="11.2208917"><ele>345.0</ele><time>2026-05-01T08:42:15.594Z</time></trkpt><trkpt lat="43.4749466" lon="11.2207747"><ele>345.0</ele><time>2026-05-01T08:42:16.584Z</time></trkpt><trkpt lat="43.4749661" lon="11.2206626"><ele>345.0</ele><time>2026-05-01T08:42:17.593Z</time></trkpt><trkpt lat="43.4749727" lon="11.2205494"><ele>345.0</ele><time>2026-05-01T08:42:18.599Z</time></trkpt><trkpt lat="43.474975" lon="11.2204342"><ele>345.0</ele><time>2026-05-01T08:42:19.606Z</time></trkpt><trkpt lat="43.4749547" lon="11.2203266"><ele>345.0</ele><time>2026-05-01T08:42:20.587Z</time></trkpt><trkpt lat="43.4749022" lon="11.2202225"><ele>345.0</ele><time>2026-05-01T08:42:21.592Z</time></trkpt><trkpt lat="43.4748397" lon="11.2201214"><ele>345.5</ele><time>2026-05-01T08:42:22.582Z</time></trkpt><trkpt lat="43.4747738" lon="11.220036"><ele>346.0</ele><time>2026-05-01T08:42:23.585Z</time></trkpt><trkpt lat="43.4747134" lon="11.2199627"><ele>346.5</ele><time>2026-05-01T08:42:24.585Z</time></trkpt><trkpt lat="43.4746574" lon="11.2198973"><ele>347.0</ele><time>2026-05-01T08:42:25.583Z</time></trkpt><trkpt lat="43.4745875" lon="11.219854"><ele>347.5</ele><time>2026-05-01T08:42:26.603Z</time></trkpt><trkpt lat="43.4745081" lon="11.2198168"><ele>348.0</ele><time>2026-05-01T08:42:27.595Z</time></trkpt><trkpt lat="43.4744211" lon="11.2197798"><ele>346.79999999999995</ele><time>2026-05-01T08:42:28.58Z</time></trkpt><trkpt lat="43.4743294" lon="11.2197397"><ele>345.6</ele><time>2026-05-01T08:42:29.609Z</time></trkpt><trkpt lat="43.4742342" lon="11.2197058"><ele>344.4</ele><time>2026-05-01T08:42:30.614Z</time></trkpt><trkpt lat="43.4741453" lon="11.219674"><ele>343.20000000000005</ele><time>2026-05-01T08:42:31.598Z</time></trkpt><trkpt lat="43.4740594" lon="11.2196376"><ele>342.0</ele><time>2026-05-01T08:42:32.607Z</time></trkpt><trkpt lat="43.4739706" lon="11.2195973"><ele>342.0</ele><time>2026-05-01T08:42:33.604Z</time></trkpt><trkpt lat="43.4738837" lon="11.2195547"><ele>342.0</ele><time>2026-05-01T08:42:34.605Z</time></trkpt><trkpt lat="43.4737964" lon="11.2195099"><ele>342.0</ele><time>2026-05-01T08:42:35.586Z</time></trkpt><trkpt lat="43.4737171" lon="11.2194465"><ele>342.0</ele><time>2026-05-01T08:42:36.597Z</time></trkpt><trkpt lat="43.4736396" lon="11.2193685"><ele>342.0</ele><time>2026-05-01T08:42:37.586Z</time></trkpt><trkpt lat="43.4735873" lon="11.2192787"><ele>339.6666666666667</ele><time>2026-05-01T08:42:38.594Z</time></trkpt><trkpt lat="43.4735687" lon="11.2191756"><ele>337.3333333333333</ele><time>2026-05-01T08:42:39.59Z</time></trkpt><trkpt lat="43.4735736" lon="11.2190647"><ele>335.0</ele><time>2026-05-01T08:42:40.595Z</time></trkpt><trkpt lat="43.4735936" lon="11.2189528"><ele>332.66666666666663</ele><time>2026-05-01T08:42:41.598Z</time></trkpt><trkpt lat="43.4736331" lon="11.2188611"><ele>330.3333333333333</ele><time>2026-05-01T08:42:42.592Z</time></trkpt><trkpt lat="43.4736787" lon="11.218771"><ele>328.0</ele><time>2026-05-01T08:42:43.583Z</time></trkpt><trkpt lat="43.4737311" lon="11.2186802"><ele>329.0</ele><time>2026-05-01T08:42:44.597Z</time></trkpt><trkpt lat="43.473783" lon="11.2185962"><ele>330.0</ele><time>2026-05-01T08:42:45.607Z</time></trkpt><trkpt lat="43.4738326" lon="11.2185118"><ele>331.0</ele><time>2026-05-01T08:42:46.598Z</time></trkpt><trkpt lat="43.4738737" lon="11.2184271"><ele>332.0</ele><time>2026-05-01T08:42:47.589Z</time></trkpt><trkpt lat="43.4739091" lon="11.218335"><ele>333.0</ele><time>2026-05-01T08:42:48.582Z</time></trkpt><trkpt lat="43.4739265" lon="11.2182455"><ele>334.0</ele><time>2026-05-01T08:42:49.604Z</time></trkpt><trkpt lat="43.473877" lon="11.2180961"><ele>334.0</ele><time>2026-05-01T08:42:51.603Z</time></trkpt><trkpt lat="43.4738085" lon="11.2180325"><ele>334.0</ele><time>2026-05-01T08:42:52.61Z</time></trkpt><trkpt lat="43.4737269" lon="11.2179861"><ele>334.0</ele><time>2026-05-01T08:42:53.605Z</time></trkpt><trkpt lat="43.4736465" lon="11.2179541"><ele>334.0</ele><time>2026-05-01T08:42:54.586Z</time></trkpt><trkpt lat="43.4735689" lon="11.217928"><ele>334.0</ele><time>2026-05-01T08:42:55.589Z</time></trkpt><trkpt lat="43.473491" lon="11.2179095"><ele>334.0</ele><time>2026-05-01T08:42:56.606Z</time></trkpt><trkpt lat="43.4734088" lon="11.2178893"><ele>333.6</ele><time>2026-05-01T08:42:57.588Z</time></trkpt><trkpt lat="43.4733264" lon="11.2178544"><ele>333.2</ele><time>2026-05-01T08:42:58.585Z</time></trkpt><trkpt lat="43.4732395" lon="11.2178112"><ele>332.8</ele><time>2026-05-01T08:42:59.604Z</time></trkpt><trkpt lat="43.4731478" lon="11.2177519"><ele>332.40000000000003</ele><time>2026-05-01T08:43:00.631Z</time></trkpt><trkpt lat="43.473061" lon="11.2176955"><ele>332.0</ele><time>2026-05-01T08:43:01.597Z</time></trkpt><trkpt lat="43.4729802" lon="11.2176343"><ele>330.33333333333337</ele><time>2026-05-01T08:43:02.593Z</time></trkpt><trkpt lat="43.4729038" lon="11.2175731"><ele>328.6666666666667</ele><time>2026-05-01T08:43:03.591Z</time></trkpt><trkpt lat="43.4728341" lon="11.2175051"><ele>327.0</ele><time>2026-05-01T08:43:04.591Z</time></trkpt><trkpt lat="43.4727669" lon="11.2174391"><ele>325.3333333333333</ele><time>2026-05-01T08:43:05.596Z</time></trkpt><trkpt lat="43.472703" lon="11.2173713"><ele>323.66666666666663</ele><time>2026-05-01T08:43:06.591Z</time></trkpt><trkpt lat="43.4726446" lon="11.2172896"><ele>322.0</ele><time>2026-05-01T08:43:07.592Z</time></trkpt><trkpt lat="43.4725956" lon="11.217197"><ele>322.0</ele><time>2026-05-01T08:43:08.591Z</time></trkpt><trkpt lat="43.4725575" lon="11.2170987"><ele>322.0</ele><time>2026-05-01T08:43:09.583Z</time></trkpt><trkpt lat="43.4725271" lon="11.2169953"><ele>322.0</ele><time>2026-05-01T08:43:10.589Z</time></trkpt><trkpt lat="43.472508" lon="11.2168972"><ele>322.0</ele><time>2026-05-01T08:43:11.579Z</time></trkpt><trkpt lat="43.4724931" lon="11.2167874"><ele>322.0</ele><time>2026-05-01T08:43:12.609Z</time></trkpt><trkpt lat="43.4724948" lon="11.2166789"><ele>322.0</ele><time>2026-05-01T08:43:13.59Z</time></trkpt><trkpt lat="43.4725125" lon="11.2165738"><ele>320.66666666666663</ele><time>2026-05-01T08:43:14.595Z</time></trkpt><trkpt lat="43.4725502" lon="11.2164664"><ele>319.3333333333333</ele><time>2026-05-01T08:43:15.593Z</time></trkpt><trkpt lat="43.4725929" lon="11.2163735"><ele>318.0</ele><time>2026-05-01T08:43:16.589Z</time></trkpt><trkpt lat="43.4726399" lon="11.2162912"><ele>316.6666666666667</ele><time>2026-05-01T08:43:17.627Z</time></trkpt><trkpt lat="43.4726885" lon="11.216212"><ele>315.33333333333337</ele><time>2026-05-01T08:43:18.585Z</time></trkpt><trkpt lat="43.4727446" lon="11.2161473"><ele>314.0</ele><time>2026-05-01T08:43:19.594Z</time></trkpt><trkpt lat="43.472798" lon="11.2160925"><ele>313.99999999999994</ele><time>2026-05-01T08:43:20.601Z</time></trkpt><trkpt lat="43.472861" lon="11.2160539"><ele>314.0</ele><time>2026-05-01T08:43:21.599Z</time></trkpt><trkpt lat="43.4729304" lon="11.2160302"><ele>314.0</ele><time>2026-05-01T08:43:22.613Z</time></trkpt><trkpt lat="43.4730034" lon="11.2160145"><ele>314.0</ele><time>2026-05-01T08:43:23.601Z</time></trkpt><trkpt lat="43.473075" lon="11.2160121"><ele>314.0</ele><time>2026-05-01T08:43:24.587Z</time></trkpt><trkpt lat="43.4731508" lon="11.2160188"><ele>313.99999999999994</ele><time>2026-05-01T08:43:25.593Z</time></trkpt><trkpt lat="43.4732273" lon="11.2160306"><ele>314.0</ele><time>2026-05-01T08:43:26.585Z</time></trkpt><trkpt lat="43.4733071" lon="11.2160377"><ele>314.6666666666667</ele><time>2026-05-01T08:43:27.583Z</time></trkpt><trkpt lat="43.4733905" lon="11.2160644"><ele>315.33333333333337</ele><time>2026-05-01T08:43:28.593Z</time></trkpt><trkpt lat="43.4734639" lon="11.2161118"><ele>316.0</ele><time>2026-05-01T08:43:29.59Z</time></trkpt><trkpt lat="43.4735344" lon="11.216157"><ele>316.6666666666667</ele><time>2026-05-01T08:43:30.613Z</time></trkpt><trkpt lat="43.4735986" lon="11.2162068"><ele>317.3333333333333</ele><time>2026-05-01T08:43:31.615Z</time></trkpt><trkpt lat="43.473658" lon="11.2162574"><ele>318.0</ele><time>2026-05-01T08:43:32.589Z</time></trkpt><trkpt lat="43.4737183" lon="11.2163092"><ele>318.6</ele><time>2026-05-01T08:43:33.586Z</time></trkpt><trkpt lat="43.4737745" lon="11.2163545"><ele>319.20000000000005</ele><time>2026-05-01T08:43:34.596Z</time></trkpt><trkpt lat="43.473879" lon="11.2164436"><ele>319.8</ele><time>2026-05-01T08:43:36.585Z</time></trkpt><trkpt lat="43.4739862" lon="11.2165316"><ele>320.40000000000003</ele><time>2026-05-01T08:43:38.593Z</time></trkpt><trkpt lat="43.4740956" lon="11.2166081"><ele>321.0</ele><time>2026-05-01T08:43:40.589Z</time></trkpt><trkpt lat="43.4742186" lon="11.2166574"><ele>321.0</ele><time>2026-05-01T08:43:42.588Z</time></trkpt><trkpt lat="43.4742838" lon="11.2166755"><ele>321.0</ele><time>2026-05-01T08:43:43.584Z</time></trkpt><trkpt lat="43.4743499" lon="11.216697"><ele>321.0</ele><time>2026-05-01T08:43:44.574Z</time></trkpt><trkpt lat="43.4744137" lon="11.2167163"><ele>321.0</ele><time>2026-05-01T08:43:45.599Z</time></trkpt><trkpt lat="43.4744752" lon="11.216735"><ele>321.0</ele><time>2026-05-01T08:43:46.601Z</time></trkpt><trkpt lat="43.4745962" lon="11.216771"><ele>321.0</ele><time>2026-05-01T08:43:48.578Z</time></trkpt><trkpt lat="43.4747193" lon="11.216797"><ele>320.5</ele><time>2026-05-01T08:43:50.585Z</time></trkpt><trkpt lat="43.4748416" lon="11.2168057"><ele>320.0</ele><time>2026-05-01T08:43:52.603Z</time></trkpt><trkpt lat="43.4749586" lon="11.2167763"><ele>319.5</ele><time>2026-05-01T08:43:54.587Z</time></trkpt><trkpt lat="43.475016" lon="11.2167398"><ele>319.0</ele><time>2026-05-01T08:43:55.587Z</time></trkpt><trkpt lat="43.4750695" lon="11.2166898"><ele>318.5</ele><time>2026-05-01T08:43:56.587Z</time></trkpt><trkpt lat="43.4751182" lon="11.2166285"><ele>318.0</ele><time>2026-05-01T08:43:57.591Z</time></trkpt><trkpt lat="43.4751626" lon="11.2165526"><ele>316.6666666666667</ele><time>2026-05-01T08:43:58.604Z</time></trkpt><trkpt lat="43.4751923" lon="11.2164654"><ele>315.3333333333333</ele><time>2026-05-01T08:43:59.61Z</time></trkpt><trkpt lat="43.4752106" lon="11.2163715"><ele>314.0</ele><time>2026-05-01T08:44:00.588Z</time></trkpt><trkpt lat="43.4752239" lon="11.2162816"><ele>312.66666666666663</ele><time>2026-05-01T08:44:01.59Z</time></trkpt><trkpt lat="43.4752321" lon="11.2161953"><ele>311.3333333333333</ele><time>2026-05-01T08:44:02.6Z</time></trkpt><trkpt lat="43.4752368" lon="11.2160276"><ele>310.0</ele><time>2026-05-01T08:44:04.592Z</time></trkpt><trkpt lat="43.4752478" lon="11.215864"><ele>310.0</ele><time>2026-05-01T08:44:06.59Z</time></trkpt><trkpt lat="43.4752555" lon="11.2157036"><ele>310.0</ele><time>2026-05-01T08:44:08.582Z</time></trkpt><trkpt lat="43.475275" lon="11.2155347"><ele>310.0</ele><time>2026-05-01T08:44:10.576Z</time></trkpt><trkpt lat="43.4753048" lon="11.2153646"><ele>310.0</ele><time>2026-05-01T08:44:12.586Z</time></trkpt><trkpt lat="43.4753454" lon="11.2152087"><ele>310.14285714285717</ele><time>2026-05-01T08:44:14.585Z</time></trkpt><trkpt lat="43.4753957" lon="11.2150556"><ele>310.2857142857143</ele><time>2026-05-01T08:44:16.581Z</time></trkpt><trkpt lat="43.4754254" lon="11.2149788"><ele>310.42857142857144</ele><time>2026-05-01T08:44:17.594Z</time></trkpt><trkpt lat="43.4754581" lon="11.2149018"><ele>310.57142857142856</ele><time>2026-05-01T08:44:18.603Z</time></trkpt><trkpt lat="43.4754908" lon="11.214824"><ele>310.7142857142857</ele><time>2026-05-01T08:44:19.596Z</time></trkpt><trkpt lat="43.4755222" lon="11.214744"><ele>310.85714285714283</ele><time>2026-05-01T08:44:20.602Z</time></trkpt><trkpt lat="43.4755525" lon="11.2146662"><ele>311.0</ele><time>2026-05-01T08:44:21.599Z</time></trkpt><trkpt lat="43.4755847" lon="11.2145885"><ele>311.0</ele><time>2026-05-01T08:44:22.595Z</time></trkpt><trkpt lat="43.4756189" lon="11.2145094"><ele>311.0</ele><time>2026-05-01T08:44:23.584Z</time></trkpt><trkpt lat="43.4756522" lon="11.2144292"><ele>311.0</ele><time>2026-05-01T08:44:24.584Z</time></trkpt><trkpt lat="43.4756884" lon="11.2143478"><ele>311.0</ele><time>2026-05-01T08:44:25.603Z</time></trkpt><trkpt lat="43.4757239" lon="11.214266"><ele>311.0</ele><time>2026-05-01T08:44:26.597Z</time></trkpt><trkpt lat="43.4757639" lon="11.2141858"><ele>311.0</ele><time>2026-05-01T08:44:27.586Z</time></trkpt><trkpt lat="43.4758042" lon="11.2141036"><ele>311.0</ele><time>2026-05-01T08:44:28.591Z</time></trkpt><trkpt lat="43.4758466" lon="11.2140302"><ele>310.2857142857143</ele><time>2026-05-01T08:44:29.6Z</time></trkpt><trkpt lat="43.4758986" lon="11.2139722"><ele>309.5714285714286</ele><time>2026-05-01T08:44:30.607Z</time></trkpt><trkpt lat="43.4759603" lon="11.2139202"><ele>308.8571428571429</ele><time>2026-05-01T08:44:31.583Z</time></trkpt><trkpt lat="43.4760282" lon="11.2138801"><ele>308.1428571428571</ele><time>2026-05-01T08:44:32.58Z</time></trkpt><trkpt lat="43.4760979" lon="11.2138529"><ele>307.42857142857144</ele><time>2026-05-01T08:44:33.597Z</time></trkpt><trkpt lat="43.4761694" lon="11.2138401"><ele>306.7142857142857</ele><time>2026-05-01T08:44:34.586Z</time></trkpt><trkpt lat="43.4762416" lon="11.213835"><ele>306.0</ele><time>2026-05-01T08:44:35.585Z</time></trkpt><trkpt lat="43.4763135" lon="11.2138275"><ele>306.0</ele><time>2026-05-01T08:44:36.575Z</time></trkpt><trkpt lat="43.4763843" lon="11.2138152"><ele>306.0</ele><time>2026-05-01T08:44:37.595Z</time></trkpt><trkpt lat="43.4764519" lon="11.2137976"><ele>306.0</ele><time>2026-05-01T08:44:38.596Z</time></trkpt><trkpt lat="43.476518" lon="11.2137682"><ele>306.0</ele><time>2026-05-01T08:44:39.595Z</time></trkpt><trkpt lat="43.4765821" lon="11.2137225"><ele>306.0</ele><time>2026-05-01T08:44:40.602Z</time></trkpt><trkpt lat="43.4766406" lon="11.2136608"><ele>306.0</ele><time>2026-05-01T08:44:41.593Z</time></trkpt><trkpt lat="43.4766937" lon="11.2135851"><ele>306.0</ele><time>2026-05-01T08:44:42.589Z</time></trkpt><trkpt lat="43.4767413" lon="11.2135009"><ele>306.0</ele><time>2026-05-01T08:44:43.586Z</time></trkpt><trkpt lat="43.4767821" lon="11.2134086"><ele>306.0</ele><time>2026-05-01T08:44:44.597Z</time></trkpt><trkpt lat="43.4768177" lon="11.2133141"><ele>306.0</ele><time>2026-05-01T08:44:45.589Z</time></trkpt><trkpt lat="43.4768466" lon="11.2132116"><ele>306.0</ele><time>2026-05-01T08:44:46.593Z</time></trkpt><trkpt lat="43.4768645" lon="11.2131043"><ele>306.0</ele><time>2026-05-01T08:44:47.59Z</time></trkpt><trkpt lat="43.4768706" lon="11.2129958"><ele>306.0</ele><time>2026-05-01T08:44:48.59Z</time></trkpt><trkpt lat="43.4768716" lon="11.2128876"><ele>305.3333333333333</ele><time>2026-05-01T08:44:49.593Z</time></trkpt><trkpt lat="43.4768669" lon="11.2127778"><ele>304.6666666666667</ele><time>2026-05-01T08:44:50.59Z</time></trkpt><trkpt lat="43.4768561" lon="11.2126662"><ele>304.0</ele><time>2026-05-01T08:44:51.589Z</time></trkpt><trkpt lat="43.4768412" lon="11.2125552"><ele>303.33333333333337</ele><time>2026-05-01T08:44:52.587Z</time></trkpt><trkpt lat="43.4768265" lon="11.2124446"><ele>302.6666666666667</ele><time>2026-05-01T08:44:53.601Z</time></trkpt><trkpt lat="43.4768109" lon="11.2123351"><ele>302.0</ele><time>2026-05-01T08:44:54.598Z</time></trkpt><trkpt lat="43.4767956" lon="11.2122237"><ele>301.6666666666667</ele><time>2026-05-01T08:44:55.593Z</time></trkpt><trkpt lat="43.4767824" lon="11.2121114"><ele>301.33333333333337</ele><time>2026-05-01T08:44:56.58Z</time></trkpt><trkpt lat="43.4767706" lon="11.2119952"><ele>301.0</ele><time>2026-05-01T08:44:57.6Z</time></trkpt><trkpt lat="43.4767585" lon="11.2118801"><ele>300.6666666666667</ele><time>2026-05-01T08:44:58.587Z</time></trkpt><trkpt lat="43.4767473" lon="11.211762"><ele>300.3333333333333</ele><time>2026-05-01T08:44:59.592Z</time></trkpt><trkpt lat="43.4767412" lon="11.2116478"><ele>300.0</ele><time>2026-05-01T08:45:00.593Z</time></trkpt><trkpt lat="43.4767446" lon="11.2115343"><ele>301.1666666666667</ele><time>2026-05-01T08:45:01.582Z</time></trkpt><trkpt lat="43.4767607" lon="11.211421"><ele>302.3333333333333</ele><time>2026-05-01T08:45:02.592Z</time></trkpt><trkpt lat="43.4767845" lon="11.2113156"><ele>303.5</ele><time>2026-05-01T08:45:03.593Z</time></trkpt><trkpt lat="43.4768168" lon="11.211215"><ele>304.66666666666663</ele><time>2026-05-01T08:45:04.589Z</time></trkpt><trkpt lat="43.4768559" lon="11.211123"><ele>305.8333333333333</ele><time>2026-05-01T08:45:05.601Z</time></trkpt><trkpt lat="43.4768948" lon="11.2110367"><ele>307.0</ele><time>2026-05-01T08:45:06.579Z</time></trkpt><trkpt lat="43.4769364" lon="11.2109522"><ele>307.0</ele><time>2026-05-01T08:45:07.606Z</time></trkpt><trkpt lat="43.4769794" lon="11.2108741"><ele>307.0</ele><time>2026-05-01T08:45:08.592Z</time></trkpt><trkpt lat="43.4770237" lon="11.2107991"><ele>307.0</ele><time>2026-05-01T08:45:09.596Z</time></trkpt><trkpt lat="43.4770699" lon="11.2107301"><ele>307.0</ele><time>2026-05-01T08:45:10.592Z</time></trkpt><trkpt lat="43.4771172" lon="11.2106667"><ele>307.0</ele><time>2026-05-01T08:45:11.585Z</time></trkpt><trkpt lat="43.4772054" lon="11.210551"><ele>307.0</ele><time>2026-05-01T08:45:13.588Z</time></trkpt><trkpt lat="43.4772945" lon="11.2104456"><ele>305.8</ele><time>2026-05-01T08:45:15.602Z</time></trkpt><trkpt lat="43.4773648" lon="11.2103243"><ele>304.6</ele><time>2026-05-01T08:45:17.585Z</time></trkpt><trkpt lat="43.4774382" lon="11.2102034"><ele>303.40000000000003</ele><time>2026-05-01T08:45:19.581Z</time></trkpt><trkpt lat="43.4775052" lon="11.2100856"><ele>302.2</ele><time>2026-05-01T08:45:21.596Z</time></trkpt><trkpt lat="43.4775613" lon="11.2099689"><ele>301.0</ele><time>2026-05-01T08:45:23.596Z</time></trkpt><trkpt lat="43.4776217" lon="11.2098555"><ele>300.40000000000003</ele><time>2026-05-01T08:45:25.583Z</time></trkpt><trkpt lat="43.4776872" lon="11.2097415"><ele>299.8</ele><time>2026-05-01T08:45:27.583Z</time></trkpt><trkpt lat="43.4777471" lon="11.2096196"><ele>299.20000000000005</ele><time>2026-05-01T08:45:29.609Z</time></trkpt><trkpt lat="43.4778063" lon="11.2094925"><ele>298.6</ele><time>2026-05-01T08:45:31.597Z</time></trkpt><trkpt lat="43.4778636" lon="11.2093738"><ele>298.0</ele><time>2026-05-01T08:45:33.597Z</time></trkpt><trkpt lat="43.4779098" lon="11.2092426"><ele>299.4</ele><time>2026-05-01T08:45:35.576Z</time></trkpt><trkpt lat="43.4779545" lon="11.2091083"><ele>300.8</ele><time>2026-05-01T08:45:37.597Z</time></trkpt><trkpt lat="43.4779883" lon="11.2089635"><ele>302.2</ele><time>2026-05-01T08:45:39.59Z</time></trkpt><trkpt lat="43.4780295" lon="11.2088236"><ele>303.6</ele><time>2026-05-01T08:45:41.588Z</time></trkpt><trkpt lat="43.4780605" lon="11.208687"><ele>305.0</ele><time>2026-05-01T08:45:43.583Z</time></trkpt><trkpt lat="43.4780797" lon="11.2085407"><ele>305.2</ele><time>2026-05-01T08:45:45.59Z</time></trkpt><trkpt lat="43.4780832" lon="11.2083981"><ele>305.4</ele><time>2026-05-01T08:45:47.587Z</time></trkpt><trkpt lat="43.4780933" lon="11.2082523"><ele>305.6</ele><time>2026-05-01T08:45:49.584Z</time></trkpt><trkpt lat="43.4780934" lon="11.2080973"><ele>305.8</ele><time>2026-05-01T08:45:51.604Z</time></trkpt><trkpt lat="43.4780898" lon="11.2079472"><ele>306.0</ele><time>2026-05-01T08:45:53.593Z</time></trkpt><trkpt lat="43.4780874" lon="11.2077939"><ele>305.6</ele><time>2026-05-01T08:45:55.59Z</time></trkpt><trkpt lat="43.4780891" lon="11.2076338"><ele>305.20000000000005</ele><time>2026-05-01T08:45:57.592Z</time></trkpt><trkpt lat="43.4780858" lon="11.2074826"><ele>304.79999999999995</ele><time>2026-05-01T08:45:59.593Z</time></trkpt><trkpt lat="43.4780802" lon="11.2073333"><ele>304.4</ele><time>2026-05-01T08:46:01.592Z</time></trkpt><trkpt lat="43.4780684" lon="11.2071784"><ele>304.0</ele><time>2026-05-01T08:46:03.579Z</time></trkpt><trkpt lat="43.4780418" lon="11.2070216"><ele>302.75</ele><time>2026-05-01T08:46:05.602Z</time></trkpt><trkpt lat="43.4780058" lon="11.2068716"><ele>301.5</ele><time>2026-05-01T08:46:07.578Z</time></trkpt><trkpt lat="43.4779696" lon="11.2067164"><ele>300.25</ele><time>2026-05-01T08:46:09.597Z</time></trkpt><trkpt lat="43.4779372" lon="11.2065651"><ele>299.0</ele><time>2026-05-01T08:46:11.607Z</time></trkpt><trkpt lat="43.4778965" lon="11.2064198"><ele>298.2</ele><time>2026-05-01T08:46:13.577Z</time></trkpt><trkpt lat="43.477848" lon="11.20627"><ele>297.4</ele><time>2026-05-01T08:46:15.58Z</time></trkpt><trkpt lat="43.4777968" lon="11.2061196"><ele>296.6</ele><time>2026-05-01T08:46:17.588Z</time></trkpt><trkpt lat="43.477736" lon="11.2059715"><ele>295.8</ele><time>2026-05-01T08:46:19.58Z</time></trkpt><trkpt lat="43.4777027" lon="11.2058963"><ele>295.0</ele><time>2026-05-01T08:46:20.588Z</time></trkpt><trkpt lat="43.4776728" lon="11.2058177"><ele>295.00000000000006</ele><time>2026-05-01T08:46:21.596Z</time></trkpt><trkpt lat="43.4776427" lon="11.2057415"><ele>295.0</ele><time>2026-05-01T08:46:22.582Z</time></trkpt><trkpt lat="43.4776162" lon="11.2056616"><ele>295.0</ele><time>2026-05-01T08:46:23.589Z</time></trkpt><trkpt lat="43.4775898" lon="11.2055804"><ele>295.0</ele><time>2026-05-01T08:46:24.601Z</time></trkpt><trkpt lat="43.4775606" lon="11.2055035"><ele>295.0</ele><time>2026-05-01T08:46:25.587Z</time></trkpt><trkpt lat="43.4775282" lon="11.2054238"><ele>295.00000000000006</ele><time>2026-05-01T08:46:26.602Z</time></trkpt><trkpt lat="43.4774978" lon="11.2053412"><ele>295.0</ele><time>2026-05-01T08:46:27.599Z</time></trkpt><trkpt lat="43.4774675" lon="11.2052562"><ele>295.14285714285717</ele><time>2026-05-01T08:46:28.587Z</time></trkpt><trkpt lat="43.4774367" lon="11.2051725"><ele>295.2857142857143</ele><time>2026-05-01T08:46:29.581Z</time></trkpt><trkpt lat="43.4774073" lon="11.2050877"><ele>295.42857142857144</ele><time>2026-05-01T08:46:30.614Z</time></trkpt><trkpt lat="43.4773788" lon="11.2050029"><ele>295.57142857142856</ele><time>2026-05-01T08:46:31.583Z</time></trkpt><trkpt lat="43.477348" lon="11.204915"><ele>295.7142857142857</ele><time>2026-05-01T08:46:32.58Z</time></trkpt><trkpt lat="43.4773158" lon="11.2048254"><ele>295.8571428571429</ele><time>2026-05-01T08:46:33.588Z</time></trkpt><trkpt lat="43.4772848" lon="11.2047358"><ele>296.0</ele><time>2026-05-01T08:46:34.589Z</time></trkpt><trkpt lat="43.4772566" lon="11.2046411"><ele>295.7142857142857</ele><time>2026-05-01T08:46:35.588Z</time></trkpt><trkpt lat="43.477235" lon="11.2045439"><ele>295.42857142857144</ele><time>2026-05-01T08:46:36.582Z</time></trkpt><trkpt lat="43.4772248" lon="11.2044455"><ele>295.1428571428571</ele><time>2026-05-01T08:46:37.591Z</time></trkpt><trkpt lat="43.4772239" lon="11.2043459"><ele>294.8571428571429</ele><time>2026-05-01T08:46:38.576Z</time></trkpt><trkpt lat="43.4772265" lon="11.2042477"><ele>294.57142857142856</ele><time>2026-05-01T08:46:39.586Z</time></trkpt><trkpt lat="43.4772333" lon="11.2041517"><ele>294.2857142857143</ele><time>2026-05-01T08:46:40.586Z</time></trkpt><trkpt lat="43.4772506" lon="11.2040592"><ele>294.0</ele><time>2026-05-01T08:46:41.587Z</time></trkpt><trkpt lat="43.4772735" lon="11.2039731"><ele>295.14285714285717</ele><time>2026-05-01T08:46:42.591Z</time></trkpt><trkpt lat="43.4773016" lon="11.2038903"><ele>296.2857142857143</ele><time>2026-05-01T08:46:43.588Z</time></trkpt><trkpt lat="43.4773381" lon="11.2038126"><ele>297.42857142857144</ele><time>2026-05-01T08:46:44.59Z</time></trkpt><trkpt lat="43.4773797" lon="11.2037425"><ele>298.57142857142856</ele><time>2026-05-01T08:46:45.595Z</time></trkpt><trkpt lat="43.4774235" lon="11.2036782"><ele>299.7142857142857</ele><time>2026-05-01T08:46:46.597Z</time></trkpt><trkpt lat="43.4774721" lon="11.2036172"><ele>300.8571428571429</ele><time>2026-05-01T08:46:47.6Z</time></trkpt><trkpt lat="43.4775211" lon="11.2035627"><ele>302.0</ele><time>2026-05-01T08:46:48.588Z</time></trkpt><trkpt lat="43.4776153" lon="11.2034717"><ele>302.0</ele><time>2026-05-01T08:46:50.609Z</time></trkpt><trkpt lat="43.4777082" lon="11.2034172"><ele>302.0</ele><time>2026-05-01T08:46:52.599Z</time></trkpt><trkpt lat="43.4778055" lon="11.2033788"><ele>302.0</ele><time>2026-05-01T08:46:54.597Z</time></trkpt><trkpt lat="43.4779035" lon="11.2033665"><ele>302.0</ele><time>2026-05-01T08:46:56.584Z</time></trkpt><trkpt lat="43.4780028" lon="11.2033713"><ele>302.0</ele><time>2026-05-01T08:46:58.591Z</time></trkpt><trkpt lat="43.4781009" lon="11.2033786"><ele>302.4</ele><time>2026-05-01T08:47:00.596Z</time></trkpt><trkpt lat="43.4781947" lon="11.2034061"><ele>302.79999999999995</ele><time>2026-05-01T08:47:02.575Z</time></trkpt><trkpt lat="43.4782874" lon="11.2034483"><ele>303.2</ele><time>2026-05-01T08:47:04.578Z</time></trkpt><trkpt lat="43.4783791" lon="11.2034919"><ele>303.59999999999997</ele><time>2026-05-01T08:47:06.595Z</time></trkpt><trkpt lat="43.4784631" lon="11.2035399"><ele>304.0</ele><time>2026-05-01T08:47:08.593Z</time></trkpt><trkpt lat="43.4785465" lon="11.2035938"><ele>304.0</ele><time>2026-05-01T08:47:10.579Z</time></trkpt><trkpt lat="43.4786374" lon="11.2036535"><ele>304.0</ele><time>2026-05-01T08:47:12.586Z</time></trkpt><trkpt lat="43.4787256" lon="11.2037113"><ele>304.0</ele><time>2026-05-01T08:47:14.589Z</time></trkpt><trkpt lat="43.4788179" lon="11.2037588"><ele>304.0</ele><time>2026-05-01T08:47:16.596Z</time></trkpt><trkpt lat="43.4789164" lon="11.2037779"><ele>304.0</ele><time>2026-05-01T08:47:18.581Z</time></trkpt><trkpt lat="43.4790163" lon="11.2037756"><ele>303.2</ele><time>2026-05-01T08:47:20.582Z</time></trkpt><trkpt lat="43.479115" lon="11.2037567"><ele>302.4</ele><time>2026-05-01T08:47:22.597Z</time></trkpt><trkpt lat="43.4792113" lon="11.2037154"><ele>301.6</ele><time>2026-05-01T08:47:24.596Z</time></trkpt><trkpt lat="43.4792901" lon="11.2036465"><ele>300.8</ele><time>2026-05-01T08:47:26.586Z</time></trkpt><trkpt lat="43.4793574" lon="11.2035461"><ele>300.0</ele><time>2026-05-01T08:47:28.612Z</time></trkpt><trkpt lat="43.4794072" lon="11.2034225"><ele>300.0</ele><time>2026-05-01T08:47:30.601Z</time></trkpt><trkpt lat="43.4794309" lon="11.2032902"><ele>300.0</ele><time>2026-05-01T08:47:32.593Z</time></trkpt><trkpt lat="43.4794215" lon="11.2031549"><ele>300.0</ele><time>2026-05-01T08:47:34.602Z</time></trkpt><trkpt lat="43.4793933" lon="11.2030215"><ele>300.0</ele><time>2026-05-01T08:47:36.6Z</time></trkpt><trkpt lat="43.4793582" lon="11.2028957"><ele>300.0</ele><time>2026-05-01T08:47:38.585Z</time></trkpt><trkpt lat="43.4793182" lon="11.202772"><ele>300.6</ele><time>2026-05-01T08:47:40.588Z</time></trkpt><trkpt lat="43.4792793" lon="11.2026426"><ele>301.2</ele><time>2026-05-01T08:47:42.58Z</time></trkpt><trkpt lat="43.4792453" lon="11.2025122"><ele>301.8</ele><time>2026-05-01T08:47:44.589Z</time></trkpt><trkpt lat="43.479236" lon="11.2023752"><ele>302.4</ele><time>2026-05-01T08:47:46.598Z</time></trkpt><trkpt lat="43.4792529" lon="11.2022329"><ele>303.0</ele><time>2026-05-01T08:47:48.597Z</time></trkpt><trkpt lat="43.4792983" lon="11.2020983"><ele>303.6</ele><time>2026-05-01T08:47:50.604Z</time></trkpt><trkpt lat="43.4793679" lon="11.2019932"><ele>304.20000000000005</ele><time>2026-05-01T08:47:52.58Z</time></trkpt><trkpt lat="43.4794509" lon="11.2019227"><ele>304.8</ele><time>2026-05-01T08:47:54.585Z</time></trkpt><trkpt lat="43.4795427" lon="11.2018796"><ele>305.40000000000003</ele><time>2026-05-01T08:47:56.593Z</time></trkpt><trkpt lat="43.4796381" lon="11.2018396"><ele>306.0</ele><time>2026-05-01T08:47:58.61Z</time></trkpt><trkpt lat="43.4797224" lon="11.2017941"><ele>304.8333333333333</ele><time>2026-05-01T08:48:00.608Z</time></trkpt><trkpt lat="43.4797902" lon="11.2017444"><ele>303.6666666666667</ele><time>2026-05-01T08:48:02.589Z</time></trkpt><trkpt lat="43.479861" lon="11.2016892"><ele>302.5</ele><time>2026-05-01T08:48:04.589Z</time></trkpt><trkpt lat="43.479906" lon="11.2015896"><ele>301.33333333333337</ele><time>2026-05-01T08:48:06.586Z</time></trkpt><trkpt lat="43.4799317" lon="11.2014733"><ele>300.1666666666667</ele><time>2026-05-01T08:48:08.606Z</time></trkpt><trkpt lat="43.4799477" lon="11.2013572"><ele>299.0</ele><time>2026-05-01T08:48:10.6Z</time></trkpt><trkpt lat="43.4799449" lon="11.2012413"><ele>298.59999999999997</ele><time>2026-05-01T08:48:12.578Z</time></trkpt><trkpt lat="43.4799208" lon="11.2011124"><ele>298.2</ele><time>2026-05-01T08:48:14.589Z</time></trkpt><trkpt lat="43.4798831" lon="11.2009818"><ele>297.79999999999995</ele><time>2026-05-01T08:48:16.585Z</time></trkpt><trkpt lat="43.4798407" lon="11.2008442"><ele>297.4</ele><time>2026-05-01T08:48:18.585Z</time></trkpt><trkpt lat="43.4797924" lon="11.2007013"><ele>297.0</ele><time>2026-05-01T08:48:20.593Z</time></trkpt><trkpt lat="43.4797424" lon="11.2005437"><ele>297.0</ele><time>2026-05-01T08:48:22.589Z</time></trkpt><trkpt lat="43.4797267" lon="11.2004588"><ele>297.0</ele><time>2026-05-01T08:48:23.586Z</time></trkpt><trkpt lat="43.4797279" lon="11.2002864"><ele>297.0</ele><time>2026-05-01T08:48:25.571Z</time></trkpt><trkpt lat="43.4797424" lon="11.200196"><ele>297.0</ele><time>2026-05-01T08:48:26.592Z</time></trkpt><trkpt lat="43.4797692" lon="11.2001056"><ele>297.0</ele><time>2026-05-01T08:48:27.597Z</time></trkpt><trkpt lat="43.4798062" lon="11.2000223"><ele>297.0</ele><time>2026-05-01T08:48:28.597Z</time></trkpt><trkpt lat="43.4798434" lon="11.19995"><ele>298.25</ele><time>2026-05-01T08:48:29.588Z</time></trkpt><trkpt lat="43.4799228" lon="11.1998205"><ele>299.5</ele><time>2026-05-01T08:48:31.582Z</time></trkpt><trkpt lat="43.4800003" lon="11.1996972"><ele>300.75</ele><time>2026-05-01T08:48:33.583Z</time></trkpt><trkpt lat="43.4800683" lon="11.1995778"><ele>302.0</ele><time>2026-05-01T08:48:35.585Z</time></trkpt><trkpt lat="43.4801236" lon="11.1994543"><ele>302.0</ele><time>2026-05-01T08:48:37.584Z</time></trkpt><trkpt lat="43.4801613" lon="11.1993217"><ele>302.0</ele><time>2026-05-01T08:48:39.581Z</time></trkpt><trkpt lat="43.4801968" lon="11.1991851"><ele>302.0</ele><time>2026-05-01T08:48:41.575Z</time></trkpt><trkpt lat="43.4802355" lon="11.1990305"><ele>302.0</ele><time>2026-05-01T08:48:43.581Z</time></trkpt><trkpt lat="43.4802542" lon="11.1989471"><ele>302.0</ele><time>2026-05-01T08:48:44.577Z</time></trkpt><trkpt lat="43.4802744" lon="11.1988591"><ele>301.42857142857144</ele><time>2026-05-01T08:48:45.584Z</time></trkpt><trkpt lat="43.4802945" lon="11.1987685"><ele>300.8571428571429</ele><time>2026-05-01T08:48:46.592Z</time></trkpt><trkpt lat="43.480313" lon="11.1986766"><ele>300.2857142857143</ele><time>2026-05-01T08:48:47.6Z</time></trkpt><trkpt lat="43.4803301" lon="11.1985827"><ele>299.7142857142857</ele><time>2026-05-01T08:48:48.587Z</time></trkpt><trkpt lat="43.4803504" lon="11.1984872"><ele>299.1428571428571</ele><time>2026-05-01T08:48:49.581Z</time></trkpt><trkpt lat="43.480374" lon="11.1983879"><ele>298.57142857142856</ele><time>2026-05-01T08:48:50.614Z</time></trkpt><trkpt lat="43.4803966" lon="11.1982877"><ele>298.0</ele><time>2026-05-01T08:48:51.593Z</time></trkpt><trkpt lat="43.4804209" lon="11.1981873"><ele>297.8333333333333</ele><time>2026-05-01T08:48:52.608Z</time></trkpt><trkpt lat="43.4804494" lon="11.1980895"><ele>297.66666666666663</ele><time>2026-05-01T08:48:53.594Z</time></trkpt><trkpt lat="43.4804849" lon="11.1979965"><ele>297.5</ele><time>2026-05-01T08:48:54.59Z</time></trkpt><trkpt lat="43.4805234" lon="11.1979052"><ele>297.3333333333333</ele><time>2026-05-01T08:48:55.6Z</time></trkpt><trkpt lat="43.4805683" lon="11.1978189"><ele>297.1666666666667</ele><time>2026-05-01T08:48:56.596Z</time></trkpt><trkpt lat="43.4806191" lon="11.1977332"><ele>297.0</ele><time>2026-05-01T08:48:57.602Z</time></trkpt><trkpt lat="43.4806754" lon="11.1976573"><ele>297.0</ele><time>2026-05-01T08:48:58.582Z</time></trkpt><trkpt lat="43.4807382" lon="11.197588"><ele>297.0</ele><time>2026-05-01T08:48:59.595Z</time></trkpt><trkpt lat="43.4808064" lon="11.1975257"><ele>297.0</ele><time>2026-05-01T08:49:00.594Z</time></trkpt><trkpt lat="43.4808791" lon="11.1974719"><ele>297.0</ele><time>2026-05-01T08:49:01.597Z</time></trkpt><trkpt lat="43.4809553" lon="11.1974306"><ele>297.0</ele><time>2026-05-01T08:49:02.594Z</time></trkpt><trkpt lat="43.4810322" lon="11.1973963"><ele>297.0</ele><time>2026-05-01T08:49:03.583Z</time></trkpt><trkpt lat="43.4811092" lon="11.1973615"><ele>296.0</ele><time>2026-05-01T08:49:04.616Z</time></trkpt><trkpt lat="43.4811825" lon="11.1973239"><ele>295.0</ele><time>2026-05-01T08:49:05.596Z</time></trkpt><trkpt lat="43.4812562" lon="11.1972805"><ele>294.0</ele><time>2026-05-01T08:49:06.587Z</time></trkpt><trkpt lat="43.4813257" lon="11.1972327"><ele>293.0</ele><time>2026-05-01T08:49:07.614Z</time></trkpt><trkpt lat="43.4813926" lon="11.1971801"><ele>292.0</ele><time>2026-05-01T08:49:08.607Z</time></trkpt><trkpt lat="43.4814579" lon="11.1971214"><ele>291.0</ele><time>2026-05-01T08:49:09.587Z</time></trkpt><trkpt lat="43.4815171" lon="11.1970473"><ele>291.0</ele><time>2026-05-01T08:49:10.588Z</time></trkpt><trkpt lat="43.4815646" lon="11.1969577"><ele>291.0</ele><time>2026-05-01T08:49:11.599Z</time></trkpt><trkpt lat="43.4815963" lon="11.1968569"><ele>291.0</ele><time>2026-05-01T08:49:12.571Z</time></trkpt><trkpt lat="43.4816069" lon="11.1967396"><ele>291.0</ele><time>2026-05-01T08:49:13.578Z</time></trkpt><trkpt lat="43.4816005" lon="11.196619"><ele>291.0</ele><time>2026-05-01T08:49:14.596Z</time></trkpt><trkpt lat="43.4815714" lon="11.1965064"><ele>291.0</ele><time>2026-05-01T08:49:15.583Z</time></trkpt><trkpt lat="43.4815272" lon="11.1963999"><ele>290.8</ele><time>2026-05-01T08:49:16.593Z</time></trkpt><trkpt lat="43.481475" lon="11.1962967"><ele>290.6</ele><time>2026-05-01T08:49:17.599Z</time></trkpt><trkpt lat="43.481421" lon="11.1961896"><ele>290.4</ele><time>2026-05-01T08:49:18.613Z</time></trkpt><trkpt lat="43.4813639" lon="11.1960831"><ele>290.2</ele><time>2026-05-01T08:49:19.6Z</time></trkpt><trkpt lat="43.4813075" lon="11.1959722"><ele>290.0</ele><time>2026-05-01T08:49:20.6Z</time></trkpt><trkpt lat="43.4812501" lon="11.1958543"><ele>288.0</ele><time>2026-05-01T08:49:21.599Z</time></trkpt><trkpt lat="43.4811941" lon="11.1957342"><ele>286.0</ele><time>2026-05-01T08:49:22.591Z</time></trkpt><trkpt lat="43.4811423" lon="11.19561"><ele>284.0</ele><time>2026-05-01T08:49:23.586Z</time></trkpt><trkpt lat="43.4810921" lon="11.1954792"><ele>282.0</ele><time>2026-05-01T08:49:24.586Z</time></trkpt><trkpt lat="43.4810477" lon="11.1953413"><ele>280.0</ele><time>2026-05-01T08:49:25.582Z</time></trkpt><trkpt lat="43.4810098" lon="11.1951946"><ele>279.5</ele><time>2026-05-01T08:49:26.588Z</time></trkpt><trkpt lat="43.4809779" lon="11.1950469"><ele>279.0</ele><time>2026-05-01T08:49:27.573Z</time></trkpt><trkpt lat="43.480946" lon="11.1948991"><ele>278.5</ele><time>2026-05-01T08:49:28.607Z</time></trkpt><trkpt lat="43.4809174" lon="11.1947512"><ele>278.0</ele><time>2026-05-01T08:49:29.592Z</time></trkpt><trkpt lat="43.4808885" lon="11.1945971"><ele>278.0</ele><time>2026-05-01T08:49:30.577Z</time></trkpt><trkpt lat="43.4808605" lon="11.1944423"><ele>278.0</ele><time>2026-05-01T08:49:31.588Z</time></trkpt><trkpt lat="43.4808343" lon="11.1942894"><ele>278.0</ele><time>2026-05-01T08:49:32.592Z</time></trkpt><trkpt lat="43.4808118" lon="11.194144"><ele>278.0</ele><time>2026-05-01T08:49:33.602Z</time></trkpt><trkpt lat="43.4807963" lon="11.1940012"><ele>278.0</ele><time>2026-05-01T08:49:34.594Z</time></trkpt><trkpt lat="43.4807906" lon="11.193858"><ele>278.0</ele><time>2026-05-01T08:49:35.592Z</time></trkpt><trkpt lat="43.4807947" lon="11.1937118"><ele>278.0</ele><time>2026-05-01T08:49:36.588Z</time></trkpt><trkpt lat="43.4808047" lon="11.1935644"><ele>278.0</ele><time>2026-05-01T08:49:37.598Z</time></trkpt><trkpt lat="43.4808175" lon="11.1934215"><ele>278.0</ele><time>2026-05-01T08:49:38.593Z</time></trkpt><trkpt lat="43.4808206" lon="11.1932756"><ele>278.0</ele><time>2026-05-01T08:49:39.61Z</time></trkpt><trkpt lat="43.480812" lon="11.1931362"><ele>279.6</ele><time>2026-05-01T08:49:40.598Z</time></trkpt><trkpt lat="43.4807897" lon="11.1929963"><ele>281.20000000000005</ele><time>2026-05-01T08:49:41.59Z</time></trkpt><trkpt lat="43.4807508" lon="11.1928559"><ele>282.8</ele><time>2026-05-01T08:49:42.594Z</time></trkpt><trkpt lat="43.4806972" lon="11.1927164"><ele>284.40000000000003</ele><time>2026-05-01T08:49:43.605Z</time></trkpt><trkpt lat="43.4806347" lon="11.1925766"><ele>286.0</ele><time>2026-05-01T08:49:44.6Z</time></trkpt><trkpt lat="43.4805714" lon="11.192438"><ele>287.5</ele><time>2026-05-01T08:49:45.572Z</time></trkpt><trkpt lat="43.4805112" lon="11.1922984"><ele>289.0</ele><time>2026-05-01T08:49:46.585Z</time></trkpt><trkpt lat="43.4804594" lon="11.1921522"><ele>290.5</ele><time>2026-05-01T08:49:47.594Z</time></trkpt><trkpt lat="43.4804181" lon="11.192005"><ele>292.0</ele><time>2026-05-01T08:49:48.59Z</time></trkpt><trkpt lat="43.4803895" lon="11.1918551"><ele>286.6</ele><time>2026-05-01T08:49:49.591Z</time></trkpt><trkpt lat="43.480369" lon="11.1917044"><ele>281.2</ele><time>2026-05-01T08:49:50.603Z</time></trkpt><trkpt lat="43.4803526" lon="11.1915576"><ele>275.8</ele><time>2026-05-01T08:49:51.587Z</time></trkpt><trkpt lat="43.4803302" lon="11.1914125"><ele>270.4</ele><time>2026-05-01T08:49:52.581Z</time></trkpt><trkpt lat="43.4802951" lon="11.1912705"><ele>265.0</ele><time>2026-05-01T08:49:53.601Z</time></trkpt><trkpt lat="43.4802564" lon="11.1911327"><ele>265.0</ele><time>2026-05-01T08:49:54.597Z</time></trkpt><trkpt lat="43.480201" lon="11.1909961"><ele>265.0</ele><time>2026-05-01T08:49:55.597Z</time></trkpt><trkpt lat="43.4801409" lon="11.1908606"><ele>265.0</ele><time>2026-05-01T08:49:56.593Z</time></trkpt><trkpt lat="43.4800777" lon="11.1907278"><ele>265.0</ele><time>2026-05-01T08:49:57.594Z</time></trkpt><trkpt lat="43.48001" lon="11.1905978"><ele>266.5</ele><time>2026-05-01T08:49:58.608Z</time></trkpt><trkpt lat="43.4799343" lon="11.1904726"><ele>268.0</ele><time>2026-05-01T08:49:59.593Z</time></trkpt><trkpt lat="43.4798572" lon="11.190349"><ele>269.5</ele><time>2026-05-01T08:50:00.58Z</time></trkpt><trkpt lat="43.4797871" lon="11.1902261"><ele>271.0</ele><time>2026-05-01T08:50:01.586Z</time></trkpt><trkpt lat="43.4797227" lon="11.1901045"><ele>271.0</ele><time>2026-05-01T08:50:02.61Z</time></trkpt><trkpt lat="43.4796607" lon="11.1899837"><ele>271.0</ele><time>2026-05-01T08:50:03.584Z</time></trkpt><trkpt lat="43.4795906" lon="11.1898635"><ele>271.0</ele><time>2026-05-01T08:50:04.581Z</time></trkpt><trkpt lat="43.4795161" lon="11.1897546"><ele>271.0</ele><time>2026-05-01T08:50:05.598Z</time></trkpt><trkpt lat="43.4794313" lon="11.1896615"><ele>271.0</ele><time>2026-05-01T08:50:06.594Z</time></trkpt><trkpt lat="43.4793302" lon="11.1895956"><ele>270.0</ele><time>2026-05-01T08:50:07.602Z</time></trkpt><trkpt lat="43.479218" lon="11.1895818"><ele>269.0</ele><time>2026-05-01T08:50:08.586Z</time></trkpt><trkpt lat="43.4790996" lon="11.1895919"><ele>268.0</ele><time>2026-05-01T08:50:09.586Z</time></trkpt><trkpt lat="43.4789843" lon="11.1896239"><ele>267.0</ele><time>2026-05-01T08:50:10.597Z</time></trkpt><trkpt lat="43.4788775" lon="11.1896587"><ele>267.0</ele><time>2026-05-01T08:50:11.6Z</time></trkpt><trkpt lat="43.4787792" lon="11.1896884"><ele>267.0</ele><time>2026-05-01T08:50:12.601Z</time></trkpt><trkpt lat="43.4786902" lon="11.1897148"><ele>267.0</ele><time>2026-05-01T08:50:13.585Z</time></trkpt><trkpt lat="43.4786039" lon="11.1897276"><ele>267.0</ele><time>2026-05-01T08:50:14.587Z</time></trkpt><trkpt lat="43.4785192" lon="11.1897301"><ele>267.0</ele><time>2026-05-01T08:50:15.598Z</time></trkpt><trkpt lat="43.4784355" lon="11.1897173"><ele>267.0</ele><time>2026-05-01T08:50:16.58Z</time></trkpt><trkpt lat="43.4783542" lon="11.1896894"><ele>267.5714285714286</ele><time>2026-05-01T08:50:17.606Z</time></trkpt><trkpt lat="43.478281" lon="11.1896431"><ele>268.14285714285717</ele><time>2026-05-01T08:50:18.59Z</time></trkpt><trkpt lat="43.4782174" lon="11.1895856"><ele>268.7142857142857</ele><time>2026-05-01T08:50:19.593Z</time></trkpt><trkpt lat="43.4781594" lon="11.189528"><ele>269.28571428571433</ele><time>2026-05-01T08:50:20.587Z</time></trkpt><trkpt lat="43.4781055" lon="11.1894722"><ele>269.8571428571429</ele><time>2026-05-01T08:50:21.587Z</time></trkpt><trkpt lat="43.4780521" lon="11.1894235"><ele>270.42857142857144</ele><time>2026-05-01T08:50:22.591Z</time></trkpt><trkpt lat="43.4779978" lon="11.1893793"><ele>271.0</ele><time>2026-05-01T08:50:23.601Z</time></trkpt><trkpt lat="43.4778914" lon="11.1893088"><ele>268.5</ele><time>2026-05-01T08:50:25.604Z</time></trkpt><trkpt lat="43.4777801" lon="11.1892772"><ele>266.0</ele><time>2026-05-01T08:50:27.584Z</time></trkpt><trkpt lat="43.4776705" lon="11.189252"><ele>263.5</ele><time>2026-05-01T08:50:29.575Z</time></trkpt><trkpt lat="43.4775556" lon="11.1892246"><ele>261.0</ele><time>2026-05-01T08:50:31.575Z</time></trkpt><trkpt lat="43.4774409" lon="11.1892"><ele>261.0</ele><time>2026-05-01T08:50:33.598Z</time></trkpt><trkpt lat="43.477334" lon="11.189178"><ele>261.0</ele><time>2026-05-01T08:50:35.589Z</time></trkpt><trkpt lat="43.4772204" lon="11.1891645"><ele>261.0</ele><time>2026-05-01T08:50:37.589Z</time></trkpt><trkpt lat="43.4771058" lon="11.1891399"><ele>261.0</ele><time>2026-05-01T08:50:39.604Z</time></trkpt><trkpt lat="43.4770008" lon="11.1890843"><ele>260.2</ele><time>2026-05-01T08:50:41.576Z</time></trkpt><trkpt lat="43.476928" lon="11.1889652"><ele>259.40000000000003</ele><time>2026-05-01T08:50:43.591Z</time></trkpt><trkpt lat="43.476908" lon="11.188834"><ele>258.6</ele><time>2026-05-01T08:50:45.578Z</time></trkpt><trkpt lat="43.4769346" lon="11.1887057"><ele>257.8</ele><time>2026-05-01T08:50:47.581Z</time></trkpt><trkpt lat="43.4769807" lon="11.1886018"><ele>257.0</ele><time>2026-05-01T08:50:49.59Z</time></trkpt><trkpt lat="43.4770429" lon="11.1885274"><ele>257.83333333333337</ele><time>2026-05-01T08:50:51.595Z</time></trkpt><trkpt lat="43.4771273" lon="11.1884867"><ele>258.6666666666667</ele><time>2026-05-01T08:50:53.594Z</time></trkpt><trkpt lat="43.4772138" lon="11.1884914"><ele>259.5</ele><time>2026-05-01T08:50:55.6Z</time></trkpt><trkpt lat="43.4773002" lon="11.1885121"><ele>260.3333333333333</ele><time>2026-05-01T08:50:57.588Z</time></trkpt><trkpt lat="43.4773835" lon="11.1885392"><ele>261.16666666666663</ele><time>2026-05-01T08:50:59.583Z</time></trkpt><trkpt lat="43.4774556" lon="11.1885514"><ele>262.0</ele><time>2026-05-01T08:51:01.604Z</time></trkpt><trkpt lat="43.4775391" lon="11.1885641"><ele>262.0</ele><time>2026-05-01T08:51:03.607Z</time></trkpt><trkpt lat="43.477622" lon="11.1885811"><ele>262.0</ele><time>2026-05-01T08:51:05.591Z</time></trkpt><trkpt lat="43.4777096" lon="11.1885858"><ele>262.0</ele><time>2026-05-01T08:51:07.581Z</time></trkpt><trkpt lat="43.4777929" lon="11.1885846"><ele>262.0</ele><time>2026-05-01T08:51:09.6Z</time></trkpt><trkpt lat="43.4778795" lon="11.1885619"><ele>262.0</ele><time>2026-05-01T08:51:11.598Z</time></trkpt><trkpt lat="43.4779663" lon="11.1885193"><ele>262.0</ele><time>2026-05-01T08:51:13.58Z</time></trkpt><trkpt lat="43.4780461" lon="11.1884567"><ele>263.8</ele><time>2026-05-01T08:51:15.596Z</time></trkpt><trkpt lat="43.4781141" lon="11.1883822"><ele>265.6</ele><time>2026-05-01T08:51:17.599Z</time></trkpt><trkpt lat="43.478176" lon="11.18829"><ele>267.40000000000003</ele><time>2026-05-01T08:51:19.594Z</time></trkpt><trkpt lat="43.4782227" lon="11.18818"><ele>269.2</ele><time>2026-05-01T08:51:21.583Z</time></trkpt><trkpt lat="43.4782357" lon="11.18804"><ele>271.0</ele><time>2026-05-01T08:51:23.621Z</time></trkpt><trkpt lat="43.4782259" lon="11.1879034"><ele>271.0</ele><time>2026-05-01T08:51:25.587Z</time></trkpt><trkpt lat="43.4781967" lon="11.1877731"><ele>271.0</ele><time>2026-05-01T08:51:27.587Z</time></trkpt><trkpt lat="43.4781396" lon="11.1876533"><ele>271.0</ele><time>2026-05-01T08:51:29.602Z</time></trkpt><trkpt lat="43.4780549" lon="11.1875435"><ele>271.0</ele><time>2026-05-01T08:51:31.586Z</time></trkpt><trkpt lat="43.478003" lon="11.187491"><ele>271.0</ele><time>2026-05-01T08:51:32.587Z</time></trkpt><trkpt lat="43.4778991" lon="11.187388"><ele>268.85714285714283</ele><time>2026-05-01T08:51:34.581Z</time></trkpt><trkpt lat="43.4778445" lon="11.1873347"><ele>266.7142857142857</ele><time>2026-05-01T08:51:35.597Z</time></trkpt><trkpt lat="43.4777895" lon="11.187287"><ele>264.57142857142856</ele><time>2026-05-01T08:51:36.593Z</time></trkpt><trkpt lat="43.4777339" lon="11.1872329"><ele>262.42857142857144</ele><time>2026-05-01T08:51:37.591Z</time></trkpt><trkpt lat="43.4776811" lon="11.1871775"><ele>260.2857142857143</ele><time>2026-05-01T08:51:38.593Z</time></trkpt><trkpt lat="43.4776322" lon="11.1871101"><ele>258.1428571428571</ele><time>2026-05-01T08:51:39.596Z</time></trkpt><trkpt lat="43.4775922" lon="11.1870331"><ele>256.0</ele><time>2026-05-01T08:51:40.579Z</time></trkpt><trkpt lat="43.4775608" lon="11.1869508"><ele>255.99999999999997</ele><time>2026-05-01T08:51:41.587Z</time></trkpt><trkpt lat="43.4775483" lon="11.1868583"><ele>256.0</ele><time>2026-05-01T08:51:42.59Z</time></trkpt><trkpt lat="43.4775534" lon="11.1867553"><ele>256.0</ele><time>2026-05-01T08:51:43.587Z</time></trkpt><trkpt lat="43.4775726" lon="11.1866512"><ele>256.0</ele><time>2026-05-01T08:51:44.584Z</time></trkpt><trkpt lat="43.4776076" lon="11.1865524"><ele>255.99999999999997</ele><time>2026-05-01T08:51:45.592Z</time></trkpt><trkpt lat="43.4776461" lon="11.1864641"><ele>256.0</ele><time>2026-05-01T08:51:46.579Z</time></trkpt><trkpt lat="43.477692" lon="11.1863792"><ele>255.66666666666666</ele><time>2026-05-01T08:51:47.584Z</time></trkpt><trkpt lat="43.4777373" lon="11.1862972"><ele>255.33333333333331</ele><time>2026-05-01T08:51:48.602Z</time></trkpt><trkpt lat="43.4777755" lon="11.1862073"><ele>255.0</ele><time>2026-05-01T08:51:49.597Z</time></trkpt><trkpt lat="43.4778055" lon="11.1861076"><ele>254.66666666666669</ele><time>2026-05-01T08:51:50.58Z</time></trkpt><trkpt lat="43.4778301" lon="11.1859984"><ele>254.33333333333334</ele><time>2026-05-01T08:51:51.582Z</time></trkpt><trkpt lat="43.4778365" lon="11.185884"><ele>254.0</ele><time>2026-05-01T08:51:52.578Z</time></trkpt><trkpt lat="43.4778266" lon="11.1857655"><ele>254.16666666666669</ele><time>2026-05-01T08:51:53.597Z</time></trkpt><trkpt lat="43.4778115" lon="11.1856577"><ele>254.33333333333334</ele><time>2026-05-01T08:51:54.596Z</time></trkpt><trkpt lat="43.4777808" lon="11.1855672"><ele>254.5</ele><time>2026-05-01T08:51:55.597Z</time></trkpt><trkpt lat="43.4777232" lon="11.1854883"><ele>254.66666666666669</ele><time>2026-05-01T08:51:56.58Z</time></trkpt><trkpt lat="43.4776528" lon="11.1854121"><ele>254.83333333333334</ele><time>2026-05-01T08:51:57.597Z</time></trkpt><trkpt lat="43.4775795" lon="11.185339"><ele>255.0</ele><time>2026-05-01T08:51:58.604Z</time></trkpt><trkpt lat="43.4775017" lon="11.1852617"><ele>255.0</ele><time>2026-05-01T08:51:59.6Z</time></trkpt><trkpt lat="43.4774253" lon="11.1851782"><ele>255.0</ele><time>2026-05-01T08:52:00.597Z</time></trkpt><trkpt lat="43.4773515" lon="11.1850899"><ele>255.0</ele><time>2026-05-01T08:52:01.586Z</time></trkpt><trkpt lat="43.4772821" lon="11.1850053"><ele>255.0</ele><time>2026-05-01T08:52:02.592Z</time></trkpt><trkpt lat="43.4772136" lon="11.1849202"><ele>255.0</ele><time>2026-05-01T08:52:03.602Z</time></trkpt><trkpt lat="43.4771471" lon="11.1848286"><ele>253.2</ele><time>2026-05-01T08:52:04.586Z</time></trkpt><trkpt lat="43.4770814" lon="11.1847365"><ele>251.4</ele><time>2026-05-01T08:52:05.599Z</time></trkpt><trkpt lat="43.4770146" lon="11.1846501"><ele>249.60000000000002</ele><time>2026-05-01T08:52:06.596Z</time></trkpt><trkpt lat="43.4769479" lon="11.1845667"><ele>247.8</ele><time>2026-05-01T08:52:07.581Z</time></trkpt><trkpt lat="43.4768796" lon="11.1844757"><ele>246.0</ele><time>2026-05-01T08:52:08.593Z</time></trkpt><trkpt lat="43.476811" lon="11.1843856"><ele>246.0</ele><time>2026-05-01T08:52:09.594Z</time></trkpt><trkpt lat="43.4767419" lon="11.1842972"><ele>246.00000000000003</ele><time>2026-05-01T08:52:10.586Z</time></trkpt><trkpt lat="43.476669" lon="11.1842063"><ele>246.00000000000003</ele><time>2026-05-01T08:52:11.589Z</time></trkpt><trkpt lat="43.4765985" lon="11.184114"><ele>246.0</ele><time>2026-05-01T08:52:12.585Z</time></trkpt><trkpt lat="43.4765289" lon="11.1840223"><ele>246.0</ele><time>2026-05-01T08:52:13.58Z</time></trkpt><trkpt lat="43.4764597" lon="11.1839271"><ele>245.60000000000002</ele><time>2026-05-01T08:52:14.592Z</time></trkpt><trkpt lat="43.476394" lon="11.1838271"><ele>245.20000000000002</ele><time>2026-05-01T08:52:15.579Z</time></trkpt><trkpt lat="43.4763376" lon="11.1837165"><ele>244.79999999999998</ele><time>2026-05-01T08:52:16.581Z</time></trkpt><trkpt lat="43.4762934" lon="11.1835915"><ele>244.39999999999998</ele><time>2026-05-01T08:52:17.588Z</time></trkpt><trkpt lat="43.4762635" lon="11.1834555"><ele>244.0</ele><time>2026-05-01T08:52:18.581Z</time></trkpt><trkpt lat="43.4762379" lon="11.183324"><ele>243.79999999999998</ele><time>2026-05-01T08:52:19.606Z</time></trkpt><trkpt lat="43.4762169" lon="11.1831929"><ele>243.59999999999997</ele><time>2026-05-01T08:52:20.586Z</time></trkpt><trkpt lat="43.476197" lon="11.1830607"><ele>243.4</ele><time>2026-05-01T08:52:21.602Z</time></trkpt><trkpt lat="43.4761789" lon="11.1829343"><ele>243.2</ele><time>2026-05-01T08:52:22.59Z</time></trkpt><trkpt lat="43.4761649" lon="11.182805"><ele>243.0</ele><time>2026-05-01T08:52:23.592Z</time></trkpt><trkpt lat="43.4761476" lon="11.1826773"><ele>243.0</ele><time>2026-05-01T08:52:24.591Z</time></trkpt><trkpt lat="43.4761308" lon="11.1825514"><ele>243.0</ele><time>2026-05-01T08:52:25.592Z</time></trkpt><trkpt lat="43.4761197" lon="11.1824326"><ele>243.0</ele><time>2026-05-01T08:52:26.59Z</time></trkpt><trkpt lat="43.476105" lon="11.182319"><ele>243.0</ele><time>2026-05-01T08:52:27.577Z</time></trkpt><trkpt lat="43.4760888" lon="11.1822101"><ele>243.0</ele><time>2026-05-01T08:52:28.59Z</time></trkpt><trkpt lat="43.4760713" lon="11.1821078"><ele>243.0</ele><time>2026-05-01T08:52:29.58Z</time></trkpt><trkpt lat="43.4760518" lon="11.1820124"><ele>243.16666666666666</ele><time>2026-05-01T08:52:30.602Z</time></trkpt><trkpt lat="43.4760318" lon="11.1819206"><ele>243.33333333333331</ele><time>2026-05-01T08:52:31.594Z</time></trkpt><trkpt lat="43.4760054" lon="11.181826"><ele>243.5</ele><time>2026-05-01T08:52:32.593Z</time></trkpt><trkpt lat="43.4759776" lon="11.1817301"><ele>243.66666666666666</ele><time>2026-05-01T08:52:33.586Z</time></trkpt><trkpt lat="43.4759503" lon="11.1816311"><ele>243.83333333333331</ele><time>2026-05-01T08:52:34.591Z</time></trkpt><trkpt lat="43.4759208" lon="11.181531"><ele>244.0</ele><time>2026-05-01T08:52:35.589Z</time></trkpt><trkpt lat="43.4758877" lon="11.1814196"><ele>243.99999999999997</ele><time>2026-05-01T08:52:36.588Z</time></trkpt><trkpt lat="43.4758592" lon="11.1813052"><ele>244.0</ele><time>2026-05-01T08:52:37.593Z</time></trkpt><trkpt lat="43.4758393" lon="11.1811886"><ele>244.0</ele><time>2026-05-01T08:52:38.582Z</time></trkpt><trkpt lat="43.4758308" lon="11.1810696"><ele>244.0</ele><time>2026-05-01T08:52:39.592Z</time></trkpt><trkpt lat="43.4758276" lon="11.1809529"><ele>243.99999999999997</ele><time>2026-05-01T08:52:40.59Z</time></trkpt><trkpt lat="43.4758333" lon="11.180839"><ele>244.0</ele><time>2026-05-01T08:52:41.585Z</time></trkpt><trkpt lat="43.4758538" lon="11.1807254"><ele>243.49999999999997</ele><time>2026-05-01T08:52:42.599Z</time></trkpt><trkpt lat="43.4758819" lon="11.180611"><ele>243.0</ele><time>2026-05-01T08:52:43.595Z</time></trkpt><trkpt lat="43.4759106" lon="11.1804957"><ele>242.5</ele><time>2026-05-01T08:52:44.611Z</time></trkpt><trkpt lat="43.4759393" lon="11.1803802"><ele>242.0</ele><time>2026-05-01T08:52:45.596Z</time></trkpt><trkpt lat="43.4759654" lon="11.1802622"><ele>241.49999999999997</ele><time>2026-05-01T08:52:46.594Z</time></trkpt><trkpt lat="43.4759906" lon="11.180143"><ele>241.0</ele><time>2026-05-01T08:52:47.599Z</time></trkpt><trkpt lat="43.4760186" lon="11.1800278"><ele>240.99999999999997</ele><time>2026-05-01T08:52:48.591Z</time></trkpt><trkpt lat="43.476047" lon="11.1799169"><ele>241.0</ele><time>2026-05-01T08:52:49.581Z</time></trkpt><trkpt lat="43.4760718" lon="11.1798049"><ele>241.0</ele><time>2026-05-01T08:52:50.581Z</time></trkpt><trkpt lat="43.47609" lon="11.1796901"><ele>241.0</ele><time>2026-05-01T08:52:51.586Z</time></trkpt><trkpt lat="43.4761055" lon="11.1795739"><ele>240.99999999999997</ele><time>2026-05-01T08:52:52.579Z</time></trkpt><trkpt lat="43.4761193" lon="11.1794517"><ele>241.0</ele><time>2026-05-01T08:52:53.6Z</time></trkpt><trkpt lat="43.4761351" lon="11.1793303"><ele>239.0</ele><time>2026-05-01T08:52:54.577Z</time></trkpt><trkpt lat="43.4761529" lon="11.179205"><ele>237.00000000000003</ele><time>2026-05-01T08:52:55.602Z</time></trkpt><trkpt lat="43.4761746" lon="11.1790806"><ele>235.00000000000003</ele><time>2026-05-01T08:52:56.579Z</time></trkpt><trkpt lat="43.4761967" lon="11.1789541"><ele>233.0</ele><time>2026-05-01T08:52:57.582Z</time></trkpt><trkpt lat="43.4762101" lon="11.1788299"><ele>231.0</ele><time>2026-05-01T08:52:58.574Z</time></trkpt><trkpt lat="43.4762197" lon="11.1787058"><ele>231.66666666666666</ele><time>2026-05-01T08:52:59.575Z</time></trkpt><trkpt lat="43.4762304" lon="11.1785864"><ele>232.33333333333331</ele><time>2026-05-01T08:53:00.585Z</time></trkpt><trkpt lat="43.4762425" lon="11.1784707"><ele>233.0</ele><time>2026-05-01T08:53:01.579Z</time></trkpt><trkpt lat="43.4762568" lon="11.1783516"><ele>233.66666666666666</ele><time>2026-05-01T08:53:02.591Z</time></trkpt><trkpt lat="43.4762727" lon="11.1782362"><ele>234.33333333333331</ele><time>2026-05-01T08:53:03.579Z</time></trkpt><trkpt lat="43.4762885" lon="11.1781235"><ele>235.0</ele><time>2026-05-01T08:53:04.59Z</time></trkpt><trkpt lat="43.4763018" lon="11.1780181"><ele>235.0</ele><time>2026-05-01T08:53:05.598Z</time></trkpt><trkpt lat="43.4763166" lon="11.1779158"><ele>234.99999999999997</ele><time>2026-05-01T08:53:06.595Z</time></trkpt><trkpt lat="43.4763271" lon="11.1778152"><ele>235.0</ele><time>2026-05-01T08:53:07.583Z</time></trkpt><trkpt lat="43.4763391" lon="11.1777136"><ele>235.0</ele><time>2026-05-01T08:53:08.61Z</time></trkpt><trkpt lat="43.4763538" lon="11.1776141"><ele>234.99999999999997</ele><time>2026-05-01T08:53:09.612Z</time></trkpt><trkpt lat="43.4763693" lon="11.1775153"><ele>235.0</ele><time>2026-05-01T08:53:10.609Z</time></trkpt><trkpt lat="43.4763837" lon="11.1774181"><ele>235.0</ele><time>2026-05-01T08:53:11.587Z</time></trkpt><trkpt lat="43.4763986" lon="11.1773213"><ele>234.57142857142856</ele><time>2026-05-01T08:53:12.605Z</time></trkpt><trkpt lat="43.4764104" lon="11.1772252"><ele>234.1428571428571</ele><time>2026-05-01T08:53:13.602Z</time></trkpt><trkpt lat="43.4764214" lon="11.1771279"><ele>233.71428571428572</ele><time>2026-05-01T08:53:14.606Z</time></trkpt><trkpt lat="43.476433" lon="11.1770282"><ele>233.28571428571428</ele><time>2026-05-01T08:53:15.7Z</time></trkpt><trkpt lat="43.4764461" lon="11.1769351"><ele>232.85714285714286</ele><time>2026-05-01T08:53:16.677Z</time></trkpt><trkpt lat="43.4764623" lon="11.1768414"><ele>232.42857142857144</ele><time>2026-05-01T08:53:17.598Z</time></trkpt><trkpt lat="43.4764872" lon="11.1767417"><ele>232.00000000000003</ele><time>2026-05-01T08:53:18.667Z</time></trkpt><trkpt lat="43.4765199" lon="11.176644"><ele>231.99999999999997</ele><time>2026-05-01T08:53:19.61Z</time></trkpt><trkpt lat="43.4765525" lon="11.1765549"><ele>232.0</ele><time>2026-05-01T08:53:20.603Z</time></trkpt><trkpt lat="43.4765488" lon="11.1763964"><ele>232.0</ele><time>2026-05-01T08:53:22.613Z</time></trkpt><trkpt lat="43.4765396" lon="11.1763087"><ele>232.0</ele><time>2026-05-01T08:53:23.604Z</time></trkpt><trkpt lat="43.4765282" lon="11.1762219"><ele>231.99999999999997</ele><time>2026-05-01T08:53:24.614Z</time></trkpt><trkpt lat="43.4765098" lon="11.1760557"><ele>232.0</ele><time>2026-05-01T08:53:26.604Z</time></trkpt><trkpt lat="43.4764877" lon="11.1758973"><ele>231.6</ele><time>2026-05-01T08:53:28.6Z</time></trkpt><trkpt lat="43.4764665" lon="11.1757347"><ele>231.2</ele><time>2026-05-01T08:53:30.602Z</time></trkpt><trkpt lat="43.4764475" lon="11.1755849"><ele>230.8</ele><time>2026-05-01T08:53:32.597Z</time></trkpt><trkpt lat="43.4764204" lon="11.1754438"><ele>230.4</ele><time>2026-05-01T08:53:34.607Z</time></trkpt><trkpt lat="43.4763922" lon="11.1753114"><ele>230.0</ele><time>2026-05-01T08:53:36.691Z</time></trkpt><trkpt lat="43.4763576" lon="11.1751756"><ele>231.0</ele><time>2026-05-01T08:53:38.609Z</time></trkpt><trkpt lat="43.4763144" lon="11.1750421"><ele>232.0</ele><time>2026-05-01T08:53:40.654Z</time></trkpt><trkpt lat="43.4762568" lon="11.1749031"><ele>233.0</ele><time>2026-05-01T08:53:42.673Z</time></trkpt><trkpt lat="43.476197" lon="11.1747687"><ele>234.0</ele><time>2026-05-01T08:53:44.601Z</time></trkpt><trkpt lat="43.4761093" lon="11.1746186"><ele>232.5</ele><time>2026-05-01T08:53:46.664Z</time></trkpt><trkpt lat="43.4760497" lon="11.1745313"><ele>231.0</ele><time>2026-05-01T08:53:47.67Z</time></trkpt><trkpt lat="43.4759942" lon="11.1744472"><ele>229.5</ele><time>2026-05-01T08:53:48.597Z</time></trkpt><trkpt lat="43.475939" lon="11.1743676"><ele>228.0</ele><time>2026-05-01T08:53:49.603Z</time></trkpt><trkpt lat="43.4758802" lon="11.1743013"><ele>226.5</ele><time>2026-05-01T08:53:50.657Z</time></trkpt><trkpt lat="43.4758089" lon="11.1742277"><ele>225.0</ele><time>2026-05-01T08:53:51.668Z</time></trkpt><trkpt lat="43.4757406" lon="11.1741352"><ele>225.0</ele><time>2026-05-01T08:53:52.673Z</time></trkpt><trkpt lat="43.4756709" lon="11.174045"><ele>225.0</ele><time>2026-05-01T08:53:53.595Z</time></trkpt><trkpt lat="43.4755942" lon="11.1739568"><ele>225.0</ele><time>2026-05-01T08:53:54.624Z</time></trkpt><trkpt lat="43.4755219" lon="11.1738613"><ele>225.0</ele><time>2026-05-01T08:53:55.658Z</time></trkpt><trkpt lat="43.4754569" lon="11.1737636"><ele>225.0</ele><time>2026-05-01T08:53:56.665Z</time></trkpt><trkpt lat="43.4754056" lon="11.1736531"><ele>222.0</ele><time>2026-05-01T08:53:57.678Z</time></trkpt><trkpt lat="43.4753599" lon="11.17354"><ele>219.0</ele><time>2026-05-01T08:53:58.584Z</time></trkpt><trkpt lat="43.4753157" lon="11.1734212"><ele>216.0</ele><time>2026-05-01T08:53:59.6Z</time></trkpt><trkpt lat="43.4752907" lon="11.173302"><ele>213.0</ele><time>2026-05-01T08:54:00.597Z</time></trkpt><trkpt lat="43.4752725" lon="11.1731772"><ele>210.0</ele><time>2026-05-01T08:54:01.602Z</time></trkpt><trkpt lat="43.4752608" lon="11.1730517"><ele>210.0</ele><time>2026-05-01T08:54:02.597Z</time></trkpt><trkpt lat="43.4752527" lon="11.1729248"><ele>210.0</ele><time>2026-05-01T08:54:03.623Z</time></trkpt><trkpt lat="43.475242" lon="11.1727988"><ele>210.0</ele><time>2026-05-01T08:54:04.607Z</time></trkpt><trkpt lat="43.4752279" lon="11.1726677"><ele>210.0</ele><time>2026-05-01T08:54:05.587Z</time></trkpt><trkpt lat="43.4752222" lon="11.1725319"><ele>210.0</ele><time>2026-05-01T08:54:06.584Z</time></trkpt><trkpt lat="43.4752323" lon="11.1723981"><ele>210.0</ele><time>2026-05-01T08:54:07.607Z</time></trkpt><trkpt lat="43.4752614" lon="11.1722759"><ele>210.0</ele><time>2026-05-01T08:54:08.599Z</time></trkpt><trkpt lat="43.4753129" lon="11.1721684"><ele>210.0</ele><time>2026-05-01T08:54:09.606Z</time></trkpt><trkpt lat="43.4753904" lon="11.1720825"><ele>210.0</ele><time>2026-05-01T08:54:10.604Z</time></trkpt><trkpt lat="43.4754801" lon="11.1720174"><ele>210.0</ele><time>2026-05-01T08:54:11.602Z</time></trkpt><trkpt lat="43.4755711" lon="11.171972"><ele>210.0</ele><time>2026-05-01T08:54:12.607Z</time></trkpt><trkpt lat="43.4756699" lon="11.1719412"><ele>210.0</ele><time>2026-05-01T08:54:13.582Z</time></trkpt><trkpt lat="43.4757665" lon="11.1719112"><ele>210.0</ele><time>2026-05-01T08:54:14.595Z</time></trkpt><trkpt lat="43.4758571" lon="11.171876"><ele>210.0</ele><time>2026-05-01T08:54:15.601Z</time></trkpt><trkpt lat="43.4759488" lon="11.1718299"><ele>210.0</ele><time>2026-05-01T08:54:16.664Z</time></trkpt><trkpt lat="43.4760404" lon="11.171772"><ele>210.0</ele><time>2026-05-01T08:54:17.684Z</time></trkpt><trkpt lat="43.4761242" lon="11.1717015"><ele>210.0</ele><time>2026-05-01T08:54:18.591Z</time></trkpt><trkpt lat="43.476195" lon="11.1716087"><ele>210.0</ele><time>2026-05-01T08:54:19.602Z</time></trkpt><trkpt lat="43.47621" lon="11.1714441"><ele>210.0</ele><time>2026-05-01T08:54:20.666Z</time></trkpt><trkpt lat="43.476195" lon="11.1713094"><ele>210.0</ele><time>2026-05-01T08:54:21.678Z</time></trkpt><trkpt lat="43.4761636" lon="11.1711856"><ele>210.4</ele><time>2026-05-01T08:54:22.583Z</time></trkpt><trkpt lat="43.4761149" lon="11.171068"><ele>210.8</ele><time>2026-05-01T08:54:23.605Z</time></trkpt><trkpt lat="43.4760477" lon="11.1709678"><ele>211.2</ele><time>2026-05-01T08:54:24.609Z</time></trkpt><trkpt lat="43.4759589" lon="11.1709004"><ele>211.6</ele><time>2026-05-01T08:54:25.66Z</time></trkpt><trkpt lat="43.4758541" lon="11.1708604"><ele>212.0</ele><time>2026-05-01T08:54:26.684Z</time></trkpt><trkpt lat="43.4757465" lon="11.1708235"><ele>212.0</ele><time>2026-05-01T08:54:27.678Z</time></trkpt><trkpt lat="43.475647" lon="11.1707787"><ele>212.0</ele><time>2026-05-01T08:54:28.595Z</time></trkpt><trkpt lat="43.4755557" lon="11.170717"><ele>212.0</ele><time>2026-05-01T08:54:29.599Z</time></trkpt><trkpt lat="43.4754773" lon="11.1706328"><ele>212.0</ele><time>2026-05-01T08:54:30.653Z</time></trkpt><trkpt lat="43.4754152" lon="11.1705293"><ele>212.0</ele><time>2026-05-01T08:54:31.666Z</time></trkpt><trkpt lat="43.4753682" lon="11.1704033"><ele>208.8</ele><time>2026-05-01T08:54:32.681Z</time></trkpt><trkpt lat="43.4753271" lon="11.1702747"><ele>205.6</ele><time>2026-05-01T08:54:33.582Z</time></trkpt><trkpt lat="43.4752927" lon="11.1701355"><ele>202.4</ele><time>2026-05-01T08:54:34.604Z</time></trkpt><trkpt lat="43.4752711" lon="11.1699897"><ele>199.20000000000002</ele><time>2026-05-01T08:54:35.606Z</time></trkpt><trkpt lat="43.4752605" lon="11.1698393"><ele>196.0</ele><time>2026-05-01T08:54:36.595Z</time></trkpt><trkpt lat="43.4752673" lon="11.1696839"><ele>195.0</ele><time>2026-05-01T08:54:37.6Z</time></trkpt><trkpt lat="43.475279" lon="11.1695353"><ele>194.0</ele><time>2026-05-01T08:54:38.592Z</time></trkpt><trkpt lat="43.4752936" lon="11.1693877"><ele>193.0</ele><time>2026-05-01T08:54:39.579Z</time></trkpt><trkpt lat="43.4753118" lon="11.16924"><ele>192.0</ele><time>2026-05-01T08:54:40.593Z</time></trkpt><trkpt lat="43.4753339" lon="11.1690967"><ele>191.0</ele><time>2026-05-01T08:54:41.59Z</time></trkpt><trkpt lat="43.4753656" lon="11.1689592"><ele>192.0</ele><time>2026-05-01T08:54:42.601Z</time></trkpt><trkpt lat="43.4754195" lon="11.1688355"><ele>193.0</ele><time>2026-05-01T08:54:43.59Z</time></trkpt><trkpt lat="43.4754957" lon="11.1687335"><ele>194.0</ele><time>2026-05-01T08:54:44.584Z</time></trkpt><trkpt lat="43.475587" lon="11.1686626"><ele>195.0</ele><time>2026-05-01T08:54:45.606Z</time></trkpt><trkpt lat="43.475684" lon="11.168624"><ele>196.0</ele><time>2026-05-01T08:54:46.592Z</time></trkpt><trkpt lat="43.4757824" lon="11.168607"><ele>196.0</ele><time>2026-05-01T08:54:47.598Z</time></trkpt><trkpt lat="43.4758852" lon="11.1685904"><ele>196.0</ele><time>2026-05-01T08:54:48.589Z</time></trkpt><trkpt lat="43.4759871" lon="11.1685794"><ele>196.0</ele><time>2026-05-01T08:54:49.573Z</time></trkpt><trkpt lat="43.4760899" lon="11.1685656"><ele>196.0</ele><time>2026-05-01T08:54:50.669Z</time></trkpt><trkpt lat="43.4761896" lon="11.1685363"><ele>196.0</ele><time>2026-05-01T08:54:51.68Z</time></trkpt><trkpt lat="43.4762907" lon="11.1684821"><ele>195.5</ele><time>2026-05-01T08:54:52.665Z</time></trkpt><trkpt lat="43.4763634" lon="11.1683677"><ele>195.0</ele><time>2026-05-01T08:54:53.618Z</time></trkpt><trkpt lat="43.4763576" lon="11.1681902"><ele>194.5</ele><time>2026-05-01T08:54:54.601Z</time></trkpt><trkpt lat="43.4763144" lon="11.1680333"><ele>194.0</ele><time>2026-05-01T08:54:55.657Z</time></trkpt><trkpt lat="43.4762502" lon="11.1679075"><ele>194.0</ele><time>2026-05-01T08:54:56.685Z</time></trkpt><trkpt lat="43.4761627" lon="11.167829"><ele>194.0</ele><time>2026-05-01T08:54:57.677Z</time></trkpt><trkpt lat="43.4760675" lon="11.167776"><ele>194.0</ele><time>2026-05-01T08:54:58.589Z</time></trkpt><trkpt lat="43.4759656" lon="11.1677213"><ele>194.0</ele><time>2026-05-01T08:54:59.609Z</time></trkpt><trkpt lat="43.4758699" lon="11.1676621"><ele>194.0</ele><time>2026-05-01T08:55:00.603Z</time></trkpt><trkpt lat="43.4757763" lon="11.1676035"><ele>194.0</ele><time>2026-05-01T08:55:01.662Z</time></trkpt><trkpt lat="43.4756867" lon="11.1675516"><ele>194.0</ele><time>2026-05-01T08:55:02.67Z</time></trkpt><trkpt lat="43.475597" lon="11.1675001"><ele>194.0</ele><time>2026-05-01T08:55:03.64Z</time></trkpt><trkpt lat="43.4755066" lon="11.1674396"><ele>194.0</ele><time>2026-05-01T08:55:04.613Z</time></trkpt><trkpt lat="43.4754237" lon="11.1673669"><ele>194.0</ele><time>2026-05-01T08:55:05.604Z</time></trkpt><trkpt lat="43.4753399" lon="11.1672886"><ele>191.79999999999998</ele><time>2026-05-01T08:55:06.664Z</time></trkpt><trkpt lat="43.4752592" lon="11.1672094"><ele>189.6</ele><time>2026-05-01T08:55:07.672Z</time></trkpt><trkpt lat="43.4751755" lon="11.1671164"><ele>187.4</ele><time>2026-05-01T08:55:08.598Z</time></trkpt><trkpt lat="43.4751025" lon="11.166996"><ele>185.2</ele><time>2026-05-01T08:55:09.607Z</time></trkpt><trkpt lat="43.4750572" lon="11.1668558"><ele>183.0</ele><time>2026-05-01T08:55:10.619Z</time></trkpt><trkpt lat="43.4750269" lon="11.1667134"><ele>183.0</ele><time>2026-05-01T08:55:11.586Z</time></trkpt><trkpt lat="43.4749958" lon="11.1665623"><ele>183.0</ele><time>2026-05-01T08:55:12.671Z</time></trkpt><trkpt lat="43.474977" lon="11.1664141"><ele>183.0</ele><time>2026-05-01T08:55:13.61Z</time></trkpt><trkpt lat="43.4749611" lon="11.1662535"><ele>183.0</ele><time>2026-05-01T08:55:14.596Z</time></trkpt><trkpt lat="43.4749418" lon="11.1660914"><ele>183.25</ele><time>2026-05-01T08:55:15.601Z</time></trkpt><trkpt lat="43.4749191" lon="11.1659331"><ele>183.5</ele><time>2026-05-01T08:55:16.612Z</time></trkpt><trkpt lat="43.4748966" lon="11.1657756"><ele>183.75</ele><time>2026-05-01T08:55:17.612Z</time></trkpt><trkpt lat="43.4748745" lon="11.1656186"><ele>184.0</ele><time>2026-05-01T08:55:18.603Z</time></trkpt><trkpt lat="43.4748563" lon="11.1654619"><ele>184.0</ele><time>2026-05-01T08:55:19.603Z</time></trkpt><trkpt lat="43.4748418" lon="11.1653082"><ele>184.0</ele><time>2026-05-01T08:55:20.599Z</time></trkpt><trkpt lat="43.4748302" lon="11.1651531"><ele>184.0</ele><time>2026-05-01T08:55:21.596Z</time></trkpt><trkpt lat="43.4748239" lon="11.1650016"><ele>184.0</ele><time>2026-05-01T08:55:22.609Z</time></trkpt><trkpt lat="43.4748236" lon="11.164848"><ele>184.0</ele><time>2026-05-01T08:55:23.604Z</time></trkpt><trkpt lat="43.4748302" lon="11.1646966"><ele>183.2</ele><time>2026-05-01T08:55:24.606Z</time></trkpt><trkpt lat="43.4748428" lon="11.1645476"><ele>182.39999999999998</ele><time>2026-05-01T08:55:25.603Z</time></trkpt><trkpt lat="43.4748593" lon="11.164398"><ele>181.6</ele><time>2026-05-01T08:55:26.611Z</time></trkpt><trkpt lat="43.4748792" lon="11.1642475"><ele>180.8</ele><time>2026-05-01T08:55:27.604Z</time></trkpt><trkpt lat="43.4748977" lon="11.1640922"><ele>180.0</ele><time>2026-05-01T08:55:28.612Z</time></trkpt><trkpt lat="43.4749127" lon="11.1639364"><ele>179.2</ele><time>2026-05-01T08:55:29.601Z</time></trkpt><trkpt lat="43.4749268" lon="11.1637738"><ele>178.4</ele><time>2026-05-01T08:55:30.67Z</time></trkpt><trkpt lat="43.4749399" lon="11.1636265"><ele>177.60000000000002</ele><time>2026-05-01T08:55:31.604Z</time></trkpt><trkpt lat="43.4749458" lon="11.1634734"><ele>176.8</ele><time>2026-05-01T08:55:32.665Z</time></trkpt><trkpt lat="43.4749478" lon="11.1633252"><ele>176.0</ele><time>2026-05-01T08:55:33.593Z</time></trkpt><trkpt lat="43.4749505" lon="11.1631673"><ele>175.0</ele><time>2026-05-01T08:55:34.62Z</time></trkpt><trkpt lat="43.474949" lon="11.1630045"><ele>174.0</ele><time>2026-05-01T08:55:35.663Z</time></trkpt><trkpt lat="43.4749451" lon="11.1628412"><ele>173.0</ele><time>2026-05-01T08:55:36.6Z</time></trkpt><trkpt lat="43.4749378" lon="11.1626681"><ele>172.0</ele><time>2026-05-01T08:55:37.669Z</time></trkpt><trkpt lat="43.4749276" lon="11.1625026"><ele>171.25</ele><time>2026-05-01T08:55:38.583Z</time></trkpt><trkpt lat="43.474918" lon="11.1623359"><ele>170.5</ele><time>2026-05-01T08:55:39.601Z</time></trkpt><trkpt lat="43.4749076" lon="11.1621728"><ele>169.75</ele><time>2026-05-01T08:55:40.604Z</time></trkpt><trkpt lat="43.4749027" lon="11.1620169"><ele>169.0</ele><time>2026-05-01T08:55:41.67Z</time></trkpt><trkpt lat="43.4748955" lon="11.1618647"><ele>169.0</ele><time>2026-05-01T08:55:42.676Z</time></trkpt><trkpt lat="43.4748932" lon="11.1617211"><ele>169.0</ele><time>2026-05-01T08:55:43.594Z</time></trkpt><trkpt lat="43.4748977" lon="11.1615691"><ele>169.0</ele><time>2026-05-01T08:55:44.607Z</time></trkpt><trkpt lat="43.4749168" lon="11.1614239"><ele>169.0</ele><time>2026-05-01T08:55:45.661Z</time></trkpt><trkpt lat="43.4749537" lon="11.1612855"><ele>169.0</ele><time>2026-05-01T08:55:46.666Z</time></trkpt><trkpt lat="43.4750023" lon="11.1611498"><ele>168.2</ele><time>2026-05-01T08:55:47.668Z</time></trkpt><trkpt lat="43.4750567" lon="11.1610231"><ele>167.39999999999998</ele><time>2026-05-01T08:55:48.604Z</time></trkpt><trkpt lat="43.4750915" lon="11.160896"><ele>166.6</ele><time>2026-05-01T08:55:49.618Z</time></trkpt><trkpt lat="43.4750929" lon="11.1607515"><ele>165.8</ele><time>2026-05-01T08:55:50.603Z</time></trkpt><trkpt lat="43.4750635" lon="11.1606008"><ele>165.0</ele><time>2026-05-01T08:55:51.606Z</time></trkpt><trkpt lat="43.4750204" lon="11.160456"><ele>164.6</ele><time>2026-05-01T08:55:52.603Z</time></trkpt><trkpt lat="43.4749843" lon="11.1603096"><ele>164.2</ele><time>2026-05-01T08:55:53.6Z</time></trkpt><trkpt lat="43.4749509" lon="11.1601586"><ele>163.8</ele><time>2026-05-01T08:55:54.612Z</time></trkpt><trkpt lat="43.4749179" lon="11.1600186"><ele>163.4</ele><time>2026-05-01T08:55:55.593Z</time></trkpt><trkpt lat="43.4748873" lon="11.1598785"><ele>163.0</ele><time>2026-05-01T08:55:56.608Z</time></trkpt><trkpt lat="43.474862" lon="11.1597401"><ele>162.20000000000002</ele><time>2026-05-01T08:55:57.612Z</time></trkpt><trkpt lat="43.4748442" lon="11.1595984"><ele>161.4</ele><time>2026-05-01T08:55:58.614Z</time></trkpt><trkpt lat="43.474835" lon="11.1594568"><ele>160.60000000000002</ele><time>2026-05-01T08:55:59.604Z</time></trkpt><trkpt lat="43.4748258" lon="11.1593126"><ele>159.8</ele><time>2026-05-01T08:56:00.602Z</time></trkpt><trkpt lat="43.4748262" lon="11.1591617"><ele>159.0</ele><time>2026-05-01T08:56:01.68Z</time></trkpt><trkpt lat="43.4748301" lon="11.159023"><ele>157.8</ele><time>2026-05-01T08:56:02.602Z</time></trkpt><trkpt lat="43.4748365" lon="11.1588752"><ele>156.60000000000002</ele><time>2026-05-01T08:56:03.603Z</time></trkpt><trkpt lat="43.474848" lon="11.1587286"><ele>155.4</ele><time>2026-05-01T08:56:04.603Z</time></trkpt><trkpt lat="43.4748624" lon="11.1585809"><ele>154.20000000000002</ele><time>2026-05-01T08:56:05.607Z</time></trkpt><trkpt lat="43.4748786" lon="11.1584353"><ele>153.0</ele><time>2026-05-01T08:56:06.674Z</time></trkpt><trkpt lat="43.4748946" lon="11.1582968"><ele>151.8</ele><time>2026-05-01T08:56:07.639Z</time></trkpt><trkpt lat="43.4749079" lon="11.1581546"><ele>150.60000000000002</ele><time>2026-05-01T08:56:08.595Z</time></trkpt><trkpt lat="43.4749205" lon="11.1580071"><ele>149.39999999999998</ele><time>2026-05-01T08:56:09.608Z</time></trkpt><trkpt lat="43.474938" lon="11.1578605"><ele>148.2</ele><time>2026-05-01T08:56:10.607Z</time></trkpt><trkpt lat="43.4749607" lon="11.1577117"><ele>147.0</ele><time>2026-05-01T08:56:11.671Z</time></trkpt><trkpt lat="43.4749882" lon="11.1575673"><ele>147.0</ele><time>2026-05-01T08:56:12.673Z</time></trkpt><trkpt lat="43.4750226" lon="11.1574187"><ele>147.0</ele><time>2026-05-01T08:56:13.598Z</time></trkpt><trkpt lat="43.4750731" lon="11.1572697"><ele>147.0</ele><time>2026-05-01T08:56:14.604Z</time></trkpt><trkpt lat="43.4751182" lon="11.1571308"><ele>147.0</ele><time>2026-05-01T08:56:15.596Z</time></trkpt><trkpt lat="43.4751614" lon="11.156992"><ele>146.0</ele><time>2026-05-01T08:56:16.67Z</time></trkpt><trkpt lat="43.4752023" lon="11.1568613"><ele>145.0</ele><time>2026-05-01T08:56:17.592Z</time></trkpt><trkpt lat="43.4752458" lon="11.1567222"><ele>144.0</ele><time>2026-05-01T08:56:18.606Z</time></trkpt><trkpt lat="43.4752923" lon="11.1565853"><ele>143.0</ele><time>2026-05-01T08:56:19.598Z</time></trkpt><trkpt lat="43.4753381" lon="11.1564468"><ele>142.0</ele><time>2026-05-01T08:56:20.662Z</time></trkpt><trkpt lat="43.4753839" lon="11.1563127"><ele>141.79999999999998</ele><time>2026-05-01T08:56:21.664Z</time></trkpt><trkpt lat="43.4754272" lon="11.1561793"><ele>141.6</ele><time>2026-05-01T08:56:22.578Z</time></trkpt><trkpt lat="43.4754588" lon="11.1560398"><ele>141.39999999999998</ele><time>2026-05-01T08:56:23.599Z</time></trkpt><trkpt lat="43.4754681" lon="11.1558895"><ele>141.2</ele><time>2026-05-01T08:56:24.6Z</time></trkpt><trkpt lat="43.475452" lon="11.1557334"><ele>141.0</ele><time>2026-05-01T08:56:25.653Z</time></trkpt><trkpt lat="43.4754175" lon="11.1555948"><ele>141.0</ele><time>2026-05-01T08:56:26.601Z</time></trkpt><trkpt lat="43.4753581" lon="11.1554701"><ele>141.0</ele><time>2026-05-01T08:56:27.595Z</time></trkpt><trkpt lat="43.4752824" lon="11.1553553"><ele>141.0</ele><time>2026-05-01T08:56:28.61Z</time></trkpt><trkpt lat="43.4752016" lon="11.1552523"><ele>141.0</ele><time>2026-05-01T08:56:29.609Z</time></trkpt><trkpt lat="43.4751165" lon="11.155151"><ele>141.0</ele><time>2026-05-01T08:56:30.593Z</time></trkpt><trkpt lat="43.4750329" lon="11.1550464"><ele>141.0</ele><time>2026-05-01T08:56:31.603Z</time></trkpt><trkpt lat="43.4749491" lon="11.1549412"><ele>141.0</ele><time>2026-05-01T08:56:32.597Z</time></trkpt><trkpt lat="43.4748671" lon="11.1548295"><ele>141.0</ele><time>2026-05-01T08:56:33.586Z</time></trkpt><trkpt lat="43.4747928" lon="11.1547068"><ele>141.0</ele><time>2026-05-01T08:56:34.602Z</time></trkpt><trkpt lat="43.4747279" lon="11.1545742"><ele>141.5</ele><time>2026-05-01T08:56:35.601Z</time></trkpt><trkpt lat="43.4746791" lon="11.1544322"><ele>142.0</ele><time>2026-05-01T08:56:36.604Z</time></trkpt><trkpt lat="43.4746457" lon="11.1542805"><ele>142.5</ele><time>2026-05-01T08:56:37.594Z</time></trkpt><trkpt lat="43.474621" lon="11.154122"><ele>143.0</ele><time>2026-05-01T08:56:38.583Z</time></trkpt><trkpt lat="43.4746028" lon="11.1539641"><ele>141.6</ele><time>2026-05-01T08:56:39.603Z</time></trkpt><trkpt lat="43.4745885" lon="11.1538054"><ele>140.20000000000002</ele><time>2026-05-01T08:56:40.68Z</time></trkpt><trkpt lat="43.4745905" lon="11.1536635"><ele>138.8</ele><time>2026-05-01T08:56:41.597Z</time></trkpt><trkpt lat="43.4746049" lon="11.1535221"><ele>137.4</ele><time>2026-05-01T08:56:42.597Z</time></trkpt><trkpt lat="43.474634" lon="11.1534098"><ele>136.0</ele><time>2026-05-01T08:56:43.606Z</time></trkpt><trkpt lat="43.4746955" lon="11.1533171"><ele>136.0</ele><time>2026-05-01T08:56:44.596Z</time></trkpt><trkpt lat="43.4747646" lon="11.1532477"><ele>136.0</ele><time>2026-05-01T08:56:45.606Z</time></trkpt><trkpt lat="43.4748468" lon="11.1532017"><ele>136.0</ele><time>2026-05-01T08:56:46.665Z</time></trkpt><trkpt lat="43.4749321" lon="11.1531673"><ele>136.0</ele><time>2026-05-01T08:56:47.666Z</time></trkpt><trkpt lat="43.4750145" lon="11.1531311"><ele>136.0</ele><time>2026-05-01T08:56:48.593Z</time></trkpt><trkpt lat="43.4751002" lon="11.1530837"><ele>136.0</ele><time>2026-05-01T08:56:49.605Z</time></trkpt><trkpt lat="43.4751868" lon="11.1530323"><ele>135.16666666666669</ele><time>2026-05-01T08:56:50.667Z</time></trkpt><trkpt lat="43.4752677" lon="11.1529801"><ele>134.33333333333334</ele><time>2026-05-01T08:56:51.678Z</time></trkpt><trkpt lat="43.475348" lon="11.1529292"><ele>133.5</ele><time>2026-05-01T08:56:52.68Z</time></trkpt><trkpt lat="43.4754249" lon="11.1528804"><ele>132.66666666666666</ele><time>2026-05-01T08:56:53.606Z</time></trkpt><trkpt lat="43.4755002" lon="11.1528298"><ele>131.83333333333331</ele><time>2026-05-01T08:56:54.586Z</time></trkpt><trkpt lat="43.4755709" lon="11.1527812"><ele>131.0</ele><time>2026-05-01T08:56:55.606Z</time></trkpt><trkpt lat="43.4756532" lon="11.1527279"><ele>131.0</ele><time>2026-05-01T08:56:56.665Z</time></trkpt><trkpt lat="43.4757439" lon="11.1526627"><ele>131.0</ele><time>2026-05-01T08:56:57.674Z</time></trkpt><trkpt lat="43.4758263" lon="11.1526181"><ele>131.0</ele><time>2026-05-01T08:56:58.582Z</time></trkpt><trkpt lat="43.4759181" lon="11.1525617"><ele>131.0</ele><time>2026-05-01T08:56:59.599Z</time></trkpt><trkpt lat="43.4760208" lon="11.1524804"><ele>131.0</ele><time>2026-05-01T08:57:00.657Z</time></trkpt><trkpt lat="43.4761022" lon="11.1523698"><ele>129.6</ele><time>2026-05-01T08:57:01.589Z</time></trkpt><trkpt lat="43.4761636" lon="11.1522568"><ele>128.2</ele><time>2026-05-01T08:57:02.6Z</time></trkpt><trkpt lat="43.4761981" lon="11.1521345"><ele>126.80000000000001</ele><time>2026-05-01T08:57:03.592Z</time></trkpt><trkpt lat="43.4761979" lon="11.1520148"><ele>125.4</ele><time>2026-05-01T08:57:04.593Z</time></trkpt><trkpt lat="43.4761818" lon="11.1518853"><ele>124.0</ele><time>2026-05-01T08:57:05.603Z</time></trkpt><trkpt lat="43.4761588" lon="11.1517511"><ele>124.0</ele><time>2026-05-01T08:57:06.593Z</time></trkpt><trkpt lat="43.4761281" lon="11.1516124"><ele>124.0</ele><time>2026-05-01T08:57:07.601Z</time></trkpt><trkpt lat="43.4760764" lon="11.1514846"><ele>124.0</ele><time>2026-05-01T08:57:08.604Z</time></trkpt><trkpt lat="43.476023" lon="11.1513583"><ele>124.0</ele><time>2026-05-01T08:57:09.594Z</time></trkpt><trkpt lat="43.4759714" lon="11.1512399"><ele>124.0</ele><time>2026-05-01T08:57:10.603Z</time></trkpt><trkpt lat="43.475918" lon="11.1511264"><ele>123.80000000000001</ele><time>2026-05-01T08:57:11.599Z</time></trkpt><trkpt lat="43.4758695" lon="11.1510179"><ele>123.60000000000001</ele><time>2026-05-01T08:57:12.598Z</time></trkpt><trkpt lat="43.4758212" lon="11.1509098"><ele>123.4</ele><time>2026-05-01T08:57:13.606Z</time></trkpt><trkpt lat="43.4757707" lon="11.1508058"><ele>123.2</ele><time>2026-05-01T08:57:14.602Z</time></trkpt><trkpt lat="43.4757202" lon="11.1507022"><ele>123.0</ele><time>2026-05-01T08:57:15.605Z</time></trkpt><trkpt lat="43.4756723" lon="11.1506002"><ele>123.0</ele><time>2026-05-01T08:57:16.594Z</time></trkpt><trkpt lat="43.4756254" lon="11.1504913"><ele>123.0</ele><time>2026-05-01T08:57:17.676Z</time></trkpt><trkpt lat="43.4755859" lon="11.1503903"><ele>123.0</ele><time>2026-05-01T08:57:18.58Z</time></trkpt><trkpt lat="43.4755482" lon="11.1502758"><ele>123.0</ele><time>2026-05-01T08:57:19.602Z</time></trkpt><trkpt lat="43.4755093" lon="11.1501582"><ele>123.0</ele><time>2026-05-01T08:57:20.654Z</time></trkpt><trkpt lat="43.4754699" lon="11.1500481"><ele>123.0</ele><time>2026-05-01T08:57:21.602Z</time></trkpt><trkpt lat="43.475443" lon="11.1499181"><ele>119.2</ele><time>2026-05-01T08:57:22.67Z</time></trkpt><trkpt lat="43.4754173" lon="11.1497982"><ele>115.4</ele><time>2026-05-01T08:57:23.614Z</time></trkpt><trkpt lat="43.4753977" lon="11.1496708"><ele>111.60000000000001</ele><time>2026-05-01T08:57:24.607Z</time></trkpt><trkpt lat="43.4753967" lon="11.1495166"><ele>107.80000000000001</ele><time>2026-05-01T08:57:25.598Z</time></trkpt><trkpt lat="43.4754106" lon="11.1493589"><ele>104.0</ele><time>2026-05-01T08:57:26.671Z</time></trkpt><trkpt lat="43.4754297" lon="11.1492212"><ele>105.0</ele><time>2026-05-01T08:57:27.681Z</time></trkpt><trkpt lat="43.4754481" lon="11.1490933"><ele>106.0</ele><time>2026-05-01T08:57:28.594Z</time></trkpt><trkpt lat="43.4754737" lon="11.1489546"><ele>107.0</ele><time>2026-05-01T08:57:29.599Z</time></trkpt><trkpt lat="43.4754983" lon="11.148814"><ele>108.0</ele><time>2026-05-01T08:57:30.652Z</time></trkpt><trkpt lat="43.4755283" lon="11.1486833"><ele>109.0</ele><time>2026-05-01T08:57:31.601Z</time></trkpt><trkpt lat="43.4755582" lon="11.1485469"><ele>109.0</ele><time>2026-05-01T08:57:32.587Z</time></trkpt><trkpt lat="43.4755983" lon="11.1484134"><ele>109.0</ele><time>2026-05-01T08:57:33.592Z</time></trkpt><trkpt lat="43.4756623" lon="11.1483011"><ele>109.0</ele><time>2026-05-01T08:57:34.608Z</time></trkpt><trkpt lat="43.4757358" lon="11.1481995"><ele>109.0</ele><time>2026-05-01T08:57:35.606Z</time></trkpt><trkpt lat="43.4758117" lon="11.1481035"><ele>109.0</ele><time>2026-05-01T08:57:36.665Z</time></trkpt><trkpt lat="43.4758802" lon="11.1480155"><ele>108.0</ele><time>2026-05-01T08:57:37.587Z</time></trkpt><trkpt lat="43.4759515" lon="11.1479225"><ele>107.0</ele><time>2026-05-01T08:57:38.595Z</time></trkpt><trkpt lat="43.4760203" lon="11.1478336"><ele>106.0</ele><time>2026-05-01T08:57:39.598Z</time></trkpt><trkpt lat="43.4760834" lon="11.1477388"><ele>105.0</ele><time>2026-05-01T08:57:40.606Z</time></trkpt><trkpt lat="43.4761455" lon="11.1476404"><ele>104.0</ele><time>2026-05-01T08:57:41.593Z</time></trkpt><trkpt lat="43.4762064" lon="11.1475423"><ele>103.99999999999999</ele><time>2026-05-01T08:57:42.608Z</time></trkpt><trkpt lat="43.4762587" lon="11.1474535"><ele>104.0</ele><time>2026-05-01T08:57:43.593Z</time></trkpt><trkpt lat="43.4763037" lon="11.1473701"><ele>104.0</ele><time>2026-05-01T08:57:44.603Z</time></trkpt><trkpt lat="43.476341" lon="11.1472938"><ele>104.0</ele><time>2026-05-01T08:57:45.609Z</time></trkpt><trkpt lat="43.4763833" lon="11.1471781"><ele>103.99999999999999</ele><time>2026-05-01T08:57:47.584Z</time></trkpt><trkpt lat="43.4763708" lon="11.147091"><ele>104.0</ele><time>2026-05-01T08:57:55.658Z</time></trkpt><trkpt lat="43.4763184" lon="11.1470258"><ele>103.4</ele><time>2026-05-01T08:57:57.68Z</time></trkpt><trkpt lat="43.4762157" lon="11.1469477"><ele>102.80000000000001</ele><time>2026-05-01T08:58:00.615Z</time></trkpt><trkpt lat="43.4761361" lon="11.1469514"><ele>102.19999999999999</ele><time>2026-05-01T08:58:01.676Z</time></trkpt><trkpt lat="43.4760296" lon="11.1469423"><ele>101.6</ele><time>2026-05-01T08:58:03.598Z</time></trkpt><trkpt lat="43.4759598" lon="11.1469271"><ele>101.0</ele><time>2026-05-01T08:58:04.612Z</time></trkpt><trkpt lat="43.4758501" lon="11.146932"><ele>101.0</ele><time>2026-05-01T08:58:06.672Z</time></trkpt><trkpt lat="43.4757325" lon="11.1469303"><ele>101.0</ele><time>2026-05-01T08:58:08.602Z</time></trkpt><trkpt lat="43.4756261" lon="11.1469171"><ele>101.0</ele><time>2026-05-01T08:58:10.6Z</time></trkpt><trkpt lat="43.4755081" lon="11.1469169"><ele>101.0</ele><time>2026-05-01T08:58:12.591Z</time></trkpt><trkpt lat="43.475397" lon="11.1469152"><ele>100.8</ele><time>2026-05-01T08:58:14.599Z</time></trkpt><trkpt lat="43.4752737" lon="11.1469059"><ele>100.6</ele><time>2026-05-01T08:58:16.605Z</time></trkpt><trkpt lat="43.4751688" lon="11.1469038"><ele>100.4</ele><time>2026-05-01T08:58:18.614Z</time></trkpt><trkpt lat="43.4750546" lon="11.1468676"><ele>100.2</ele><time>2026-05-01T08:58:20.612Z</time></trkpt><trkpt lat="43.4749867" lon="11.1468521"><ele>100.0</ele><time>2026-05-01T08:58:21.676Z</time></trkpt><trkpt lat="43.4748727" lon="11.146819"><ele>100.00000000000001</ele><time>2026-05-01T08:58:23.592Z</time></trkpt><trkpt lat="43.4748068" lon="11.1468065"><ele>100.0</ele><time>2026-05-01T08:58:24.597Z</time></trkpt><trkpt lat="43.4747354" lon="11.1468044"><ele>100.0</ele><time>2026-05-01T08:58:25.596Z</time></trkpt><trkpt lat="43.4746621" lon="11.1468057"><ele>100.0</ele><time>2026-05-01T08:58:26.69Z</time></trkpt><trkpt lat="43.474544" lon="11.1468226"><ele>100.00000000000001</ele><time>2026-05-01T08:58:28.595Z</time></trkpt><trkpt lat="43.4744641" lon="11.1468468"><ele>100.0</ele><time>2026-05-01T08:58:29.608Z</time></trkpt><trkpt lat="43.4743721" lon="11.146857"><ele>100.16666666666667</ele><time>2026-05-01T08:58:30.606Z</time></trkpt><trkpt lat="43.4742913" lon="11.1468569"><ele>100.33333333333334</ele><time>2026-05-01T08:58:31.664Z</time></trkpt><trkpt lat="43.4742168" lon="11.1468463"><ele>100.5</ele><time>2026-05-01T08:58:32.685Z</time></trkpt><trkpt lat="43.4740907" lon="11.1468484"><ele>100.66666666666666</ele><time>2026-05-01T08:58:34.607Z</time></trkpt><trkpt lat="43.4740178" lon="11.1468392"><ele>100.83333333333333</ele><time>2026-05-01T08:58:35.61Z</time></trkpt><trkpt lat="43.4739495" lon="11.1468325"><ele>101.0</ele><time>2026-05-01T08:58:36.68Z</time></trkpt><trkpt lat="43.4738859" lon="11.1468212"><ele>100.99999999999999</ele><time>2026-05-01T08:58:37.67Z</time></trkpt><trkpt lat="43.473819" lon="11.1468088"><ele>101.0</ele><time>2026-05-01T08:58:38.588Z</time></trkpt><trkpt lat="43.4737484" lon="11.1468018"><ele>101.0</ele><time>2026-05-01T08:58:39.613Z</time></trkpt><trkpt lat="43.4736238" lon="11.1467859"><ele>101.0</ele><time>2026-05-01T08:58:41.594Z</time></trkpt><trkpt lat="43.4735589" lon="11.1467764"><ele>100.99999999999999</ele><time>2026-05-01T08:58:42.673Z</time></trkpt><trkpt lat="43.4734956" lon="11.1467691"><ele>101.0</ele><time>2026-05-01T08:58:43.596Z</time></trkpt><trkpt lat="43.4734319" lon="11.1467654"><ele>100.83333333333333</ele><time>2026-05-01T08:58:44.584Z</time></trkpt><trkpt lat="43.473364" lon="11.146763"><ele>100.66666666666666</ele><time>2026-05-01T08:58:45.605Z</time></trkpt><trkpt lat="43.4732318" lon="11.146763"><ele>100.5</ele><time>2026-05-01T08:58:47.595Z</time></trkpt><trkpt lat="43.4731655" lon="11.1467608"><ele>100.33333333333334</ele><time>2026-05-01T08:58:48.597Z</time></trkpt><trkpt lat="43.473096" lon="11.1467586"><ele>100.16666666666667</ele><time>2026-05-01T08:58:49.588Z</time></trkpt><trkpt lat="43.4730242" lon="11.1467556"><ele>100.0</ele><time>2026-05-01T08:58:50.583Z</time></trkpt><trkpt lat="43.4729533" lon="11.1467518"><ele>100.14285714285715</ele><time>2026-05-01T08:58:51.608Z</time></trkpt><trkpt lat="43.4728858" lon="11.1467484"><ele>100.28571428571429</ele><time>2026-05-01T08:58:52.612Z</time></trkpt><trkpt lat="43.4728201" lon="11.1467446"><ele>100.42857142857143</ele><time>2026-05-01T08:58:53.581Z</time></trkpt><trkpt lat="43.47275" lon="11.1467446"><ele>100.57142857142858</ele><time>2026-05-01T08:58:54.602Z</time></trkpt><trkpt lat="43.4726771" lon="11.1467531"><ele>100.71428571428571</ele><time>2026-05-01T08:58:55.598Z</time></trkpt><trkpt lat="43.472608" lon="11.1467652"><ele>100.85714285714286</ele><time>2026-05-01T08:58:56.605Z</time></trkpt><trkpt lat="43.4725398" lon="11.1467855"><ele>101.0</ele><time>2026-05-01T08:58:57.608Z</time></trkpt><trkpt lat="43.4724705" lon="11.1468204"><ele>101.0</ele><time>2026-05-01T08:58:58.588Z</time></trkpt><trkpt lat="43.4724045" lon="11.1468744"><ele>101.0</ele><time>2026-05-01T08:58:59.607Z</time></trkpt><trkpt lat="43.4723418" lon="11.1469468"><ele>101.0</ele><time>2026-05-01T08:59:00.679Z</time></trkpt><trkpt lat="43.4722891" lon="11.1470158"><ele>101.0</ele><time>2026-05-01T08:59:01.599Z</time></trkpt><trkpt lat="43.4722453" lon="11.1470977"><ele>101.0</ele><time>2026-05-01T08:59:02.577Z</time></trkpt><trkpt lat="43.4722088" lon="11.1471838"><ele>101.0</ele><time>2026-05-01T08:59:03.6Z</time></trkpt><trkpt lat="43.4721745" lon="11.1472679"><ele>101.0</ele><time>2026-05-01T08:59:04.606Z</time></trkpt><trkpt lat="43.4721377" lon="11.1473465"><ele>100.83333333333333</ele><time>2026-05-01T08:59:05.607Z</time></trkpt><trkpt lat="43.4721003" lon="11.147421"><ele>100.66666666666666</ele><time>2026-05-01T08:59:06.668Z</time></trkpt><trkpt lat="43.4720187" lon="11.1475691"><ele>100.5</ele><time>2026-05-01T08:59:08.58Z</time></trkpt><trkpt lat="43.4719518" lon="11.1476376"><ele>100.33333333333334</ele><time>2026-05-01T08:59:09.592Z</time></trkpt><trkpt lat="43.4718858" lon="11.1476897"><ele>100.16666666666667</ele><time>2026-05-01T08:59:10.649Z</time></trkpt><trkpt lat="43.4718362" lon="11.14776"><ele>100.0</ele><time>2026-05-01T08:59:11.614Z</time></trkpt><trkpt lat="43.4718027" lon="11.147848"><ele>100.00000000000001</ele><time>2026-05-01T08:59:12.667Z</time></trkpt><trkpt lat="43.4717697" lon="11.1479281"><ele>100.0</ele><time>2026-05-01T08:59:13.586Z</time></trkpt><trkpt lat="43.471729" lon="11.148001"><ele>100.0</ele><time>2026-05-01T08:59:14.605Z</time></trkpt><trkpt lat="43.4716901" lon="11.1480703"><ele>100.0</ele><time>2026-05-01T08:59:15.659Z</time></trkpt><trkpt lat="43.4716511" lon="11.1481388"><ele>100.00000000000001</ele><time>2026-05-01T08:59:16.678Z</time></trkpt><trkpt lat="43.4716201" lon="11.148222"><ele>100.0</ele><time>2026-05-01T08:59:17.665Z</time></trkpt><trkpt lat="43.4715537" lon="11.1483672"><ele>100.00000000000001</ele><time>2026-05-01T08:59:19.608Z</time></trkpt><trkpt lat="43.4715155" lon="11.1484404"><ele>100.0</ele><time>2026-05-01T08:59:20.652Z</time></trkpt><trkpt lat="43.4714814" lon="11.1485157"><ele>100.0</ele><time>2026-05-01T08:59:21.611Z</time></trkpt><trkpt lat="43.4714396" lon="11.1485926"><ele>100.0</ele><time>2026-05-01T08:59:22.598Z</time></trkpt><trkpt lat="43.4713942" lon="11.1486662"><ele>100.0</ele><time>2026-05-01T08:59:23.602Z</time></trkpt><trkpt lat="43.4713494" lon="11.1487362"><ele>100.00000000000001</ele><time>2026-05-01T08:59:24.598Z</time></trkpt><trkpt lat="43.4713088" lon="11.1488094"><ele>100.0</ele><time>2026-05-01T08:59:25.608Z</time></trkpt><trkpt lat="43.471267" lon="11.1488819"><ele>100.00000000000001</ele><time>2026-05-01T08:59:26.6Z</time></trkpt><trkpt lat="43.4712263" lon="11.1489589"><ele>100.0</ele><time>2026-05-01T08:59:27.607Z</time></trkpt><trkpt lat="43.4711807" lon="11.149026"><ele>100.0</ele><time>2026-05-01T08:59:28.596Z</time></trkpt><trkpt lat="43.4711303" lon="11.1490923"><ele>100.0</ele><time>2026-05-01T08:59:29.612Z</time></trkpt><trkpt lat="43.4710791" lon="11.1491588"><ele>100.0</ele><time>2026-05-01T08:59:30.609Z</time></trkpt><trkpt lat="43.4710293" lon="11.1492243"><ele>100.00000000000001</ele><time>2026-05-01T08:59:31.606Z</time></trkpt><trkpt lat="43.4709806" lon="11.1492929"><ele>100.0</ele><time>2026-05-01T08:59:32.611Z</time></trkpt><trkpt lat="43.4709383" lon="11.1493634"><ele>100.16666666666667</ele><time>2026-05-01T08:59:33.597Z</time></trkpt><trkpt lat="43.4708952" lon="11.1494281"><ele>100.33333333333334</ele><time>2026-05-01T08:59:34.597Z</time></trkpt><trkpt lat="43.4708489" lon="11.1494929"><ele>100.5</ele><time>2026-05-01T08:59:35.611Z</time></trkpt><trkpt lat="43.4708032" lon="11.1495542"><ele>100.66666666666666</ele><time>2026-05-01T08:59:36.604Z</time></trkpt><trkpt lat="43.4707154" lon="11.149685"><ele>100.83333333333333</ele><time>2026-05-01T08:59:38.606Z</time></trkpt><trkpt lat="43.4706714" lon="11.1497519"><ele>101.0</ele><time>2026-05-01T08:59:39.617Z</time></trkpt><trkpt lat="43.4705927" lon="11.149884"><ele>100.99999999999999</ele><time>2026-05-01T08:59:41.606Z</time></trkpt><trkpt lat="43.4705518" lon="11.149952"><ele>101.0</ele><time>2026-05-01T08:59:42.603Z</time></trkpt><trkpt lat="43.4705051" lon="11.1500132"><ele>101.0</ele><time>2026-05-01T08:59:43.603Z</time></trkpt><trkpt lat="43.4704569" lon="11.1500755"><ele>101.0</ele><time>2026-05-01T08:59:44.612Z</time></trkpt><trkpt lat="43.470411" lon="11.15014"><ele>100.99999999999999</ele><time>2026-05-01T08:59:45.587Z</time></trkpt><trkpt lat="43.4703711" lon="11.1502102"><ele>101.0</ele><time>2026-05-01T08:59:46.671Z</time></trkpt><trkpt lat="43.470256" lon="11.1503892"><ele>101.0</ele><time>2026-05-01T08:59:49.607Z</time></trkpt><trkpt lat="43.4702181" lon="11.1504617"><ele>101.0</ele><time>2026-05-01T08:59:50.663Z</time></trkpt><trkpt lat="43.4701692" lon="11.1505261"><ele>101.0</ele><time>2026-05-01T08:59:51.67Z</time></trkpt><trkpt lat="43.4701197" lon="11.1505912"><ele>101.0</ele><time>2026-05-01T08:59:52.597Z</time></trkpt><trkpt lat="43.4700754" lon="11.1506589"><ele>101.0</ele><time>2026-05-01T08:59:53.603Z</time></trkpt><trkpt lat="43.4700318" lon="11.1507216"><ele>101.0</ele><time>2026-05-01T08:59:54.598Z</time></trkpt><trkpt lat="43.4699804" lon="11.1507831"><ele>101.0</ele><time>2026-05-01T08:59:55.663Z</time></trkpt><trkpt lat="43.4699284" lon="11.1508434"><ele>101.0</ele><time>2026-05-01T08:59:56.6Z</time></trkpt><trkpt lat="43.4698814" lon="11.1509077"><ele>101.0</ele><time>2026-05-01T08:59:57.597Z</time></trkpt><trkpt lat="43.4697975" lon="11.1510247"><ele>101.0</ele><time>2026-05-01T08:59:59.604Z</time></trkpt><trkpt lat="43.4697113" lon="11.1511384"><ele>101.0</ele><time>2026-05-01T09:00:01.613Z</time></trkpt><trkpt lat="43.4696274" lon="11.1512641"><ele>101.0</ele><time>2026-05-01T09:00:03.607Z</time></trkpt><trkpt lat="43.4695488" lon="11.1513894"><ele>101.0</ele><time>2026-05-01T09:00:05.614Z</time></trkpt><trkpt lat="43.4694751" lon="11.1515115"><ele>101.0</ele><time>2026-05-01T09:00:07.67Z</time></trkpt><trkpt lat="43.469404" lon="11.1516273"><ele>101.0</ele><time>2026-05-01T09:00:09.599Z</time></trkpt><trkpt lat="43.4693102" lon="11.1517292"><ele>101.0</ele><time>2026-05-01T09:00:11.581Z</time></trkpt><trkpt lat="43.4692073" lon="11.1517766"><ele>101.25</ele><time>2026-05-01T09:00:13.594Z</time></trkpt><trkpt lat="43.4691013" lon="11.1518299"><ele>101.5</ele><time>2026-05-01T09:00:15.58Z</time></trkpt><trkpt lat="43.468991" lon="11.151891"><ele>101.75</ele><time>2026-05-01T09:00:17.613Z</time></trkpt><trkpt lat="43.468887" lon="11.1519382"><ele>102.0</ele><time>2026-05-01T09:00:19.609Z</time></trkpt><trkpt lat="43.4687697" lon="11.1519958"><ele>101.66666666666667</ele><time>2026-05-01T09:00:21.675Z</time></trkpt><trkpt lat="43.4687078" lon="11.1520273"><ele>101.33333333333334</ele><time>2026-05-01T09:00:22.667Z</time></trkpt><trkpt lat="43.4686461" lon="11.1520618"><ele>101.0</ele><time>2026-05-01T09:00:23.604Z</time></trkpt><trkpt lat="43.46858" lon="11.1520855"><ele>100.66666666666667</ele><time>2026-05-01T09:00:24.602Z</time></trkpt><trkpt lat="43.4684535" lon="11.1521281"><ele>100.33333333333334</ele><time>2026-05-01T09:00:26.584Z</time></trkpt><trkpt lat="43.4683805" lon="11.1521488"><ele>100.0</ele><time>2026-05-01T09:00:27.681Z</time></trkpt><trkpt lat="43.4682829" lon="11.1521976"><ele>100.00000000000001</ele><time>2026-05-01T09:00:29.606Z</time></trkpt><trkpt lat="43.468211" lon="11.1522149"><ele>100.0</ele><time>2026-05-01T09:00:30.665Z</time></trkpt><trkpt lat="43.468147" lon="11.1522348"><ele>100.0</ele><time>2026-05-01T09:00:31.598Z</time></trkpt><trkpt lat="43.4680824" lon="11.1522604"><ele>100.0</ele><time>2026-05-01T09:00:32.609Z</time></trkpt><trkpt lat="43.4680202" lon="11.1522998"><ele>100.0</ele><time>2026-05-01T09:00:33.609Z</time></trkpt><trkpt lat="43.4679557" lon="11.1523427"><ele>100.00000000000001</ele><time>2026-05-01T09:00:34.597Z</time></trkpt><trkpt lat="43.4678944" lon="11.15238"><ele>100.0</ele><time>2026-05-01T09:00:35.612Z</time></trkpt><trkpt lat="43.4678341" lon="11.1524099"><ele>100.2</ele><time>2026-05-01T09:00:36.602Z</time></trkpt><trkpt lat="43.4677712" lon="11.1524342"><ele>100.4</ele><time>2026-05-01T09:00:37.606Z</time></trkpt><trkpt lat="43.4676551" lon="11.1524635"><ele>100.6</ele><time>2026-05-01T09:00:39.6Z</time></trkpt><trkpt lat="43.4675391" lon="11.1525004"><ele>100.8</ele><time>2026-05-01T09:00:41.596Z</time></trkpt><trkpt lat="43.4674267" lon="11.1525253"><ele>101.0</ele><time>2026-05-01T09:00:43.596Z</time></trkpt><trkpt lat="43.4673055" lon="11.1525295"><ele>101.0</ele><time>2026-05-01T09:00:45.693Z</time></trkpt><trkpt lat="43.4671874" lon="11.1525537"><ele>101.0</ele><time>2026-05-01T09:00:47.679Z</time></trkpt><trkpt lat="43.4670763" lon="11.1526169"><ele>101.0</ele><time>2026-05-01T09:00:49.603Z</time></trkpt><trkpt lat="43.4670239" lon="11.1526654"><ele>101.0</ele><time>2026-05-01T09:00:50.647Z</time></trkpt><trkpt lat="43.4669388" lon="11.1527851"><ele>101.0</ele><time>2026-05-01T09:00:52.677Z</time></trkpt><trkpt lat="43.4668666" lon="11.152902"><ele>101.28571428571428</ele><time>2026-05-01T09:00:54.611Z</time></trkpt><trkpt lat="43.4668225" lon="11.152966"><ele>101.57142857142857</ele><time>2026-05-01T09:00:55.662Z</time></trkpt><trkpt lat="43.4667792" lon="11.1530349"><ele>101.85714285714286</ele><time>2026-05-01T09:00:56.6Z</time></trkpt><trkpt lat="43.466735" lon="11.1531062"><ele>102.14285714285714</ele><time>2026-05-01T09:00:57.586Z</time></trkpt><trkpt lat="43.466697" lon="11.1531828"><ele>102.42857142857143</ele><time>2026-05-01T09:00:58.593Z</time></trkpt><trkpt lat="43.4666542" lon="11.1532528"><ele>102.71428571428571</ele><time>2026-05-01T09:00:59.606Z</time></trkpt><trkpt lat="43.4666082" lon="11.1533218"><ele>103.0</ele><time>2026-05-01T09:01:00.652Z</time></trkpt><trkpt lat="43.4665662" lon="11.153395"><ele>102.99999999999999</ele><time>2026-05-01T09:01:01.67Z</time></trkpt><trkpt lat="43.4665256" lon="11.1534705"><ele>103.0</ele><time>2026-05-01T09:01:02.678Z</time></trkpt><trkpt lat="43.4664777" lon="11.1535397"><ele>103.0</ele><time>2026-05-01T09:01:03.594Z</time></trkpt><trkpt lat="43.4664238" lon="11.1536087"><ele>103.0</ele><time>2026-05-01T09:01:04.607Z</time></trkpt><trkpt lat="43.4663741" lon="11.1536772"><ele>103.0</ele><time>2026-05-01T09:01:05.606Z</time></trkpt><trkpt lat="43.4663338" lon="11.1537461"><ele>102.99999999999999</ele><time>2026-05-01T09:01:06.613Z</time></trkpt><trkpt lat="43.4662938" lon="11.1538178"><ele>103.0</ele><time>2026-05-01T09:01:07.605Z</time></trkpt><trkpt lat="43.4662127" lon="11.153954"><ele>103.33333333333334</ele><time>2026-05-01T09:01:09.623Z</time></trkpt><trkpt lat="43.4661374" lon="11.1540992"><ele>103.66666666666667</ele><time>2026-05-01T09:01:11.617Z</time></trkpt><trkpt lat="43.4660968" lon="11.154173"><ele>104.0</ele><time>2026-05-01T09:01:12.607Z</time></trkpt><trkpt lat="43.4660559" lon="11.1542495"><ele>104.33333333333334</ele><time>2026-05-01T09:01:13.581Z</time></trkpt><trkpt lat="43.4660174" lon="11.1543234"><ele>104.66666666666667</ele><time>2026-05-01T09:01:14.602Z</time></trkpt><trkpt lat="43.465977" lon="11.1543965"><ele>105.0</ele><time>2026-05-01T09:01:15.606Z</time></trkpt><trkpt lat="43.465938" lon="11.1544706"><ele>105.0</ele><time>2026-05-01T09:01:16.613Z</time></trkpt><trkpt lat="43.465907" lon="11.1545465"><ele>105.0</ele><time>2026-05-01T09:01:17.602Z</time></trkpt><trkpt lat="43.4658845" lon="11.1546309"><ele>105.0</ele><time>2026-05-01T09:01:18.601Z</time></trkpt><trkpt lat="43.4658652" lon="11.154718"><ele>105.0</ele><time>2026-05-01T09:01:19.611Z</time></trkpt><trkpt lat="43.4658494" lon="11.1548039"><ele>105.0</ele><time>2026-05-01T09:01:20.607Z</time></trkpt><trkpt lat="43.4658299" lon="11.1548913"><ele>105.0</ele><time>2026-05-01T09:01:21.604Z</time></trkpt><trkpt lat="43.4658087" lon="11.1549786"><ele>105.0</ele><time>2026-05-01T09:01:22.661Z</time></trkpt><trkpt lat="43.4657428" lon="11.1551133"><ele>105.0</ele><time>2026-05-01T09:01:24.609Z</time></trkpt><trkpt lat="43.4657106" lon="11.1551947"><ele>105.0</ele><time>2026-05-01T09:01:25.611Z</time></trkpt><trkpt lat="43.4656844" lon="11.1552859"><ele>105.0</ele><time>2026-05-01T09:01:26.61Z</time></trkpt><trkpt lat="43.4656573" lon="11.1553801"><ele>105.0</ele><time>2026-05-01T09:01:27.683Z</time></trkpt><trkpt lat="43.4656227" lon="11.1555465"><ele>105.0</ele><time>2026-05-01T09:01:29.609Z</time></trkpt><trkpt lat="43.4655932" lon="11.1557035"><ele>105.0</ele><time>2026-05-01T09:01:31.673Z</time></trkpt><trkpt lat="43.46554" lon="11.1558558"><ele>105.0</ele><time>2026-05-01T09:01:33.609Z</time></trkpt><trkpt lat="43.4655149" lon="11.1560277"><ele>105.0</ele><time>2026-05-01T09:01:35.601Z</time></trkpt><trkpt lat="43.4655035" lon="11.1561139"><ele>105.0</ele><time>2026-05-01T09:01:36.642Z</time></trkpt><trkpt lat="43.4654719" lon="11.1562618"><ele>105.0</ele><time>2026-05-01T09:01:38.603Z</time></trkpt><trkpt lat="43.4654364" lon="11.1564107"><ele>105.0</ele><time>2026-05-01T09:01:40.667Z</time></trkpt><trkpt lat="43.4653959" lon="11.1565585"><ele>105.0</ele><time>2026-05-01T09:01:42.598Z</time></trkpt><trkpt lat="43.465363" lon="11.1567084"><ele>105.0</ele><time>2026-05-01T09:01:44.598Z</time></trkpt><trkpt lat="43.4653328" lon="11.1568654"><ele>105.0</ele><time>2026-05-01T09:01:46.611Z</time></trkpt><trkpt lat="43.4653112" lon="11.1570271"><ele>105.0</ele><time>2026-05-01T09:01:48.599Z</time></trkpt><trkpt lat="43.465279" lon="11.1571885"><ele>105.0</ele><time>2026-05-01T09:01:50.599Z</time></trkpt><trkpt lat="43.4652432" lon="11.1573446"><ele>105.0</ele><time>2026-05-01T09:01:52.609Z</time></trkpt><trkpt lat="43.4652102" lon="11.1574935"><ele>105.0</ele><time>2026-05-01T09:01:54.612Z</time></trkpt><trkpt lat="43.4651694" lon="11.1576396"><ele>104.6</ele><time>2026-05-01T09:01:56.58Z</time></trkpt><trkpt lat="43.4651135" lon="11.157795"><ele>104.2</ele><time>2026-05-01T09:01:59.595Z</time></trkpt><trkpt lat="43.4650932" lon="11.1578923"><ele>103.80000000000001</ele><time>2026-05-01T09:02:01.661Z</time></trkpt><trkpt lat="43.4650649" lon="11.1580104"><ele>103.4</ele><time>2026-05-01T09:02:03.603Z</time></trkpt><trkpt lat="43.4650338" lon="11.1581171"><ele>103.0</ele><time>2026-05-01T09:02:05.605Z</time></trkpt><trkpt lat="43.4650068" lon="11.1582411"><ele>103.0</ele><time>2026-05-01T09:02:07.671Z</time></trkpt><trkpt lat="43.4649793" lon="11.158385"><ele>103.0</ele><time>2026-05-01T09:02:09.604Z</time></trkpt><trkpt lat="43.4649453" lon="11.1585126"><ele>103.0</ele><time>2026-05-01T09:02:11.586Z</time></trkpt><trkpt lat="43.464928" lon="11.1586471"><ele>103.0</ele><time>2026-05-01T09:02:13.597Z</time></trkpt><trkpt lat="43.4649103" lon="11.1587814"><ele>103.0</ele><time>2026-05-01T09:02:15.581Z</time></trkpt><trkpt lat="43.4648751" lon="11.1589137"><ele>103.2</ele><time>2026-05-01T09:02:17.597Z</time></trkpt><trkpt lat="43.4648372" lon="11.1590477"><ele>103.4</ele><time>2026-05-01T09:02:19.608Z</time></trkpt><trkpt lat="43.4647926" lon="11.1591704"><ele>103.60000000000001</ele><time>2026-05-01T09:02:21.608Z</time></trkpt><trkpt lat="43.4647368" lon="11.1592942"><ele>103.80000000000001</ele><time>2026-05-01T09:02:23.598Z</time></trkpt><trkpt lat="43.4646739" lon="11.1594127"><ele>104.0</ele><time>2026-05-01T09:02:25.591Z</time></trkpt><trkpt lat="43.4646001" lon="11.1595364"><ele>104.0</ele><time>2026-05-01T09:02:27.586Z</time></trkpt><trkpt lat="43.464524" lon="11.1596531"><ele>104.0</ele><time>2026-05-01T09:02:29.605Z</time></trkpt><trkpt lat="43.4644448" lon="11.1597644"><ele>104.0</ele><time>2026-05-01T09:02:31.645Z</time></trkpt><trkpt lat="43.4643574" lon="11.1598598"><ele>104.0</ele><time>2026-05-01T09:02:33.603Z</time></trkpt><trkpt lat="43.4642555" lon="11.1599366"><ele>103.80000000000001</ele><time>2026-05-01T09:02:35.609Z</time></trkpt><trkpt lat="43.4641969" lon="11.1599899"><ele>103.60000000000001</ele><time>2026-05-01T09:02:36.687Z</time></trkpt><trkpt lat="43.4641386" lon="11.1600327"><ele>103.4</ele><time>2026-05-01T09:02:37.615Z</time></trkpt><trkpt lat="43.4640366" lon="11.1601214"><ele>103.2</ele><time>2026-05-01T09:02:39.609Z</time></trkpt><trkpt lat="43.4639351" lon="11.1601967"><ele>103.0</ele><time>2026-05-01T09:02:41.608Z</time></trkpt><trkpt lat="43.4638174" lon="11.1602473"><ele>103.16666666666667</ele><time>2026-05-01T09:02:43.61Z</time></trkpt><trkpt lat="43.4637009" lon="11.1602847"><ele>103.33333333333334</ele><time>2026-05-01T09:02:45.656Z</time></trkpt><trkpt lat="43.4636411" lon="11.1603184"><ele>103.5</ele><time>2026-05-01T09:02:46.619Z</time></trkpt><trkpt lat="43.4635803" lon="11.1603589"><ele>103.66666666666666</ele><time>2026-05-01T09:02:47.576Z</time></trkpt><trkpt lat="43.4635178" lon="11.1603942"><ele>103.83333333333333</ele><time>2026-05-01T09:02:48.617Z</time></trkpt><trkpt lat="43.4634112" lon="11.1604849"><ele>104.0</ele><time>2026-05-01T09:02:50.602Z</time></trkpt><trkpt lat="43.4633558" lon="11.1605359"><ele>104.0</ele><time>2026-05-01T09:02:51.587Z</time></trkpt><trkpt lat="43.4632977" lon="11.1605801"><ele>104.0</ele><time>2026-05-01T09:02:52.608Z</time></trkpt><trkpt lat="43.4631932" lon="11.1606503"><ele>104.0</ele><time>2026-05-01T09:02:54.619Z</time></trkpt><trkpt lat="43.4630861" lon="11.1606988"><ele>104.0</ele><time>2026-05-01T09:02:56.62Z</time></trkpt><trkpt lat="43.4629642" lon="11.1606984"><ele>104.0</ele><time>2026-05-01T09:02:58.584Z</time></trkpt><trkpt lat="43.4628465" lon="11.1606663"><ele>105.0</ele><time>2026-05-01T09:03:00.621Z</time></trkpt><trkpt lat="43.4627323" lon="11.1606192"><ele>106.0</ele><time>2026-05-01T09:03:02.594Z</time></trkpt><trkpt lat="43.4626274" lon="11.16057"><ele>107.0</ele><time>2026-05-01T09:03:04.58Z</time></trkpt><trkpt lat="43.4625191" lon="11.1605374"><ele>108.0</ele><time>2026-05-01T09:03:06.648Z</time></trkpt><trkpt lat="43.4623671" lon="11.1603916"><ele>108.0</ele><time>2026-05-01T09:03:10.595Z</time></trkpt><trkpt lat="43.4622589" lon="11.1603428"><ele>108.00000000000001</ele><time>2026-05-01T09:03:12.666Z</time></trkpt><trkpt lat="43.4621429" lon="11.1603296"><ele>108.00000000000001</ele><time>2026-05-01T09:03:14.608Z</time></trkpt><trkpt lat="43.4620478" lon="11.1602991"><ele>108.0</ele><time>2026-05-01T09:03:16.677Z</time></trkpt><trkpt lat="43.4619568" lon="11.1602408"><ele>108.0</ele><time>2026-05-01T09:03:18.604Z</time></trkpt><trkpt lat="43.4618628" lon="11.1602017"><ele>108.16666666666667</ele><time>2026-05-01T09:03:20.659Z</time></trkpt><trkpt lat="43.4617706" lon="11.1601548"><ele>108.33333333333334</ele><time>2026-05-01T09:03:22.601Z</time></trkpt><trkpt lat="43.4616859" lon="11.1601018"><ele>108.5</ele><time>2026-05-01T09:03:24.603Z</time></trkpt><trkpt lat="43.4616093" lon="11.1600581"><ele>108.66666666666667</ele><time>2026-05-01T09:03:26.613Z</time></trkpt><trkpt lat="43.461528" lon="11.1600387"><ele>108.83333333333334</ele><time>2026-05-01T09:03:28.597Z</time></trkpt><trkpt lat="43.4614596" lon="11.1600322"><ele>109.0</ele><time>2026-05-01T09:03:30.595Z</time></trkpt><trkpt lat="43.4613951" lon="11.1599888"><ele>109.00000000000001</ele><time>2026-05-01T09:03:32.594Z</time></trkpt><trkpt lat="43.4613241" lon="11.1599194"><ele>109.0</ele><time>2026-05-01T09:03:34.659Z</time></trkpt><trkpt lat="43.4612281" lon="11.1598467"><ele>109.0</ele><time>2026-05-01T09:03:36.668Z</time></trkpt><trkpt lat="43.4611706" lon="11.1598022"><ele>109.0</ele><time>2026-05-01T09:03:37.666Z</time></trkpt><trkpt lat="43.4611038" lon="11.15973"><ele>109.00000000000001</ele><time>2026-05-01T09:03:38.595Z</time></trkpt><trkpt lat="43.4610311" lon="11.1596736"><ele>109.0</ele><time>2026-05-01T09:03:39.575Z</time></trkpt><trkpt lat="43.4609607" lon="11.1596387"><ele>110.4</ele><time>2026-05-01T09:03:40.661Z</time></trkpt><trkpt lat="43.4608473" lon="11.1595796"><ele>111.80000000000001</ele><time>2026-05-01T09:03:42.6Z</time></trkpt><trkpt lat="43.4607322" lon="11.1595366"><ele>113.19999999999999</ele><time>2026-05-01T09:03:44.597Z</time></trkpt><trkpt lat="43.4606221" lon="11.159497"><ele>114.6</ele><time>2026-05-01T09:03:46.67Z</time></trkpt><trkpt lat="43.4605626" lon="11.159429"><ele>116.0</ele><time>2026-05-01T09:03:48.601Z</time></trkpt><trkpt lat="43.4604997" lon="11.1594459"><ele>115.8</ele><time>2026-05-01T09:03:49.591Z</time></trkpt><trkpt lat="43.4604413" lon="11.1594783"><ele>115.6</ele><time>2026-05-01T09:03:50.609Z</time></trkpt><trkpt lat="43.4603335" lon="11.1594878"><ele>115.4</ele><time>2026-05-01T09:03:52.68Z</time></trkpt><trkpt lat="43.4602275" lon="11.159496"><ele>115.2</ele><time>2026-05-01T09:03:54.597Z</time></trkpt><trkpt lat="43.4601247" lon="11.1595269"><ele>115.0</ele><time>2026-05-01T09:03:56.587Z</time></trkpt><trkpt lat="43.4600327" lon="11.1595594"><ele>115.0</ele><time>2026-05-01T09:03:58.601Z</time></trkpt><trkpt lat="43.4599403" lon="11.1595715"><ele>115.0</ele><time>2026-05-01T09:04:00.603Z</time></trkpt><trkpt lat="43.4598383" lon="11.1596043"><ele>115.0</ele><time>2026-05-01T09:04:02.575Z</time></trkpt><trkpt lat="43.4597383" lon="11.1596309"><ele>115.0</ele><time>2026-05-01T09:04:04.603Z</time></trkpt><trkpt lat="43.4596366" lon="11.1596524"><ele>115.0</ele><time>2026-05-01T09:04:06.611Z</time></trkpt><trkpt lat="43.4595288" lon="11.1596713"><ele>114.6</ele><time>2026-05-01T09:04:08.605Z</time></trkpt><trkpt lat="43.4594224" lon="11.1597111"><ele>114.2</ele><time>2026-05-01T09:04:10.599Z</time></trkpt><trkpt lat="43.4593173" lon="11.1597438"><ele>113.80000000000001</ele><time>2026-05-01T09:04:12.606Z</time></trkpt><trkpt lat="43.4592123" lon="11.1597837"><ele>113.4</ele><time>2026-05-01T09:04:14.617Z</time></trkpt><trkpt lat="43.4591105" lon="11.1598298"><ele>113.0</ele><time>2026-05-01T09:04:16.667Z</time></trkpt><trkpt lat="43.4590097" lon="11.1598887"><ele>111.80000000000001</ele><time>2026-05-01T09:04:18.593Z</time></trkpt><trkpt lat="43.4589212" lon="11.1599363"><ele>110.60000000000001</ele><time>2026-05-01T09:04:20.602Z</time></trkpt><trkpt lat="43.4588242" lon="11.1599758"><ele>109.39999999999999</ele><time>2026-05-01T09:04:22.674Z</time></trkpt><trkpt lat="43.45874" lon="11.1600097"><ele>108.19999999999999</ele><time>2026-05-01T09:04:24.604Z</time></trkpt><trkpt lat="43.4586445" lon="11.1599885"><ele>107.0</ele><time>2026-05-01T09:04:26.591Z</time></trkpt><trkpt lat="43.4585755" lon="11.1598925"><ele>107.19999999999999</ele><time>2026-05-01T09:04:28.599Z</time></trkpt><trkpt lat="43.4585117" lon="11.159801"><ele>107.39999999999999</ele><time>2026-05-01T09:04:30.659Z</time></trkpt><trkpt lat="43.4584544" lon="11.1596939"><ele>107.60000000000001</ele><time>2026-05-01T09:04:32.577Z</time></trkpt><trkpt lat="43.4583912" lon="11.1595958"><ele>107.80000000000001</ele><time>2026-05-01T09:04:34.599Z</time></trkpt><trkpt lat="43.458342" lon="11.1594766"><ele>108.0</ele><time>2026-05-01T09:04:36.591Z</time></trkpt><trkpt lat="43.4582977" lon="11.1593589"><ele>108.0</ele><time>2026-05-01T09:04:38.592Z</time></trkpt><trkpt lat="43.4582458" lon="11.1592411"><ele>108.00000000000001</ele><time>2026-05-01T09:04:40.598Z</time></trkpt><trkpt lat="43.4581906" lon="11.1591294"><ele>108.00000000000001</ele><time>2026-05-01T09:04:42.605Z</time></trkpt><trkpt lat="43.4581245" lon="11.159029"><ele>108.0</ele><time>2026-05-01T09:04:44.589Z</time></trkpt><trkpt lat="43.4580426" lon="11.1589536"><ele>108.0</ele><time>2026-05-01T09:04:46.672Z</time></trkpt><trkpt lat="43.4579592" lon="11.1588903"><ele>107.85714285714286</ele><time>2026-05-01T09:04:48.596Z</time></trkpt><trkpt lat="43.4578927" lon="11.1588339"><ele>107.71428571428571</ele><time>2026-05-01T09:04:50.601Z</time></trkpt><trkpt lat="43.4578439" lon="11.1587631"><ele>107.57142857142858</ele><time>2026-05-01T09:04:52.662Z</time></trkpt><trkpt lat="43.4578115" lon="11.1586567"><ele>107.42857142857143</ele><time>2026-05-01T09:04:54.603Z</time></trkpt><trkpt lat="43.4577563" lon="11.1586104"><ele>107.28571428571429</ele><time>2026-05-01T09:04:56.581Z</time></trkpt><trkpt lat="43.4576824" lon="11.1585856"><ele>107.14285714285715</ele><time>2026-05-01T09:04:59.605Z</time></trkpt><trkpt lat="43.457621" lon="11.1586446"><ele>107.0</ele><time>2026-05-01T09:05:01.675Z</time></trkpt><trkpt lat="43.457548" lon="11.1587096"><ele>107.0</ele><time>2026-05-01T09:05:03.677Z</time></trkpt><trkpt lat="43.4574544" lon="11.15874"><ele>106.99999999999999</ele><time>2026-05-01T09:05:05.604Z</time></trkpt><trkpt lat="43.457343" lon="11.1587482"><ele>106.99999999999999</ele><time>2026-05-01T09:05:07.682Z</time></trkpt><trkpt lat="43.4572453" lon="11.1587461"><ele>107.0</ele><time>2026-05-01T09:05:09.599Z</time></trkpt><trkpt lat="43.4571254" lon="11.1587355"><ele>107.0</ele><time>2026-05-01T09:05:11.608Z</time></trkpt><trkpt lat="43.4570184" lon="11.1587147"><ele>106.83333333333333</ele><time>2026-05-01T09:05:13.621Z</time></trkpt><trkpt lat="43.4569078" lon="11.1587176"><ele>106.66666666666666</ele><time>2026-05-01T09:05:15.606Z</time></trkpt><trkpt lat="43.4568081" lon="11.158689"><ele>106.5</ele><time>2026-05-01T09:05:17.602Z</time></trkpt><trkpt lat="43.4567262" lon="11.1586826"><ele>106.33333333333334</ele><time>2026-05-01T09:05:19.611Z</time></trkpt><trkpt lat="43.4566565" lon="11.15865"><ele>106.16666666666667</ele><time>2026-05-01T09:05:22.672Z</time></trkpt><trkpt lat="43.4566301" lon="11.1585697"><ele>106.0</ele><time>2026-05-01T09:05:24.6Z</time></trkpt><trkpt lat="43.4565699" lon="11.1584335"><ele>106.00000000000001</ele><time>2026-05-01T09:05:27.665Z</time></trkpt><trkpt lat="43.4565148" lon="11.1583702"><ele>106.0</ele><time>2026-05-01T09:05:28.587Z</time></trkpt><trkpt lat="43.4564395" lon="11.1583116"><ele>106.0</ele><time>2026-05-01T09:05:29.604Z</time></trkpt><trkpt lat="43.4563671" lon="11.1582629"><ele>106.0</ele><time>2026-05-01T09:05:30.597Z</time></trkpt><trkpt lat="43.4562901" lon="11.1582035"><ele>106.00000000000001</ele><time>2026-05-01T09:05:31.587Z</time></trkpt><trkpt lat="43.4562313" lon="11.1581565"><ele>106.0</ele><time>2026-05-01T09:05:32.681Z</time></trkpt><trkpt lat="43.456107" lon="11.1581189"><ele>106.19999999999999</ele><time>2026-05-01T09:05:34.582Z</time></trkpt><trkpt lat="43.4560445" lon="11.158102"><ele>106.39999999999999</ele><time>2026-05-01T09:05:35.598Z</time></trkpt><trkpt lat="43.4559322" lon="11.1580861"><ele>106.6</ele><time>2026-05-01T09:05:37.677Z</time></trkpt><trkpt lat="43.4558212" lon="11.1580672"><ele>106.8</ele><time>2026-05-01T09:05:39.609Z</time></trkpt><trkpt lat="43.4557073" lon="11.1580649"><ele>107.0</ele><time>2026-05-01T09:05:41.675Z</time></trkpt><trkpt lat="43.4556128" lon="11.1580625"><ele>106.99999999999999</ele><time>2026-05-01T09:05:43.59Z</time></trkpt><trkpt lat="43.4555267" lon="11.158059"><ele>107.0</ele><time>2026-05-01T09:05:45.663Z</time></trkpt><trkpt lat="43.4554517" lon="11.1580496"><ele>107.0</ele><time>2026-05-01T09:05:47.606Z</time></trkpt><trkpt lat="43.4553699" lon="11.1580433"><ele>107.0</ele><time>2026-05-01T09:05:49.6Z</time></trkpt><trkpt lat="43.4552753" lon="11.1580144"><ele>106.99999999999999</ele><time>2026-05-01T09:05:51.602Z</time></trkpt><trkpt lat="43.4551954" lon="11.1579488"><ele>107.0</ele><time>2026-05-01T09:05:53.6Z</time></trkpt><trkpt lat="43.4551282" lon="11.1578685"><ele>107.19999999999999</ele><time>2026-05-01T09:05:55.616Z</time></trkpt><trkpt lat="43.4550639" lon="11.1577807"><ele>107.39999999999999</ele><time>2026-05-01T09:05:57.599Z</time></trkpt><trkpt lat="43.4549883" lon="11.1576864"><ele>107.60000000000001</ele><time>2026-05-01T09:05:59.598Z</time></trkpt><trkpt lat="43.4549049" lon="11.1575685"><ele>107.80000000000001</ele><time>2026-05-01T09:06:01.668Z</time></trkpt><trkpt lat="43.4548174" lon="11.1574448"><ele>108.0</ele><time>2026-05-01T09:06:03.61Z</time></trkpt><trkpt lat="43.4547755" lon="11.1573744"><ele>107.5</ele><time>2026-05-01T09:06:04.607Z</time></trkpt><trkpt lat="43.4546981" lon="11.1572502"><ele>107.0</ele><time>2026-05-01T09:06:06.671Z</time></trkpt><trkpt lat="43.4546157" lon="11.1571362"><ele>106.5</ele><time>2026-05-01T09:06:08.581Z</time></trkpt><trkpt lat="43.4545416" lon="11.1570226"><ele>106.0</ele><time>2026-05-01T09:06:10.66Z</time></trkpt><trkpt lat="43.4544721" lon="11.156916"><ele>106.19999999999999</ele><time>2026-05-01T09:06:12.676Z</time></trkpt><trkpt lat="43.4543878" lon="11.1567856"><ele>106.39999999999999</ele><time>2026-05-01T09:06:14.604Z</time></trkpt><trkpt lat="43.4543126" lon="11.1566807"><ele>106.6</ele><time>2026-05-01T09:06:16.686Z</time></trkpt><trkpt lat="43.4542483" lon="11.1565778"><ele>106.8</ele><time>2026-05-01T09:06:18.585Z</time></trkpt><trkpt lat="43.4541901" lon="11.1564704"><ele>107.0</ele><time>2026-05-01T09:06:20.586Z</time></trkpt><trkpt lat="43.4541094" lon="11.1563736"><ele>107.0</ele><time>2026-05-01T09:06:22.606Z</time></trkpt><trkpt lat="43.4540243" lon="11.1562714"><ele>106.99999999999999</ele><time>2026-05-01T09:06:24.593Z</time></trkpt><trkpt lat="43.4539454" lon="11.1561665"><ele>106.99999999999999</ele><time>2026-05-01T09:06:26.612Z</time></trkpt><trkpt lat="43.453864" lon="11.1560645"><ele>107.0</ele><time>2026-05-01T09:06:28.601Z</time></trkpt><trkpt lat="43.4537809" lon="11.155969"><ele>107.0</ele><time>2026-05-01T09:06:30.6Z</time></trkpt><trkpt lat="43.453703" lon="11.155873"><ele>107.39999999999999</ele><time>2026-05-01T09:06:32.598Z</time></trkpt><trkpt lat="43.4536365" lon="11.1557684"><ele>107.79999999999998</ele><time>2026-05-01T09:06:34.603Z</time></trkpt><trkpt lat="43.4536283" lon="11.155635"><ele>108.2</ele><time>2026-05-01T09:06:36.673Z</time></trkpt><trkpt lat="43.4536553" lon="11.1555082"><ele>108.6</ele><time>2026-05-01T09:06:38.606Z</time></trkpt><trkpt lat="43.4536532" lon="11.1554007"><ele>109.0</ele><time>2026-05-01T09:06:40.582Z</time></trkpt><trkpt lat="43.4535709" lon="11.1553236"><ele>109.0</ele><time>2026-05-01T09:06:43.59Z</time></trkpt><trkpt lat="43.4534478" lon="11.1552467"><ele>109.0</ele><time>2026-05-01T09:06:45.663Z</time></trkpt><trkpt lat="43.4533346" lon="11.1552027"><ele>109.0</ele><time>2026-05-01T09:06:47.669Z</time></trkpt><trkpt lat="43.453257" lon="11.1551474"><ele>109.0</ele><time>2026-05-01T09:06:49.594Z</time></trkpt><trkpt lat="43.4531654" lon="11.1550725"><ele>109.0</ele><time>2026-05-01T09:06:51.678Z</time></trkpt><trkpt lat="43.4530924" lon="11.1549881"><ele>109.0</ele><time>2026-05-01T09:06:53.668Z</time></trkpt><trkpt lat="43.4530272" lon="11.1548769"><ele>109.0</ele><time>2026-05-01T09:06:55.597Z</time></trkpt><trkpt lat="43.4529481" lon="11.1547938"><ele>109.0</ele><time>2026-05-01T09:06:57.666Z</time></trkpt><trkpt lat="43.4528543" lon="11.1547198"><ele>109.0</ele><time>2026-05-01T09:06:59.601Z</time></trkpt><trkpt lat="43.4527706" lon="11.1546423"><ele>109.0</ele><time>2026-05-01T09:07:01.597Z</time></trkpt><trkpt lat="43.4526818" lon="11.1545633"><ele>108.80000000000001</ele><time>2026-05-01T09:07:03.606Z</time></trkpt><trkpt lat="43.4526127" lon="11.1544648"><ele>108.60000000000001</ele><time>2026-05-01T09:07:05.604Z</time></trkpt><trkpt lat="43.4525697" lon="11.1543458"><ele>108.4</ele><time>2026-05-01T09:07:07.596Z</time></trkpt><trkpt lat="43.452541" lon="11.1542065"><ele>108.2</ele><time>2026-05-01T09:07:09.602Z</time></trkpt><trkpt lat="43.452517" lon="11.1540788"><ele>108.0</ele><time>2026-05-01T09:07:11.668Z</time></trkpt><trkpt lat="43.4524907" lon="11.1539453"><ele>108.0</ele><time>2026-05-01T09:07:13.61Z</time></trkpt><trkpt lat="43.4524712" lon="11.1538068"><ele>108.00000000000001</ele><time>2026-05-01T09:07:15.609Z</time></trkpt><trkpt lat="43.4524449" lon="11.1536639"><ele>108.00000000000001</ele><time>2026-05-01T09:07:17.596Z</time></trkpt><trkpt lat="43.4524155" lon="11.1535269"><ele>108.0</ele><time>2026-05-01T09:07:19.583Z</time></trkpt><trkpt lat="43.4523874" lon="11.1533883"><ele>108.0</ele><time>2026-05-01T09:07:21.59Z</time></trkpt><trkpt lat="43.4523515" lon="11.1532448"><ele>108.60000000000001</ele><time>2026-05-01T09:07:23.587Z</time></trkpt><trkpt lat="43.4523149" lon="11.1530999"><ele>109.20000000000002</ele><time>2026-05-01T09:07:25.611Z</time></trkpt><trkpt lat="43.4522731" lon="11.1529563"><ele>109.8</ele><time>2026-05-01T09:07:27.599Z</time></trkpt><trkpt lat="43.4522615" lon="11.1528079"><ele>110.4</ele><time>2026-05-01T09:07:29.596Z</time></trkpt><trkpt lat="43.4522292" lon="11.1527139"><ele>111.0</ele><time>2026-05-01T09:07:31.606Z</time></trkpt><trkpt lat="43.4521682" lon="11.152655"><ele>111.33333333333333</ele><time>2026-05-01T09:07:34.61Z</time></trkpt><trkpt lat="43.4520979" lon="11.152602"><ele>111.66666666666666</ele><time>2026-05-01T09:07:38.595Z</time></trkpt><trkpt lat="43.452017" lon="11.1525407"><ele>112.0</ele><time>2026-05-01T09:07:41.583Z</time></trkpt><trkpt lat="43.4519469" lon="11.1524681"><ele>112.33333333333333</ele><time>2026-05-01T09:07:43.583Z</time></trkpt><trkpt lat="43.4518952" lon="11.152395"><ele>112.66666666666666</ele><time>2026-05-01T09:07:45.662Z</time></trkpt><trkpt lat="43.4518661" lon="11.1522724"><ele>113.0</ele><time>2026-05-01T09:07:48.67Z</time></trkpt><trkpt lat="43.4518698" lon="11.1521691"><ele>113.2</ele><time>2026-05-01T09:07:50.594Z</time></trkpt><trkpt lat="43.4518694" lon="11.1520774"><ele>113.4</ele><time>2026-05-01T09:07:51.662Z</time></trkpt><trkpt lat="43.4518526" lon="11.1519904"><ele>113.60000000000001</ele><time>2026-05-01T09:07:52.592Z</time></trkpt><trkpt lat="43.4517985" lon="11.1518777"><ele>113.80000000000001</ele><time>2026-05-01T09:07:54.587Z</time></trkpt><trkpt lat="43.4517139" lon="11.151769"><ele>114.0</ele><time>2026-05-01T09:07:56.582Z</time></trkpt><trkpt lat="43.4516295" lon="11.1516828"><ele>114.0</ele><time>2026-05-01T09:07:58.598Z</time></trkpt><trkpt lat="43.4515693" lon="11.1516103"><ele>114.0</ele><time>2026-05-01T09:08:00.59Z</time></trkpt><trkpt lat="43.4515058" lon="11.1515544"><ele>114.0</ele><time>2026-05-01T09:08:02.607Z</time></trkpt><trkpt lat="43.4514267" lon="11.151492"><ele>114.0</ele><time>2026-05-01T09:08:04.602Z</time></trkpt><trkpt lat="43.4513595" lon="11.1514373"><ele>114.0</ele><time>2026-05-01T09:08:06.615Z</time></trkpt><trkpt lat="43.4512829" lon="11.1513865"><ele>114.0</ele><time>2026-05-01T09:08:08.608Z</time></trkpt><trkpt lat="43.4512155" lon="11.1513426"><ele>113.2</ele><time>2026-05-01T09:08:10.603Z</time></trkpt><trkpt lat="43.4511373" lon="11.1513024"><ele>112.4</ele><time>2026-05-01T09:08:12.607Z</time></trkpt><trkpt lat="43.4510575" lon="11.1512562"><ele>111.6</ele><time>2026-05-01T09:08:14.604Z</time></trkpt><trkpt lat="43.4509781" lon="11.1511812"><ele>110.8</ele><time>2026-05-01T09:08:16.61Z</time></trkpt><trkpt lat="43.4509172" lon="11.1510692"><ele>110.0</ele><time>2026-05-01T09:08:18.62Z</time></trkpt><trkpt lat="43.4508438" lon="11.1509299"><ele>109.99999999999999</ele><time>2026-05-01T09:08:20.601Z</time></trkpt><trkpt lat="43.4507922" lon="11.1508721"><ele>110.0</ele><time>2026-05-01T09:08:21.604Z</time></trkpt><trkpt lat="43.4507348" lon="11.1508321"><ele>110.0</ele><time>2026-05-01T09:08:22.596Z</time></trkpt><trkpt lat="43.4506173" lon="11.1507737"><ele>110.0</ele><time>2026-05-01T09:08:24.609Z</time></trkpt><trkpt lat="43.4505564" lon="11.1507479"><ele>109.99999999999999</ele><time>2026-05-01T09:08:25.598Z</time></trkpt><trkpt lat="43.4504926" lon="11.1507255"><ele>110.0</ele><time>2026-05-01T09:08:26.61Z</time></trkpt><trkpt lat="43.4503718" lon="11.1506959"><ele>110.2</ele><time>2026-05-01T09:08:28.609Z</time></trkpt><trkpt lat="43.4502685" lon="11.150681"><ele>110.4</ele><time>2026-05-01T09:08:30.602Z</time></trkpt><trkpt lat="43.4501688" lon="11.1507141"><ele>110.6</ele><time>2026-05-01T09:08:32.594Z</time></trkpt><trkpt lat="43.450074" lon="11.1507595"><ele>110.8</ele><time>2026-05-01T09:08:34.595Z</time></trkpt><trkpt lat="43.4499597" lon="11.1508212"><ele>111.0</ele><time>2026-05-01T09:08:36.666Z</time></trkpt><trkpt lat="43.4499065" lon="11.150873"><ele>111.0</ele><time>2026-05-01T09:08:37.59Z</time></trkpt><trkpt lat="43.4498552" lon="11.1509337"><ele>111.0</ele><time>2026-05-01T09:08:38.621Z</time></trkpt><trkpt lat="43.4497632" lon="11.1510465"><ele>111.0</ele><time>2026-05-01T09:08:40.603Z</time></trkpt><trkpt lat="43.4496654" lon="11.1511361"><ele>111.0</ele><time>2026-05-01T09:08:42.604Z</time></trkpt><trkpt lat="43.4495527" lon="11.151202"><ele>111.0</ele><time>2026-05-01T09:08:44.614Z</time></trkpt><trkpt lat="43.4494455" lon="11.1512714"><ele>111.4</ele><time>2026-05-01T09:08:46.592Z</time></trkpt><trkpt lat="43.449391" lon="11.1513173"><ele>111.8</ele><time>2026-05-01T09:08:47.594Z</time></trkpt><trkpt lat="43.4492945" lon="11.1514199"><ele>112.20000000000002</ele><time>2026-05-01T09:08:49.605Z</time></trkpt><trkpt lat="43.4492075" lon="11.1515259"><ele>112.60000000000001</ele><time>2026-05-01T09:08:51.607Z</time></trkpt><trkpt lat="43.4491308" lon="11.1516359"><ele>113.0</ele><time>2026-05-01T09:08:53.609Z</time></trkpt><trkpt lat="43.4490246" lon="11.1517555"><ele>113.0</ele><time>2026-05-01T09:08:55.683Z</time></trkpt><trkpt lat="43.4489691" lon="11.1518213"><ele>113.00000000000001</ele><time>2026-05-01T09:08:56.613Z</time></trkpt><trkpt lat="43.4489135" lon="11.1518802"><ele>113.00000000000001</ele><time>2026-05-01T09:08:57.67Z</time></trkpt><trkpt lat="43.4488268" lon="11.1519754"><ele>113.0</ele><time>2026-05-01T09:08:59.604Z</time></trkpt><trkpt lat="43.4487444" lon="11.1520791"><ele>113.0</ele><time>2026-05-01T09:09:01.674Z</time></trkpt><trkpt lat="43.4486409" lon="11.1521727"><ele>113.2</ele><time>2026-05-01T09:09:03.587Z</time></trkpt><trkpt lat="43.4485355" lon="11.1522441"><ele>113.4</ele><time>2026-05-01T09:09:05.602Z</time></trkpt><trkpt lat="43.4484228" lon="11.1522883"><ele>113.60000000000001</ele><time>2026-05-01T09:09:07.685Z</time></trkpt><trkpt lat="43.4483266" lon="11.1523302"><ele>113.80000000000001</ele><time>2026-05-01T09:09:09.611Z</time></trkpt><trkpt lat="43.4482186" lon="11.152338"><ele>114.0</ele><time>2026-05-01T09:09:11.667Z</time></trkpt><trkpt lat="43.448113" lon="11.1523592"><ele>114.0</ele><time>2026-05-01T09:09:13.587Z</time></trkpt><trkpt lat="43.4480168" lon="11.1524099"><ele>114.0</ele><time>2026-05-01T09:09:15.613Z</time></trkpt><trkpt lat="43.4479134" lon="11.1524298"><ele>114.0</ele><time>2026-05-01T09:09:17.591Z</time></trkpt><trkpt lat="43.4477872" lon="11.1524418"><ele>114.0</ele><time>2026-05-01T09:09:19.606Z</time></trkpt><trkpt lat="43.4477234" lon="11.1524528"><ele>114.0</ele><time>2026-05-01T09:09:20.616Z</time></trkpt><trkpt lat="43.4476583" lon="11.1524679"><ele>114.0</ele><time>2026-05-01T09:09:21.584Z</time></trkpt><trkpt lat="43.4475887" lon="11.1524833"><ele>114.0</ele><time>2026-05-01T09:09:22.608Z</time></trkpt><trkpt lat="43.4475184" lon="11.1525053"><ele>114.0</ele><time>2026-05-01T09:09:23.618Z</time></trkpt><trkpt lat="43.4474461" lon="11.1525284"><ele>114.0</ele><time>2026-05-01T09:09:24.607Z</time></trkpt><trkpt lat="43.4473777" lon="11.1525519"><ele>114.0</ele><time>2026-05-01T09:09:25.599Z</time></trkpt><trkpt lat="43.4473105" lon="11.1525664"><ele>114.0</ele><time>2026-05-01T09:09:26.671Z</time></trkpt><trkpt lat="43.4472037" lon="11.1525697"><ele>113.5</ele><time>2026-05-01T09:09:28.58Z</time></trkpt><trkpt lat="43.447087" lon="11.1525932"><ele>113.0</ele><time>2026-05-01T09:09:30.648Z</time></trkpt><trkpt lat="43.4469669" lon="11.1526128"><ele>112.5</ele><time>2026-05-01T09:09:32.668Z</time></trkpt><trkpt lat="43.4468532" lon="11.1526358"><ele>112.0</ele><time>2026-05-01T09:09:34.605Z</time></trkpt><trkpt lat="43.4467352" lon="11.1526539"><ele>112.0</ele><time>2026-05-01T09:09:36.671Z</time></trkpt><trkpt lat="43.4466336" lon="11.1526784"><ele>111.99999999999999</ele><time>2026-05-01T09:09:38.581Z</time></trkpt><trkpt lat="43.4465328" lon="11.1527046"><ele>111.99999999999999</ele><time>2026-05-01T09:09:40.654Z</time></trkpt><trkpt lat="43.4464248" lon="11.1527245"><ele>112.0</ele><time>2026-05-01T09:09:42.671Z</time></trkpt><trkpt lat="43.4463119" lon="11.152734"><ele>112.0</ele><time>2026-05-01T09:09:44.603Z</time></trkpt><trkpt lat="43.4461988" lon="11.1527139"><ele>112.00000000000001</ele><time>2026-05-01T09:09:46.67Z</time></trkpt><trkpt lat="43.4461394" lon="11.1526839"><ele>112.0</ele><time>2026-05-01T09:09:47.673Z</time></trkpt><trkpt lat="43.4460822" lon="11.1526464"><ele>112.0</ele><time>2026-05-01T09:09:48.584Z</time></trkpt><trkpt lat="43.4460203" lon="11.1526061"><ele>112.0</ele><time>2026-05-01T09:09:49.6Z</time></trkpt><trkpt lat="43.445908" lon="11.1525224"><ele>112.00000000000001</ele><time>2026-05-01T09:09:51.581Z</time></trkpt><trkpt lat="43.4458594" lon="11.1524598"><ele>112.0</ele><time>2026-05-01T09:09:52.605Z</time></trkpt><trkpt lat="43.4458131" lon="11.1523879"><ele>112.0</ele><time>2026-05-01T09:09:53.586Z</time></trkpt><trkpt lat="43.4457692" lon="11.1523125"><ele>111.99999999999999</ele><time>2026-05-01T09:09:54.601Z</time></trkpt><trkpt lat="43.4457315" lon="11.1522425"><ele>111.99999999999999</ele><time>2026-05-01T09:09:55.583Z</time></trkpt><trkpt lat="43.4456448" lon="11.1521239"><ele>112.0</ele><time>2026-05-01T09:09:57.586Z</time></trkpt><trkpt lat="43.4455395" lon="11.1520596"><ele>112.0</ele><time>2026-05-01T09:09:59.613Z</time></trkpt><trkpt lat="43.4454228" lon="11.1520657"><ele>112.0</ele><time>2026-05-01T09:10:01.587Z</time></trkpt><trkpt lat="43.445356" lon="11.1520618"><ele>111.99999999999999</ele><time>2026-05-01T09:10:02.581Z</time></trkpt><trkpt lat="43.4452918" lon="11.1520547"><ele>111.99999999999999</ele><time>2026-05-01T09:10:03.599Z</time></trkpt><trkpt lat="43.4451672" lon="11.1520813"><ele>112.0</ele><time>2026-05-01T09:10:05.602Z</time></trkpt><trkpt lat="43.4450508" lon="11.1520927"><ele>112.0</ele><time>2026-05-01T09:10:07.692Z</time></trkpt><trkpt lat="43.4449228" lon="11.1520972"><ele>112.0</ele><time>2026-05-01T09:10:09.596Z</time></trkpt><trkpt lat="43.444806" lon="11.152099"><ele>112.0</ele><time>2026-05-01T09:10:11.602Z</time></trkpt><trkpt lat="43.4446939" lon="11.1520963"><ele>112.0</ele><time>2026-05-01T09:10:13.619Z</time></trkpt><trkpt lat="43.4445764" lon="11.1520997"><ele>112.0</ele><time>2026-05-01T09:10:15.652Z</time></trkpt><trkpt lat="43.4444571" lon="11.1521054"><ele>111.83333333333334</ele><time>2026-05-01T09:10:17.606Z</time></trkpt><trkpt lat="43.4443904" lon="11.1521117"><ele>111.66666666666667</ele><time>2026-05-01T09:10:18.67Z</time></trkpt><trkpt lat="43.444268" lon="11.1521278"><ele>111.5</ele><time>2026-05-01T09:10:20.6Z</time></trkpt><trkpt lat="43.4442049" lon="11.1521508"><ele>111.33333333333334</ele><time>2026-05-01T09:10:21.666Z</time></trkpt><trkpt lat="43.4441493" lon="11.1522005"><ele>111.16666666666667</ele><time>2026-05-01T09:10:22.583Z</time></trkpt><trkpt lat="43.4440983" lon="11.1522571"><ele>111.0</ele><time>2026-05-01T09:10:23.603Z</time></trkpt><trkpt lat="43.4440044" lon="11.1523761"><ele>111.0</ele><time>2026-05-01T09:10:25.574Z</time></trkpt><trkpt lat="43.4439095" lon="11.1524799"><ele>111.0</ele><time>2026-05-01T09:10:27.593Z</time></trkpt><trkpt lat="43.4437963" lon="11.15253"><ele>111.0</ele><time>2026-05-01T09:10:29.603Z</time></trkpt><trkpt lat="43.4436793" lon="11.1525453"><ele>111.0</ele><time>2026-05-01T09:10:31.597Z</time></trkpt><trkpt lat="43.4436161" lon="11.1525444"><ele>111.0</ele><time>2026-05-01T09:10:32.608Z</time></trkpt><trkpt lat="43.443552" lon="11.1525377"><ele>111.0</ele><time>2026-05-01T09:10:33.602Z</time></trkpt><trkpt lat="43.4434878" lon="11.152532"><ele>111.0</ele><time>2026-05-01T09:10:34.605Z</time></trkpt><trkpt lat="43.4433634" lon="11.1525177"><ele>111.0</ele><time>2026-05-01T09:10:36.677Z</time></trkpt><trkpt lat="43.443244" lon="11.152513"><ele>111.0</ele><time>2026-05-01T09:10:38.686Z</time></trkpt><trkpt lat="43.4431318" lon="11.1525699"><ele>111.0</ele><time>2026-05-01T09:10:40.604Z</time></trkpt><trkpt lat="43.4430265" lon="11.1526405"><ele>111.33333333333333</ele><time>2026-05-01T09:10:42.619Z</time></trkpt><trkpt lat="43.4429406" lon="11.1527053"><ele>111.66666666666666</ele><time>2026-05-01T09:10:44.595Z</time></trkpt><trkpt lat="43.4428529" lon="11.1528275"><ele>112.0</ele><time>2026-05-01T09:10:46.599Z</time></trkpt><trkpt lat="43.4428119" lon="11.152901"><ele>112.33333333333333</ele><time>2026-05-01T09:10:47.67Z</time></trkpt><trkpt lat="43.4427726" lon="11.1529703"><ele>112.66666666666666</ele><time>2026-05-01T09:10:48.604Z</time></trkpt><trkpt lat="43.4427345" lon="11.1530424"><ele>113.0</ele><time>2026-05-01T09:10:49.604Z</time></trkpt><trkpt lat="43.4426661" lon="11.1531806"><ele>113.4</ele><time>2026-05-01T09:10:51.675Z</time></trkpt><trkpt lat="43.442603" lon="11.1532887"><ele>113.80000000000001</ele><time>2026-05-01T09:10:53.62Z</time></trkpt><trkpt lat="43.4425179" lon="11.1533906"><ele>114.2</ele><time>2026-05-01T09:10:55.669Z</time></trkpt><trkpt lat="43.4424146" lon="11.1534703"><ele>114.6</ele><time>2026-05-01T09:10:57.586Z</time></trkpt><trkpt lat="43.4423629" lon="11.1535202"><ele>115.0</ele><time>2026-05-01T09:10:58.599Z</time></trkpt><trkpt lat="43.4422611" lon="11.1536233"><ele>115.0</ele><time>2026-05-01T09:11:00.601Z</time></trkpt><trkpt lat="43.442211" lon="11.153678"><ele>115.0</ele><time>2026-05-01T09:11:01.609Z</time></trkpt><trkpt lat="43.4421145" lon="11.1537703"><ele>115.0</ele><time>2026-05-01T09:11:03.602Z</time></trkpt><trkpt lat="43.442007" lon="11.1538447"><ele>115.0</ele><time>2026-05-01T09:11:05.612Z</time></trkpt><trkpt lat="43.4418966" lon="11.1539061"><ele>115.0</ele><time>2026-05-01T09:11:07.676Z</time></trkpt><trkpt lat="43.4417937" lon="11.15395"><ele>114.8</ele><time>2026-05-01T09:11:09.594Z</time></trkpt><trkpt lat="43.4416815" lon="11.1539917"><ele>114.6</ele><time>2026-05-01T09:11:11.665Z</time></trkpt><trkpt lat="43.4416122" lon="11.1540068"><ele>114.4</ele><time>2026-05-01T09:11:12.684Z</time></trkpt><trkpt lat="43.441489" lon="11.1539774"><ele>114.2</ele><time>2026-05-01T09:11:14.599Z</time></trkpt><trkpt lat="43.4413864" lon="11.153888"><ele>114.0</ele><time>2026-05-01T09:11:16.678Z</time></trkpt><trkpt lat="43.4413209" lon="11.153792"><ele>114.2</ele><time>2026-05-01T09:11:18.666Z</time></trkpt><trkpt lat="43.4412479" lon="11.1536982"><ele>114.4</ele><time>2026-05-01T09:11:20.609Z</time></trkpt><trkpt lat="43.4412007" lon="11.1536408"><ele>114.6</ele><time>2026-05-01T09:11:21.67Z</time></trkpt><trkpt lat="43.4411014" lon="11.1535395"><ele>114.8</ele><time>2026-05-01T09:11:23.611Z</time></trkpt><trkpt lat="43.4409897" lon="11.1534801"><ele>115.0</ele><time>2026-05-01T09:11:25.665Z</time></trkpt><trkpt lat="43.4408649" lon="11.1534822"><ele>115.0</ele><time>2026-05-01T09:11:27.672Z</time></trkpt><trkpt lat="43.44075" lon="11.1534931"><ele>115.0</ele><time>2026-05-01T09:11:29.607Z</time></trkpt><trkpt lat="43.4406383" lon="11.1535087"><ele>115.0</ele><time>2026-05-01T09:11:31.587Z</time></trkpt><trkpt lat="43.440528" lon="11.1535441"><ele>115.0</ele><time>2026-05-01T09:11:33.596Z</time></trkpt><trkpt lat="43.440421" lon="11.1535898"><ele>115.2</ele><time>2026-05-01T09:11:35.597Z</time></trkpt><trkpt lat="43.4403241" lon="11.153655"><ele>115.4</ele><time>2026-05-01T09:11:37.605Z</time></trkpt><trkpt lat="43.4402402" lon="11.1537165"><ele>115.6</ele><time>2026-05-01T09:11:39.598Z</time></trkpt><trkpt lat="43.4401581" lon="11.1537746"><ele>115.8</ele><time>2026-05-01T09:11:41.61Z</time></trkpt><trkpt lat="43.440068" lon="11.1538279"><ele>116.0</ele><time>2026-05-01T09:11:43.672Z</time></trkpt><trkpt lat="43.4399764" lon="11.153856"><ele>116.0</ele><time>2026-05-01T09:11:45.605Z</time></trkpt><trkpt lat="43.4399005" lon="11.153911"><ele>116.0</ele><time>2026-05-01T09:11:47.577Z</time></trkpt><trkpt lat="43.4398128" lon="11.1539821"><ele>116.0</ele><time>2026-05-01T09:11:49.597Z</time></trkpt><trkpt lat="43.4397302" lon="11.1540848"><ele>116.0</ele><time>2026-05-01T09:11:51.6Z</time></trkpt><trkpt lat="43.4396546" lon="11.1541627"><ele>116.0</ele><time>2026-05-01T09:11:53.61Z</time></trkpt><trkpt lat="43.4395749" lon="11.1542404"><ele>116.33333333333333</ele><time>2026-05-01T09:11:55.599Z</time></trkpt><trkpt lat="43.4395014" lon="11.1542938"><ele>116.66666666666666</ele><time>2026-05-01T09:11:57.605Z</time></trkpt><trkpt lat="43.4394438" lon="11.1543419"><ele>117.0</ele><time>2026-05-01T09:11:59.602Z</time></trkpt><trkpt lat="43.4393793" lon="11.1543982"><ele>117.33333333333334</ele><time>2026-05-01T09:12:01.67Z</time></trkpt><trkpt lat="43.4393085" lon="11.1544557"><ele>117.66666666666667</ele><time>2026-05-01T09:12:03.599Z</time></trkpt><trkpt lat="43.4392377" lon="11.1545282"><ele>118.0</ele><time>2026-05-01T09:12:05.599Z</time></trkpt><trkpt lat="43.439177" lon="11.1546031"><ele>118.0</ele><time>2026-05-01T09:12:07.611Z</time></trkpt><trkpt lat="43.4391197" lon="11.1546998"><ele>118.00000000000001</ele><time>2026-05-01T09:12:09.607Z</time></trkpt><trkpt lat="43.439062" lon="11.1547992"><ele>118.00000000000001</ele><time>2026-05-01T09:12:11.6Z</time></trkpt><trkpt lat="43.4390038" lon="11.1549008"><ele>118.0</ele><time>2026-05-01T09:12:13.607Z</time></trkpt><trkpt lat="43.4389418" lon="11.1550013"><ele>118.0</ele><time>2026-05-01T09:12:15.598Z</time></trkpt><trkpt lat="43.4388776" lon="11.1550969"><ele>117.60000000000001</ele><time>2026-05-01T09:12:17.673Z</time></trkpt><trkpt lat="43.4388179" lon="11.1551991"><ele>117.20000000000002</ele><time>2026-05-01T09:12:19.582Z</time></trkpt><trkpt lat="43.4387602" lon="11.1553013"><ele>116.8</ele><time>2026-05-01T09:12:21.588Z</time></trkpt><trkpt lat="43.4387008" lon="11.1554118"><ele>116.4</ele><time>2026-05-01T09:12:23.592Z</time></trkpt><trkpt lat="43.4386629" lon="11.1555689"><ele>116.0</ele><time>2026-05-01T09:12:25.685Z</time></trkpt><trkpt lat="43.43868" lon="11.1557253"><ele>116.0</ele><time>2026-05-01T09:12:27.67Z</time></trkpt><trkpt lat="43.4386947" lon="11.1558617"><ele>116.0</ele><time>2026-05-01T09:12:29.587Z</time></trkpt><trkpt lat="43.438711" lon="11.1559693"><ele>116.0</ele><time>2026-05-01T09:12:31.675Z</time></trkpt><trkpt lat="43.4387621" lon="11.1560828"><ele>116.0</ele><time>2026-05-01T09:12:33.582Z</time></trkpt><trkpt lat="43.4388136" lon="11.1562117"><ele>116.0</ele><time>2026-05-01T09:12:35.597Z</time></trkpt><trkpt lat="43.4388437" lon="11.1563446"><ele>116.0</ele><time>2026-05-01T09:12:37.681Z</time></trkpt><trkpt lat="43.4388509" lon="11.156473"><ele>116.0</ele><time>2026-05-01T09:12:39.617Z</time></trkpt><trkpt lat="43.4389128" lon="11.1565867"><ele>116.0</ele><time>2026-05-01T09:12:41.599Z</time></trkpt><trkpt lat="43.4389612" lon="11.15672"><ele>116.0</ele><time>2026-05-01T09:12:43.606Z</time></trkpt><trkpt lat="43.438985" lon="11.1568516"><ele>116.0</ele><time>2026-05-01T09:12:45.614Z</time></trkpt><trkpt lat="43.4389931" lon="11.1569783"><ele>116.19999999999999</ele><time>2026-05-01T09:12:47.605Z</time></trkpt><trkpt lat="43.4389931" lon="11.1571099"><ele>116.39999999999999</ele><time>2026-05-01T09:12:49.597Z</time></trkpt><trkpt lat="43.4389928" lon="11.1572405"><ele>116.6</ele><time>2026-05-01T09:12:51.686Z</time></trkpt><trkpt lat="43.4389908" lon="11.1573689"><ele>116.8</ele><time>2026-05-01T09:12:53.608Z</time></trkpt><trkpt lat="43.4389882" lon="11.1574873"><ele>117.0</ele><time>2026-05-01T09:12:55.612Z</time></trkpt><trkpt lat="43.438983" lon="11.157603"><ele>118.0</ele><time>2026-05-01T09:12:57.656Z</time></trkpt><trkpt lat="43.4389626" lon="11.1577183"><ele>118.99999999999999</ele><time>2026-05-01T09:12:59.597Z</time></trkpt><trkpt lat="43.4389058" lon="11.1578293"><ele>119.99999999999999</ele><time>2026-05-01T09:13:01.67Z</time></trkpt><trkpt lat="43.43885" lon="11.1579357"><ele>121.0</ele><time>2026-05-01T09:13:03.596Z</time></trkpt><trkpt lat="43.4387793" lon="11.1580196"><ele>122.0</ele><time>2026-05-01T09:13:05.659Z</time></trkpt><trkpt lat="43.4387038" lon="11.15813"><ele>122.16666666666666</ele><time>2026-05-01T09:13:07.607Z</time></trkpt><trkpt lat="43.4386719" lon="11.1582094"><ele>122.33333333333333</ele><time>2026-05-01T09:13:08.68Z</time></trkpt><trkpt lat="43.4386422" lon="11.1582862"><ele>122.5</ele><time>2026-05-01T09:13:09.597Z</time></trkpt><trkpt lat="43.4385766" lon="11.1583853"><ele>122.66666666666666</ele><time>2026-05-01T09:13:11.653Z</time></trkpt><trkpt lat="43.4385077" lon="11.1584535"><ele>122.83333333333333</ele><time>2026-05-01T09:13:13.588Z</time></trkpt><trkpt lat="43.4384353" lon="11.1585648"><ele>123.0</ele><time>2026-05-01T09:13:15.587Z</time></trkpt><trkpt lat="43.4383572" lon="11.1586977"><ele>123.0</ele><time>2026-05-01T09:13:17.598Z</time></trkpt><trkpt lat="43.4382844" lon="11.1588324"><ele>123.0</ele><time>2026-05-01T09:13:19.597Z</time></trkpt><trkpt lat="43.438214" lon="11.158969"><ele>123.0</ele><time>2026-05-01T09:13:21.614Z</time></trkpt><trkpt lat="43.4381476" lon="11.1591141"><ele>123.0</ele><time>2026-05-01T09:13:23.665Z</time></trkpt><trkpt lat="43.4380865" lon="11.1592637"><ele>123.0</ele><time>2026-05-01T09:13:25.597Z</time></trkpt><trkpt lat="43.4380283" lon="11.1594115"><ele>123.00000000000001</ele><time>2026-05-01T09:13:27.672Z</time></trkpt><trkpt lat="43.4379746" lon="11.1595562"><ele>123.00000000000001</ele><time>2026-05-01T09:13:29.604Z</time></trkpt><trkpt lat="43.4379158" lon="11.1596985"><ele>123.0</ele><time>2026-05-01T09:13:31.683Z</time></trkpt><trkpt lat="43.4378807" lon="11.1597709"><ele>123.0</ele><time>2026-05-01T09:13:32.675Z</time></trkpt><trkpt lat="43.4378003" lon="11.1600851"><ele>122.60000000000001</ele><time>2026-05-01T09:13:36.667Z</time></trkpt><trkpt lat="43.4377403" lon="11.1601971"><ele>122.20000000000002</ele><time>2026-05-01T09:13:38.597Z</time></trkpt><trkpt lat="43.437685" lon="11.1603113"><ele>121.8</ele><time>2026-05-01T09:13:40.602Z</time></trkpt><trkpt lat="43.437644" lon="11.1604647"><ele>121.4</ele><time>2026-05-01T09:13:42.68Z</time></trkpt><trkpt lat="43.4376082" lon="11.1606192"><ele>121.0</ele><time>2026-05-01T09:13:44.603Z</time></trkpt><trkpt lat="43.437581" lon="11.160765"><ele>121.0</ele><time>2026-05-01T09:13:46.609Z</time></trkpt><trkpt lat="43.4375522" lon="11.1609121"><ele>121.0</ele><time>2026-05-01T09:13:48.604Z</time></trkpt><trkpt lat="43.4375255" lon="11.1610589"><ele>121.0</ele><time>2026-05-01T09:13:50.59Z</time></trkpt><trkpt lat="43.4375023" lon="11.1612062"><ele>121.0</ele><time>2026-05-01T09:13:52.594Z</time></trkpt><trkpt lat="43.437483" lon="11.1613508"><ele>121.0</ele><time>2026-05-01T09:13:54.594Z</time></trkpt><trkpt lat="43.4374625" lon="11.1615003"><ele>120.8</ele><time>2026-05-01T09:13:56.576Z</time></trkpt><trkpt lat="43.4374419" lon="11.1616611"><ele>120.6</ele><time>2026-05-01T09:13:58.67Z</time></trkpt><trkpt lat="43.4374224" lon="11.1617477"><ele>120.4</ele><time>2026-05-01T09:13:59.604Z</time></trkpt><trkpt lat="43.4373944" lon="11.1618344"><ele>120.2</ele><time>2026-05-01T09:14:00.577Z</time></trkpt><trkpt lat="43.4373609" lon="11.1619738"><ele>120.0</ele><time>2026-05-01T09:14:02.6Z</time></trkpt><trkpt lat="43.4373543" lon="11.1621335"><ele>120.0</ele><time>2026-05-01T09:14:04.605Z</time></trkpt><trkpt lat="43.4373578" lon="11.1622738"><ele>120.0</ele><time>2026-05-01T09:14:06.598Z</time></trkpt><trkpt lat="43.43735" lon="11.1624111"><ele>120.0</ele><time>2026-05-01T09:14:08.608Z</time></trkpt><trkpt lat="43.4373435" lon="11.1625358"><ele>120.0</ele><time>2026-05-01T09:14:10.598Z</time></trkpt><trkpt lat="43.4373159" lon="11.1626829"><ele>120.0</ele><time>2026-05-01T09:14:12.613Z</time></trkpt><trkpt lat="43.437292" lon="11.162832"><ele>120.4</ele><time>2026-05-01T09:14:14.606Z</time></trkpt><trkpt lat="43.4372746" lon="11.1629832"><ele>120.8</ele><time>2026-05-01T09:14:16.61Z</time></trkpt><trkpt lat="43.4372677" lon="11.1631287"><ele>121.19999999999999</ele><time>2026-05-01T09:14:18.602Z</time></trkpt><trkpt lat="43.4372692" lon="11.1632753"><ele>121.6</ele><time>2026-05-01T09:14:20.603Z</time></trkpt><trkpt lat="43.4372678" lon="11.1634226"><ele>122.0</ele><time>2026-05-01T09:14:22.6Z</time></trkpt><trkpt lat="43.4372696" lon="11.16357"><ele>122.0</ele><time>2026-05-01T09:14:24.585Z</time></trkpt><trkpt lat="43.4372756" lon="11.1637202"><ele>121.99999999999999</ele><time>2026-05-01T09:14:26.589Z</time></trkpt><trkpt lat="43.4372879" lon="11.1638716"><ele>121.99999999999999</ele><time>2026-05-01T09:14:28.605Z</time></trkpt><trkpt lat="43.4373009" lon="11.1640195"><ele>122.0</ele><time>2026-05-01T09:14:30.606Z</time></trkpt><trkpt lat="43.4373268" lon="11.1641629"><ele>122.0</ele><time>2026-05-01T09:14:32.604Z</time></trkpt><trkpt lat="43.4373753" lon="11.1643328"><ele>122.0</ele><time>2026-05-01T09:14:34.607Z</time></trkpt><trkpt lat="43.437433" lon="11.1644714"><ele>121.99999999999999</ele><time>2026-05-01T09:14:36.685Z</time></trkpt><trkpt lat="43.4374523" lon="11.1646014"><ele>121.99999999999999</ele><time>2026-05-01T09:14:38.595Z</time></trkpt><trkpt lat="43.4374824" lon="11.1647453"><ele>122.0</ele><time>2026-05-01T09:14:40.6Z</time></trkpt><trkpt lat="43.4375135" lon="11.1648705"><ele>122.0</ele><time>2026-05-01T09:14:42.676Z</time></trkpt><trkpt lat="43.4375397" lon="11.1649996"><ele>122.0</ele><time>2026-05-01T09:14:44.596Z</time></trkpt><trkpt lat="43.4375973" lon="11.1651383"><ele>121.99999999999999</ele><time>2026-05-01T09:14:46.671Z</time></trkpt><trkpt lat="43.437653" lon="11.1652598"><ele>121.99999999999999</ele><time>2026-05-01T09:14:48.591Z</time></trkpt><trkpt lat="43.4377155" lon="11.1653695"><ele>122.0</ele><time>2026-05-01T09:14:50.602Z</time></trkpt><trkpt lat="43.4377769" lon="11.1654602"><ele>122.0</ele><time>2026-05-01T09:14:52.664Z</time></trkpt><trkpt lat="43.4379998" lon="11.1658495"><ele>122.66666666666666</ele><time>2026-05-01T09:14:59.572Z</time></trkpt><trkpt lat="43.437994" lon="11.1659381"><ele>123.33333333333333</ele><time>2026-05-01T09:15:00.599Z</time></trkpt><trkpt lat="43.4380307" lon="11.1660299"><ele>124.0</ele><time>2026-05-01T09:15:02.605Z</time></trkpt><trkpt lat="43.4380972" lon="11.1661166"><ele>124.66666666666666</ele><time>2026-05-01T09:15:04.6Z</time></trkpt><trkpt lat="43.4381738" lon="11.1662117"><ele>125.33333333333333</ele><time>2026-05-01T09:15:06.607Z</time></trkpt><trkpt lat="43.4382418" lon="11.166291"><ele>126.0</ele><time>2026-05-01T09:15:08.669Z</time></trkpt><trkpt lat="43.4383018" lon="11.1663601"><ele>126.0</ele><time>2026-05-01T09:15:10.606Z</time></trkpt><trkpt lat="43.4383503" lon="11.1664213"><ele>126.0</ele><time>2026-05-01T09:15:12.662Z</time></trkpt><trkpt lat="43.4384011" lon="11.1664775"><ele>126.0</ele><time>2026-05-01T09:15:14.596Z</time></trkpt><trkpt lat="43.4384523" lon="11.166536"><ele>126.0</ele><time>2026-05-01T09:15:16.612Z</time></trkpt><trkpt lat="43.438507" lon="11.1665892"><ele>126.0</ele><time>2026-05-01T09:15:18.61Z</time></trkpt><trkpt lat="43.4385705" lon="11.1666372"><ele>126.0</ele><time>2026-05-01T09:15:20.602Z</time></trkpt><trkpt lat="43.4386445" lon="11.1666655"><ele>126.0</ele><time>2026-05-01T09:15:22.673Z</time></trkpt><trkpt lat="43.4387462" lon="11.1667157"><ele>126.6</ele><time>2026-05-01T09:15:24.598Z</time></trkpt><trkpt lat="43.4388275" lon="11.1668058"><ele>127.19999999999999</ele><time>2026-05-01T09:15:26.605Z</time></trkpt><trkpt lat="43.438919" lon="11.1668938"><ele>127.80000000000001</ele><time>2026-05-01T09:15:28.601Z</time></trkpt><trkpt lat="43.4389946" lon="11.1669859"><ele>128.4</ele><time>2026-05-01T09:15:30.613Z</time></trkpt><trkpt lat="43.4390863" lon="11.1670492"><ele>129.0</ele><time>2026-05-01T09:15:32.607Z</time></trkpt><trkpt lat="43.4391785" lon="11.1670966"><ele>129.0</ele><time>2026-05-01T09:15:34.603Z</time></trkpt><trkpt lat="43.4392601" lon="11.1671377"><ele>129.0</ele><time>2026-05-01T09:15:36.602Z</time></trkpt><trkpt lat="43.4393268" lon="11.1671835"><ele>129.0</ele><time>2026-05-01T09:15:38.609Z</time></trkpt><trkpt lat="43.4393915" lon="11.1672668"><ele>129.0</ele><time>2026-05-01T09:15:41.607Z</time></trkpt><trkpt lat="43.4394616" lon="11.1673408"><ele>129.0</ele><time>2026-05-01T09:15:43.686Z</time></trkpt><trkpt lat="43.4395671" lon="11.1674245"><ele>128.83333333333334</ele><time>2026-05-01T09:15:45.599Z</time></trkpt><trkpt lat="43.4396276" lon="11.1675044"><ele>128.66666666666666</ele><time>2026-05-01T09:15:46.613Z</time></trkpt><trkpt lat="43.4396901" lon="11.1675935"><ele>128.5</ele><time>2026-05-01T09:15:47.583Z</time></trkpt><trkpt lat="43.4397614" lon="11.1676527"><ele>128.33333333333331</ele><time>2026-05-01T09:15:48.608Z</time></trkpt><trkpt lat="43.4398219" lon="11.1677267"><ele>128.16666666666666</ele><time>2026-05-01T09:15:49.592Z</time></trkpt><trkpt lat="43.4398627" lon="11.1678309"><ele>128.0</ele><time>2026-05-01T09:15:50.618Z</time></trkpt><trkpt lat="43.4398719" lon="11.1679334"><ele>127.99999999999999</ele><time>2026-05-01T09:15:51.655Z</time></trkpt><trkpt lat="43.4398905" lon="11.1680447"><ele>128.0</ele><time>2026-05-01T09:15:52.602Z</time></trkpt><trkpt lat="43.4399162" lon="11.1681448"><ele>128.0</ele><time>2026-05-01T09:15:53.672Z</time></trkpt><trkpt lat="43.4399466" lon="11.1682391"><ele>128.0</ele><time>2026-05-01T09:15:54.59Z</time></trkpt><trkpt lat="43.439972" lon="11.1683284"><ele>127.99999999999999</ele><time>2026-05-01T09:15:55.61Z</time></trkpt><trkpt lat="43.4400313" lon="11.1684735"><ele>128.0</ele><time>2026-05-01T09:15:57.681Z</time></trkpt><trkpt lat="43.4401565" lon="11.1686557"><ele>126.75</ele><time>2026-05-01T09:16:00.601Z</time></trkpt><trkpt lat="43.4402224" lon="11.1687877"><ele>125.5</ele><time>2026-05-01T09:16:02.586Z</time></trkpt><trkpt lat="43.4402794" lon="11.168926"><ele>124.25</ele><time>2026-05-01T09:16:04.599Z</time></trkpt><trkpt lat="43.4403333" lon="11.1690524"><ele>123.0</ele><time>2026-05-01T09:16:06.602Z</time></trkpt><trkpt lat="43.4403931" lon="11.1691917"><ele>122.75</ele><time>2026-05-01T09:16:08.604Z</time></trkpt><trkpt lat="43.4404438" lon="11.1693409"><ele>122.5</ele><time>2026-05-01T09:16:10.61Z</time></trkpt><trkpt lat="43.4404928" lon="11.1694895"><ele>122.25</ele><time>2026-05-01T09:16:12.597Z</time></trkpt><trkpt lat="43.440549" lon="11.169623"><ele>122.0</ele><time>2026-05-01T09:16:14.596Z</time></trkpt><trkpt lat="43.4406101" lon="11.1697632"><ele>123.0</ele><time>2026-05-01T09:16:16.596Z</time></trkpt><trkpt lat="43.4406606" lon="11.1699117"><ele>124.0</ele><time>2026-05-01T09:16:18.672Z</time></trkpt><trkpt lat="43.4407111" lon="11.1700432"><ele>125.0</ele><time>2026-05-01T09:16:20.602Z</time></trkpt><trkpt lat="43.4407569" lon="11.1701948"><ele>126.0</ele><time>2026-05-01T09:16:22.682Z</time></trkpt><trkpt lat="43.4407988" lon="11.1703282"><ele>126.0</ele><time>2026-05-01T09:16:24.606Z</time></trkpt><trkpt lat="43.4408303" lon="11.1704969"><ele>126.0</ele><time>2026-05-01T09:16:26.603Z</time></trkpt><trkpt lat="43.4408152" lon="11.1706576"><ele>126.0</ele><time>2026-05-01T09:16:28.67Z</time></trkpt><trkpt lat="43.4407883" lon="11.1708127"><ele>126.0</ele><time>2026-05-01T09:16:30.601Z</time></trkpt><trkpt lat="43.4407647" lon="11.1709859"><ele>125.5</ele><time>2026-05-01T09:16:32.675Z</time></trkpt><trkpt lat="43.4407388" lon="11.1712329"><ele>125.0</ele><time>2026-05-01T09:16:35.599Z</time></trkpt><trkpt lat="43.4407174" lon="11.171367"><ele>124.5</ele><time>2026-05-01T09:16:37.599Z</time></trkpt><trkpt lat="43.4406837" lon="11.1714887"><ele>124.0</ele><time>2026-05-01T09:16:39.605Z</time></trkpt><trkpt lat="43.4406309" lon="11.1716109"><ele>124.0</ele><time>2026-05-01T09:16:41.588Z</time></trkpt><trkpt lat="43.4405671" lon="11.1717319"><ele>124.0</ele><time>2026-05-01T09:16:43.578Z</time></trkpt><trkpt lat="43.4404991" lon="11.171859"><ele>124.0</ele><time>2026-05-01T09:16:45.607Z</time></trkpt><trkpt lat="43.4404274" lon="11.1719767"><ele>124.0</ele><time>2026-05-01T09:16:47.586Z</time></trkpt><trkpt lat="43.4403477" lon="11.1720825"><ele>124.0</ele><time>2026-05-01T09:16:49.583Z</time></trkpt><trkpt lat="43.4402619" lon="11.1721843"><ele>124.0</ele><time>2026-05-01T09:16:51.6Z</time></trkpt><trkpt lat="43.440181" lon="11.172276"><ele>124.0</ele><time>2026-05-01T09:16:53.679Z</time></trkpt><trkpt lat="43.4401213" lon="11.1723681"><ele>124.0</ele><time>2026-05-01T09:16:55.596Z</time></trkpt><trkpt lat="43.4400314" lon="11.1724585"><ele>124.0</ele><time>2026-05-01T09:16:57.66Z</time></trkpt><trkpt lat="43.4399352" lon="11.1725543"><ele>124.0</ele><time>2026-05-01T09:16:59.626Z</time></trkpt><trkpt lat="43.4398578" lon="11.1726447"><ele>123.50000000000001</ele><time>2026-05-01T09:17:01.584Z</time></trkpt><trkpt lat="43.4398015" lon="11.1727192"><ele>123.0</ele><time>2026-05-01T09:17:03.571Z</time></trkpt><trkpt lat="43.4397483" lon="11.1727824"><ele>122.5</ele><time>2026-05-01T09:17:05.581Z</time></trkpt><trkpt lat="43.4396908" lon="11.1728335"><ele>122.0</ele><time>2026-05-01T09:17:07.581Z</time></trkpt><trkpt lat="43.4396328" lon="11.1728745"><ele>121.50000000000001</ele><time>2026-05-01T09:17:09.587Z</time></trkpt><trkpt lat="43.4395542" lon="11.1729361"><ele>121.0</ele><time>2026-05-01T09:17:12.597Z</time></trkpt><trkpt lat="43.439473" lon="11.17298"><ele>121.33333333333334</ele><time>2026-05-01T09:17:15.603Z</time></trkpt><trkpt lat="43.4394143" lon="11.1730341"><ele>121.66666666666667</ele><time>2026-05-01T09:17:17.592Z</time></trkpt><trkpt lat="43.4393722" lon="11.1731236"><ele>122.0</ele><time>2026-05-01T09:17:19.594Z</time></trkpt><trkpt lat="43.4393451" lon="11.1732331"><ele>122.33333333333334</ele><time>2026-05-01T09:17:21.578Z</time></trkpt><trkpt lat="43.4393289" lon="11.1733602"><ele>122.66666666666667</ele><time>2026-05-01T09:17:23.583Z</time></trkpt><trkpt lat="43.4393415" lon="11.1735048"><ele>123.0</ele><time>2026-05-01T09:17:25.606Z</time></trkpt><trkpt lat="43.4393709" lon="11.173649"><ele>123.0</ele><time>2026-05-01T09:17:27.595Z</time></trkpt><trkpt lat="43.4394185" lon="11.1737929"><ele>123.0</ele><time>2026-05-01T09:17:29.589Z</time></trkpt><trkpt lat="43.4394564" lon="11.1739414"><ele>123.0</ele><time>2026-05-01T09:17:31.588Z</time></trkpt><trkpt lat="43.4394874" lon="11.1741002"><ele>123.0</ele><time>2026-05-01T09:17:33.579Z</time></trkpt><trkpt lat="43.4395201" lon="11.1742467"><ele>123.0</ele><time>2026-05-01T09:17:35.59Z</time></trkpt><trkpt lat="43.4395492" lon="11.1743927"><ele>123.00000000000001</ele><time>2026-05-01T09:17:37.589Z</time></trkpt><trkpt lat="43.43957" lon="11.1745392"><ele>123.00000000000001</ele><time>2026-05-01T09:17:39.59Z</time></trkpt><trkpt lat="43.4395746" lon="11.1746838"><ele>123.0</ele><time>2026-05-01T09:17:41.581Z</time></trkpt><trkpt lat="43.4395725" lon="11.1748329"><ele>123.0</ele><time>2026-05-01T09:17:43.594Z</time></trkpt><trkpt lat="43.4395553" lon="11.1749823"><ele>123.25</ele><time>2026-05-01T09:17:45.582Z</time></trkpt><trkpt lat="43.4395236" lon="11.1751312"><ele>123.5</ele><time>2026-05-01T09:17:47.589Z</time></trkpt><trkpt lat="43.4394858" lon="11.1752742"><ele>123.75</ele><time>2026-05-01T09:17:49.583Z</time></trkpt><trkpt lat="43.439454" lon="11.1754242"><ele>124.0</ele><time>2026-05-01T09:17:51.575Z</time></trkpt><trkpt lat="43.4394134" lon="11.1755731"><ele>123.80000000000001</ele><time>2026-05-01T09:17:53.578Z</time></trkpt><trkpt lat="43.4393756" lon="11.1757113"><ele>123.60000000000001</ele><time>2026-05-01T09:17:55.578Z</time></trkpt><trkpt lat="43.4393405" lon="11.1758555"><ele>123.4</ele><time>2026-05-01T09:17:57.586Z</time></trkpt><trkpt lat="43.4393076" lon="11.1760046"><ele>123.2</ele><time>2026-05-01T09:17:59.587Z</time></trkpt><trkpt lat="43.4392792" lon="11.1761523"><ele>123.0</ele><time>2026-05-01T09:18:01.569Z</time></trkpt><trkpt lat="43.4392494" lon="11.1762955"><ele>123.0</ele><time>2026-05-01T09:18:03.581Z</time></trkpt><trkpt lat="43.4392196" lon="11.1764423"><ele>123.00000000000001</ele><time>2026-05-01T09:18:05.591Z</time></trkpt><trkpt lat="43.4391919" lon="11.1765917"><ele>123.00000000000001</ele><time>2026-05-01T09:18:07.596Z</time></trkpt><trkpt lat="43.4391673" lon="11.1767428"><ele>123.0</ele><time>2026-05-01T09:18:09.59Z</time></trkpt><trkpt lat="43.4391466" lon="11.1768917"><ele>123.0</ele><time>2026-05-01T09:18:11.585Z</time></trkpt><trkpt lat="43.4391512" lon="11.1770497"><ele>123.25</ele><time>2026-05-01T09:18:13.585Z</time></trkpt><trkpt lat="43.4391562" lon="11.1772136"><ele>123.5</ele><time>2026-05-01T09:18:15.594Z</time></trkpt><trkpt lat="43.4391792" lon="11.1773714"><ele>123.75</ele><time>2026-05-01T09:18:17.605Z</time></trkpt><trkpt lat="43.4391996" lon="11.1775328"><ele>124.0</ele><time>2026-05-01T09:18:19.604Z</time></trkpt><trkpt lat="43.4392277" lon="11.1776894"><ele>124.0</ele><time>2026-05-01T09:18:21.603Z</time></trkpt><trkpt lat="43.4392454" lon="11.1778421"><ele>124.0</ele><time>2026-05-01T09:18:23.585Z</time></trkpt><trkpt lat="43.4392518" lon="11.1779829"><ele>124.0</ele><time>2026-05-01T09:18:25.593Z</time></trkpt><trkpt lat="43.4392404" lon="11.1781299"><ele>124.0</ele><time>2026-05-01T09:18:27.588Z</time></trkpt><trkpt lat="43.4392095" lon="11.178288"><ele>124.0</ele><time>2026-05-01T09:18:29.606Z</time></trkpt><trkpt lat="43.4391419" lon="11.1784227"><ele>124.25</ele><time>2026-05-01T09:18:31.581Z</time></trkpt><trkpt lat="43.4390647" lon="11.1785466"><ele>124.5</ele><time>2026-05-01T09:18:33.578Z</time></trkpt><trkpt lat="43.4389842" lon="11.1786625"><ele>124.75</ele><time>2026-05-01T09:18:35.583Z</time></trkpt><trkpt lat="43.4389048" lon="11.1787753"><ele>125.0</ele><time>2026-05-01T09:18:37.591Z</time></trkpt><trkpt lat="43.4388288" lon="11.1788924"><ele>125.0</ele><time>2026-05-01T09:18:39.588Z</time></trkpt><trkpt lat="43.4387487" lon="11.1790122"><ele>125.0</ele><time>2026-05-01T09:18:41.591Z</time></trkpt><trkpt lat="43.4386778" lon="11.1790969"><ele>125.0</ele><time>2026-05-01T09:18:43.583Z</time></trkpt><trkpt lat="43.4386066" lon="11.1791505"><ele>125.0</ele><time>2026-05-01T09:18:45.576Z</time></trkpt><trkpt lat="43.4385227" lon="11.1791797"><ele>125.0</ele><time>2026-05-01T09:18:47.59Z</time></trkpt><trkpt lat="43.4384359" lon="11.1791956"><ele>125.0</ele><time>2026-05-01T09:18:49.591Z</time></trkpt><trkpt lat="43.4383428" lon="11.1792205"><ele>125.0</ele><time>2026-05-01T09:18:51.582Z</time></trkpt><trkpt lat="43.4382428" lon="11.1792596"><ele>125.0</ele><time>2026-05-01T09:18:53.575Z</time></trkpt><trkpt lat="43.4381439" lon="11.1792813"><ele>125.0</ele><time>2026-05-01T09:18:55.605Z</time></trkpt><trkpt lat="43.4380331" lon="11.1792775"><ele>125.0</ele><time>2026-05-01T09:18:57.584Z</time></trkpt><trkpt lat="43.4379677" lon="11.1792627"><ele>125.16666666666666</ele><time>2026-05-01T09:18:58.587Z</time></trkpt><trkpt lat="43.4379025" lon="11.1792436"><ele>125.33333333333333</ele><time>2026-05-01T09:18:59.584Z</time></trkpt><trkpt lat="43.4378406" lon="11.1792202"><ele>125.5</ele><time>2026-05-01T09:19:00.587Z</time></trkpt><trkpt lat="43.4377787" lon="11.1791972"><ele>125.66666666666666</ele><time>2026-05-01T09:19:01.587Z</time></trkpt><trkpt lat="43.4376603" lon="11.1791495"><ele>125.83333333333333</ele><time>2026-05-01T09:19:03.592Z</time></trkpt><trkpt lat="43.4375408" lon="11.1791056"><ele>126.0</ele><time>2026-05-01T09:19:05.571Z</time></trkpt><trkpt lat="43.4374292" lon="11.1790619"><ele>126.0</ele><time>2026-05-01T09:19:07.593Z</time></trkpt><trkpt lat="43.4373118" lon="11.1790227"><ele>126.0</ele><time>2026-05-01T09:19:09.587Z</time></trkpt><trkpt lat="43.4372033" lon="11.1789777"><ele>126.0</ele><time>2026-05-01T09:19:11.581Z</time></trkpt><trkpt lat="43.4371036" lon="11.1789315"><ele>126.0</ele><time>2026-05-01T09:19:13.599Z</time></trkpt><trkpt lat="43.4370081" lon="11.178895"><ele>126.0</ele><time>2026-05-01T09:19:15.582Z</time></trkpt><trkpt lat="43.4369023" lon="11.1788602"><ele>126.5</ele><time>2026-05-01T09:19:17.588Z</time></trkpt><trkpt lat="43.4367924" lon="11.1788053"><ele>127.0</ele><time>2026-05-01T09:19:19.575Z</time></trkpt><trkpt lat="43.4366881" lon="11.1787525"><ele>127.5</ele><time>2026-05-01T09:19:21.601Z</time></trkpt><trkpt lat="43.4365772" lon="11.1787049"><ele>128.0</ele><time>2026-05-01T09:19:23.577Z</time></trkpt><trkpt lat="43.4364636" lon="11.1786622"><ele>128.0</ele><time>2026-05-01T09:19:25.6Z</time></trkpt><trkpt lat="43.4363446" lon="11.1786346"><ele>128.0</ele><time>2026-05-01T09:19:27.595Z</time></trkpt><trkpt lat="43.4362248" lon="11.1786084"><ele>128.0</ele><time>2026-05-01T09:19:29.595Z</time></trkpt><trkpt lat="43.4361094" lon="11.1786042"><ele>128.0</ele><time>2026-05-01T09:19:31.591Z</time></trkpt><trkpt lat="43.4359933" lon="11.1786137"><ele>129.5</ele><time>2026-05-01T09:19:33.592Z</time></trkpt><trkpt lat="43.4358781" lon="11.1786339"><ele>131.0</ele><time>2026-05-01T09:19:35.577Z</time></trkpt><trkpt lat="43.4357614" lon="11.1786575"><ele>132.5</ele><time>2026-05-01T09:19:37.579Z</time></trkpt><trkpt lat="43.4356489" lon="11.1786841"><ele>134.0</ele><time>2026-05-01T09:19:39.602Z</time></trkpt><trkpt lat="43.4355408" lon="11.178704"><ele>133.0</ele><time>2026-05-01T09:19:41.583Z</time></trkpt><trkpt lat="43.4354225" lon="11.1787223"><ele>132.0</ele><time>2026-05-01T09:19:43.587Z</time></trkpt><trkpt lat="43.4353072" lon="11.178739"><ele>131.0</ele><time>2026-05-01T09:19:45.597Z</time></trkpt><trkpt lat="43.4351978" lon="11.1787576"><ele>130.0</ele><time>2026-05-01T09:19:47.583Z</time></trkpt><trkpt lat="43.4350885" lon="11.1787665"><ele>130.0</ele><time>2026-05-01T09:19:49.599Z</time></trkpt><trkpt lat="43.4349769" lon="11.1787799"><ele>130.0</ele><time>2026-05-01T09:19:51.607Z</time></trkpt><trkpt lat="43.4348688" lon="11.1787889"><ele>130.0</ele><time>2026-05-01T09:19:53.583Z</time></trkpt><trkpt lat="43.4347556" lon="11.1788014"><ele>130.0</ele><time>2026-05-01T09:19:55.584Z</time></trkpt><trkpt lat="43.4346411" lon="11.178823"><ele>130.0</ele><time>2026-05-01T09:19:57.595Z</time></trkpt><trkpt lat="43.434528" lon="11.1788421"><ele>129.8</ele><time>2026-05-01T09:19:59.58Z</time></trkpt><trkpt lat="43.4344156" lon="11.1788489"><ele>129.6</ele><time>2026-05-01T09:20:01.587Z</time></trkpt><trkpt lat="43.4343082" lon="11.1788479"><ele>129.4</ele><time>2026-05-01T09:20:03.58Z</time></trkpt><trkpt lat="43.4341985" lon="11.1788569"><ele>129.2</ele><time>2026-05-01T09:20:05.607Z</time></trkpt><trkpt lat="43.4340922" lon="11.1788739"><ele>129.0</ele><time>2026-05-01T09:20:07.588Z</time></trkpt><trkpt lat="43.4339841" lon="11.1788772"><ele>129.0</ele><time>2026-05-01T09:20:09.578Z</time></trkpt><trkpt lat="43.4338716" lon="11.178874"><ele>129.0</ele><time>2026-05-01T09:20:11.592Z</time></trkpt><trkpt lat="43.4337658" lon="11.1788689"><ele>129.0</ele><time>2026-05-01T09:20:13.605Z</time></trkpt><trkpt lat="43.4336665" lon="11.1788429"><ele>129.0</ele><time>2026-05-01T09:20:15.575Z</time></trkpt><trkpt lat="43.4335701" lon="11.1787677"><ele>129.0</ele><time>2026-05-01T09:20:17.588Z</time></trkpt><trkpt lat="43.4334759" lon="11.1786836"><ele>129.2</ele><time>2026-05-01T09:20:19.593Z</time></trkpt><trkpt lat="43.4333848" lon="11.178612"><ele>129.4</ele><time>2026-05-01T09:20:21.594Z</time></trkpt><trkpt lat="43.4332881" lon="11.1785789"><ele>129.6</ele><time>2026-05-01T09:20:23.588Z</time></trkpt><trkpt lat="43.4331945" lon="11.1785945"><ele>129.8</ele><time>2026-05-01T09:20:25.589Z</time></trkpt><trkpt lat="43.4331041" lon="11.178619"><ele>130.0</ele><time>2026-05-01T09:20:27.594Z</time></trkpt><trkpt lat="43.433019" lon="11.1786616"><ele>130.0</ele><time>2026-05-01T09:20:29.578Z</time></trkpt><trkpt lat="43.4329362" lon="11.1787221"><ele>130.0</ele><time>2026-05-01T09:20:31.581Z</time></trkpt><trkpt lat="43.4328615" lon="11.1787978"><ele>130.0</ele><time>2026-05-01T09:20:33.58Z</time></trkpt><trkpt lat="43.4327895" lon="11.1788754"><ele>130.0</ele><time>2026-05-01T09:20:35.577Z</time></trkpt><trkpt lat="43.4327226" lon="11.1789425"><ele>130.0</ele><time>2026-05-01T09:20:37.578Z</time></trkpt><trkpt lat="43.4326506" lon="11.1790141"><ele>130.0</ele><time>2026-05-01T09:20:39.602Z</time></trkpt><trkpt lat="43.432582" lon="11.1790528"><ele>130.0</ele><time>2026-05-01T09:20:41.581Z</time></trkpt><trkpt lat="43.4325188" lon="11.1790522"><ele>130.0</ele><time>2026-05-01T09:20:43.6Z</time></trkpt><trkpt lat="43.4324209" lon="11.1790443"><ele>130.0</ele><time>2026-05-01T09:20:46.588Z</time></trkpt><trkpt lat="43.4323417" lon="11.1790355"><ele>130.0</ele><time>2026-05-01T09:20:48.58Z</time></trkpt><trkpt lat="43.4322561" lon="11.1790142"><ele>130.0</ele><time>2026-05-01T09:20:50.586Z</time></trkpt><trkpt lat="43.4321801" lon="11.1789878"><ele>130.0</ele><time>2026-05-01T09:20:52.591Z</time></trkpt><trkpt lat="43.4321102" lon="11.1789589"><ele>130.6</ele><time>2026-05-01T09:20:54.591Z</time></trkpt><trkpt lat="43.4320444" lon="11.1789232"><ele>131.2</ele><time>2026-05-01T09:20:56.589Z</time></trkpt><trkpt lat="43.4319754" lon="11.1788721"><ele>131.8</ele><time>2026-05-01T09:20:58.583Z</time></trkpt><trkpt lat="43.4319038" lon="11.1788084"><ele>132.4</ele><time>2026-05-01T09:21:00.588Z</time></trkpt><trkpt lat="43.431825" lon="11.1787199"><ele>133.0</ele><time>2026-05-01T09:21:02.587Z</time></trkpt><trkpt lat="43.4317215" lon="11.1786242"><ele>133.0</ele><time>2026-05-01T09:21:04.585Z</time></trkpt><trkpt lat="43.4316102" lon="11.1785393"><ele>133.0</ele><time>2026-05-01T09:21:06.581Z</time></trkpt><trkpt lat="43.4315459" lon="11.1785034"><ele>133.0</ele><time>2026-05-01T09:21:07.576Z</time></trkpt><trkpt lat="43.431482" lon="11.1784729"><ele>133.0</ele><time>2026-05-01T09:21:08.584Z</time></trkpt><trkpt lat="43.4314163" lon="11.1784411"><ele>133.0</ele><time>2026-05-01T09:21:09.578Z</time></trkpt><trkpt lat="43.4313564" lon="11.1784114"><ele>133.0</ele><time>2026-05-01T09:21:10.585Z</time></trkpt><trkpt lat="43.4312461" lon="11.1783551"><ele>132.8</ele><time>2026-05-01T09:21:12.588Z</time></trkpt><trkpt lat="43.4311459" lon="11.1782981"><ele>132.60000000000002</ele><time>2026-05-01T09:21:14.586Z</time></trkpt><trkpt lat="43.4310538" lon="11.1782383"><ele>132.39999999999998</ele><time>2026-05-01T09:21:16.587Z</time></trkpt><trkpt lat="43.4309574" lon="11.1781793"><ele>132.2</ele><time>2026-05-01T09:21:18.587Z</time></trkpt><trkpt lat="43.430864" lon="11.17812"><ele>132.0</ele><time>2026-05-01T09:21:20.596Z</time></trkpt><trkpt lat="43.430771" lon="11.1780547"><ele>131.79999999999998</ele><time>2026-05-01T09:21:22.588Z</time></trkpt><trkpt lat="43.4306883" lon="11.1779903"><ele>131.6</ele><time>2026-05-01T09:21:24.581Z</time></trkpt><trkpt lat="43.4306055" lon="11.1779228"><ele>131.39999999999998</ele><time>2026-05-01T09:21:26.578Z</time></trkpt><trkpt lat="43.4305127" lon="11.1778558"><ele>131.2</ele><time>2026-05-01T09:21:28.605Z</time></trkpt><trkpt lat="43.4304068" lon="11.1777945"><ele>131.0</ele><time>2026-05-01T09:21:30.595Z</time></trkpt><trkpt lat="43.4302975" lon="11.1777365"><ele>131.0</ele><time>2026-05-01T09:21:32.591Z</time></trkpt><trkpt lat="43.4301911" lon="11.1776869"><ele>131.0</ele><time>2026-05-01T09:21:34.584Z</time></trkpt><trkpt lat="43.430097" lon="11.1776362"><ele>131.0</ele><time>2026-05-01T09:21:36.58Z</time></trkpt><trkpt lat="43.4300032" lon="11.1775856"><ele>131.0</ele><time>2026-05-01T09:21:38.596Z</time></trkpt><trkpt lat="43.4299081" lon="11.1775426"><ele>131.0</ele><time>2026-05-01T09:21:40.595Z</time></trkpt><trkpt lat="43.4298038" lon="11.1775347"><ele>131.0</ele><time>2026-05-01T09:21:42.587Z</time></trkpt><trkpt lat="43.4297025" lon="11.1775419"><ele>131.0</ele><time>2026-05-01T09:21:44.589Z</time></trkpt><trkpt lat="43.4296116" lon="11.1775726"><ele>131.0</ele><time>2026-05-01T09:21:46.586Z</time></trkpt><trkpt lat="43.4295289" lon="11.1776249"><ele>131.0</ele><time>2026-05-01T09:21:48.585Z</time></trkpt><trkpt lat="43.4294621" lon="11.1776796"><ele>131.0</ele><time>2026-05-01T09:21:50.576Z</time></trkpt><trkpt lat="43.4294006" lon="11.1777504"><ele>131.0</ele><time>2026-05-01T09:21:52.595Z</time></trkpt><trkpt lat="43.4293404" lon="11.1778782"><ele>131.2</ele><time>2026-05-01T09:21:54.585Z</time></trkpt><trkpt lat="43.429288" lon="11.1779996"><ele>131.39999999999998</ele><time>2026-05-01T09:21:56.607Z</time></trkpt><trkpt lat="43.4292416" lon="11.1781129"><ele>131.6</ele><time>2026-05-01T09:21:58.571Z</time></trkpt><trkpt lat="43.4291946" lon="11.1782275"><ele>131.79999999999998</ele><time>2026-05-01T09:22:00.586Z</time></trkpt><trkpt lat="43.4291575" lon="11.1783432"><ele>132.0</ele><time>2026-05-01T09:22:02.603Z</time></trkpt><trkpt lat="43.4291319" lon="11.1784455"><ele>132.0</ele><time>2026-05-01T09:22:04.598Z</time></trkpt><trkpt lat="43.429107" lon="11.1785434"><ele>132.0</ele><time>2026-05-01T09:22:06.584Z</time></trkpt><trkpt lat="43.4290798" lon="11.1786392"><ele>132.0</ele><time>2026-05-01T09:22:08.592Z</time></trkpt><trkpt lat="43.429052" lon="11.1787309"><ele>132.0</ele><time>2026-05-01T09:22:10.581Z</time></trkpt><trkpt lat="43.4290268" lon="11.1788345"><ele>132.0</ele><time>2026-05-01T09:22:12.585Z</time></trkpt><trkpt lat="43.4289987" lon="11.1789469"><ele>132.0</ele><time>2026-05-01T09:22:14.584Z</time></trkpt><trkpt lat="43.4289677" lon="11.1790411"><ele>132.66666666666666</ele><time>2026-05-01T09:22:16.58Z</time></trkpt><trkpt lat="43.4289256" lon="11.1791379"><ele>133.33333333333334</ele><time>2026-05-01T09:22:18.578Z</time></trkpt><trkpt lat="43.4288845" lon="11.1792286"><ele>134.0</ele><time>2026-05-01T09:22:20.586Z</time></trkpt><trkpt lat="43.4288426" lon="11.1792966"><ele>134.66666666666669</ele><time>2026-05-01T09:22:22.591Z</time></trkpt><trkpt lat="43.4288004" lon="11.1793708"><ele>135.33333333333334</ele><time>2026-05-01T09:22:24.58Z</time></trkpt><trkpt lat="43.4287352" lon="11.1794618"><ele>136.0</ele><time>2026-05-01T09:22:27.591Z</time></trkpt><trkpt lat="43.4286839" lon="11.1795144"><ele>136.0</ele><time>2026-05-01T09:22:29.586Z</time></trkpt><trkpt lat="43.4286284" lon="11.1795693"><ele>136.0</ele><time>2026-05-01T09:22:31.58Z</time></trkpt><trkpt lat="43.4285649" lon="11.1796278"><ele>136.0</ele><time>2026-05-01T09:22:33.576Z</time></trkpt><trkpt lat="43.4284797" lon="11.1796965"><ele>136.0</ele><time>2026-05-01T09:22:35.582Z</time></trkpt><trkpt lat="43.4283723" lon="11.1797616"><ele>136.0</ele><time>2026-05-01T09:22:37.601Z</time></trkpt><trkpt lat="43.4282534" lon="11.1798184"><ele>136.0</ele><time>2026-05-01T09:22:39.576Z</time></trkpt><trkpt lat="43.4281947" lon="11.1798517"><ele>136.0</ele><time>2026-05-01T09:22:40.584Z</time></trkpt><trkpt lat="43.4280873" lon="11.1799519"><ele>136.0</ele><time>2026-05-01T09:22:42.59Z</time></trkpt><trkpt lat="43.4280392" lon="11.1800115"><ele>136.0</ele><time>2026-05-01T09:22:43.583Z</time></trkpt><trkpt lat="43.4279971" lon="11.1800779"><ele>136.0</ele><time>2026-05-01T09:22:44.586Z</time></trkpt><trkpt lat="43.4279313" lon="11.1801893"><ele>136.0</ele><time>2026-05-01T09:22:46.58Z</time></trkpt><trkpt lat="43.4278831" lon="11.1802881"><ele>136.0</ele><time>2026-05-01T09:22:48.584Z</time></trkpt><trkpt lat="43.427845" lon="11.1803724"><ele>136.0</ele><time>2026-05-01T09:22:50.58Z</time></trkpt><trkpt lat="43.4277991" lon="11.1804771"><ele>136.0</ele><time>2026-05-01T09:22:53.581Z</time></trkpt><trkpt lat="43.427773" lon="11.1805888"><ele>136.0</ele><time>2026-05-01T09:22:56.59Z</time></trkpt><trkpt lat="43.4277601" lon="11.1806957"><ele>136.0</ele><time>2026-05-01T09:22:59.585Z</time></trkpt><trkpt lat="43.4277356" lon="11.1808037"><ele>136.0</ele><time>2026-05-01T09:23:02.599Z</time></trkpt><trkpt lat="43.4276866" lon="11.1809176"><ele>137.16666666666669</ele><time>2026-05-01T09:23:05.593Z</time></trkpt><trkpt lat="43.4276514" lon="11.1810337"><ele>138.33333333333334</ele><time>2026-05-01T09:23:08.573Z</time></trkpt><trkpt lat="43.4276035" lon="11.1811299"><ele>139.5</ele><time>2026-05-01T09:23:11.577Z</time></trkpt><trkpt lat="43.4275577" lon="11.1812282"><ele>140.66666666666666</ele><time>2026-05-01T09:23:14.587Z</time></trkpt><trkpt lat="43.4275075" lon="11.1813284"><ele>141.83333333333331</ele><time>2026-05-01T09:23:17.578Z</time></trkpt><trkpt lat="43.4274737" lon="11.1814128"><ele>143.0</ele><time>2026-05-01T09:23:20.59Z</time></trkpt><trkpt lat="43.4274698" lon="11.1815108"><ele>142.99999999999997</ele><time>2026-05-01T09:23:23.592Z</time></trkpt><trkpt lat="43.4275109" lon="11.1815892"><ele>143.0</ele><time>2026-05-01T09:23:27.587Z</time></trkpt><trkpt lat="43.427475" lon="11.1816633"><ele>143.0</ele><time>2026-05-01T09:23:35.588Z</time></trkpt><trkpt lat="43.4274092" lon="11.1816949"><ele>143.0</ele><time>2026-05-01T09:23:38.585Z</time></trkpt><trkpt lat="43.4273383" lon="11.1817421"><ele>143.0</ele><time>2026-05-01T09:23:47.593Z</time></trkpt><trkpt lat="43.4272803" lon="11.1817836"><ele>142.99999999999997</ele><time>2026-05-01T09:23:50.584Z</time></trkpt><trkpt lat="43.4272141" lon="11.181821"><ele>143.0</ele><time>2026-05-01T09:23:53.596Z</time></trkpt><trkpt lat="43.4271347" lon="11.1818634"><ele>143.0</ele><time>2026-05-01T09:23:56.58Z</time></trkpt><trkpt lat="43.427065" lon="11.1818841"><ele>143.0</ele><time>2026-05-01T09:23:58.576Z</time></trkpt><trkpt lat="43.4270024" lon="11.1819021"><ele>143.0</ele><time>2026-05-01T09:24:00.591Z</time></trkpt><trkpt lat="43.4269183" lon="11.1819227"><ele>143.0</ele><time>2026-05-01T09:24:02.58Z</time></trkpt><trkpt lat="43.4268147" lon="11.1819726"><ele>143.0</ele><time>2026-05-01T09:24:04.585Z</time></trkpt><trkpt lat="43.4266999" lon="11.1820068"><ele>143.0</ele><time>2026-05-01T09:24:06.591Z</time></trkpt><trkpt lat="43.4266316" lon="11.1820347"><ele>143.0</ele><time>2026-05-01T09:24:07.586Z</time></trkpt><trkpt lat="43.42656" lon="11.1820633"><ele>143.0</ele><time>2026-05-01T09:24:08.6Z</time></trkpt><trkpt lat="43.4264848" lon="11.1820913"><ele>143.0</ele><time>2026-05-01T09:24:09.585Z</time></trkpt><trkpt lat="43.4264055" lon="11.1821202"><ele>143.0</ele><time>2026-05-01T09:24:10.585Z</time></trkpt><trkpt lat="43.4263268" lon="11.1821353"><ele>143.0</ele><time>2026-05-01T09:24:11.59Z</time></trkpt><trkpt lat="43.4262414" lon="11.1821405"><ele>143.0</ele><time>2026-05-01T09:24:12.585Z</time></trkpt><trkpt lat="43.4261551" lon="11.1821347"><ele>143.28571428571428</ele><time>2026-05-01T09:24:13.593Z</time></trkpt><trkpt lat="43.4260756" lon="11.1821227"><ele>143.57142857142856</ele><time>2026-05-01T09:24:14.582Z</time></trkpt><trkpt lat="43.4260006" lon="11.1821151"><ele>143.85714285714286</ele><time>2026-05-01T09:24:15.589Z</time></trkpt><trkpt lat="43.4259262" lon="11.1821128"><ele>144.14285714285714</ele><time>2026-05-01T09:24:16.589Z</time></trkpt><trkpt lat="43.4258612" lon="11.1821386"><ele>144.42857142857144</ele><time>2026-05-01T09:24:17.58Z</time></trkpt><trkpt lat="43.4258087" lon="11.182192"><ele>144.71428571428572</ele><time>2026-05-01T09:24:18.595Z</time></trkpt><trkpt lat="43.4257671" lon="11.1822642"><ele>145.0</ele><time>2026-05-01T09:24:19.577Z</time></trkpt><trkpt lat="43.4257326" lon="11.1823409"><ele>144.4</ele><time>2026-05-01T09:24:20.591Z</time></trkpt><trkpt lat="43.4256697" lon="11.1824726"><ele>143.8</ele><time>2026-05-01T09:24:22.585Z</time></trkpt><trkpt lat="43.4256063" lon="11.1825913"><ele>143.2</ele><time>2026-05-01T09:24:24.588Z</time></trkpt><trkpt lat="43.4255545" lon="11.1827123"><ele>142.6</ele><time>2026-05-01T09:24:26.578Z</time></trkpt><trkpt lat="43.425499" lon="11.1828204"><ele>142.0</ele><time>2026-05-01T09:24:28.579Z</time></trkpt><trkpt lat="43.4254571" lon="11.1829141"><ele>144.0</ele><time>2026-05-01T09:24:30.582Z</time></trkpt><trkpt lat="43.4254135" lon="11.1829969"><ele>146.0</ele><time>2026-05-01T09:24:32.583Z</time></trkpt><trkpt lat="43.4253732" lon="11.183076"><ele>148.0</ele><time>2026-05-01T09:24:34.58Z</time></trkpt><trkpt lat="43.4253266" lon="11.1831796"><ele>150.0</ele><time>2026-05-01T09:24:37.568Z</time></trkpt><trkpt lat="43.4252742" lon="11.183258"><ele>152.0</ele><time>2026-05-01T09:24:40.577Z</time></trkpt><trkpt lat="43.4252242" lon="11.1833188"><ele>154.0</ele><time>2026-05-01T09:24:43.581Z</time></trkpt><trkpt lat="43.4251478" lon="11.1833345"><ele>154.0</ele><time>2026-05-01T09:24:47.592Z</time></trkpt><trkpt lat="43.4250849" lon="11.1832982"><ele>154.0</ele><time>2026-05-01T09:24:51.587Z</time></trkpt><trkpt lat="43.4250373" lon="11.1832355"><ele>154.0</ele><time>2026-05-01T09:24:55.589Z</time></trkpt><trkpt lat="43.4249869" lon="11.1831735"><ele>154.0</ele><time>2026-05-01T09:24:59.576Z</time></trkpt><trkpt lat="43.4249368" lon="11.1830955"><ele>154.0</ele><time>2026-05-01T09:25:04.586Z</time></trkpt><trkpt lat="43.4248827" lon="11.1830233"><ele>154.0</ele><time>2026-05-01T09:25:09.58Z</time></trkpt><trkpt lat="43.4248126" lon="11.1829501"><ele>154.0</ele><time>2026-05-01T09:25:13.594Z</time></trkpt><trkpt lat="43.4247635" lon="11.1828691"><ele>154.85714285714286</ele><time>2026-05-01T09:25:17.582Z</time></trkpt><trkpt lat="43.4247296" lon="11.1827835"><ele>155.71428571428572</ele><time>2026-05-01T09:25:20.602Z</time></trkpt><trkpt lat="43.4247" lon="11.182704"><ele>156.57142857142856</ele><time>2026-05-01T09:25:23.572Z</time></trkpt><trkpt lat="43.4246688" lon="11.182619"><ele>157.42857142857144</ele><time>2026-05-01T09:25:26.597Z</time></trkpt><trkpt lat="43.4246216" lon="11.1825276"><ele>158.28571428571428</ele><time>2026-05-01T09:25:30.584Z</time></trkpt><trkpt lat="43.4245649" lon="11.1824616"><ele>159.14285714285714</ele><time>2026-05-01T09:25:34.579Z</time></trkpt><trkpt lat="43.4244962" lon="11.1824266"><ele>160.0</ele><time>2026-05-01T09:25:38.58Z</time></trkpt><trkpt lat="43.4244302" lon="11.182401"><ele>160.71428571428572</ele><time>2026-05-01T09:25:42.582Z</time></trkpt><trkpt lat="43.4243622" lon="11.1823849"><ele>161.42857142857144</ele><time>2026-05-01T09:25:46.581Z</time></trkpt><trkpt lat="43.4242915" lon="11.1823573"><ele>162.14285714285717</ele><time>2026-05-01T09:25:51.581Z</time></trkpt><trkpt lat="43.4242164" lon="11.1823406"><ele>162.85714285714286</ele><time>2026-05-01T09:25:56.588Z</time></trkpt><trkpt lat="43.4241759" lon="11.1822654"><ele>163.57142857142858</ele><time>2026-05-01T09:26:02.582Z</time></trkpt><trkpt lat="43.4241913" lon="11.1821741"><ele>164.2857142857143</ele><time>2026-05-01T09:26:06.589Z</time></trkpt><trkpt lat="43.4242126" lon="11.182085"><ele>165.0</ele><time>2026-05-01T09:26:09.574Z</time></trkpt><trkpt lat="43.4242387" lon="11.1819751"><ele>165.0</ele><time>2026-05-01T09:26:12.572Z</time></trkpt><trkpt lat="43.424274" lon="11.1818644"><ele>165.0</ele><time>2026-05-01T09:26:15.596Z</time></trkpt><trkpt lat="43.4243096" lon="11.1817645"><ele>165.0</ele><time>2026-05-01T09:26:17.599Z</time></trkpt><trkpt lat="43.4243537" lon="11.1816845"><ele>165.0</ele><time>2026-05-01T09:26:19.59Z</time></trkpt><trkpt lat="43.4244005" lon="11.1816084"><ele>165.0</ele><time>2026-05-01T09:26:21.588Z</time></trkpt><trkpt lat="43.4244539" lon="11.181531"><ele>165.0</ele><time>2026-05-01T09:26:23.589Z</time></trkpt><trkpt lat="43.4245058" lon="11.1814298"><ele>165.16666666666666</ele><time>2026-05-01T09:26:25.588Z</time></trkpt><trkpt lat="43.4245591" lon="11.1813451"><ele>165.33333333333334</ele><time>2026-05-01T09:26:27.581Z</time></trkpt><trkpt lat="43.4246093" lon="11.1812654"><ele>165.5</ele><time>2026-05-01T09:26:29.596Z</time></trkpt><trkpt lat="43.4246652" lon="11.1811898"><ele>165.66666666666669</ele><time>2026-05-01T09:26:31.588Z</time></trkpt><trkpt lat="43.4247228" lon="11.1811073"><ele>165.83333333333334</ele><time>2026-05-01T09:26:33.586Z</time></trkpt><trkpt lat="43.424785" lon="11.1810196"><ele>166.0</ele><time>2026-05-01T09:26:35.612Z</time></trkpt><trkpt lat="43.4248456" lon="11.1809233"><ele>165.5</ele><time>2026-05-01T09:26:37.591Z</time></trkpt><trkpt lat="43.4248961" lon="11.1808112"><ele>165.0</ele><time>2026-05-01T09:26:39.584Z</time></trkpt><trkpt lat="43.4249462" lon="11.1807086"><ele>164.5</ele><time>2026-05-01T09:26:41.587Z</time></trkpt><trkpt lat="43.4249974" lon="11.1806125"><ele>164.0</ele><time>2026-05-01T09:26:43.577Z</time></trkpt><trkpt lat="43.4250521" lon="11.1805122"><ele>163.5</ele><time>2026-05-01T09:26:45.586Z</time></trkpt><trkpt lat="43.4251046" lon="11.1804222"><ele>163.0</ele><time>2026-05-01T09:26:47.604Z</time></trkpt><trkpt lat="43.4251646" lon="11.1803389"><ele>163.0</ele><time>2026-05-01T09:26:49.583Z</time></trkpt><trkpt lat="43.4252191" lon="11.1802508"><ele>163.0</ele><time>2026-05-01T09:26:51.582Z</time></trkpt><trkpt lat="43.4252706" lon="11.1801561"><ele>163.0</ele><time>2026-05-01T09:26:53.594Z</time></trkpt><trkpt lat="43.4253164" lon="11.1800586"><ele>163.0</ele><time>2026-05-01T09:26:55.6Z</time></trkpt><trkpt lat="43.4253724" lon="11.1799716"><ele>163.0</ele><time>2026-05-01T09:26:57.596Z</time></trkpt><trkpt lat="43.4254227" lon="11.1798824"><ele>163.0</ele><time>2026-05-01T09:26:59.6Z</time></trkpt><trkpt lat="43.4254703" lon="11.1797938"><ele>162.66666666666669</ele><time>2026-05-01T09:27:01.589Z</time></trkpt><trkpt lat="43.4255276" lon="11.1797073"><ele>162.33333333333334</ele><time>2026-05-01T09:27:03.579Z</time></trkpt><trkpt lat="43.4255828" lon="11.1796152"><ele>162.0</ele><time>2026-05-01T09:27:05.571Z</time></trkpt><trkpt lat="43.4256364" lon="11.1795285"><ele>161.66666666666666</ele><time>2026-05-01T09:27:07.595Z</time></trkpt><trkpt lat="43.4256912" lon="11.1794392"><ele>161.33333333333331</ele><time>2026-05-01T09:27:09.59Z</time></trkpt><trkpt lat="43.4257498" lon="11.1793563"><ele>161.0</ele><time>2026-05-01T09:27:11.591Z</time></trkpt><trkpt lat="43.4258155" lon="11.1792991"><ele>161.0</ele><time>2026-05-01T09:27:13.584Z</time></trkpt><trkpt lat="43.4258836" lon="11.17926"><ele>161.0</ele><time>2026-05-01T09:27:15.589Z</time></trkpt><trkpt lat="43.4259579" lon="11.1792283"><ele>161.0</ele><time>2026-05-01T09:27:17.579Z</time></trkpt><trkpt lat="43.4260268" lon="11.1791782"><ele>161.0</ele><time>2026-05-01T09:27:19.583Z</time></trkpt><trkpt lat="43.4260652" lon="11.1790935"><ele>161.0</ele><time>2026-05-01T09:27:21.602Z</time></trkpt><trkpt lat="43.4260686" lon="11.1789948"><ele>161.0</ele><time>2026-05-01T09:27:23.589Z</time></trkpt><trkpt lat="43.4260233" lon="11.1788948"><ele>162.16666666666666</ele><time>2026-05-01T09:27:25.599Z</time></trkpt><trkpt lat="43.4259701" lon="11.1788278"><ele>163.33333333333331</ele><time>2026-05-01T09:27:27.584Z</time></trkpt><trkpt lat="43.4258938" lon="11.1788038"><ele>164.5</ele><time>2026-05-01T09:27:29.584Z</time></trkpt><trkpt lat="43.4258094" lon="11.1788403"><ele>165.66666666666666</ele><time>2026-05-01T09:27:31.6Z</time></trkpt><trkpt lat="43.4257243" lon="11.1788889"><ele>166.83333333333334</ele><time>2026-05-01T09:27:33.605Z</time></trkpt><trkpt lat="43.4256353" lon="11.1789176"><ele>168.0</ele><time>2026-05-01T09:27:35.586Z</time></trkpt><trkpt lat="43.4255456" lon="11.1788972"><ele>168.66666666666666</ele><time>2026-05-01T09:27:37.591Z</time></trkpt><trkpt lat="43.4254629" lon="11.1788682"><ele>169.33333333333334</ele><time>2026-05-01T09:27:39.591Z</time></trkpt><trkpt lat="43.425382" lon="11.1788526"><ele>170.0</ele><time>2026-05-01T09:27:41.581Z</time></trkpt><trkpt lat="43.4252993" lon="11.1788274"><ele>170.66666666666669</ele><time>2026-05-01T09:27:43.582Z</time></trkpt><trkpt lat="43.4252266" lon="11.1787998"><ele>171.33333333333334</ele><time>2026-05-01T09:27:45.577Z</time></trkpt><trkpt lat="43.4251521" lon="11.1787946"><ele>172.0</ele><time>2026-05-01T09:27:47.582Z</time></trkpt><trkpt lat="43.425075" lon="11.1787985"><ele>172.0</ele><time>2026-05-01T09:27:49.594Z</time></trkpt><trkpt lat="43.4249961" lon="11.1787953"><ele>172.0</ele><time>2026-05-01T09:27:51.601Z</time></trkpt><trkpt lat="43.4249105" lon="11.1787872"><ele>172.0</ele><time>2026-05-01T09:27:53.578Z</time></trkpt><trkpt lat="43.4248248" lon="11.1787968"><ele>172.0</ele><time>2026-05-01T09:27:55.599Z</time></trkpt><trkpt lat="43.424742" lon="11.1788135"><ele>172.0</ele><time>2026-05-01T09:27:57.594Z</time></trkpt><trkpt lat="43.4246573" lon="11.1788334"><ele>172.0</ele><time>2026-05-01T09:27:59.595Z</time></trkpt><trkpt lat="43.4245668" lon="11.1788504"><ele>173.33333333333334</ele><time>2026-05-01T09:28:01.591Z</time></trkpt><trkpt lat="43.4244694" lon="11.1788662"><ele>174.66666666666669</ele><time>2026-05-01T09:28:03.587Z</time></trkpt><trkpt lat="43.4243778" lon="11.1788884"><ele>176.0</ele><time>2026-05-01T09:28:05.582Z</time></trkpt><trkpt lat="43.4242975" lon="11.1789075"><ele>177.33333333333334</ele><time>2026-05-01T09:28:07.582Z</time></trkpt><trkpt lat="43.4242154" lon="11.1789326"><ele>178.66666666666666</ele><time>2026-05-01T09:28:09.577Z</time></trkpt><trkpt lat="43.4241349" lon="11.1789543"><ele>180.0</ele><time>2026-05-01T09:28:11.578Z</time></trkpt><trkpt lat="43.4240519" lon="11.1789764"><ele>180.0</ele><time>2026-05-01T09:28:13.584Z</time></trkpt><trkpt lat="43.4239698" lon="11.1789957"><ele>180.0</ele><time>2026-05-01T09:28:15.603Z</time></trkpt><trkpt lat="43.4238936" lon="11.1790207"><ele>180.0</ele><time>2026-05-01T09:28:17.595Z</time></trkpt><trkpt lat="43.4238152" lon="11.1790397"><ele>180.0</ele><time>2026-05-01T09:28:19.585Z</time></trkpt><trkpt lat="43.4237377" lon="11.1790625"><ele>180.0</ele><time>2026-05-01T09:28:21.582Z</time></trkpt><trkpt lat="43.4236562" lon="11.179079"><ele>180.0</ele><time>2026-05-01T09:28:23.584Z</time></trkpt><trkpt lat="43.4235764" lon="11.1791079"><ele>178.83333333333334</ele><time>2026-05-01T09:28:25.599Z</time></trkpt><trkpt lat="43.4234903" lon="11.1791275"><ele>177.66666666666666</ele><time>2026-05-01T09:28:27.575Z</time></trkpt><trkpt lat="43.4234065" lon="11.1791417"><ele>176.5</ele><time>2026-05-01T09:28:29.595Z</time></trkpt><trkpt lat="43.4233215" lon="11.1791648"><ele>175.33333333333331</ele><time>2026-05-01T09:28:31.584Z</time></trkpt><trkpt lat="43.4232369" lon="11.1791914"><ele>174.16666666666666</ele><time>2026-05-01T09:28:33.595Z</time></trkpt><trkpt lat="43.4231558" lon="11.1792136"><ele>173.0</ele><time>2026-05-01T09:28:35.587Z</time></trkpt><trkpt lat="43.4230739" lon="11.1792409"><ele>173.0</ele><time>2026-05-01T09:28:37.587Z</time></trkpt><trkpt lat="43.4229912" lon="11.1792651"><ele>173.0</ele><time>2026-05-01T09:28:39.594Z</time></trkpt><trkpt lat="43.4229043" lon="11.179275"><ele>173.0</ele><time>2026-05-01T09:28:41.603Z</time></trkpt><trkpt lat="43.4228235" lon="11.1792903"><ele>173.0</ele><time>2026-05-01T09:28:43.59Z</time></trkpt><trkpt lat="43.4227472" lon="11.1793167"><ele>173.0</ele><time>2026-05-01T09:28:45.591Z</time></trkpt><trkpt lat="43.4226661" lon="11.1793444"><ele>173.0</ele><time>2026-05-01T09:28:47.587Z</time></trkpt><trkpt lat="43.4225845" lon="11.1793678"><ele>173.5</ele><time>2026-05-01T09:28:49.582Z</time></trkpt><trkpt lat="43.4225081" lon="11.1793965"><ele>174.0</ele><time>2026-05-01T09:28:51.588Z</time></trkpt><trkpt lat="43.4224264" lon="11.1794195"><ele>174.5</ele><time>2026-05-01T09:28:53.583Z</time></trkpt><trkpt lat="43.422347" lon="11.179441"><ele>175.0</ele><time>2026-05-01T09:28:55.579Z</time></trkpt><trkpt lat="43.4222643" lon="11.1794597"><ele>175.5</ele><time>2026-05-01T09:28:57.575Z</time></trkpt><trkpt lat="43.4221805" lon="11.1794971"><ele>176.0</ele><time>2026-05-01T09:28:59.583Z</time></trkpt><trkpt lat="43.422097" lon="11.1795323"><ele>176.0</ele><time>2026-05-01T09:29:01.6Z</time></trkpt><trkpt lat="43.4220177" lon="11.1795594"><ele>176.0</ele><time>2026-05-01T09:29:03.591Z</time></trkpt><trkpt lat="43.4219412" lon="11.1795967"><ele>176.0</ele><time>2026-05-01T09:29:05.588Z</time></trkpt><trkpt lat="43.4218673" lon="11.1796284"><ele>176.0</ele><time>2026-05-01T09:29:07.604Z</time></trkpt><trkpt lat="43.4217917" lon="11.1796654"><ele>176.0</ele><time>2026-05-01T09:29:09.608Z</time></trkpt><trkpt lat="43.4217187" lon="11.1797123"><ele>176.0</ele><time>2026-05-01T09:29:11.583Z</time></trkpt><trkpt lat="43.4216394" lon="11.179754"><ele>176.0</ele><time>2026-05-01T09:29:13.612Z</time></trkpt><trkpt lat="43.4215565" lon="11.1797902"><ele>176.0</ele><time>2026-05-01T09:29:15.612Z</time></trkpt><trkpt lat="43.4214727" lon="11.1798002"><ele>176.0</ele><time>2026-05-01T09:29:17.576Z</time></trkpt><trkpt lat="43.4213915" lon="11.1797929"><ele>176.0</ele><time>2026-05-01T09:29:19.587Z</time></trkpt><trkpt lat="43.4213149" lon="11.1797964"><ele>176.0</ele><time>2026-05-01T09:29:21.586Z</time></trkpt><trkpt lat="43.4212491" lon="11.1798348"><ele>176.0</ele><time>2026-05-01T09:29:23.585Z</time></trkpt><trkpt lat="43.4212085" lon="11.1799153"><ele>175.4</ele><time>2026-05-01T09:29:25.587Z</time></trkpt><trkpt lat="43.4211998" lon="11.180023"><ele>174.8</ele><time>2026-05-01T09:29:27.587Z</time></trkpt><trkpt lat="43.4212446" lon="11.1801291"><ele>174.20000000000002</ele><time>2026-05-01T09:29:29.596Z</time></trkpt><trkpt lat="43.4213164" lon="11.1802187"><ele>173.60000000000002</ele><time>2026-05-01T09:29:31.576Z</time></trkpt><trkpt lat="43.4213822" lon="11.1803272"><ele>173.0</ele><time>2026-05-01T09:29:33.587Z</time></trkpt><trkpt lat="43.4214493" lon="11.1804676"><ele>173.0</ele><time>2026-05-01T09:29:35.604Z</time></trkpt><trkpt lat="43.4214972" lon="11.1806144"><ele>173.0</ele><time>2026-05-01T09:29:37.597Z</time></trkpt><trkpt lat="43.4215249" lon="11.1807182"><ele>173.0</ele><time>2026-05-01T09:29:39.585Z</time></trkpt><trkpt lat="43.4215483" lon="11.1808048"><ele>173.0</ele><time>2026-05-01T09:29:42.578Z</time></trkpt><trkpt lat="43.4216054" lon="11.1807226"><ele>173.0</ele><time>2026-05-01T09:29:48.598Z</time></trkpt><trkpt lat="43.4216803" lon="11.1806654"><ele>173.0</ele><time>2026-05-01T09:29:51.583Z</time></trkpt><trkpt lat="43.4217545" lon="11.1806184"><ele>173.0</ele><time>2026-05-01T09:29:54.585Z</time></trkpt><trkpt lat="43.4218117" lon="11.1805725"><ele>173.0</ele><time>2026-05-01T09:29:57.589Z</time></trkpt><trkpt lat="43.4218785" lon="11.1805167"><ele>173.0</ele><time>2026-05-01T09:30:00.593Z</time></trkpt><trkpt lat="43.4219525" lon="11.1804509"><ele>173.0</ele><time>2026-05-01T09:30:03.581Z</time></trkpt><trkpt lat="43.4220099" lon="11.180397"><ele>173.0</ele><time>2026-05-01T09:30:05.597Z</time></trkpt><trkpt lat="43.4220816" lon="11.1803569"><ele>173.0</ele><time>2026-05-01T09:30:08.586Z</time></trkpt><trkpt lat="43.4221428" lon="11.1804359"><ele>173.0</ele><time>2026-05-01T09:30:11.581Z</time></trkpt><trkpt lat="43.4221416" lon="11.1805322"><ele>173.0</ele><time>2026-05-01T09:30:13.597Z</time></trkpt><trkpt lat="43.4221437" lon="11.1806683"><ele>173.0</ele><time>2026-05-01T09:30:15.58Z</time></trkpt><trkpt lat="43.4221619" lon="11.1807757"><ele>173.0</ele><time>2026-05-01T09:30:17.586Z</time></trkpt><trkpt lat="43.4221925" lon="11.180884"><ele>173.0</ele><time>2026-05-01T09:30:20.585Z</time></trkpt><trkpt lat="43.4222018" lon="11.1809777"><ele>173.0</ele><time>2026-05-01T09:30:22.586Z</time></trkpt><trkpt lat="43.4222036" lon="11.1810665"><ele>170.0</ele><time>2026-05-01T09:30:24.601Z</time></trkpt><trkpt lat="43.4221843" lon="11.1811781"><ele>170.0</ele><time>2026-05-01T09:30:27.579Z</time></trkpt><trkpt lat="43.4221267" lon="11.1812245"><ele>174.0</ele><time>2026-05-01T09:30:30.588Z</time></trkpt><trkpt lat="43.4220566" lon="11.1812588"><ele>174.0</ele><time>2026-05-01T09:30:34.575Z</time></trkpt></trkseg></trk></gpx>